<?xml version="1.0" encoding="UTF-8" standalone="no" ?>
<gpx xmlns="http://www.topografix.com/GPX/1/1" xmlns:xsi="http://www.w3.org/2001/XMLSchema-instance" xsi:schemaLocation="http://www.topografix.com/GPX/1/1 http://www.topografix.com/GPX/1/1/gpx.xsd" version="1.1" creator="VisuGPX - https://www.visugpx.com">
  <metadata>
    <name>VTT du mercredi 25 avril 2018 (chute JF)</name>
    <desc><![CDATA[Le beau temps et un parcours intéressant.
Je pense qu'on peut exploiter des lignes de coupes au km 4...Malheureusement je suis tombé à 1 km de l'arrivée et j'ai une belle entorse à la cheville.
[b]PS tardif : en fait j'ai une rupture du tendon d'Achille, opération, 2 mois de plâtre, rééducation etc[/b]
]]></desc>
  </metadata>
  <trk>
    <name><![CDATA[2018-04-25 09:35]]></name>
    <desc><![CDATA[<p>Heure de départ: 04/25/2018 09:35<br/>Heure d'arrivée: 04/25/2018 12:05<br/>Distance: 23,7 km (02:29)<br/>Temps déplacement: 02:01<br/>Vitesse moyenne: 9,49 km/h<br/>Vitesse moyenne mouv.: 11,7 km/h<br/>Vitesse Max.: 94,02 km/h<br/>Altitude minimale: 212 m<br/>Altitude maximale: 269 m<br/>Vitesse de montée: 208,5 m/h<br/>Vitesse de descente: -332,6 m/h<br/>Gain d'altitude: 228 m<br/>Perte d'altitude: -200 m<br/>Temps de montée: 01:05<br/>Temps de descente: 00:36<br/></p><hr align="center" width="480" style="height: 2px; width: 517px"/>]]></desc>
    <trkseg>
      <trkpt lat="47.68624" lon="6.04554">
        <ele>214.8</ele>
        <time>2018-04-25T07:35:35Z</time>
      </trkpt>
      <trkpt lat="47.68632" lon="6.04547">
        <ele>216.99</ele>
        <time>2018-04-25T07:35:37Z</time>
      </trkpt>
      <trkpt lat="47.68627" lon="6.04548">
        <ele>225.13</ele>
        <time>2018-04-25T07:35:45Z</time>
      </trkpt>
      <trkpt lat="47.68629" lon="6.04542">
        <ele>235.09</ele>
        <time>2018-04-25T07:36:02Z</time>
      </trkpt>
      <trkpt lat="47.68633" lon="6.04536">
        <ele>235.73</ele>
        <time>2018-04-25T07:36:05Z</time>
      </trkpt>
      <trkpt lat="47.68638" lon="6.04538">
        <ele>235.78</ele>
        <time>2018-04-25T07:36:08Z</time>
      </trkpt>
      <trkpt lat="47.68642" lon="6.04541">
        <ele>235.75</ele>
        <time>2018-04-25T07:36:10Z</time>
      </trkpt>
      <trkpt lat="47.68646" lon="6.04546">
        <ele>235.68</ele>
        <time>2018-04-25T07:36:13Z</time>
      </trkpt>
      <trkpt lat="47.68651" lon="6.04551">
        <ele>235.57</ele>
        <time>2018-04-25T07:36:16Z</time>
      </trkpt>
      <trkpt lat="47.68655" lon="6.04557">
        <ele>235.44</ele>
        <time>2018-04-25T07:36:19Z</time>
      </trkpt>
      <trkpt lat="47.68659" lon="6.04561">
        <ele>235.34</ele>
        <time>2018-04-25T07:36:21Z</time>
      </trkpt>
      <trkpt lat="47.68662" lon="6.04566">
        <ele>235.23</ele>
        <time>2018-04-25T07:36:23Z</time>
      </trkpt>
      <trkpt lat="47.68665" lon="6.04572">
        <ele>235.12</ele>
        <time>2018-04-25T07:36:25Z</time>
      </trkpt>
      <trkpt lat="47.68669" lon="6.04581">
        <ele>235.02</ele>
        <time>2018-04-25T07:36:27Z</time>
      </trkpt>
      <trkpt lat="47.68672" lon="6.0459">
        <ele>234.91</ele>
        <time>2018-04-25T07:36:29Z</time>
      </trkpt>
      <trkpt lat="47.68675" lon="6.04598">
        <ele>234.82</ele>
        <time>2018-04-25T07:36:31Z</time>
      </trkpt>
      <trkpt lat="47.68678" lon="6.04606">
        <ele>234.72</ele>
        <time>2018-04-25T07:36:33Z</time>
      </trkpt>
      <trkpt lat="47.68681" lon="6.04614">
        <ele>234.62</ele>
        <time>2018-04-25T07:36:35Z</time>
      </trkpt>
      <trkpt lat="47.68686" lon="6.04623">
        <ele>234.52</ele>
        <time>2018-04-25T07:36:37Z</time>
      </trkpt>
      <trkpt lat="47.6869" lon="6.04632">
        <ele>234.42</ele>
        <time>2018-04-25T07:36:39Z</time>
      </trkpt>
      <trkpt lat="47.68694" lon="6.0464">
        <ele>234.33</ele>
        <time>2018-04-25T07:36:41Z</time>
      </trkpt>
      <trkpt lat="47.68699" lon="6.04648">
        <ele>234.25</ele>
        <time>2018-04-25T07:36:43Z</time>
      </trkpt>
      <trkpt lat="47.68704" lon="6.04656">
        <ele>234.17</ele>
        <time>2018-04-25T07:36:45Z</time>
      </trkpt>
      <trkpt lat="47.68709" lon="6.04664">
        <ele>234.09</ele>
        <time>2018-04-25T07:36:47Z</time>
      </trkpt>
      <trkpt lat="47.68712" lon="6.04672">
        <ele>234.02</ele>
        <time>2018-04-25T07:36:49Z</time>
      </trkpt>
      <trkpt lat="47.68716" lon="6.0468">
        <ele>233.95</ele>
        <time>2018-04-25T07:36:51Z</time>
      </trkpt>
      <trkpt lat="47.6872" lon="6.04689">
        <ele>233.89</ele>
        <time>2018-04-25T07:36:53Z</time>
      </trkpt>
      <trkpt lat="47.68724" lon="6.04697">
        <ele>233.82</ele>
        <time>2018-04-25T07:36:55Z</time>
      </trkpt>
      <trkpt lat="47.68727" lon="6.04706">
        <ele>233.75</ele>
        <time>2018-04-25T07:36:57Z</time>
      </trkpt>
      <trkpt lat="47.68731" lon="6.04716">
        <ele>233.69</ele>
        <time>2018-04-25T07:36:59Z</time>
      </trkpt>
      <trkpt lat="47.68735" lon="6.04726">
        <ele>233.63</ele>
        <time>2018-04-25T07:37:01Z</time>
      </trkpt>
      <trkpt lat="47.68737" lon="6.04735">
        <ele>233.58</ele>
        <time>2018-04-25T07:37:03Z</time>
      </trkpt>
      <trkpt lat="47.6874" lon="6.04744">
        <ele>233.53</ele>
        <time>2018-04-25T07:37:05Z</time>
      </trkpt>
      <trkpt lat="47.68743" lon="6.04753">
        <ele>233.49</ele>
        <time>2018-04-25T07:37:07Z</time>
      </trkpt>
      <trkpt lat="47.68746" lon="6.04762">
        <ele>233.45</ele>
        <time>2018-04-25T07:37:09Z</time>
      </trkpt>
      <trkpt lat="47.6875" lon="6.04774">
        <ele>233.31</ele>
        <time>2018-04-25T07:37:11Z</time>
      </trkpt>
      <trkpt lat="47.68752" lon="6.04787">
        <ele>233.03</ele>
        <time>2018-04-25T07:37:13Z</time>
      </trkpt>
      <trkpt lat="47.68753" lon="6.04794">
        <ele>232.9</ele>
        <time>2018-04-25T07:37:14Z</time>
      </trkpt>
      <trkpt lat="47.68755" lon="6.04801">
        <ele>232.79</ele>
        <time>2018-04-25T07:37:15Z</time>
      </trkpt>
      <trkpt lat="47.68757" lon="6.04809">
        <ele>232.69</ele>
        <time>2018-04-25T07:37:16Z</time>
      </trkpt>
      <trkpt lat="47.68759" lon="6.04816">
        <ele>232.61</ele>
        <time>2018-04-25T07:37:17Z</time>
      </trkpt>
      <trkpt lat="47.68761" lon="6.04824">
        <ele>232.54</ele>
        <time>2018-04-25T07:37:18Z</time>
      </trkpt>
      <trkpt lat="47.68763" lon="6.04831">
        <ele>232.48</ele>
        <time>2018-04-25T07:37:19Z</time>
      </trkpt>
      <trkpt lat="47.68765" lon="6.04838">
        <ele>232.42</ele>
        <time>2018-04-25T07:37:20Z</time>
      </trkpt>
      <trkpt lat="47.68767" lon="6.04844">
        <ele>232.37</ele>
        <time>2018-04-25T07:37:21Z</time>
      </trkpt>
      <trkpt lat="47.6877" lon="6.04855">
        <ele>232.31</ele>
        <time>2018-04-25T07:37:23Z</time>
      </trkpt>
      <trkpt lat="47.68772" lon="6.04866">
        <ele>232.26</ele>
        <time>2018-04-25T07:37:25Z</time>
      </trkpt>
      <trkpt lat="47.68776" lon="6.04878">
        <ele>232.18</ele>
        <time>2018-04-25T07:37:27Z</time>
      </trkpt>
      <trkpt lat="47.6878" lon="6.04889">
        <ele>232.14</ele>
        <time>2018-04-25T07:37:29Z</time>
      </trkpt>
      <trkpt lat="47.68782" lon="6.04899">
        <ele>232.13</ele>
        <time>2018-04-25T07:37:31Z</time>
      </trkpt>
      <trkpt lat="47.68785" lon="6.04908">
        <ele>232.12</ele>
        <time>2018-04-25T07:37:33Z</time>
      </trkpt>
      <trkpt lat="47.68787" lon="6.04918">
        <ele>232.11</ele>
        <time>2018-04-25T07:37:34Z</time>
      </trkpt>
      <trkpt lat="47.6879" lon="6.04927">
        <ele>232.1</ele>
        <time>2018-04-25T07:37:36Z</time>
      </trkpt>
      <trkpt lat="47.68792" lon="6.04936">
        <ele>232.09</ele>
        <time>2018-04-25T07:37:38Z</time>
      </trkpt>
      <trkpt lat="47.68793" lon="6.04946">
        <ele>232.08</ele>
        <time>2018-04-25T07:37:40Z</time>
      </trkpt>
      <trkpt lat="47.68788" lon="6.04952">
        <ele>232.06</ele>
        <time>2018-04-25T07:37:42Z</time>
      </trkpt>
      <trkpt lat="47.68784" lon="6.04958">
        <ele>232.05</ele>
        <time>2018-04-25T07:37:44Z</time>
      </trkpt>
      <trkpt lat="47.6878" lon="6.04963">
        <ele>232.03</ele>
        <time>2018-04-25T07:37:46Z</time>
      </trkpt>
      <trkpt lat="47.68776" lon="6.04968">
        <ele>232.02</ele>
        <time>2018-04-25T07:37:48Z</time>
      </trkpt>
      <trkpt lat="47.68771" lon="6.04973">
        <ele>232.01</ele>
        <time>2018-04-25T07:37:50Z</time>
      </trkpt>
      <trkpt lat="47.68766" lon="6.04979">
        <ele>232.01</ele>
        <time>2018-04-25T07:37:52Z</time>
      </trkpt>
      <trkpt lat="47.68762" lon="6.04985">
        <ele>232</ele>
        <time>2018-04-25T07:37:54Z</time>
      </trkpt>
      <trkpt lat="47.68758" lon="6.04992">
        <ele>232</ele>
        <time>2018-04-25T07:37:56Z</time>
      </trkpt>
      <trkpt lat="47.68754" lon="6.04999">
        <ele>232.01</ele>
        <time>2018-04-25T07:37:58Z</time>
      </trkpt>
      <trkpt lat="47.68748" lon="6.05007">
        <ele>232.01</ele>
        <time>2018-04-25T07:38:00Z</time>
      </trkpt>
      <trkpt lat="47.68744" lon="6.05012">
        <ele>232.03</ele>
        <time>2018-04-25T07:38:02Z</time>
      </trkpt>
      <trkpt lat="47.68738" lon="6.05019">
        <ele>232.05</ele>
        <time>2018-04-25T07:38:04Z</time>
      </trkpt>
      <trkpt lat="47.68735" lon="6.05025">
        <ele>232.08</ele>
        <time>2018-04-25T07:38:06Z</time>
      </trkpt>
      <trkpt lat="47.68731" lon="6.0503">
        <ele>232.11</ele>
        <time>2018-04-25T07:38:08Z</time>
      </trkpt>
      <trkpt lat="47.68725" lon="6.05038">
        <ele>232.14</ele>
        <time>2018-04-25T07:38:10Z</time>
      </trkpt>
      <trkpt lat="47.68721" lon="6.05044">
        <ele>232.19</ele>
        <time>2018-04-25T07:38:12Z</time>
      </trkpt>
      <trkpt lat="47.68716" lon="6.0505">
        <ele>232.24</ele>
        <time>2018-04-25T07:38:14Z</time>
      </trkpt>
      <trkpt lat="47.68713" lon="6.05054">
        <ele>232.29</ele>
        <time>2018-04-25T07:38:16Z</time>
      </trkpt>
      <trkpt lat="47.68709" lon="6.05059">
        <ele>232.36</ele>
        <time>2018-04-25T07:38:18Z</time>
      </trkpt>
      <trkpt lat="47.68706" lon="6.05065">
        <ele>232.42</ele>
        <time>2018-04-25T07:38:20Z</time>
      </trkpt>
      <trkpt lat="47.68702" lon="6.0507">
        <ele>232.49</ele>
        <time>2018-04-25T07:38:22Z</time>
      </trkpt>
      <trkpt lat="47.68698" lon="6.05076">
        <ele>232.55</ele>
        <time>2018-04-25T07:38:24Z</time>
      </trkpt>
      <trkpt lat="47.68693" lon="6.05081">
        <ele>232.62</ele>
        <time>2018-04-25T07:38:26Z</time>
      </trkpt>
      <trkpt lat="47.68688" lon="6.05086">
        <ele>232.69</ele>
        <time>2018-04-25T07:38:28Z</time>
      </trkpt>
      <trkpt lat="47.68683" lon="6.05092">
        <ele>232.75</ele>
        <time>2018-04-25T07:38:30Z</time>
      </trkpt>
      <trkpt lat="47.68678" lon="6.05098">
        <ele>232.82</ele>
        <time>2018-04-25T07:38:32Z</time>
      </trkpt>
      <trkpt lat="47.68672" lon="6.05104">
        <ele>232.88</ele>
        <time>2018-04-25T07:38:34Z</time>
      </trkpt>
      <trkpt lat="47.68667" lon="6.05108">
        <ele>232.94</ele>
        <time>2018-04-25T07:38:36Z</time>
      </trkpt>
      <trkpt lat="47.68661" lon="6.05113">
        <ele>233</ele>
        <time>2018-04-25T07:38:38Z</time>
      </trkpt>
      <trkpt lat="47.68655" lon="6.05119">
        <ele>233.06</ele>
        <time>2018-04-25T07:38:40Z</time>
      </trkpt>
      <trkpt lat="47.68649" lon="6.05124">
        <ele>233.12</ele>
        <time>2018-04-25T07:38:42Z</time>
      </trkpt>
      <trkpt lat="47.68642" lon="6.05129">
        <ele>233.18</ele>
        <time>2018-04-25T07:38:44Z</time>
      </trkpt>
      <trkpt lat="47.68636" lon="6.05134">
        <ele>233.24</ele>
        <time>2018-04-25T07:38:46Z</time>
      </trkpt>
      <trkpt lat="47.6863" lon="6.0514">
        <ele>233.3</ele>
        <time>2018-04-25T07:38:48Z</time>
      </trkpt>
      <trkpt lat="47.68625" lon="6.05146">
        <ele>233.35</ele>
        <time>2018-04-25T07:38:50Z</time>
      </trkpt>
      <trkpt lat="47.68619" lon="6.0515">
        <ele>233.41</ele>
        <time>2018-04-25T07:38:52Z</time>
      </trkpt>
      <trkpt lat="47.68612" lon="6.05155">
        <ele>233.47</ele>
        <time>2018-04-25T07:38:54Z</time>
      </trkpt>
      <trkpt lat="47.68606" lon="6.05159">
        <ele>233.52</ele>
        <time>2018-04-25T07:38:56Z</time>
      </trkpt>
      <trkpt lat="47.686" lon="6.05165">
        <ele>233.58</ele>
        <time>2018-04-25T07:38:58Z</time>
      </trkpt>
      <trkpt lat="47.68595" lon="6.05169">
        <ele>233.65</ele>
        <time>2018-04-25T07:39:00Z</time>
      </trkpt>
      <trkpt lat="47.6859" lon="6.05176">
        <ele>233.72</ele>
        <time>2018-04-25T07:39:02Z</time>
      </trkpt>
      <trkpt lat="47.68585" lon="6.05182">
        <ele>233.79</ele>
        <time>2018-04-25T07:39:04Z</time>
      </trkpt>
      <trkpt lat="47.68579" lon="6.05186">
        <ele>233.89</ele>
        <time>2018-04-25T07:39:07Z</time>
      </trkpt>
      <trkpt lat="47.68575" lon="6.05188">
        <ele>233.97</ele>
        <time>2018-04-25T07:39:09Z</time>
      </trkpt>
      <trkpt lat="47.68569" lon="6.05191">
        <ele>234.08</ele>
        <time>2018-04-25T07:39:12Z</time>
      </trkpt>
      <trkpt lat="47.68563" lon="6.05195">
        <ele>234.2</ele>
        <time>2018-04-25T07:39:15Z</time>
      </trkpt>
      <trkpt lat="47.68559" lon="6.05199">
        <ele>234.28</ele>
        <time>2018-04-25T07:39:17Z</time>
      </trkpt>
      <trkpt lat="47.68555" lon="6.05203">
        <ele>234.36</ele>
        <time>2018-04-25T07:39:19Z</time>
      </trkpt>
      <trkpt lat="47.6855" lon="6.05207">
        <ele>234.44</ele>
        <time>2018-04-25T07:39:21Z</time>
      </trkpt>
      <trkpt lat="47.68546" lon="6.05211">
        <ele>234.51</ele>
        <time>2018-04-25T07:39:23Z</time>
      </trkpt>
      <trkpt lat="47.68542" lon="6.05216">
        <ele>234.59</ele>
        <time>2018-04-25T07:39:25Z</time>
      </trkpt>
      <trkpt lat="47.68538" lon="6.05222">
        <ele>234.66</ele>
        <time>2018-04-25T07:39:27Z</time>
      </trkpt>
      <trkpt lat="47.68533" lon="6.05226">
        <ele>234.73</ele>
        <time>2018-04-25T07:39:29Z</time>
      </trkpt>
      <trkpt lat="47.68528" lon="6.05226">
        <ele>234.8</ele>
        <time>2018-04-25T07:39:31Z</time>
      </trkpt>
      <trkpt lat="47.68523" lon="6.05225">
        <ele>234.87</ele>
        <time>2018-04-25T07:39:33Z</time>
      </trkpt>
      <trkpt lat="47.6852" lon="6.05231">
        <ele>234.97</ele>
        <time>2018-04-25T07:39:36Z</time>
      </trkpt>
      <trkpt lat="47.68515" lon="6.05238">
        <ele>235.07</ele>
        <time>2018-04-25T07:39:39Z</time>
      </trkpt>
      <trkpt lat="47.6851" lon="6.05242">
        <ele>235.13</ele>
        <time>2018-04-25T07:39:41Z</time>
      </trkpt>
      <trkpt lat="47.68505" lon="6.05246">
        <ele>235.2</ele>
        <time>2018-04-25T07:39:43Z</time>
      </trkpt>
      <trkpt lat="47.685" lon="6.05249">
        <ele>235.27</ele>
        <time>2018-04-25T07:39:45Z</time>
      </trkpt>
      <trkpt lat="47.68495" lon="6.05253">
        <ele>235.33</ele>
        <time>2018-04-25T07:39:47Z</time>
      </trkpt>
      <trkpt lat="47.6849" lon="6.05257">
        <ele>235.4</ele>
        <time>2018-04-25T07:39:49Z</time>
      </trkpt>
      <trkpt lat="47.68485" lon="6.05261">
        <ele>235.46</ele>
        <time>2018-04-25T07:39:51Z</time>
      </trkpt>
      <trkpt lat="47.6848" lon="6.05265">
        <ele>235.53</ele>
        <time>2018-04-25T07:39:53Z</time>
      </trkpt>
      <trkpt lat="47.68475" lon="6.05268">
        <ele>235.59</ele>
        <time>2018-04-25T07:39:55Z</time>
      </trkpt>
      <trkpt lat="47.6847" lon="6.05272">
        <ele>235.65</ele>
        <time>2018-04-25T07:39:57Z</time>
      </trkpt>
      <trkpt lat="47.68465" lon="6.05275">
        <ele>235.72</ele>
        <time>2018-04-25T07:39:59Z</time>
      </trkpt>
      <trkpt lat="47.6846" lon="6.05278">
        <ele>235.78</ele>
        <time>2018-04-25T07:40:01Z</time>
      </trkpt>
      <trkpt lat="47.68455" lon="6.05281">
        <ele>235.84</ele>
        <time>2018-04-25T07:40:03Z</time>
      </trkpt>
      <trkpt lat="47.68449" lon="6.05284">
        <ele>235.9</ele>
        <time>2018-04-25T07:40:05Z</time>
      </trkpt>
      <trkpt lat="47.68443" lon="6.05287">
        <ele>235.96</ele>
        <time>2018-04-25T07:40:07Z</time>
      </trkpt>
      <trkpt lat="47.68438" lon="6.0529">
        <ele>236.03</ele>
        <time>2018-04-25T07:40:09Z</time>
      </trkpt>
      <trkpt lat="47.68432" lon="6.05292">
        <ele>236.1</ele>
        <time>2018-04-25T07:40:11Z</time>
      </trkpt>
      <trkpt lat="47.68427" lon="6.05295">
        <ele>236.17</ele>
        <time>2018-04-25T07:40:13Z</time>
      </trkpt>
      <trkpt lat="47.68422" lon="6.05297">
        <ele>236.24</ele>
        <time>2018-04-25T07:40:15Z</time>
      </trkpt>
      <trkpt lat="47.68417" lon="6.05301">
        <ele>236.32</ele>
        <time>2018-04-25T07:40:17Z</time>
      </trkpt>
      <trkpt lat="47.68412" lon="6.05303">
        <ele>236.39</ele>
        <time>2018-04-25T07:40:19Z</time>
      </trkpt>
      <trkpt lat="47.68406" lon="6.05308">
        <ele>236.51</ele>
        <time>2018-04-25T07:40:22Z</time>
      </trkpt>
      <trkpt lat="47.68402" lon="6.05312">
        <ele>236.6</ele>
        <time>2018-04-25T07:40:24Z</time>
      </trkpt>
      <trkpt lat="47.68396" lon="6.05312">
        <ele>236.73</ele>
        <time>2018-04-25T07:40:27Z</time>
      </trkpt>
      <trkpt lat="47.68391" lon="6.05315">
        <ele>236.85</ele>
        <time>2018-04-25T07:40:30Z</time>
      </trkpt>
      <trkpt lat="47.68384" lon="6.05318">
        <ele>236.98</ele>
        <time>2018-04-25T07:40:33Z</time>
      </trkpt>
      <trkpt lat="47.68378" lon="6.05321">
        <ele>237.1</ele>
        <time>2018-04-25T07:40:36Z</time>
      </trkpt>
      <trkpt lat="47.68373" lon="6.05323">
        <ele>237.23</ele>
        <time>2018-04-25T07:40:39Z</time>
      </trkpt>
      <trkpt lat="47.68368" lon="6.05324">
        <ele>237.35</ele>
        <time>2018-04-25T07:40:42Z</time>
      </trkpt>
      <trkpt lat="47.68362" lon="6.05325">
        <ele>237.52</ele>
        <time>2018-04-25T07:40:46Z</time>
      </trkpt>
      <trkpt lat="47.68357" lon="6.05326">
        <ele>237.69</ele>
        <time>2018-04-25T07:40:50Z</time>
      </trkpt>
      <trkpt lat="47.68351" lon="6.05329">
        <ele>237.91</ele>
        <time>2018-04-25T07:40:54Z</time>
      </trkpt>
      <trkpt lat="47.68347" lon="6.05329">
        <ele>238.06</ele>
        <time>2018-04-25T07:40:57Z</time>
      </trkpt>
      <trkpt lat="47.68341" lon="6.0533">
        <ele>238.22</ele>
        <time>2018-04-25T07:41:00Z</time>
      </trkpt>
      <trkpt lat="47.68335" lon="6.05331">
        <ele>238.38</ele>
        <time>2018-04-25T07:41:03Z</time>
      </trkpt>
      <trkpt lat="47.68329" lon="6.05333">
        <ele>238.53</ele>
        <time>2018-04-25T07:41:06Z</time>
      </trkpt>
      <trkpt lat="47.68323" lon="6.05333">
        <ele>238.68</ele>
        <time>2018-04-25T07:41:09Z</time>
      </trkpt>
      <trkpt lat="47.68317" lon="6.05333">
        <ele>238.84</ele>
        <time>2018-04-25T07:41:12Z</time>
      </trkpt>
      <trkpt lat="47.68311" lon="6.05333">
        <ele>238.98</ele>
        <time>2018-04-25T07:41:15Z</time>
      </trkpt>
      <trkpt lat="47.68305" lon="6.05334">
        <ele>239.18</ele>
        <time>2018-04-25T07:41:19Z</time>
      </trkpt>
      <trkpt lat="47.683" lon="6.05334">
        <ele>239.32</ele>
        <time>2018-04-25T07:41:22Z</time>
      </trkpt>
      <trkpt lat="47.68295" lon="6.05334">
        <ele>239.42</ele>
        <time>2018-04-25T07:41:24Z</time>
      </trkpt>
      <trkpt lat="47.68288" lon="6.05337">
        <ele>239.52</ele>
        <time>2018-04-25T07:41:26Z</time>
      </trkpt>
      <trkpt lat="47.68284" lon="6.05342">
        <ele>239.91</ele>
        <time>2018-04-25T07:41:27Z</time>
      </trkpt>
      <trkpt lat="47.68277" lon="6.05349">
        <ele>240.74</ele>
        <time>2018-04-25T07:41:29Z</time>
      </trkpt>
      <trkpt lat="47.68271" lon="6.05358">
        <ele>241.36</ele>
        <time>2018-04-25T07:41:31Z</time>
      </trkpt>
      <trkpt lat="47.68267" lon="6.05364">
        <ele>241.62</ele>
        <time>2018-04-25T07:41:32Z</time>
      </trkpt>
      <trkpt lat="47.68263" lon="6.05371">
        <ele>241.85</ele>
        <time>2018-04-25T07:41:33Z</time>
      </trkpt>
      <trkpt lat="47.68259" lon="6.05377">
        <ele>242.06</ele>
        <time>2018-04-25T07:41:34Z</time>
      </trkpt>
      <trkpt lat="47.68255" lon="6.05383">
        <ele>242.25</ele>
        <time>2018-04-25T07:41:35Z</time>
      </trkpt>
      <trkpt lat="47.68252" lon="6.05389">
        <ele>242.43</ele>
        <time>2018-04-25T07:41:36Z</time>
      </trkpt>
      <trkpt lat="47.68249" lon="6.05395">
        <ele>242.58</ele>
        <time>2018-04-25T07:41:37Z</time>
      </trkpt>
      <trkpt lat="47.68246" lon="6.05401">
        <ele>242.71</ele>
        <time>2018-04-25T07:41:38Z</time>
      </trkpt>
      <trkpt lat="47.68242" lon="6.05407">
        <ele>242.82</ele>
        <time>2018-04-25T07:41:39Z</time>
      </trkpt>
      <trkpt lat="47.68237" lon="6.05412">
        <ele>242.92</ele>
        <time>2018-04-25T07:41:40Z</time>
      </trkpt>
      <trkpt lat="47.68233" lon="6.05416">
        <ele>243</ele>
        <time>2018-04-25T07:41:41Z</time>
      </trkpt>
      <trkpt lat="47.68227" lon="6.0542">
        <ele>243.08</ele>
        <time>2018-04-25T07:41:42Z</time>
      </trkpt>
      <trkpt lat="47.68222" lon="6.05422">
        <ele>243.13</ele>
        <time>2018-04-25T07:41:43Z</time>
      </trkpt>
      <trkpt lat="47.68216" lon="6.05423">
        <ele>243.17</ele>
        <time>2018-04-25T07:41:44Z</time>
      </trkpt>
      <trkpt lat="47.68211" lon="6.05424">
        <ele>243.19</ele>
        <time>2018-04-25T07:41:45Z</time>
      </trkpt>
      <trkpt lat="47.68205" lon="6.05423">
        <ele>243.2</ele>
        <time>2018-04-25T07:41:46Z</time>
      </trkpt>
      <trkpt lat="47.682" lon="6.05421">
        <ele>243.21</ele>
        <time>2018-04-25T07:41:47Z</time>
      </trkpt>
      <trkpt lat="47.68195" lon="6.05418">
        <ele>243.2</ele>
        <time>2018-04-25T07:41:48Z</time>
      </trkpt>
      <trkpt lat="47.6819" lon="6.05416">
        <ele>243.2</ele>
        <time>2018-04-25T07:41:49Z</time>
      </trkpt>
      <trkpt lat="47.68185" lon="6.05415">
        <ele>243.19</ele>
        <time>2018-04-25T07:41:50Z</time>
      </trkpt>
      <trkpt lat="47.68179" lon="6.05415">
        <ele>243.18</ele>
        <time>2018-04-25T07:41:51Z</time>
      </trkpt>
      <trkpt lat="47.68173" lon="6.05417">
        <ele>243.17</ele>
        <time>2018-04-25T07:41:53Z</time>
      </trkpt>
      <trkpt lat="47.68168" lon="6.05427">
        <ele>243.17</ele>
        <time>2018-04-25T07:41:55Z</time>
      </trkpt>
      <trkpt lat="47.68166" lon="6.05434">
        <ele>243.16</ele>
        <time>2018-04-25T07:41:57Z</time>
      </trkpt>
      <trkpt lat="47.68164" lon="6.05443">
        <ele>243.13</ele>
        <time>2018-04-25T07:41:59Z</time>
      </trkpt>
      <trkpt lat="47.68163" lon="6.05449">
        <ele>243.09</ele>
        <time>2018-04-25T07:42:00Z</time>
      </trkpt>
      <trkpt lat="47.68161" lon="6.05456">
        <ele>243.04</ele>
        <time>2018-04-25T07:42:01Z</time>
      </trkpt>
      <trkpt lat="47.6816" lon="6.05465">
        <ele>243.03</ele>
        <time>2018-04-25T07:42:02Z</time>
      </trkpt>
      <trkpt lat="47.68158" lon="6.05476">
        <ele>243.02</ele>
        <time>2018-04-25T07:42:03Z</time>
      </trkpt>
      <trkpt lat="47.68158" lon="6.05483">
        <ele>243.01</ele>
        <time>2018-04-25T07:42:04Z</time>
      </trkpt>
      <trkpt lat="47.68158" lon="6.05492">
        <ele>242.99</ele>
        <time>2018-04-25T07:42:06Z</time>
      </trkpt>
      <trkpt lat="47.68156" lon="6.05498">
        <ele>242.98</ele>
        <time>2018-04-25T07:42:07Z</time>
      </trkpt>
      <trkpt lat="47.68155" lon="6.05508">
        <ele>242.98</ele>
        <time>2018-04-25T07:42:08Z</time>
      </trkpt>
      <trkpt lat="47.68153" lon="6.0552">
        <ele>242.92</ele>
        <time>2018-04-25T07:42:09Z</time>
      </trkpt>
      <trkpt lat="47.68151" lon="6.05529">
        <ele>242.85</ele>
        <time>2018-04-25T07:42:10Z</time>
      </trkpt>
      <trkpt lat="47.68148" lon="6.0554">
        <ele>242.78</ele>
        <time>2018-04-25T07:42:11Z</time>
      </trkpt>
      <trkpt lat="47.68145" lon="6.0555">
        <ele>242.76</ele>
        <time>2018-04-25T07:42:12Z</time>
      </trkpt>
      <trkpt lat="47.68143" lon="6.05556">
        <ele>242.74</ele>
        <time>2018-04-25T07:42:13Z</time>
      </trkpt>
      <trkpt lat="47.68137" lon="6.05566">
        <ele>242.69</ele>
        <time>2018-04-25T07:42:15Z</time>
      </trkpt>
      <trkpt lat="47.68132" lon="6.05572">
        <ele>242.64</ele>
        <time>2018-04-25T07:42:16Z</time>
      </trkpt>
      <trkpt lat="47.68127" lon="6.05579">
        <ele>242.59</ele>
        <time>2018-04-25T07:42:17Z</time>
      </trkpt>
      <trkpt lat="47.68119" lon="6.0559">
        <ele>242.56</ele>
        <time>2018-04-25T07:42:18Z</time>
      </trkpt>
      <trkpt lat="47.68114" lon="6.05597">
        <ele>242.53</ele>
        <time>2018-04-25T07:42:19Z</time>
      </trkpt>
      <trkpt lat="47.68109" lon="6.05602">
        <ele>242.51</ele>
        <time>2018-04-25T07:42:20Z</time>
      </trkpt>
      <trkpt lat="47.68105" lon="6.05607">
        <ele>242.49</ele>
        <time>2018-04-25T07:42:21Z</time>
      </trkpt>
      <trkpt lat="47.68099" lon="6.05614">
        <ele>242.47</ele>
        <time>2018-04-25T07:42:22Z</time>
      </trkpt>
      <trkpt lat="47.68094" lon="6.0562">
        <ele>242.45</ele>
        <time>2018-04-25T07:42:23Z</time>
      </trkpt>
      <trkpt lat="47.68089" lon="6.05625">
        <ele>242.44</ele>
        <time>2018-04-25T07:42:24Z</time>
      </trkpt>
      <trkpt lat="47.68083" lon="6.0563">
        <ele>242.42</ele>
        <time>2018-04-25T07:42:25Z</time>
      </trkpt>
      <trkpt lat="47.68078" lon="6.05634">
        <ele>242.41</ele>
        <time>2018-04-25T07:42:26Z</time>
      </trkpt>
      <trkpt lat="47.68074" lon="6.05638">
        <ele>242.4</ele>
        <time>2018-04-25T07:42:27Z</time>
      </trkpt>
      <trkpt lat="47.6807" lon="6.05642">
        <ele>242.4</ele>
        <time>2018-04-25T07:42:28Z</time>
      </trkpt>
      <trkpt lat="47.68065" lon="6.05647">
        <ele>242.4</ele>
        <time>2018-04-25T07:42:29Z</time>
      </trkpt>
      <trkpt lat="47.68062" lon="6.0565">
        <ele>242.4</ele>
        <time>2018-04-25T07:42:30Z</time>
      </trkpt>
      <trkpt lat="47.68055" lon="6.05655">
        <ele>242.4</ele>
        <time>2018-04-25T07:42:32Z</time>
      </trkpt>
      <trkpt lat="47.68049" lon="6.0566">
        <ele>242.4</ele>
        <time>2018-04-25T07:42:34Z</time>
      </trkpt>
      <trkpt lat="47.68044" lon="6.05665">
        <ele>242.39</ele>
        <time>2018-04-25T07:42:36Z</time>
      </trkpt>
      <trkpt lat="47.68038" lon="6.05672">
        <ele>242.39</ele>
        <time>2018-04-25T07:42:38Z</time>
      </trkpt>
      <trkpt lat="47.68034" lon="6.05678">
        <ele>242.39</ele>
        <time>2018-04-25T07:42:40Z</time>
      </trkpt>
      <trkpt lat="47.68028" lon="6.05683">
        <ele>242.39</ele>
        <time>2018-04-25T07:42:42Z</time>
      </trkpt>
      <trkpt lat="47.68024" lon="6.05689">
        <ele>242.39</ele>
        <time>2018-04-25T07:42:44Z</time>
      </trkpt>
      <trkpt lat="47.68019" lon="6.05698">
        <ele>242.39</ele>
        <time>2018-04-25T07:42:46Z</time>
      </trkpt>
      <trkpt lat="47.68015" lon="6.05706">
        <ele>242.39</ele>
        <time>2018-04-25T07:42:48Z</time>
      </trkpt>
      <trkpt lat="47.6801" lon="6.05711">
        <ele>242.39</ele>
        <time>2018-04-25T07:42:51Z</time>
      </trkpt>
      <trkpt lat="47.68007" lon="6.05719">
        <ele>242.39</ele>
        <time>2018-04-25T07:42:54Z</time>
      </trkpt>
      <trkpt lat="47.68004" lon="6.05726">
        <ele>242.4</ele>
        <time>2018-04-25T07:42:56Z</time>
      </trkpt>
      <trkpt lat="47.68" lon="6.0573">
        <ele>242.4</ele>
        <time>2018-04-25T07:42:58Z</time>
      </trkpt>
      <trkpt lat="47.67995" lon="6.05736">
        <ele>242.4</ele>
        <time>2018-04-25T07:43:01Z</time>
      </trkpt>
      <trkpt lat="47.67991" lon="6.05741">
        <ele>242.41</ele>
        <time>2018-04-25T07:43:03Z</time>
      </trkpt>
      <trkpt lat="47.67988" lon="6.05746">
        <ele>242.41</ele>
        <time>2018-04-25T07:43:05Z</time>
      </trkpt>
      <trkpt lat="47.67982" lon="6.0575">
        <ele>242.42</ele>
        <time>2018-04-25T07:43:07Z</time>
      </trkpt>
      <trkpt lat="47.67978" lon="6.05755">
        <ele>242.44</ele>
        <time>2018-04-25T07:43:09Z</time>
      </trkpt>
      <trkpt lat="47.67973" lon="6.05758">
        <ele>242.45</ele>
        <time>2018-04-25T07:43:11Z</time>
      </trkpt>
      <trkpt lat="47.67967" lon="6.05761">
        <ele>242.48</ele>
        <time>2018-04-25T07:43:15Z</time>
      </trkpt>
      <trkpt lat="47.67963" lon="6.05762">
        <ele>242.51</ele>
        <time>2018-04-25T07:43:18Z</time>
      </trkpt>
      <trkpt lat="47.67958" lon="6.05763">
        <ele>242.53</ele>
        <time>2018-04-25T07:43:20Z</time>
      </trkpt>
      <trkpt lat="47.67954" lon="6.05763">
        <ele>242.55</ele>
        <time>2018-04-25T07:43:22Z</time>
      </trkpt>
      <trkpt lat="47.67947" lon="6.05761">
        <ele>242.58</ele>
        <time>2018-04-25T07:43:25Z</time>
      </trkpt>
      <trkpt lat="47.67941" lon="6.05758">
        <ele>242.64</ele>
        <time>2018-04-25T07:43:29Z</time>
      </trkpt>
      <trkpt lat="47.67936" lon="6.05753">
        <ele>242.66</ele>
        <time>2018-04-25T07:43:31Z</time>
      </trkpt>
      <trkpt lat="47.67932" lon="6.05751">
        <ele>242.7</ele>
        <time>2018-04-25T07:43:33Z</time>
      </trkpt>
      <trkpt lat="47.67926" lon="6.05747">
        <ele>242.74</ele>
        <time>2018-04-25T07:43:36Z</time>
      </trkpt>
      <trkpt lat="47.67922" lon="6.05745">
        <ele>242.77</ele>
        <time>2018-04-25T07:43:38Z</time>
      </trkpt>
      <trkpt lat="47.67918" lon="6.05741">
        <ele>242.8</ele>
        <time>2018-04-25T07:43:40Z</time>
      </trkpt>
      <trkpt lat="47.67912" lon="6.05737">
        <ele>242.85</ele>
        <time>2018-04-25T07:43:43Z</time>
      </trkpt>
      <trkpt lat="47.67906" lon="6.05733">
        <ele>242.9</ele>
        <time>2018-04-25T07:43:46Z</time>
      </trkpt>
      <trkpt lat="47.67902" lon="6.05731">
        <ele>242.96</ele>
        <time>2018-04-25T07:43:50Z</time>
      </trkpt>
      <trkpt lat="47.67897" lon="6.05726">
        <ele>243</ele>
        <time>2018-04-25T07:43:53Z</time>
      </trkpt>
      <trkpt lat="47.67892" lon="6.05724">
        <ele>243.05</ele>
        <time>2018-04-25T07:43:56Z</time>
      </trkpt>
      <trkpt lat="47.67888" lon="6.05721">
        <ele>243.08</ele>
        <time>2018-04-25T07:43:58Z</time>
      </trkpt>
      <trkpt lat="47.67884" lon="6.05715">
        <ele>243.11</ele>
        <time>2018-04-25T07:44:00Z</time>
      </trkpt>
      <trkpt lat="47.67881" lon="6.0571">
        <ele>243.16</ele>
        <time>2018-04-25T07:44:03Z</time>
      </trkpt>
      <trkpt lat="47.67876" lon="6.05706">
        <ele>243.23</ele>
        <time>2018-04-25T07:44:07Z</time>
      </trkpt>
      <trkpt lat="47.6787" lon="6.05699">
        <ele>243.27</ele>
        <time>2018-04-25T07:44:09Z</time>
      </trkpt>
      <trkpt lat="47.67865" lon="6.05697">
        <ele>243.31</ele>
        <time>2018-04-25T07:44:11Z</time>
      </trkpt>
      <trkpt lat="47.6786" lon="6.05693">
        <ele>243.34</ele>
        <time>2018-04-25T07:44:13Z</time>
      </trkpt>
      <trkpt lat="47.67856" lon="6.05689">
        <ele>243.4</ele>
        <time>2018-04-25T07:44:16Z</time>
      </trkpt>
      <trkpt lat="47.67851" lon="6.05684">
        <ele>243.49</ele>
        <time>2018-04-25T07:44:20Z</time>
      </trkpt>
      <trkpt lat="47.67846" lon="6.05682">
        <ele>243.56</ele>
        <time>2018-04-25T07:44:23Z</time>
      </trkpt>
      <trkpt lat="47.67841" lon="6.05677">
        <ele>243.64</ele>
        <time>2018-04-25T07:44:27Z</time>
      </trkpt>
      <trkpt lat="47.67838" lon="6.05672">
        <ele>243.69</ele>
        <time>2018-04-25T07:44:30Z</time>
      </trkpt>
      <trkpt lat="47.67833" lon="6.05669">
        <ele>243.74</ele>
        <time>2018-04-25T07:44:33Z</time>
      </trkpt>
      <trkpt lat="47.67828" lon="6.05661">
        <ele>243.81</ele>
        <time>2018-04-25T07:44:37Z</time>
      </trkpt>
      <trkpt lat="47.67823" lon="6.05657">
        <ele>243.88</ele>
        <time>2018-04-25T07:44:41Z</time>
      </trkpt>
      <trkpt lat="47.67819" lon="6.05649">
        <ele>243.91</ele>
        <time>2018-04-25T07:44:43Z</time>
      </trkpt>
      <trkpt lat="47.67816" lon="6.0564">
        <ele>243.94</ele>
        <time>2018-04-25T07:44:45Z</time>
      </trkpt>
      <trkpt lat="47.67812" lon="6.05635">
        <ele>243.98</ele>
        <time>2018-04-25T07:44:47Z</time>
      </trkpt>
      <trkpt lat="47.67808" lon="6.05631">
        <ele>244.01</ele>
        <time>2018-04-25T07:44:49Z</time>
      </trkpt>
      <trkpt lat="47.67803" lon="6.05625">
        <ele>244.06</ele>
        <time>2018-04-25T07:44:52Z</time>
      </trkpt>
      <trkpt lat="47.67799" lon="6.05622">
        <ele>244.11</ele>
        <time>2018-04-25T07:44:55Z</time>
      </trkpt>
      <trkpt lat="47.67795" lon="6.05617">
        <ele>244.23</ele>
        <time>2018-04-25T07:45:01Z</time>
      </trkpt>
      <trkpt lat="47.67792" lon="6.05612">
        <ele>244.29</ele>
        <time>2018-04-25T07:45:03Z</time>
      </trkpt>
      <trkpt lat="47.67788" lon="6.05607">
        <ele>244.35</ele>
        <time>2018-04-25T07:45:05Z</time>
      </trkpt>
      <trkpt lat="47.67785" lon="6.05602">
        <ele>244.42</ele>
        <time>2018-04-25T07:45:07Z</time>
      </trkpt>
      <trkpt lat="47.67781" lon="6.05596">
        <ele>244.52</ele>
        <time>2018-04-25T07:45:10Z</time>
      </trkpt>
      <trkpt lat="47.67777" lon="6.05591">
        <ele>244.68</ele>
        <time>2018-04-25T07:45:14Z</time>
      </trkpt>
      <trkpt lat="47.67773" lon="6.05586">
        <ele>244.94</ele>
        <time>2018-04-25T07:45:20Z</time>
      </trkpt>
      <trkpt lat="47.67771" lon="6.05579">
        <ele>245.2</ele>
        <time>2018-04-25T07:45:26Z</time>
      </trkpt>
      <trkpt lat="47.67771" lon="6.05567">
        <ele>245.42</ele>
        <time>2018-04-25T07:45:30Z</time>
      </trkpt>
      <trkpt lat="47.67771" lon="6.05557">
        <ele>245.53</ele>
        <time>2018-04-25T07:45:32Z</time>
      </trkpt>
      <trkpt lat="47.67774" lon="6.0555">
        <ele>245.71</ele>
        <time>2018-04-25T07:45:35Z</time>
      </trkpt>
      <trkpt lat="47.67777" lon="6.05543">
        <ele>245.9</ele>
        <time>2018-04-25T07:45:38Z</time>
      </trkpt>
      <trkpt lat="47.67782" lon="6.05539">
        <ele>246.16</ele>
        <time>2018-04-25T07:45:42Z</time>
      </trkpt>
      <trkpt lat="47.67787" lon="6.05536">
        <ele>246.37</ele>
        <time>2018-04-25T07:45:45Z</time>
      </trkpt>
      <trkpt lat="47.67792" lon="6.05535">
        <ele>246.64</ele>
        <time>2018-04-25T07:45:49Z</time>
      </trkpt>
      <trkpt lat="47.67798" lon="6.05535">
        <ele>246.78</ele>
        <time>2018-04-25T07:45:51Z</time>
      </trkpt>
      <trkpt lat="47.67803" lon="6.05534">
        <ele>247.1</ele>
        <time>2018-04-25T07:45:56Z</time>
      </trkpt>
      <trkpt lat="47.67808" lon="6.05528">
        <ele>247.29</ele>
        <time>2018-04-25T07:45:59Z</time>
      </trkpt>
      <trkpt lat="47.67812" lon="6.05521">
        <ele>247.35</ele>
        <time>2018-04-25T07:46:00Z</time>
      </trkpt>
      <trkpt lat="47.67814" lon="6.05514">
        <ele>247.42</ele>
        <time>2018-04-25T07:46:01Z</time>
      </trkpt>
      <trkpt lat="47.67816" lon="6.05508">
        <ele>247.54</ele>
        <time>2018-04-25T07:46:03Z</time>
      </trkpt>
      <trkpt lat="47.67817" lon="6.05499">
        <ele>247.73</ele>
        <time>2018-04-25T07:46:06Z</time>
      </trkpt>
      <trkpt lat="47.67819" lon="6.05492">
        <ele>247.98</ele>
        <time>2018-04-25T07:46:10Z</time>
      </trkpt>
      <trkpt lat="47.67819" lon="6.05485">
        <ele>248.16</ele>
        <time>2018-04-25T07:46:13Z</time>
      </trkpt>
      <trkpt lat="47.67821" lon="6.05478">
        <ele>248.27</ele>
        <time>2018-04-25T07:46:15Z</time>
      </trkpt>
      <trkpt lat="47.67822" lon="6.05471">
        <ele>248.38</ele>
        <time>2018-04-25T07:46:17Z</time>
      </trkpt>
      <trkpt lat="47.67822" lon="6.05461">
        <ele>248.54</ele>
        <time>2018-04-25T07:46:20Z</time>
      </trkpt>
      <trkpt lat="47.67822" lon="6.05446">
        <ele>248.79</ele>
        <time>2018-04-25T07:46:25Z</time>
      </trkpt>
      <trkpt lat="47.67822" lon="6.05438">
        <ele>248.83</ele>
        <time>2018-04-25T07:46:26Z</time>
      </trkpt>
      <trkpt lat="47.6782" lon="6.05427">
        <ele>248.93</ele>
        <time>2018-04-25T07:46:28Z</time>
      </trkpt>
      <trkpt lat="47.67818" lon="6.0542">
        <ele>248.98</ele>
        <time>2018-04-25T07:46:29Z</time>
      </trkpt>
      <trkpt lat="47.67816" lon="6.05414">
        <ele>249.03</ele>
        <time>2018-04-25T07:46:30Z</time>
      </trkpt>
      <trkpt lat="47.67813" lon="6.05408">
        <ele>249.07</ele>
        <time>2018-04-25T07:46:31Z</time>
      </trkpt>
      <trkpt lat="47.67809" lon="6.05402">
        <ele>249.17</ele>
        <time>2018-04-25T07:46:33Z</time>
      </trkpt>
      <trkpt lat="47.67807" lon="6.0539">
        <ele>249.31</ele>
        <time>2018-04-25T07:46:36Z</time>
      </trkpt>
      <trkpt lat="47.67805" lon="6.05383">
        <ele>249.46</ele>
        <time>2018-04-25T07:46:39Z</time>
      </trkpt>
      <trkpt lat="47.67804" lon="6.05374">
        <ele>249.56</ele>
        <time>2018-04-25T07:46:41Z</time>
      </trkpt>
      <trkpt lat="47.67803" lon="6.0536">
        <ele>249.71</ele>
        <time>2018-04-25T07:46:44Z</time>
      </trkpt>
      <trkpt lat="47.67802" lon="6.0535">
        <ele>249.87</ele>
        <time>2018-04-25T07:46:47Z</time>
      </trkpt>
      <trkpt lat="47.67802" lon="6.05341">
        <ele>250.14</ele>
        <time>2018-04-25T07:46:52Z</time>
      </trkpt>
      <trkpt lat="47.67801" lon="6.05334">
        <ele>250.3</ele>
        <time>2018-04-25T07:46:55Z</time>
      </trkpt>
      <trkpt lat="47.67801" lon="6.05326">
        <ele>250.4</ele>
        <time>2018-04-25T07:46:57Z</time>
      </trkpt>
      <trkpt lat="47.67803" lon="6.05319">
        <ele>250.59</ele>
        <time>2018-04-25T07:47:01Z</time>
      </trkpt>
      <trkpt lat="47.67805" lon="6.05311">
        <ele>250.72</ele>
        <time>2018-04-25T07:47:04Z</time>
      </trkpt>
      <trkpt lat="47.67805" lon="6.05303">
        <ele>250.79</ele>
        <time>2018-04-25T07:47:06Z</time>
      </trkpt>
      <trkpt lat="47.67804" lon="6.05294">
        <ele>250.89</ele>
        <time>2018-04-25T07:47:09Z</time>
      </trkpt>
      <trkpt lat="47.67806" lon="6.05282">
        <ele>250.98</ele>
        <time>2018-04-25T07:47:12Z</time>
      </trkpt>
      <trkpt lat="47.67807" lon="6.05274">
        <ele>251.03</ele>
        <time>2018-04-25T07:47:14Z</time>
      </trkpt>
      <trkpt lat="47.67811" lon="6.05265">
        <ele>251.07</ele>
        <time>2018-04-25T07:47:16Z</time>
      </trkpt>
      <trkpt lat="47.67812" lon="6.05252">
        <ele>251.2</ele>
        <time>2018-04-25T07:47:18Z</time>
      </trkpt>
      <trkpt lat="47.67815" lon="6.05246">
        <ele>251.31</ele>
        <time>2018-04-25T07:47:19Z</time>
      </trkpt>
      <trkpt lat="47.67817" lon="6.05239">
        <ele>251.4</ele>
        <time>2018-04-25T07:47:20Z</time>
      </trkpt>
      <trkpt lat="47.67819" lon="6.05229">
        <ele>251.47</ele>
        <time>2018-04-25T07:47:21Z</time>
      </trkpt>
      <trkpt lat="47.6782" lon="6.05213">
        <ele>251.57</ele>
        <time>2018-04-25T07:47:22Z</time>
      </trkpt>
      <trkpt lat="47.67821" lon="6.052">
        <ele>251.68</ele>
        <time>2018-04-25T07:47:23Z</time>
      </trkpt>
      <trkpt lat="47.6782" lon="6.05186">
        <ele>251.78</ele>
        <time>2018-04-25T07:47:24Z</time>
      </trkpt>
      <trkpt lat="47.67819" lon="6.05173">
        <ele>251.87</ele>
        <time>2018-04-25T07:47:25Z</time>
      </trkpt>
      <trkpt lat="47.67817" lon="6.05162">
        <ele>251.94</ele>
        <time>2018-04-25T07:47:26Z</time>
      </trkpt>
      <trkpt lat="47.67811" lon="6.05144">
        <ele>251.87</ele>
        <time>2018-04-25T07:47:27Z</time>
      </trkpt>
      <trkpt lat="47.67806" lon="6.05128">
        <ele>251.71</ele>
        <time>2018-04-25T07:47:28Z</time>
      </trkpt>
      <trkpt lat="47.67802" lon="6.05117">
        <ele>251.47</ele>
        <time>2018-04-25T07:47:29Z</time>
      </trkpt>
      <trkpt lat="47.67799" lon="6.05107">
        <ele>251.17</ele>
        <time>2018-04-25T07:47:30Z</time>
      </trkpt>
      <trkpt lat="47.67795" lon="6.05096">
        <ele>250.85</ele>
        <time>2018-04-25T07:47:31Z</time>
      </trkpt>
      <trkpt lat="47.67792" lon="6.05088">
        <ele>250.53</ele>
        <time>2018-04-25T07:47:32Z</time>
      </trkpt>
      <trkpt lat="47.67788" lon="6.05079">
        <ele>250.23</ele>
        <time>2018-04-25T07:47:33Z</time>
      </trkpt>
      <trkpt lat="47.67785" lon="6.05071">
        <ele>249.94</ele>
        <time>2018-04-25T07:47:34Z</time>
      </trkpt>
      <trkpt lat="47.67782" lon="6.05062">
        <ele>249.66</ele>
        <time>2018-04-25T07:47:35Z</time>
      </trkpt>
      <trkpt lat="47.6778" lon="6.05054">
        <ele>249.4</ele>
        <time>2018-04-25T07:47:36Z</time>
      </trkpt>
      <trkpt lat="47.67777" lon="6.05046">
        <ele>249.16</ele>
        <time>2018-04-25T07:47:37Z</time>
      </trkpt>
      <trkpt lat="47.67775" lon="6.05039">
        <ele>248.93</ele>
        <time>2018-04-25T07:47:38Z</time>
      </trkpt>
      <trkpt lat="47.6777" lon="6.05028">
        <ele>248.54</ele>
        <time>2018-04-25T07:47:40Z</time>
      </trkpt>
      <trkpt lat="47.67769" lon="6.05021">
        <ele>248.47</ele>
        <time>2018-04-25T07:47:41Z</time>
      </trkpt>
      <trkpt lat="47.67768" lon="6.05013">
        <ele>248.42</ele>
        <time>2018-04-25T07:47:43Z</time>
      </trkpt>
      <trkpt lat="47.67768" lon="6.05004">
        <ele>248.4</ele>
        <time>2018-04-25T07:47:45Z</time>
      </trkpt>
      <trkpt lat="47.67771" lon="6.04993">
        <ele>248.37</ele>
        <time>2018-04-25T07:47:47Z</time>
      </trkpt>
      <trkpt lat="47.67776" lon="6.04985">
        <ele>248.34</ele>
        <time>2018-04-25T07:47:49Z</time>
      </trkpt>
      <trkpt lat="47.67781" lon="6.04978">
        <ele>248.3</ele>
        <time>2018-04-25T07:47:51Z</time>
      </trkpt>
      <trkpt lat="47.67784" lon="6.0497">
        <ele>248.26</ele>
        <time>2018-04-25T07:47:53Z</time>
      </trkpt>
      <trkpt lat="47.67788" lon="6.04964">
        <ele>248.2</ele>
        <time>2018-04-25T07:47:55Z</time>
      </trkpt>
      <trkpt lat="47.67791" lon="6.04958">
        <ele>248.14</ele>
        <time>2018-04-25T07:47:57Z</time>
      </trkpt>
      <trkpt lat="47.67794" lon="6.04949">
        <ele>248.03</ele>
        <time>2018-04-25T07:48:00Z</time>
      </trkpt>
      <trkpt lat="47.67797" lon="6.04944">
        <ele>247.96</ele>
        <time>2018-04-25T07:48:02Z</time>
      </trkpt>
      <trkpt lat="47.67801" lon="6.04937">
        <ele>247.89</ele>
        <time>2018-04-25T07:48:04Z</time>
      </trkpt>
      <trkpt lat="47.67805" lon="6.04932">
        <ele>247.83</ele>
        <time>2018-04-25T07:48:06Z</time>
      </trkpt>
      <trkpt lat="47.67808" lon="6.04925">
        <ele>247.76</ele>
        <time>2018-04-25T07:48:08Z</time>
      </trkpt>
      <trkpt lat="47.67809" lon="6.04918">
        <ele>247.69</ele>
        <time>2018-04-25T07:48:10Z</time>
      </trkpt>
      <trkpt lat="47.67814" lon="6.04913">
        <ele>247.58</ele>
        <time>2018-04-25T07:48:13Z</time>
      </trkpt>
      <trkpt lat="47.6782" lon="6.04912">
        <ele>247.47</ele>
        <time>2018-04-25T07:48:16Z</time>
      </trkpt>
      <trkpt lat="47.67826" lon="6.04912">
        <ele>247.39</ele>
        <time>2018-04-25T07:48:18Z</time>
      </trkpt>
      <trkpt lat="47.67831" lon="6.0491">
        <ele>247.31</ele>
        <time>2018-04-25T07:48:20Z</time>
      </trkpt>
      <trkpt lat="47.67838" lon="6.04909">
        <ele>247.23</ele>
        <time>2018-04-25T07:48:22Z</time>
      </trkpt>
      <trkpt lat="47.67843" lon="6.04905">
        <ele>247.15</ele>
        <time>2018-04-25T07:48:24Z</time>
      </trkpt>
      <trkpt lat="47.6785" lon="6.049">
        <ele>247.07</ele>
        <time>2018-04-25T07:48:26Z</time>
      </trkpt>
      <trkpt lat="47.67858" lon="6.04896">
        <ele>246.98</ele>
        <time>2018-04-25T07:48:28Z</time>
      </trkpt>
      <trkpt lat="47.67866" lon="6.04892">
        <ele>246.63</ele>
        <time>2018-04-25T07:48:30Z</time>
      </trkpt>
      <trkpt lat="47.6787" lon="6.0489">
        <ele>246.29</ele>
        <time>2018-04-25T07:48:31Z</time>
      </trkpt>
      <trkpt lat="47.67874" lon="6.04887">
        <ele>245.98</ele>
        <time>2018-04-25T07:48:32Z</time>
      </trkpt>
      <trkpt lat="47.67878" lon="6.04883">
        <ele>245.71</ele>
        <time>2018-04-25T07:48:33Z</time>
      </trkpt>
      <trkpt lat="47.67883" lon="6.04879">
        <ele>245.49</ele>
        <time>2018-04-25T07:48:34Z</time>
      </trkpt>
      <trkpt lat="47.67887" lon="6.04876">
        <ele>245.3</ele>
        <time>2018-04-25T07:48:35Z</time>
      </trkpt>
      <trkpt lat="47.67892" lon="6.04872">
        <ele>245.13</ele>
        <time>2018-04-25T07:48:36Z</time>
      </trkpt>
      <trkpt lat="47.67896" lon="6.04868">
        <ele>244.99</ele>
        <time>2018-04-25T07:48:37Z</time>
      </trkpt>
      <trkpt lat="47.67901" lon="6.04864">
        <ele>244.87</ele>
        <time>2018-04-25T07:48:38Z</time>
      </trkpt>
      <trkpt lat="47.67905" lon="6.04858">
        <ele>244.75</ele>
        <time>2018-04-25T07:48:39Z</time>
      </trkpt>
      <trkpt lat="47.67909" lon="6.04852">
        <ele>244.65</ele>
        <time>2018-04-25T07:48:40Z</time>
      </trkpt>
      <trkpt lat="47.67914" lon="6.04846">
        <ele>244.55</ele>
        <time>2018-04-25T07:48:41Z</time>
      </trkpt>
      <trkpt lat="47.67917" lon="6.04839">
        <ele>244.47</ele>
        <time>2018-04-25T07:48:42Z</time>
      </trkpt>
      <trkpt lat="47.67921" lon="6.04833">
        <ele>244.39</ele>
        <time>2018-04-25T07:48:43Z</time>
      </trkpt>
      <trkpt lat="47.67925" lon="6.04827">
        <ele>244.32</ele>
        <time>2018-04-25T07:48:44Z</time>
      </trkpt>
      <trkpt lat="47.67928" lon="6.04821">
        <ele>244.25</ele>
        <time>2018-04-25T07:48:45Z</time>
      </trkpt>
      <trkpt lat="47.67931" lon="6.04814">
        <ele>244.18</ele>
        <time>2018-04-25T07:48:46Z</time>
      </trkpt>
      <trkpt lat="47.67933" lon="6.04808">
        <ele>244.12</ele>
        <time>2018-04-25T07:48:47Z</time>
      </trkpt>
      <trkpt lat="47.67937" lon="6.04801">
        <ele>244.06</ele>
        <time>2018-04-25T07:48:48Z</time>
      </trkpt>
      <trkpt lat="47.6794" lon="6.04795">
        <ele>244</ele>
        <time>2018-04-25T07:48:49Z</time>
      </trkpt>
      <trkpt lat="47.67943" lon="6.04788">
        <ele>243.93</ele>
        <time>2018-04-25T07:48:50Z</time>
      </trkpt>
      <trkpt lat="47.67947" lon="6.04779">
        <ele>243.86</ele>
        <time>2018-04-25T07:48:51Z</time>
      </trkpt>
      <trkpt lat="47.6795" lon="6.0477">
        <ele>243.78</ele>
        <time>2018-04-25T07:48:52Z</time>
      </trkpt>
      <trkpt lat="47.67953" lon="6.04761">
        <ele>243.69</ele>
        <time>2018-04-25T07:48:53Z</time>
      </trkpt>
      <trkpt lat="47.67956" lon="6.04751">
        <ele>243.54</ele>
        <time>2018-04-25T07:48:54Z</time>
      </trkpt>
      <trkpt lat="47.67959" lon="6.04742">
        <ele>243.32</ele>
        <time>2018-04-25T07:48:55Z</time>
      </trkpt>
      <trkpt lat="47.67962" lon="6.04733">
        <ele>243.07</ele>
        <time>2018-04-25T07:48:56Z</time>
      </trkpt>
      <trkpt lat="47.67966" lon="6.04724">
        <ele>242.82</ele>
        <time>2018-04-25T07:48:57Z</time>
      </trkpt>
      <trkpt lat="47.67968" lon="6.04715">
        <ele>242.5</ele>
        <time>2018-04-25T07:48:58Z</time>
      </trkpt>
      <trkpt lat="47.67971" lon="6.04706">
        <ele>242.13</ele>
        <time>2018-04-25T07:48:59Z</time>
      </trkpt>
      <trkpt lat="47.67974" lon="6.04697">
        <ele>241.71</ele>
        <time>2018-04-25T07:49:00Z</time>
      </trkpt>
      <trkpt lat="47.67976" lon="6.04688">
        <ele>241.26</ele>
        <time>2018-04-25T07:49:01Z</time>
      </trkpt>
      <trkpt lat="47.67978" lon="6.04678">
        <ele>240.79</ele>
        <time>2018-04-25T07:49:02Z</time>
      </trkpt>
      <trkpt lat="47.6798" lon="6.04669">
        <ele>240.3</ele>
        <time>2018-04-25T07:49:03Z</time>
      </trkpt>
      <trkpt lat="47.67982" lon="6.04661">
        <ele>239.81</ele>
        <time>2018-04-25T07:49:04Z</time>
      </trkpt>
      <trkpt lat="47.67984" lon="6.04652">
        <ele>239.3</ele>
        <time>2018-04-25T07:49:05Z</time>
      </trkpt>
      <trkpt lat="47.67986" lon="6.04643">
        <ele>238.8</ele>
        <time>2018-04-25T07:49:06Z</time>
      </trkpt>
      <trkpt lat="47.67987" lon="6.04635">
        <ele>238.29</ele>
        <time>2018-04-25T07:49:07Z</time>
      </trkpt>
      <trkpt lat="47.67989" lon="6.04626">
        <ele>237.77</ele>
        <time>2018-04-25T07:49:08Z</time>
      </trkpt>
      <trkpt lat="47.67991" lon="6.04618">
        <ele>237.26</ele>
        <time>2018-04-25T07:49:09Z</time>
      </trkpt>
      <trkpt lat="47.67992" lon="6.04609">
        <ele>236.78</ele>
        <time>2018-04-25T07:49:10Z</time>
      </trkpt>
      <trkpt lat="47.67994" lon="6.04601">
        <ele>236.34</ele>
        <time>2018-04-25T07:49:11Z</time>
      </trkpt>
      <trkpt lat="47.67995" lon="6.04593">
        <ele>235.93</ele>
        <time>2018-04-25T07:49:12Z</time>
      </trkpt>
      <trkpt lat="47.67997" lon="6.04585">
        <ele>235.54</ele>
        <time>2018-04-25T07:49:13Z</time>
      </trkpt>
      <trkpt lat="47.67998" lon="6.04577">
        <ele>235.17</ele>
        <time>2018-04-25T07:49:14Z</time>
      </trkpt>
      <trkpt lat="47.68" lon="6.04569">
        <ele>234.83</ele>
        <time>2018-04-25T07:49:15Z</time>
      </trkpt>
      <trkpt lat="47.68001" lon="6.04562">
        <ele>234.52</ele>
        <time>2018-04-25T07:49:16Z</time>
      </trkpt>
      <trkpt lat="47.68003" lon="6.04554">
        <ele>234.23</ele>
        <time>2018-04-25T07:49:17Z</time>
      </trkpt>
      <trkpt lat="47.68004" lon="6.04547">
        <ele>233.95</ele>
        <time>2018-04-25T07:49:18Z</time>
      </trkpt>
      <trkpt lat="47.68005" lon="6.04539">
        <ele>233.71</ele>
        <time>2018-04-25T07:49:19Z</time>
      </trkpt>
      <trkpt lat="47.68007" lon="6.04531">
        <ele>233.5</ele>
        <time>2018-04-25T07:49:20Z</time>
      </trkpt>
      <trkpt lat="47.68009" lon="6.04523">
        <ele>233.31</ele>
        <time>2018-04-25T07:49:21Z</time>
      </trkpt>
      <trkpt lat="47.6801" lon="6.04516">
        <ele>233.11</ele>
        <time>2018-04-25T07:49:22Z</time>
      </trkpt>
      <trkpt lat="47.68011" lon="6.04508">
        <ele>232.91</ele>
        <time>2018-04-25T07:49:23Z</time>
      </trkpt>
      <trkpt lat="47.68013" lon="6.045">
        <ele>232.69</ele>
        <time>2018-04-25T07:49:24Z</time>
      </trkpt>
      <trkpt lat="47.68014" lon="6.04492">
        <ele>232.47</ele>
        <time>2018-04-25T07:49:25Z</time>
      </trkpt>
      <trkpt lat="47.68016" lon="6.04484">
        <ele>232.23</ele>
        <time>2018-04-25T07:49:26Z</time>
      </trkpt>
      <trkpt lat="47.68018" lon="6.04477">
        <ele>231.98</ele>
        <time>2018-04-25T07:49:27Z</time>
      </trkpt>
      <trkpt lat="47.6802" lon="6.0447">
        <ele>231.71</ele>
        <time>2018-04-25T07:49:28Z</time>
      </trkpt>
      <trkpt lat="47.68024" lon="6.04464">
        <ele>231.43</ele>
        <time>2018-04-25T07:49:29Z</time>
      </trkpt>
      <trkpt lat="47.68027" lon="6.0446">
        <ele>231.14</ele>
        <time>2018-04-25T07:49:30Z</time>
      </trkpt>
      <trkpt lat="47.68031" lon="6.04457">
        <ele>230.82</ele>
        <time>2018-04-25T07:49:31Z</time>
      </trkpt>
      <trkpt lat="47.68037" lon="6.04448">
        <ele>230.12</ele>
        <time>2018-04-25T07:49:33Z</time>
      </trkpt>
      <trkpt lat="47.68036" lon="6.04439">
        <ele>229.92</ele>
        <time>2018-04-25T07:49:35Z</time>
      </trkpt>
      <trkpt lat="47.68031" lon="6.04433">
        <ele>229.55</ele>
        <time>2018-04-25T07:49:37Z</time>
      </trkpt>
      <trkpt lat="47.68026" lon="6.04431">
        <ele>229.42</ele>
        <time>2018-04-25T07:49:38Z</time>
      </trkpt>
      <trkpt lat="47.68019" lon="6.04427">
        <ele>228.64</ele>
        <time>2018-04-25T07:49:40Z</time>
      </trkpt>
      <trkpt lat="47.68012" lon="6.04423">
        <ele>228.41</ele>
        <time>2018-04-25T07:49:42Z</time>
      </trkpt>
      <trkpt lat="47.68005" lon="6.0442">
        <ele>228.3</ele>
        <time>2018-04-25T07:49:44Z</time>
      </trkpt>
      <trkpt lat="47.67998" lon="6.04419">
        <ele>228.18</ele>
        <time>2018-04-25T07:49:46Z</time>
      </trkpt>
      <trkpt lat="47.67991" lon="6.04419">
        <ele>228.05</ele>
        <time>2018-04-25T07:49:48Z</time>
      </trkpt>
      <trkpt lat="47.67984" lon="6.0442">
        <ele>227.91</ele>
        <time>2018-04-25T07:49:50Z</time>
      </trkpt>
      <trkpt lat="47.67978" lon="6.04422">
        <ele>227.76</ele>
        <time>2018-04-25T07:49:52Z</time>
      </trkpt>
      <trkpt lat="47.67971" lon="6.04423">
        <ele>227.6</ele>
        <time>2018-04-25T07:49:54Z</time>
      </trkpt>
      <trkpt lat="47.67964" lon="6.04423">
        <ele>227.43</ele>
        <time>2018-04-25T07:49:56Z</time>
      </trkpt>
      <trkpt lat="47.67957" lon="6.04423">
        <ele>227.24</ele>
        <time>2018-04-25T07:49:58Z</time>
      </trkpt>
      <trkpt lat="47.6795" lon="6.04422">
        <ele>227.05</ele>
        <time>2018-04-25T07:50:00Z</time>
      </trkpt>
      <trkpt lat="47.67943" lon="6.04421">
        <ele>226.86</ele>
        <time>2018-04-25T07:50:02Z</time>
      </trkpt>
      <trkpt lat="47.67936" lon="6.04421">
        <ele>226.65</ele>
        <time>2018-04-25T07:50:04Z</time>
      </trkpt>
      <trkpt lat="47.6793" lon="6.04421">
        <ele>226.45</ele>
        <time>2018-04-25T07:50:06Z</time>
      </trkpt>
      <trkpt lat="47.67923" lon="6.0442">
        <ele>226.23</ele>
        <time>2018-04-25T07:50:08Z</time>
      </trkpt>
      <trkpt lat="47.67917" lon="6.04418">
        <ele>226.01</ele>
        <time>2018-04-25T07:50:10Z</time>
      </trkpt>
      <trkpt lat="47.67912" lon="6.04418">
        <ele>225.8</ele>
        <time>2018-04-25T07:50:12Z</time>
      </trkpt>
      <trkpt lat="47.67906" lon="6.04416">
        <ele>225.59</ele>
        <time>2018-04-25T07:50:14Z</time>
      </trkpt>
      <trkpt lat="47.67899" lon="6.04416">
        <ele>225.38</ele>
        <time>2018-04-25T07:50:16Z</time>
      </trkpt>
      <trkpt lat="47.67894" lon="6.04416">
        <ele>225.16</ele>
        <time>2018-04-25T07:50:18Z</time>
      </trkpt>
      <trkpt lat="47.67888" lon="6.04414">
        <ele>224.93</ele>
        <time>2018-04-25T07:50:20Z</time>
      </trkpt>
      <trkpt lat="47.67882" lon="6.04414">
        <ele>224.68</ele>
        <time>2018-04-25T07:50:22Z</time>
      </trkpt>
      <trkpt lat="47.67875" lon="6.04414">
        <ele>224.43</ele>
        <time>2018-04-25T07:50:24Z</time>
      </trkpt>
      <trkpt lat="47.67868" lon="6.04413">
        <ele>224.17</ele>
        <time>2018-04-25T07:50:26Z</time>
      </trkpt>
      <trkpt lat="47.67861" lon="6.04412">
        <ele>223.9</ele>
        <time>2018-04-25T07:50:28Z</time>
      </trkpt>
      <trkpt lat="47.67854" lon="6.04411">
        <ele>223.65</ele>
        <time>2018-04-25T07:50:30Z</time>
      </trkpt>
      <trkpt lat="47.67848" lon="6.0441">
        <ele>223.4</ele>
        <time>2018-04-25T07:50:32Z</time>
      </trkpt>
      <trkpt lat="47.67842" lon="6.0441">
        <ele>223.16</ele>
        <time>2018-04-25T07:50:34Z</time>
      </trkpt>
      <trkpt lat="47.67836" lon="6.04408">
        <ele>222.92</ele>
        <time>2018-04-25T07:50:36Z</time>
      </trkpt>
      <trkpt lat="47.67829" lon="6.04406">
        <ele>222.69</ele>
        <time>2018-04-25T07:50:38Z</time>
      </trkpt>
      <trkpt lat="47.67823" lon="6.04404">
        <ele>222.46</ele>
        <time>2018-04-25T07:50:40Z</time>
      </trkpt>
      <trkpt lat="47.67816" lon="6.04403">
        <ele>222.25</ele>
        <time>2018-04-25T07:50:42Z</time>
      </trkpt>
      <trkpt lat="47.6781" lon="6.04402">
        <ele>222.03</ele>
        <time>2018-04-25T07:50:44Z</time>
      </trkpt>
      <trkpt lat="47.67804" lon="6.04401">
        <ele>221.82</ele>
        <time>2018-04-25T07:50:46Z</time>
      </trkpt>
      <trkpt lat="47.67798" lon="6.04398">
        <ele>221.62</ele>
        <time>2018-04-25T07:50:48Z</time>
      </trkpt>
      <trkpt lat="47.67793" lon="6.04394">
        <ele>221.43</ele>
        <time>2018-04-25T07:50:50Z</time>
      </trkpt>
      <trkpt lat="47.67788" lon="6.04391">
        <ele>221.27</ele>
        <time>2018-04-25T07:50:52Z</time>
      </trkpt>
      <trkpt lat="47.67782" lon="6.0439">
        <ele>221.06</ele>
        <time>2018-04-25T07:50:55Z</time>
      </trkpt>
      <trkpt lat="47.67776" lon="6.04387">
        <ele>220.95</ele>
        <time>2018-04-25T07:50:57Z</time>
      </trkpt>
      <trkpt lat="47.67771" lon="6.04385">
        <ele>220.85</ele>
        <time>2018-04-25T07:50:59Z</time>
      </trkpt>
      <trkpt lat="47.67765" lon="6.04382">
        <ele>220.75</ele>
        <time>2018-04-25T07:51:01Z</time>
      </trkpt>
      <trkpt lat="47.6776" lon="6.0438">
        <ele>220.66</ele>
        <time>2018-04-25T07:51:03Z</time>
      </trkpt>
      <trkpt lat="47.67754" lon="6.04377">
        <ele>220.59</ele>
        <time>2018-04-25T07:51:05Z</time>
      </trkpt>
      <trkpt lat="47.67749" lon="6.04375">
        <ele>220.52</ele>
        <time>2018-04-25T07:51:07Z</time>
      </trkpt>
      <trkpt lat="47.67744" lon="6.04373">
        <ele>220.46</ele>
        <time>2018-04-25T07:51:09Z</time>
      </trkpt>
      <trkpt lat="47.6774" lon="6.04371">
        <ele>220.41</ele>
        <time>2018-04-25T07:51:11Z</time>
      </trkpt>
      <trkpt lat="47.67733" lon="6.04368">
        <ele>220.35</ele>
        <time>2018-04-25T07:51:14Z</time>
      </trkpt>
      <trkpt lat="47.67729" lon="6.04365">
        <ele>220.31</ele>
        <time>2018-04-25T07:51:16Z</time>
      </trkpt>
      <trkpt lat="47.67725" lon="6.04363">
        <ele>220.27</ele>
        <time>2018-04-25T07:51:18Z</time>
      </trkpt>
      <trkpt lat="47.67719" lon="6.0436">
        <ele>220.21</ele>
        <time>2018-04-25T07:51:21Z</time>
      </trkpt>
      <trkpt lat="47.67715" lon="6.04357">
        <ele>220.16</ele>
        <time>2018-04-25T07:51:23Z</time>
      </trkpt>
      <trkpt lat="47.6771" lon="6.04355">
        <ele>220.12</ele>
        <time>2018-04-25T07:51:25Z</time>
      </trkpt>
      <trkpt lat="47.67706" lon="6.04351">
        <ele>220.09</ele>
        <time>2018-04-25T07:51:27Z</time>
      </trkpt>
      <trkpt lat="47.677" lon="6.04346">
        <ele>220.08</ele>
        <time>2018-04-25T07:51:29Z</time>
      </trkpt>
      <trkpt lat="47.67696" lon="6.04342">
        <ele>220.09</ele>
        <time>2018-04-25T07:51:31Z</time>
      </trkpt>
      <trkpt lat="47.67692" lon="6.04337">
        <ele>220.11</ele>
        <time>2018-04-25T07:51:33Z</time>
      </trkpt>
      <trkpt lat="47.67687" lon="6.04335">
        <ele>220.14</ele>
        <time>2018-04-25T07:51:35Z</time>
      </trkpt>
      <trkpt lat="47.67683" lon="6.04331">
        <ele>220.17</ele>
        <time>2018-04-25T07:51:37Z</time>
      </trkpt>
      <trkpt lat="47.67678" lon="6.04326">
        <ele>220.19</ele>
        <time>2018-04-25T07:51:39Z</time>
      </trkpt>
      <trkpt lat="47.67671" lon="6.04319">
        <ele>220.22</ele>
        <time>2018-04-25T07:51:41Z</time>
      </trkpt>
      <trkpt lat="47.67666" lon="6.04313">
        <ele>220.27</ele>
        <time>2018-04-25T07:51:43Z</time>
      </trkpt>
      <trkpt lat="47.67661" lon="6.04307">
        <ele>220.32</ele>
        <time>2018-04-25T07:51:45Z</time>
      </trkpt>
      <trkpt lat="47.67657" lon="6.04302">
        <ele>220.38</ele>
        <time>2018-04-25T07:51:47Z</time>
      </trkpt>
      <trkpt lat="47.67653" lon="6.04297">
        <ele>220.43</ele>
        <time>2018-04-25T07:51:49Z</time>
      </trkpt>
      <trkpt lat="47.67649" lon="6.04292">
        <ele>220.48</ele>
        <time>2018-04-25T07:51:51Z</time>
      </trkpt>
      <trkpt lat="47.67645" lon="6.04286">
        <ele>220.52</ele>
        <time>2018-04-25T07:51:53Z</time>
      </trkpt>
      <trkpt lat="47.67639" lon="6.04281">
        <ele>220.57</ele>
        <time>2018-04-25T07:51:56Z</time>
      </trkpt>
      <trkpt lat="47.67635" lon="6.04275">
        <ele>220.56</ele>
        <time>2018-04-25T07:51:58Z</time>
      </trkpt>
      <trkpt lat="47.67632" lon="6.04269">
        <ele>220.49</ele>
        <time>2018-04-25T07:52:00Z</time>
      </trkpt>
      <trkpt lat="47.67628" lon="6.0426">
        <ele>220.43</ele>
        <time>2018-04-25T07:52:02Z</time>
      </trkpt>
      <trkpt lat="47.67625" lon="6.04253">
        <ele>220.4</ele>
        <time>2018-04-25T07:52:04Z</time>
      </trkpt>
      <trkpt lat="47.67621" lon="6.04248">
        <ele>220.41</ele>
        <time>2018-04-25T07:52:06Z</time>
      </trkpt>
      <trkpt lat="47.67617" lon="6.0424">
        <ele>220.49</ele>
        <time>2018-04-25T07:52:08Z</time>
      </trkpt>
      <trkpt lat="47.67613" lon="6.04235">
        <ele>220.61</ele>
        <time>2018-04-25T07:52:10Z</time>
      </trkpt>
      <trkpt lat="47.67609" lon="6.0423">
        <ele>220.79</ele>
        <time>2018-04-25T07:52:12Z</time>
      </trkpt>
      <trkpt lat="47.67605" lon="6.04224">
        <ele>221.02</ele>
        <time>2018-04-25T07:52:14Z</time>
      </trkpt>
      <trkpt lat="47.676" lon="6.04217">
        <ele>221.28</ele>
        <time>2018-04-25T07:52:16Z</time>
      </trkpt>
      <trkpt lat="47.67595" lon="6.0421">
        <ele>221.57</ele>
        <time>2018-04-25T07:52:18Z</time>
      </trkpt>
      <trkpt lat="47.67589" lon="6.04204">
        <ele>221.88</ele>
        <time>2018-04-25T07:52:20Z</time>
      </trkpt>
      <trkpt lat="47.67584" lon="6.04198">
        <ele>222.22</ele>
        <time>2018-04-25T07:52:22Z</time>
      </trkpt>
      <trkpt lat="47.67578" lon="6.04192">
        <ele>222.61</ele>
        <time>2018-04-25T07:52:24Z</time>
      </trkpt>
      <trkpt lat="47.67571" lon="6.04187">
        <ele>223.02</ele>
        <time>2018-04-25T07:52:26Z</time>
      </trkpt>
      <trkpt lat="47.67565" lon="6.0418">
        <ele>223.47</ele>
        <time>2018-04-25T07:52:28Z</time>
      </trkpt>
      <trkpt lat="47.6756" lon="6.04173">
        <ele>223.95</ele>
        <time>2018-04-25T07:52:30Z</time>
      </trkpt>
      <trkpt lat="47.67555" lon="6.04168">
        <ele>224.46</ele>
        <time>2018-04-25T07:52:32Z</time>
      </trkpt>
      <trkpt lat="47.67549" lon="6.04161">
        <ele>224.99</ele>
        <time>2018-04-25T07:52:34Z</time>
      </trkpt>
      <trkpt lat="47.67544" lon="6.04156">
        <ele>225.51</ele>
        <time>2018-04-25T07:52:36Z</time>
      </trkpt>
      <trkpt lat="47.67538" lon="6.0415">
        <ele>226.01</ele>
        <time>2018-04-25T07:52:38Z</time>
      </trkpt>
      <trkpt lat="47.67532" lon="6.04144">
        <ele>226.49</ele>
        <time>2018-04-25T07:52:40Z</time>
      </trkpt>
      <trkpt lat="47.67527" lon="6.04138">
        <ele>226.95</ele>
        <time>2018-04-25T07:52:42Z</time>
      </trkpt>
      <trkpt lat="47.67522" lon="6.04133">
        <ele>227.37</ele>
        <time>2018-04-25T07:52:44Z</time>
      </trkpt>
      <trkpt lat="47.67517" lon="6.04127">
        <ele>227.78</ele>
        <time>2018-04-25T07:52:46Z</time>
      </trkpt>
      <trkpt lat="47.67512" lon="6.04121">
        <ele>228.16</ele>
        <time>2018-04-25T07:52:48Z</time>
      </trkpt>
      <trkpt lat="47.67508" lon="6.04115">
        <ele>228.53</ele>
        <time>2018-04-25T07:52:50Z</time>
      </trkpt>
      <trkpt lat="47.67503" lon="6.04109">
        <ele>228.88</ele>
        <time>2018-04-25T07:52:52Z</time>
      </trkpt>
      <trkpt lat="47.67499" lon="6.04103">
        <ele>229.21</ele>
        <time>2018-04-25T07:52:54Z</time>
      </trkpt>
      <trkpt lat="47.67495" lon="6.04096">
        <ele>229.53</ele>
        <time>2018-04-25T07:52:56Z</time>
      </trkpt>
      <trkpt lat="47.67492" lon="6.04089">
        <ele>229.85</ele>
        <time>2018-04-25T07:52:58Z</time>
      </trkpt>
      <trkpt lat="47.67488" lon="6.04082">
        <ele>230.16</ele>
        <time>2018-04-25T07:53:00Z</time>
      </trkpt>
      <trkpt lat="47.67484" lon="6.04075">
        <ele>230.46</ele>
        <time>2018-04-25T07:53:02Z</time>
      </trkpt>
      <trkpt lat="47.6748" lon="6.04066">
        <ele>230.87</ele>
        <time>2018-04-25T07:53:05Z</time>
      </trkpt>
      <trkpt lat="47.67477" lon="6.04059">
        <ele>231.12</ele>
        <time>2018-04-25T07:53:07Z</time>
      </trkpt>
      <trkpt lat="47.67473" lon="6.04051">
        <ele>231.36</ele>
        <time>2018-04-25T07:53:09Z</time>
      </trkpt>
      <trkpt lat="47.67469" lon="6.04043">
        <ele>231.59</ele>
        <time>2018-04-25T07:53:11Z</time>
      </trkpt>
      <trkpt lat="47.67464" lon="6.04035">
        <ele>231.8</ele>
        <time>2018-04-25T07:53:13Z</time>
      </trkpt>
      <trkpt lat="47.6746" lon="6.04029">
        <ele>232.01</ele>
        <time>2018-04-25T07:53:15Z</time>
      </trkpt>
      <trkpt lat="47.67456" lon="6.04022">
        <ele>232.2</ele>
        <time>2018-04-25T07:53:17Z</time>
      </trkpt>
      <trkpt lat="47.67451" lon="6.04016">
        <ele>232.38</ele>
        <time>2018-04-25T07:53:19Z</time>
      </trkpt>
      <trkpt lat="47.67448" lon="6.04009">
        <ele>232.52</ele>
        <time>2018-04-25T07:53:21Z</time>
      </trkpt>
      <trkpt lat="47.67444" lon="6.04003">
        <ele>232.62</ele>
        <time>2018-04-25T07:53:23Z</time>
      </trkpt>
      <trkpt lat="47.6744" lon="6.03994">
        <ele>232.68</ele>
        <time>2018-04-25T07:53:25Z</time>
      </trkpt>
      <trkpt lat="47.67434" lon="6.03985">
        <ele>232.7</ele>
        <time>2018-04-25T07:53:27Z</time>
      </trkpt>
      <trkpt lat="47.6743" lon="6.0398">
        <ele>232.7</ele>
        <time>2018-04-25T07:53:28Z</time>
      </trkpt>
      <trkpt lat="47.67426" lon="6.03975">
        <ele>232.7</ele>
        <time>2018-04-25T07:53:29Z</time>
      </trkpt>
      <trkpt lat="47.67419" lon="6.03965">
        <ele>232.57</ele>
        <time>2018-04-25T07:53:31Z</time>
      </trkpt>
      <trkpt lat="47.67415" lon="6.0396">
        <ele>232.26</ele>
        <time>2018-04-25T07:53:32Z</time>
      </trkpt>
      <trkpt lat="47.67409" lon="6.03955">
        <ele>231.84</ele>
        <time>2018-04-25T07:53:33Z</time>
      </trkpt>
      <trkpt lat="47.67405" lon="6.03947">
        <ele>231.41</ele>
        <time>2018-04-25T07:53:34Z</time>
      </trkpt>
      <trkpt lat="47.674" lon="6.03939">
        <ele>230.99</ele>
        <time>2018-04-25T07:53:35Z</time>
      </trkpt>
      <trkpt lat="47.67396" lon="6.03932">
        <ele>230.65</ele>
        <time>2018-04-25T07:53:36Z</time>
      </trkpt>
      <trkpt lat="47.67392" lon="6.03926">
        <ele>230.38</ele>
        <time>2018-04-25T07:53:37Z</time>
      </trkpt>
      <trkpt lat="47.67387" lon="6.03921">
        <ele>230.2</ele>
        <time>2018-04-25T07:53:38Z</time>
      </trkpt>
      <trkpt lat="47.67383" lon="6.03916">
        <ele>230.09</ele>
        <time>2018-04-25T07:53:39Z</time>
      </trkpt>
      <trkpt lat="47.67379" lon="6.03911">
        <ele>230.03</ele>
        <time>2018-04-25T07:53:40Z</time>
      </trkpt>
      <trkpt lat="47.67374" lon="6.03906">
        <ele>230.03</ele>
        <time>2018-04-25T07:53:41Z</time>
      </trkpt>
      <trkpt lat="47.67369" lon="6.03902">
        <ele>230.06</ele>
        <time>2018-04-25T07:53:42Z</time>
      </trkpt>
      <trkpt lat="47.67365" lon="6.03898">
        <ele>230.11</ele>
        <time>2018-04-25T07:53:43Z</time>
      </trkpt>
      <trkpt lat="47.67361" lon="6.03894">
        <ele>230.13</ele>
        <time>2018-04-25T07:53:44Z</time>
      </trkpt>
      <trkpt lat="47.67356" lon="6.0389">
        <ele>230.15</ele>
        <time>2018-04-25T07:53:45Z</time>
      </trkpt>
      <trkpt lat="47.67352" lon="6.03885">
        <ele>230.14</ele>
        <time>2018-04-25T07:53:46Z</time>
      </trkpt>
      <trkpt lat="47.67348" lon="6.0388">
        <ele>230.1</ele>
        <time>2018-04-25T07:53:47Z</time>
      </trkpt>
      <trkpt lat="47.67345" lon="6.03875">
        <ele>230.08</ele>
        <time>2018-04-25T07:53:48Z</time>
      </trkpt>
      <trkpt lat="47.67342" lon="6.03869">
        <ele>230.07</ele>
        <time>2018-04-25T07:53:49Z</time>
      </trkpt>
      <trkpt lat="47.67338" lon="6.03859">
        <ele>230.07</ele>
        <time>2018-04-25T07:53:51Z</time>
      </trkpt>
      <trkpt lat="47.67334" lon="6.03853">
        <ele>230.07</ele>
        <time>2018-04-25T07:53:53Z</time>
      </trkpt>
      <trkpt lat="47.6733" lon="6.03846">
        <ele>230.07</ele>
        <time>2018-04-25T07:53:55Z</time>
      </trkpt>
      <trkpt lat="47.67326" lon="6.0384">
        <ele>230.09</ele>
        <time>2018-04-25T07:53:57Z</time>
      </trkpt>
      <trkpt lat="47.67323" lon="6.03833">
        <ele>230.11</ele>
        <time>2018-04-25T07:53:59Z</time>
      </trkpt>
      <trkpt lat="47.67319" lon="6.03827">
        <ele>230.13</ele>
        <time>2018-04-25T07:54:01Z</time>
      </trkpt>
      <trkpt lat="47.67315" lon="6.0382">
        <ele>230.16</ele>
        <time>2018-04-25T07:54:03Z</time>
      </trkpt>
      <trkpt lat="47.67311" lon="6.03812">
        <ele>230.21</ele>
        <time>2018-04-25T07:54:05Z</time>
      </trkpt>
      <trkpt lat="47.67308" lon="6.03807">
        <ele>230.3</ele>
        <time>2018-04-25T07:54:07Z</time>
      </trkpt>
      <trkpt lat="47.67304" lon="6.03801">
        <ele>230.39</ele>
        <time>2018-04-25T07:54:09Z</time>
      </trkpt>
      <trkpt lat="47.67301" lon="6.03795">
        <ele>230.48</ele>
        <time>2018-04-25T07:54:11Z</time>
      </trkpt>
      <trkpt lat="47.67297" lon="6.03789">
        <ele>230.56</ele>
        <time>2018-04-25T07:54:13Z</time>
      </trkpt>
      <trkpt lat="47.67292" lon="6.0378">
        <ele>230.64</ele>
        <time>2018-04-25T07:54:15Z</time>
      </trkpt>
      <trkpt lat="47.67288" lon="6.03774">
        <ele>230.73</ele>
        <time>2018-04-25T07:54:17Z</time>
      </trkpt>
      <trkpt lat="47.67284" lon="6.03766">
        <ele>230.81</ele>
        <time>2018-04-25T07:54:19Z</time>
      </trkpt>
      <trkpt lat="47.6728" lon="6.03761">
        <ele>230.9</ele>
        <time>2018-04-25T07:54:21Z</time>
      </trkpt>
      <trkpt lat="47.67276" lon="6.03755">
        <ele>230.98</ele>
        <time>2018-04-25T07:54:23Z</time>
      </trkpt>
      <trkpt lat="47.67272" lon="6.03748">
        <ele>231.06</ele>
        <time>2018-04-25T07:54:25Z</time>
      </trkpt>
      <trkpt lat="47.67268" lon="6.03741">
        <ele>231.15</ele>
        <time>2018-04-25T07:54:27Z</time>
      </trkpt>
      <trkpt lat="47.67264" lon="6.03736">
        <ele>231.24</ele>
        <time>2018-04-25T07:54:29Z</time>
      </trkpt>
      <trkpt lat="47.6726" lon="6.03729">
        <ele>231.38</ele>
        <time>2018-04-25T07:54:32Z</time>
      </trkpt>
      <trkpt lat="47.67256" lon="6.03723">
        <ele>231.48</ele>
        <time>2018-04-25T07:54:34Z</time>
      </trkpt>
      <trkpt lat="47.67254" lon="6.03718">
        <ele>231.57</ele>
        <time>2018-04-25T07:54:36Z</time>
      </trkpt>
      <trkpt lat="47.6725" lon="6.03712">
        <ele>231.67</ele>
        <time>2018-04-25T07:54:38Z</time>
      </trkpt>
      <trkpt lat="47.67247" lon="6.03704">
        <ele>231.82</ele>
        <time>2018-04-25T07:54:41Z</time>
      </trkpt>
      <trkpt lat="47.67244" lon="6.03696">
        <ele>231.97</ele>
        <time>2018-04-25T07:54:44Z</time>
      </trkpt>
      <trkpt lat="47.67241" lon="6.03688">
        <ele>232.12</ele>
        <time>2018-04-25T07:54:47Z</time>
      </trkpt>
      <trkpt lat="47.67237" lon="6.03682">
        <ele>232.27</ele>
        <time>2018-04-25T07:54:50Z</time>
      </trkpt>
      <trkpt lat="47.67233" lon="6.03673">
        <ele>232.43</ele>
        <time>2018-04-25T07:54:53Z</time>
      </trkpt>
      <trkpt lat="47.6723" lon="6.03668">
        <ele>232.53</ele>
        <time>2018-04-25T07:54:55Z</time>
      </trkpt>
      <trkpt lat="47.67225" lon="6.03659">
        <ele>232.63</ele>
        <time>2018-04-25T07:54:57Z</time>
      </trkpt>
      <trkpt lat="47.67222" lon="6.03653">
        <ele>232.72</ele>
        <time>2018-04-25T07:54:59Z</time>
      </trkpt>
      <trkpt lat="47.67217" lon="6.03644">
        <ele>232.87</ele>
        <time>2018-04-25T07:55:02Z</time>
      </trkpt>
      <trkpt lat="47.67213" lon="6.03636">
        <ele>233.02</ele>
        <time>2018-04-25T07:55:05Z</time>
      </trkpt>
      <trkpt lat="47.67209" lon="6.03629">
        <ele>233.16</ele>
        <time>2018-04-25T07:55:08Z</time>
      </trkpt>
      <trkpt lat="47.67207" lon="6.03622">
        <ele>233.26</ele>
        <time>2018-04-25T07:55:10Z</time>
      </trkpt>
      <trkpt lat="47.67205" lon="6.03615">
        <ele>233.38</ele>
        <time>2018-04-25T07:55:13Z</time>
      </trkpt>
      <trkpt lat="47.67202" lon="6.03609">
        <ele>233.45</ele>
        <time>2018-04-25T07:55:15Z</time>
      </trkpt>
      <trkpt lat="47.67199" lon="6.03602">
        <ele>233.55</ele>
        <time>2018-04-25T07:55:18Z</time>
      </trkpt>
      <trkpt lat="47.67196" lon="6.03595">
        <ele>233.63</ele>
        <time>2018-04-25T07:55:21Z</time>
      </trkpt>
      <trkpt lat="47.67193" lon="6.03589">
        <ele>233.68</ele>
        <time>2018-04-25T07:55:23Z</time>
      </trkpt>
      <trkpt lat="47.6719" lon="6.03581">
        <ele>233.79</ele>
        <time>2018-04-25T07:55:26Z</time>
      </trkpt>
      <trkpt lat="47.67188" lon="6.03575">
        <ele>233.91</ele>
        <time>2018-04-25T07:55:28Z</time>
      </trkpt>
      <trkpt lat="47.67184" lon="6.03567">
        <ele>234.12</ele>
        <time>2018-04-25T07:55:31Z</time>
      </trkpt>
      <trkpt lat="47.67179" lon="6.03559">
        <ele>234.38</ele>
        <time>2018-04-25T07:55:34Z</time>
      </trkpt>
      <trkpt lat="47.67175" lon="6.03553">
        <ele>234.67</ele>
        <time>2018-04-25T07:55:37Z</time>
      </trkpt>
      <trkpt lat="47.67171" lon="6.03547">
        <ele>234.87</ele>
        <time>2018-04-25T07:55:39Z</time>
      </trkpt>
      <trkpt lat="47.67167" lon="6.03541">
        <ele>235.08</ele>
        <time>2018-04-25T07:55:41Z</time>
      </trkpt>
      <trkpt lat="47.67163" lon="6.03535">
        <ele>235.29</ele>
        <time>2018-04-25T07:55:43Z</time>
      </trkpt>
      <trkpt lat="47.6716" lon="6.0353">
        <ele>235.51</ele>
        <time>2018-04-25T07:55:45Z</time>
      </trkpt>
      <trkpt lat="47.67156" lon="6.03522">
        <ele>235.73</ele>
        <time>2018-04-25T07:55:47Z</time>
      </trkpt>
      <trkpt lat="47.67152" lon="6.03516">
        <ele>235.95</ele>
        <time>2018-04-25T07:55:49Z</time>
      </trkpt>
      <trkpt lat="47.67148" lon="6.03509">
        <ele>236.17</ele>
        <time>2018-04-25T07:55:51Z</time>
      </trkpt>
      <trkpt lat="47.67142" lon="6.03497">
        <ele>237.1</ele>
        <time>2018-04-25T07:55:53Z</time>
      </trkpt>
      <trkpt lat="47.67139" lon="6.03492">
        <ele>237.42</ele>
        <time>2018-04-25T07:55:54Z</time>
      </trkpt>
      <trkpt lat="47.67134" lon="6.03483">
        <ele>238.29</ele>
        <time>2018-04-25T07:55:56Z</time>
      </trkpt>
      <trkpt lat="47.6713" lon="6.03473">
        <ele>239.7</ele>
        <time>2018-04-25T07:55:58Z</time>
      </trkpt>
      <trkpt lat="47.67125" lon="6.03466">
        <ele>240.04</ele>
        <time>2018-04-25T07:56:00Z</time>
      </trkpt>
      <trkpt lat="47.67121" lon="6.03461">
        <ele>240.17</ele>
        <time>2018-04-25T07:56:02Z</time>
      </trkpt>
      <trkpt lat="47.67116" lon="6.03452">
        <ele>240.32</ele>
        <time>2018-04-25T07:56:05Z</time>
      </trkpt>
      <trkpt lat="47.6711" lon="6.03445">
        <ele>240.43</ele>
        <time>2018-04-25T07:56:07Z</time>
      </trkpt>
      <trkpt lat="47.67104" lon="6.03436">
        <ele>240.55</ele>
        <time>2018-04-25T07:56:09Z</time>
      </trkpt>
      <trkpt lat="47.67098" lon="6.03427">
        <ele>240.67</ele>
        <time>2018-04-25T07:56:11Z</time>
      </trkpt>
      <trkpt lat="47.67094" lon="6.03419">
        <ele>240.8</ele>
        <time>2018-04-25T07:56:13Z</time>
      </trkpt>
      <trkpt lat="47.67088" lon="6.03411">
        <ele>240.92</ele>
        <time>2018-04-25T07:56:15Z</time>
      </trkpt>
      <trkpt lat="47.67082" lon="6.03402">
        <ele>241.04</ele>
        <time>2018-04-25T07:56:17Z</time>
      </trkpt>
      <trkpt lat="47.67077" lon="6.03397">
        <ele>241.14</ele>
        <time>2018-04-25T07:56:19Z</time>
      </trkpt>
      <trkpt lat="47.67074" lon="6.03389">
        <ele>241.25</ele>
        <time>2018-04-25T07:56:21Z</time>
      </trkpt>
      <trkpt lat="47.6707" lon="6.03384">
        <ele>241.35</ele>
        <time>2018-04-25T07:56:23Z</time>
      </trkpt>
      <trkpt lat="47.67066" lon="6.03377">
        <ele>241.44</ele>
        <time>2018-04-25T07:56:25Z</time>
      </trkpt>
      <trkpt lat="47.67062" lon="6.03372">
        <ele>241.55</ele>
        <time>2018-04-25T07:56:27Z</time>
      </trkpt>
      <trkpt lat="47.67058" lon="6.03367">
        <ele>241.65</ele>
        <time>2018-04-25T07:56:29Z</time>
      </trkpt>
      <trkpt lat="47.67053" lon="6.03363">
        <ele>241.74</ele>
        <time>2018-04-25T07:56:31Z</time>
      </trkpt>
      <trkpt lat="47.67049" lon="6.03356">
        <ele>241.88</ele>
        <time>2018-04-25T07:56:34Z</time>
      </trkpt>
      <trkpt lat="47.67045" lon="6.03352">
        <ele>241.96</ele>
        <time>2018-04-25T07:56:36Z</time>
      </trkpt>
      <trkpt lat="47.6704" lon="6.03347">
        <ele>242.09</ele>
        <time>2018-04-25T07:56:39Z</time>
      </trkpt>
      <trkpt lat="47.67037" lon="6.03339">
        <ele>242.22</ele>
        <time>2018-04-25T07:56:42Z</time>
      </trkpt>
      <trkpt lat="47.67035" lon="6.03333">
        <ele>242.31</ele>
        <time>2018-04-25T07:56:44Z</time>
      </trkpt>
      <trkpt lat="47.67031" lon="6.03327">
        <ele>242.45</ele>
        <time>2018-04-25T07:56:47Z</time>
      </trkpt>
      <trkpt lat="47.67027" lon="6.03324">
        <ele>242.6</ele>
        <time>2018-04-25T07:56:55Z</time>
      </trkpt>
      <trkpt lat="47.67021" lon="6.03321">
        <ele>243.15</ele>
        <time>2018-04-25T07:57:19Z</time>
      </trkpt>
      <trkpt lat="47.67018" lon="6.03316">
        <ele>243.43</ele>
        <time>2018-04-25T07:57:22Z</time>
      </trkpt>
      <trkpt lat="47.67014" lon="6.03309">
        <ele>243.69</ele>
        <time>2018-04-25T07:57:25Z</time>
      </trkpt>
      <trkpt lat="47.6701" lon="6.03301">
        <ele>243.85</ele>
        <time>2018-04-25T07:57:27Z</time>
      </trkpt>
      <trkpt lat="47.67005" lon="6.03295">
        <ele>244</ele>
        <time>2018-04-25T07:57:29Z</time>
      </trkpt>
      <trkpt lat="47.67001" lon="6.03289">
        <ele>244.16</ele>
        <time>2018-04-25T07:57:31Z</time>
      </trkpt>
      <trkpt lat="47.66996" lon="6.03281">
        <ele>244.31</ele>
        <time>2018-04-25T07:57:33Z</time>
      </trkpt>
      <trkpt lat="47.6699" lon="6.03274">
        <ele>244.45</ele>
        <time>2018-04-25T07:57:35Z</time>
      </trkpt>
      <trkpt lat="47.66985" lon="6.03267">
        <ele>244.6</ele>
        <time>2018-04-25T07:57:37Z</time>
      </trkpt>
      <trkpt lat="47.66978" lon="6.0326">
        <ele>244.74</ele>
        <time>2018-04-25T07:57:39Z</time>
      </trkpt>
      <trkpt lat="47.66972" lon="6.03251">
        <ele>244.88</ele>
        <time>2018-04-25T07:57:41Z</time>
      </trkpt>
      <trkpt lat="47.66968" lon="6.03244">
        <ele>245.01</ele>
        <time>2018-04-25T07:57:43Z</time>
      </trkpt>
      <trkpt lat="47.66965" lon="6.03239">
        <ele>245.14</ele>
        <time>2018-04-25T07:57:45Z</time>
      </trkpt>
      <trkpt lat="47.66959" lon="6.03234">
        <ele>245.25</ele>
        <time>2018-04-25T07:57:47Z</time>
      </trkpt>
      <trkpt lat="47.66956" lon="6.03229">
        <ele>245.62</ele>
        <time>2018-04-25T07:57:48Z</time>
      </trkpt>
      <trkpt lat="47.66951" lon="6.03223">
        <ele>246.01</ele>
        <time>2018-04-25T07:57:49Z</time>
      </trkpt>
      <trkpt lat="47.66947" lon="6.03216">
        <ele>246.33</ele>
        <time>2018-04-25T07:57:50Z</time>
      </trkpt>
      <trkpt lat="47.66942" lon="6.03211">
        <ele>246.58</ele>
        <time>2018-04-25T07:57:51Z</time>
      </trkpt>
      <trkpt lat="47.66937" lon="6.03205">
        <ele>246.78</ele>
        <time>2018-04-25T07:57:52Z</time>
      </trkpt>
      <trkpt lat="47.66931" lon="6.03199">
        <ele>246.91</ele>
        <time>2018-04-25T07:57:53Z</time>
      </trkpt>
      <trkpt lat="47.66926" lon="6.03193">
        <ele>247</ele>
        <time>2018-04-25T07:57:54Z</time>
      </trkpt>
      <trkpt lat="47.66918" lon="6.03188">
        <ele>246.98</ele>
        <time>2018-04-25T07:57:55Z</time>
      </trkpt>
      <trkpt lat="47.66911" lon="6.03183">
        <ele>246.87</ele>
        <time>2018-04-25T07:57:56Z</time>
      </trkpt>
      <trkpt lat="47.66904" lon="6.03179">
        <ele>246.67</ele>
        <time>2018-04-25T07:57:57Z</time>
      </trkpt>
      <trkpt lat="47.66898" lon="6.03173">
        <ele>246.39</ele>
        <time>2018-04-25T07:57:58Z</time>
      </trkpt>
      <trkpt lat="47.66892" lon="6.03168">
        <ele>246.03</ele>
        <time>2018-04-25T07:57:59Z</time>
      </trkpt>
      <trkpt lat="47.66886" lon="6.03164">
        <ele>245.63</ele>
        <time>2018-04-25T07:58:00Z</time>
      </trkpt>
      <trkpt lat="47.66879" lon="6.03161">
        <ele>245.2</ele>
        <time>2018-04-25T07:58:01Z</time>
      </trkpt>
      <trkpt lat="47.66874" lon="6.03158">
        <ele>244.73</ele>
        <time>2018-04-25T07:58:02Z</time>
      </trkpt>
      <trkpt lat="47.66869" lon="6.03156">
        <ele>244.2</ele>
        <time>2018-04-25T07:58:03Z</time>
      </trkpt>
      <trkpt lat="47.66863" lon="6.03154">
        <ele>243.68</ele>
        <time>2018-04-25T07:58:04Z</time>
      </trkpt>
      <trkpt lat="47.66856" lon="6.03153">
        <ele>243.19</ele>
        <time>2018-04-25T07:58:05Z</time>
      </trkpt>
      <trkpt lat="47.6685" lon="6.03151">
        <ele>242.75</ele>
        <time>2018-04-25T07:58:06Z</time>
      </trkpt>
      <trkpt lat="47.66843" lon="6.03149">
        <ele>242.34</ele>
        <time>2018-04-25T07:58:07Z</time>
      </trkpt>
      <trkpt lat="47.66836" lon="6.03147">
        <ele>241.93</ele>
        <time>2018-04-25T07:58:08Z</time>
      </trkpt>
      <trkpt lat="47.66829" lon="6.03146">
        <ele>241.53</ele>
        <time>2018-04-25T07:58:09Z</time>
      </trkpt>
      <trkpt lat="47.66821" lon="6.03144">
        <ele>241.14</ele>
        <time>2018-04-25T07:58:10Z</time>
      </trkpt>
      <trkpt lat="47.66814" lon="6.03141">
        <ele>240.74</ele>
        <time>2018-04-25T07:58:11Z</time>
      </trkpt>
      <trkpt lat="47.66806" lon="6.03139">
        <ele>240.35</ele>
        <time>2018-04-25T07:58:12Z</time>
      </trkpt>
      <trkpt lat="47.66799" lon="6.03137">
        <ele>239.94</ele>
        <time>2018-04-25T07:58:13Z</time>
      </trkpt>
      <trkpt lat="47.66791" lon="6.03136">
        <ele>239.54</ele>
        <time>2018-04-25T07:58:14Z</time>
      </trkpt>
      <trkpt lat="47.66784" lon="6.03134">
        <ele>239.12</ele>
        <time>2018-04-25T07:58:15Z</time>
      </trkpt>
      <trkpt lat="47.66776" lon="6.03132">
        <ele>238.7</ele>
        <time>2018-04-25T07:58:16Z</time>
      </trkpt>
      <trkpt lat="47.66768" lon="6.03129">
        <ele>238.26</ele>
        <time>2018-04-25T07:58:17Z</time>
      </trkpt>
      <trkpt lat="47.6676" lon="6.03126">
        <ele>237.84</ele>
        <time>2018-04-25T07:58:18Z</time>
      </trkpt>
      <trkpt lat="47.66754" lon="6.03123">
        <ele>237.42</ele>
        <time>2018-04-25T07:58:19Z</time>
      </trkpt>
      <trkpt lat="47.66747" lon="6.0312">
        <ele>236.99</ele>
        <time>2018-04-25T07:58:20Z</time>
      </trkpt>
      <trkpt lat="47.6674" lon="6.03116">
        <ele>236.53</ele>
        <time>2018-04-25T07:58:21Z</time>
      </trkpt>
      <trkpt lat="47.66734" lon="6.03111">
        <ele>236.08</ele>
        <time>2018-04-25T07:58:22Z</time>
      </trkpt>
      <trkpt lat="47.66728" lon="6.03106">
        <ele>235.61</ele>
        <time>2018-04-25T07:58:23Z</time>
      </trkpt>
      <trkpt lat="47.66722" lon="6.03101">
        <ele>235.15</ele>
        <time>2018-04-25T07:58:24Z</time>
      </trkpt>
      <trkpt lat="47.66716" lon="6.03095">
        <ele>234.7</ele>
        <time>2018-04-25T07:58:25Z</time>
      </trkpt>
      <trkpt lat="47.66709" lon="6.03091">
        <ele>234.29</ele>
        <time>2018-04-25T07:58:26Z</time>
      </trkpt>
      <trkpt lat="47.66702" lon="6.03088">
        <ele>233.89</ele>
        <time>2018-04-25T07:58:27Z</time>
      </trkpt>
      <trkpt lat="47.66695" lon="6.03085">
        <ele>233.5</ele>
        <time>2018-04-25T07:58:28Z</time>
      </trkpt>
      <trkpt lat="47.66688" lon="6.03083">
        <ele>233.11</ele>
        <time>2018-04-25T07:58:29Z</time>
      </trkpt>
      <trkpt lat="47.66681" lon="6.03082">
        <ele>232.72</ele>
        <time>2018-04-25T07:58:30Z</time>
      </trkpt>
      <trkpt lat="47.66674" lon="6.03081">
        <ele>232.32</ele>
        <time>2018-04-25T07:58:31Z</time>
      </trkpt>
      <trkpt lat="47.66667" lon="6.0308">
        <ele>231.95</ele>
        <time>2018-04-25T07:58:32Z</time>
      </trkpt>
      <trkpt lat="47.66661" lon="6.0308">
        <ele>231.59</ele>
        <time>2018-04-25T07:58:33Z</time>
      </trkpt>
      <trkpt lat="47.66654" lon="6.0308">
        <ele>231.24</ele>
        <time>2018-04-25T07:58:34Z</time>
      </trkpt>
      <trkpt lat="47.66648" lon="6.03082">
        <ele>230.92</ele>
        <time>2018-04-25T07:58:35Z</time>
      </trkpt>
      <trkpt lat="47.66641" lon="6.03084">
        <ele>230.6</ele>
        <time>2018-04-25T07:58:36Z</time>
      </trkpt>
      <trkpt lat="47.66636" lon="6.03085">
        <ele>230.3</ele>
        <time>2018-04-25T07:58:37Z</time>
      </trkpt>
      <trkpt lat="47.6663" lon="6.03085">
        <ele>230</ele>
        <time>2018-04-25T07:58:38Z</time>
      </trkpt>
      <trkpt lat="47.66624" lon="6.03086">
        <ele>229.71</ele>
        <time>2018-04-25T07:58:39Z</time>
      </trkpt>
      <trkpt lat="47.66619" lon="6.03087">
        <ele>229.43</ele>
        <time>2018-04-25T07:58:40Z</time>
      </trkpt>
      <trkpt lat="47.66613" lon="6.03087">
        <ele>229.15</ele>
        <time>2018-04-25T07:58:41Z</time>
      </trkpt>
      <trkpt lat="47.66608" lon="6.03087">
        <ele>228.88</ele>
        <time>2018-04-25T07:58:42Z</time>
      </trkpt>
      <trkpt lat="47.66603" lon="6.03087">
        <ele>228.61</ele>
        <time>2018-04-25T07:58:43Z</time>
      </trkpt>
      <trkpt lat="47.66597" lon="6.03087">
        <ele>228.34</ele>
        <time>2018-04-25T07:58:44Z</time>
      </trkpt>
      <trkpt lat="47.66592" lon="6.03086">
        <ele>228.07</ele>
        <time>2018-04-25T07:58:45Z</time>
      </trkpt>
      <trkpt lat="47.66588" lon="6.03085">
        <ele>227.81</ele>
        <time>2018-04-25T07:58:46Z</time>
      </trkpt>
      <trkpt lat="47.66583" lon="6.03084">
        <ele>227.55</ele>
        <time>2018-04-25T07:58:47Z</time>
      </trkpt>
      <trkpt lat="47.66578" lon="6.03084">
        <ele>227.3</ele>
        <time>2018-04-25T07:58:48Z</time>
      </trkpt>
      <trkpt lat="47.66574" lon="6.03083">
        <ele>227.04</ele>
        <time>2018-04-25T07:58:49Z</time>
      </trkpt>
      <trkpt lat="47.66565" lon="6.03079">
        <ele>226.54</ele>
        <time>2018-04-25T07:58:51Z</time>
      </trkpt>
      <trkpt lat="47.66561" lon="6.03078">
        <ele>226.3</ele>
        <time>2018-04-25T07:58:52Z</time>
      </trkpt>
      <trkpt lat="47.66553" lon="6.03076">
        <ele>225.97</ele>
        <time>2018-04-25T07:58:54Z</time>
      </trkpt>
      <trkpt lat="47.66547" lon="6.03074">
        <ele>225.88</ele>
        <time>2018-04-25T07:58:56Z</time>
      </trkpt>
      <trkpt lat="47.6654" lon="6.03072">
        <ele>225.8</ele>
        <time>2018-04-25T07:58:58Z</time>
      </trkpt>
      <trkpt lat="47.66534" lon="6.03072">
        <ele>225.71</ele>
        <time>2018-04-25T07:59:00Z</time>
      </trkpt>
      <trkpt lat="47.66527" lon="6.03072">
        <ele>225.59</ele>
        <time>2018-04-25T07:59:02Z</time>
      </trkpt>
      <trkpt lat="47.6652" lon="6.03073">
        <ele>225.46</ele>
        <time>2018-04-25T07:59:04Z</time>
      </trkpt>
      <trkpt lat="47.66514" lon="6.03076">
        <ele>225.32</ele>
        <time>2018-04-25T07:59:06Z</time>
      </trkpt>
      <trkpt lat="47.66506" lon="6.03085">
        <ele>225.18</ele>
        <time>2018-04-25T07:59:08Z</time>
      </trkpt>
      <trkpt lat="47.66503" lon="6.03092">
        <ele>225.11</ele>
        <time>2018-04-25T07:59:09Z</time>
      </trkpt>
      <trkpt lat="47.665" lon="6.031">
        <ele>224.6</ele>
        <time>2018-04-25T07:59:10Z</time>
      </trkpt>
      <trkpt lat="47.66498" lon="6.03109">
        <ele>224.07</ele>
        <time>2018-04-25T07:59:11Z</time>
      </trkpt>
      <trkpt lat="47.66497" lon="6.03118">
        <ele>223.63</ele>
        <time>2018-04-25T07:59:12Z</time>
      </trkpt>
      <trkpt lat="47.66497" lon="6.03128">
        <ele>223.27</ele>
        <time>2018-04-25T07:59:13Z</time>
      </trkpt>
      <trkpt lat="47.66496" lon="6.03137">
        <ele>223.01</ele>
        <time>2018-04-25T07:59:14Z</time>
      </trkpt>
      <trkpt lat="47.66495" lon="6.03145">
        <ele>222.82</ele>
        <time>2018-04-25T07:59:15Z</time>
      </trkpt>
      <trkpt lat="47.66495" lon="6.03153">
        <ele>222.69</ele>
        <time>2018-04-25T07:59:16Z</time>
      </trkpt>
      <trkpt lat="47.66494" lon="6.03161">
        <ele>222.58</ele>
        <time>2018-04-25T07:59:17Z</time>
      </trkpt>
      <trkpt lat="47.66494" lon="6.03173">
        <ele>222.45</ele>
        <time>2018-04-25T07:59:19Z</time>
      </trkpt>
      <trkpt lat="47.66494" lon="6.03184">
        <ele>222.43</ele>
        <time>2018-04-25T07:59:21Z</time>
      </trkpt>
      <trkpt lat="47.66494" lon="6.03194">
        <ele>222.42</ele>
        <time>2018-04-25T07:59:23Z</time>
      </trkpt>
      <trkpt lat="47.66497" lon="6.03203">
        <ele>222.41</ele>
        <time>2018-04-25T07:59:25Z</time>
      </trkpt>
      <trkpt lat="47.66499" lon="6.03211">
        <ele>222.4</ele>
        <time>2018-04-25T07:59:27Z</time>
      </trkpt>
      <trkpt lat="47.66501" lon="6.03219">
        <ele>222.38</ele>
        <time>2018-04-25T07:59:29Z</time>
      </trkpt>
      <trkpt lat="47.66503" lon="6.03227">
        <ele>222.36</ele>
        <time>2018-04-25T07:59:31Z</time>
      </trkpt>
      <trkpt lat="47.66506" lon="6.03234">
        <ele>222.34</ele>
        <time>2018-04-25T07:59:33Z</time>
      </trkpt>
      <trkpt lat="47.66508" lon="6.03242">
        <ele>222.31</ele>
        <time>2018-04-25T07:59:35Z</time>
      </trkpt>
      <trkpt lat="47.66511" lon="6.03249">
        <ele>222.27</ele>
        <time>2018-04-25T07:59:37Z</time>
      </trkpt>
      <trkpt lat="47.66514" lon="6.03256">
        <ele>222.24</ele>
        <time>2018-04-25T07:59:39Z</time>
      </trkpt>
      <trkpt lat="47.66516" lon="6.03263">
        <ele>222.21</ele>
        <time>2018-04-25T07:59:41Z</time>
      </trkpt>
      <trkpt lat="47.66519" lon="6.0327">
        <ele>222.18</ele>
        <time>2018-04-25T07:59:43Z</time>
      </trkpt>
      <trkpt lat="47.66521" lon="6.03277">
        <ele>222.16</ele>
        <time>2018-04-25T07:59:45Z</time>
      </trkpt>
      <trkpt lat="47.66521" lon="6.03285">
        <ele>222.14</ele>
        <time>2018-04-25T07:59:47Z</time>
      </trkpt>
      <trkpt lat="47.66522" lon="6.03292">
        <ele>222.13</ele>
        <time>2018-04-25T07:59:49Z</time>
      </trkpt>
      <trkpt lat="47.66522" lon="6.033">
        <ele>222.12</ele>
        <time>2018-04-25T07:59:51Z</time>
      </trkpt>
      <trkpt lat="47.66522" lon="6.03308">
        <ele>222.11</ele>
        <time>2018-04-25T07:59:53Z</time>
      </trkpt>
      <trkpt lat="47.66521" lon="6.03315">
        <ele>222.1</ele>
        <time>2018-04-25T07:59:55Z</time>
      </trkpt>
      <trkpt lat="47.6652" lon="6.03323">
        <ele>222.09</ele>
        <time>2018-04-25T07:59:57Z</time>
      </trkpt>
      <trkpt lat="47.6652" lon="6.0333">
        <ele>222.09</ele>
        <time>2018-04-25T07:59:59Z</time>
      </trkpt>
      <trkpt lat="47.66519" lon="6.03336">
        <ele>222.08</ele>
        <time>2018-04-25T08:00:01Z</time>
      </trkpt>
      <trkpt lat="47.66518" lon="6.03346">
        <ele>222.09</ele>
        <time>2018-04-25T08:00:04Z</time>
      </trkpt>
      <trkpt lat="47.66517" lon="6.03356">
        <ele>222.09</ele>
        <time>2018-04-25T08:00:07Z</time>
      </trkpt>
      <trkpt lat="47.66517" lon="6.03364">
        <ele>222.11</ele>
        <time>2018-04-25T08:00:10Z</time>
      </trkpt>
      <trkpt lat="47.66517" lon="6.03371">
        <ele>222.11</ele>
        <time>2018-04-25T08:00:13Z</time>
      </trkpt>
      <trkpt lat="47.66516" lon="6.03379">
        <ele>222.12</ele>
        <time>2018-04-25T08:00:16Z</time>
      </trkpt>
      <trkpt lat="47.66516" lon="6.03386">
        <ele>222.12</ele>
        <time>2018-04-25T08:00:19Z</time>
      </trkpt>
      <trkpt lat="47.66516" lon="6.03394">
        <ele>222.12</ele>
        <time>2018-04-25T08:00:22Z</time>
      </trkpt>
      <trkpt lat="47.66516" lon="6.03402">
        <ele>222.13</ele>
        <time>2018-04-25T08:00:25Z</time>
      </trkpt>
      <trkpt lat="47.66516" lon="6.0341">
        <ele>222.16</ele>
        <time>2018-04-25T08:00:29Z</time>
      </trkpt>
      <trkpt lat="47.66516" lon="6.03417">
        <ele>222.18</ele>
        <time>2018-04-25T08:00:32Z</time>
      </trkpt>
      <trkpt lat="47.66516" lon="6.03425">
        <ele>222.22</ele>
        <time>2018-04-25T08:00:36Z</time>
      </trkpt>
      <trkpt lat="47.66516" lon="6.03434">
        <ele>222.25</ele>
        <time>2018-04-25T08:00:43Z</time>
      </trkpt>
      <trkpt lat="47.66516" lon="6.03442">
        <ele>222.27</ele>
        <time>2018-04-25T08:00:51Z</time>
      </trkpt>
      <trkpt lat="47.66514" lon="6.03449">
        <ele>222.27</ele>
        <time>2018-04-25T08:00:56Z</time>
      </trkpt>
      <trkpt lat="47.66512" lon="6.03459">
        <ele>222.27</ele>
        <time>2018-04-25T08:01:00Z</time>
      </trkpt>
      <trkpt lat="47.66509" lon="6.03466">
        <ele>222.29</ele>
        <time>2018-04-25T08:01:03Z</time>
      </trkpt>
      <trkpt lat="47.66505" lon="6.03473">
        <ele>222.36</ele>
        <time>2018-04-25T08:01:09Z</time>
      </trkpt>
      <trkpt lat="47.66503" lon="6.03479">
        <ele>222.44</ele>
        <time>2018-04-25T08:01:13Z</time>
      </trkpt>
      <trkpt lat="47.66499" lon="6.03485">
        <ele>222.55</ele>
        <time>2018-04-25T08:01:17Z</time>
      </trkpt>
      <trkpt lat="47.66496" lon="6.03491">
        <ele>222.66</ele>
        <time>2018-04-25T08:01:20Z</time>
      </trkpt>
      <trkpt lat="47.66492" lon="6.03497">
        <ele>222.78</ele>
        <time>2018-04-25T08:01:23Z</time>
      </trkpt>
      <trkpt lat="47.6649" lon="6.03503">
        <ele>222.87</ele>
        <time>2018-04-25T08:01:25Z</time>
      </trkpt>
      <trkpt lat="47.66486" lon="6.03509">
        <ele>223.02</ele>
        <time>2018-04-25T08:01:28Z</time>
      </trkpt>
      <trkpt lat="47.66483" lon="6.03518">
        <ele>223.16</ele>
        <time>2018-04-25T08:01:31Z</time>
      </trkpt>
      <trkpt lat="47.66481" lon="6.03526">
        <ele>223.29</ele>
        <time>2018-04-25T08:01:34Z</time>
      </trkpt>
      <trkpt lat="47.66479" lon="6.03533">
        <ele>223.41</ele>
        <time>2018-04-25T08:01:37Z</time>
      </trkpt>
      <trkpt lat="47.66477" lon="6.03542">
        <ele>223.52</ele>
        <time>2018-04-25T08:01:40Z</time>
      </trkpt>
      <trkpt lat="47.66476" lon="6.03549">
        <ele>223.6</ele>
        <time>2018-04-25T08:01:42Z</time>
      </trkpt>
      <trkpt lat="47.66474" lon="6.03559">
        <ele>223.74</ele>
        <time>2018-04-25T08:01:45Z</time>
      </trkpt>
      <trkpt lat="47.66473" lon="6.03566">
        <ele>223.85</ele>
        <time>2018-04-25T08:01:47Z</time>
      </trkpt>
      <trkpt lat="47.66471" lon="6.03575">
        <ele>223.96</ele>
        <time>2018-04-25T08:01:49Z</time>
      </trkpt>
      <trkpt lat="47.66471" lon="6.03581">
        <ele>224.08</ele>
        <time>2018-04-25T08:01:51Z</time>
      </trkpt>
      <trkpt lat="47.66469" lon="6.03589">
        <ele>224.2</ele>
        <time>2018-04-25T08:01:53Z</time>
      </trkpt>
      <trkpt lat="47.66468" lon="6.03597">
        <ele>224.33</ele>
        <time>2018-04-25T08:01:55Z</time>
      </trkpt>
      <trkpt lat="47.66466" lon="6.03603">
        <ele>224.47</ele>
        <time>2018-04-25T08:01:57Z</time>
      </trkpt>
      <trkpt lat="47.66464" lon="6.03612">
        <ele>224.62</ele>
        <time>2018-04-25T08:01:59Z</time>
      </trkpt>
      <trkpt lat="47.66463" lon="6.03619">
        <ele>224.78</ele>
        <time>2018-04-25T08:02:01Z</time>
      </trkpt>
      <trkpt lat="47.66461" lon="6.03628">
        <ele>225.04</ele>
        <time>2018-04-25T08:02:04Z</time>
      </trkpt>
      <trkpt lat="47.6646" lon="6.03636">
        <ele>225.21</ele>
        <time>2018-04-25T08:02:06Z</time>
      </trkpt>
      <trkpt lat="47.66456" lon="6.03645">
        <ele>225.39</ele>
        <time>2018-04-25T08:02:08Z</time>
      </trkpt>
      <trkpt lat="47.66454" lon="6.03653">
        <ele>225.57</ele>
        <time>2018-04-25T08:02:10Z</time>
      </trkpt>
      <trkpt lat="47.66452" lon="6.03662">
        <ele>225.85</ele>
        <time>2018-04-25T08:02:13Z</time>
      </trkpt>
      <trkpt lat="47.66452" lon="6.03671">
        <ele>225.95</ele>
        <time>2018-04-25T08:02:14Z</time>
      </trkpt>
      <trkpt lat="47.66453" lon="6.0368">
        <ele>226.04</ele>
        <time>2018-04-25T08:02:15Z</time>
      </trkpt>
      <trkpt lat="47.66453" lon="6.03691">
        <ele>226.23</ele>
        <time>2018-04-25T08:02:17Z</time>
      </trkpt>
      <trkpt lat="47.66454" lon="6.03702">
        <ele>226.4</ele>
        <time>2018-04-25T08:02:19Z</time>
      </trkpt>
      <trkpt lat="47.66454" lon="6.03712">
        <ele>226.58</ele>
        <time>2018-04-25T08:02:21Z</time>
      </trkpt>
      <trkpt lat="47.66453" lon="6.03719">
        <ele>226.75</ele>
        <time>2018-04-25T08:02:23Z</time>
      </trkpt>
      <trkpt lat="47.66452" lon="6.03729">
        <ele>227</ele>
        <time>2018-04-25T08:02:26Z</time>
      </trkpt>
      <trkpt lat="47.66452" lon="6.03737">
        <ele>227.16</ele>
        <time>2018-04-25T08:02:28Z</time>
      </trkpt>
      <trkpt lat="47.66452" lon="6.03745">
        <ele>227.32</ele>
        <time>2018-04-25T08:02:30Z</time>
      </trkpt>
      <trkpt lat="47.66451" lon="6.03752">
        <ele>227.48</ele>
        <time>2018-04-25T08:02:32Z</time>
      </trkpt>
      <trkpt lat="47.66453" lon="6.03761">
        <ele>227.64</ele>
        <time>2018-04-25T08:02:34Z</time>
      </trkpt>
      <trkpt lat="47.66453" lon="6.03769">
        <ele>227.79</ele>
        <time>2018-04-25T08:02:36Z</time>
      </trkpt>
      <trkpt lat="47.66454" lon="6.03777">
        <ele>227.94</ele>
        <time>2018-04-25T08:02:38Z</time>
      </trkpt>
      <trkpt lat="47.66455" lon="6.03785">
        <ele>228.09</ele>
        <time>2018-04-25T08:02:40Z</time>
      </trkpt>
      <trkpt lat="47.66455" lon="6.03792">
        <ele>228.24</ele>
        <time>2018-04-25T08:02:42Z</time>
      </trkpt>
      <trkpt lat="47.66456" lon="6.03802">
        <ele>228.45</ele>
        <time>2018-04-25T08:02:45Z</time>
      </trkpt>
      <trkpt lat="47.66455" lon="6.0381">
        <ele>228.59</ele>
        <time>2018-04-25T08:02:47Z</time>
      </trkpt>
      <trkpt lat="47.66456" lon="6.03818">
        <ele>228.73</ele>
        <time>2018-04-25T08:02:49Z</time>
      </trkpt>
      <trkpt lat="47.66456" lon="6.03825">
        <ele>228.87</ele>
        <time>2018-04-25T08:02:51Z</time>
      </trkpt>
      <trkpt lat="47.66457" lon="6.03834">
        <ele>229.07</ele>
        <time>2018-04-25T08:02:54Z</time>
      </trkpt>
      <trkpt lat="47.66459" lon="6.03844">
        <ele>229.26</ele>
        <time>2018-04-25T08:02:57Z</time>
      </trkpt>
      <trkpt lat="47.66461" lon="6.03853">
        <ele>229.45</ele>
        <time>2018-04-25T08:03:00Z</time>
      </trkpt>
      <trkpt lat="47.66461" lon="6.03863">
        <ele>229.63</ele>
        <time>2018-04-25T08:03:03Z</time>
      </trkpt>
      <trkpt lat="47.66463" lon="6.03872">
        <ele>229.8</ele>
        <time>2018-04-25T08:03:06Z</time>
      </trkpt>
      <trkpt lat="47.66467" lon="6.03879">
        <ele>229.96</ele>
        <time>2018-04-25T08:03:09Z</time>
      </trkpt>
      <trkpt lat="47.6647" lon="6.03887">
        <ele>230.12</ele>
        <time>2018-04-25T08:03:12Z</time>
      </trkpt>
      <trkpt lat="47.66467" lon="6.03895">
        <ele>230.28</ele>
        <time>2018-04-25T08:03:15Z</time>
      </trkpt>
      <trkpt lat="47.66464" lon="6.03904">
        <ele>230.39</ele>
        <time>2018-04-25T08:03:17Z</time>
      </trkpt>
      <trkpt lat="47.66463" lon="6.03913">
        <ele>230.49</ele>
        <time>2018-04-25T08:03:19Z</time>
      </trkpt>
      <trkpt lat="47.66462" lon="6.0392">
        <ele>230.59</ele>
        <time>2018-04-25T08:03:21Z</time>
      </trkpt>
      <trkpt lat="47.6646" lon="6.03929">
        <ele>230.73</ele>
        <time>2018-04-25T08:03:24Z</time>
      </trkpt>
      <trkpt lat="47.66459" lon="6.03935">
        <ele>230.83</ele>
        <time>2018-04-25T08:03:26Z</time>
      </trkpt>
      <trkpt lat="47.66459" lon="6.03944">
        <ele>230.97</ele>
        <time>2018-04-25T08:03:29Z</time>
      </trkpt>
      <trkpt lat="47.66459" lon="6.03953">
        <ele>231.1</ele>
        <time>2018-04-25T08:03:32Z</time>
      </trkpt>
      <trkpt lat="47.6646" lon="6.03962">
        <ele>231.23</ele>
        <time>2018-04-25T08:03:35Z</time>
      </trkpt>
      <trkpt lat="47.66462" lon="6.03969">
        <ele>231.35</ele>
        <time>2018-04-25T08:03:38Z</time>
      </trkpt>
      <trkpt lat="47.66464" lon="6.03976">
        <ele>231.47</ele>
        <time>2018-04-25T08:03:41Z</time>
      </trkpt>
      <trkpt lat="47.66468" lon="6.03984">
        <ele>231.62</ele>
        <time>2018-04-25T08:03:45Z</time>
      </trkpt>
      <trkpt lat="47.66473" lon="6.03989">
        <ele>231.7</ele>
        <time>2018-04-25T08:03:47Z</time>
      </trkpt>
      <trkpt lat="47.66478" lon="6.03994">
        <ele>231.78</ele>
        <time>2018-04-25T08:03:49Z</time>
      </trkpt>
      <trkpt lat="47.66482" lon="6.03998">
        <ele>231.86</ele>
        <time>2018-04-25T08:03:51Z</time>
      </trkpt>
      <trkpt lat="47.6649" lon="6.04002">
        <ele>232.21</ele>
        <time>2018-04-25T08:04:00Z</time>
      </trkpt>
      <trkpt lat="47.66497" lon="6.0401">
        <ele>232.32</ele>
        <time>2018-04-25T08:04:03Z</time>
      </trkpt>
      <trkpt lat="47.66501" lon="6.04013">
        <ele>232.36</ele>
        <time>2018-04-25T08:04:05Z</time>
      </trkpt>
      <trkpt lat="47.66506" lon="6.04016">
        <ele>232.48</ele>
        <time>2018-04-25T08:04:08Z</time>
      </trkpt>
      <trkpt lat="47.6651" lon="6.04019">
        <ele>232.63</ele>
        <time>2018-04-25T08:04:12Z</time>
      </trkpt>
      <trkpt lat="47.66516" lon="6.04019">
        <ele>232.86</ele>
        <time>2018-04-25T08:04:23Z</time>
      </trkpt>
      <trkpt lat="47.66515" lon="6.04012">
        <ele>233.17</ele>
        <time>2018-04-25T08:04:35Z</time>
      </trkpt>
      <trkpt lat="47.66514" lon="6.04003">
        <ele>233.25</ele>
        <time>2018-04-25T08:04:38Z</time>
      </trkpt>
      <trkpt lat="47.66514" lon="6.03996">
        <ele>233.34</ele>
        <time>2018-04-25T08:04:48Z</time>
      </trkpt>
      <trkpt lat="47.66517" lon="6.03989">
        <ele>233.42</ele>
        <time>2018-04-25T08:04:52Z</time>
      </trkpt>
      <trkpt lat="47.66521" lon="6.03982">
        <ele>233.5</ele>
        <time>2018-04-25T08:04:56Z</time>
      </trkpt>
      <trkpt lat="47.66522" lon="6.03974">
        <ele>233.56</ele>
        <time>2018-04-25T08:04:59Z</time>
      </trkpt>
      <trkpt lat="47.66526" lon="6.03967">
        <ele>233.59</ele>
        <time>2018-04-25T08:05:01Z</time>
      </trkpt>
      <trkpt lat="47.6653" lon="6.03962">
        <ele>233.63</ele>
        <time>2018-04-25T08:05:03Z</time>
      </trkpt>
      <trkpt lat="47.66534" lon="6.03956">
        <ele>233.66</ele>
        <time>2018-04-25T08:05:05Z</time>
      </trkpt>
      <trkpt lat="47.66537" lon="6.03951">
        <ele>233.69</ele>
        <time>2018-04-25T08:05:07Z</time>
      </trkpt>
      <trkpt lat="47.6654" lon="6.03945">
        <ele>233.73</ele>
        <time>2018-04-25T08:05:09Z</time>
      </trkpt>
      <trkpt lat="47.66543" lon="6.0394">
        <ele>233.78</ele>
        <time>2018-04-25T08:05:12Z</time>
      </trkpt>
      <trkpt lat="47.66545" lon="6.03932">
        <ele>233.82</ele>
        <time>2018-04-25T08:05:15Z</time>
      </trkpt>
      <trkpt lat="47.66549" lon="6.03927">
        <ele>233.87</ele>
        <time>2018-04-25T08:05:18Z</time>
      </trkpt>
      <trkpt lat="47.66552" lon="6.03921">
        <ele>233.93</ele>
        <time>2018-04-25T08:05:22Z</time>
      </trkpt>
      <trkpt lat="47.66555" lon="6.03913">
        <ele>233.97</ele>
        <time>2018-04-25T08:05:25Z</time>
      </trkpt>
      <trkpt lat="47.66559" lon="6.03909">
        <ele>233.99</ele>
        <time>2018-04-25T08:05:27Z</time>
      </trkpt>
      <trkpt lat="47.66562" lon="6.03904">
        <ele>234.02</ele>
        <time>2018-04-25T08:05:29Z</time>
      </trkpt>
      <trkpt lat="47.66566" lon="6.03897">
        <ele>234.06</ele>
        <time>2018-04-25T08:05:32Z</time>
      </trkpt>
      <trkpt lat="47.6657" lon="6.03889">
        <ele>234.09</ele>
        <time>2018-04-25T08:05:35Z</time>
      </trkpt>
      <trkpt lat="47.66571" lon="6.03883">
        <ele>234.12</ele>
        <time>2018-04-25T08:05:37Z</time>
      </trkpt>
      <trkpt lat="47.66569" lon="6.03875">
        <ele>234.14</ele>
        <time>2018-04-25T08:05:40Z</time>
      </trkpt>
      <trkpt lat="47.66567" lon="6.03868">
        <ele>234.28</ele>
        <time>2018-04-25T08:05:52Z</time>
      </trkpt>
      <trkpt lat="47.66564" lon="6.03874">
        <ele>234.64</ele>
        <time>2018-04-25T08:06:14Z</time>
      </trkpt>
      <trkpt lat="47.6656" lon="6.03876">
        <ele>234.75</ele>
        <time>2018-04-25T08:06:19Z</time>
      </trkpt>
      <trkpt lat="47.66555" lon="6.03885">
        <ele>234.77</ele>
        <time>2018-04-25T08:06:20Z</time>
      </trkpt>
      <trkpt lat="47.66549" lon="6.03892">
        <ele>234.8</ele>
        <time>2018-04-25T08:06:22Z</time>
      </trkpt>
      <trkpt lat="47.66545" lon="6.039">
        <ele>234.84</ele>
        <time>2018-04-25T08:06:24Z</time>
      </trkpt>
      <trkpt lat="47.66542" lon="6.03907">
        <ele>234.87</ele>
        <time>2018-04-25T08:06:26Z</time>
      </trkpt>
      <trkpt lat="47.66539" lon="6.03914">
        <ele>234.91</ele>
        <time>2018-04-25T08:06:28Z</time>
      </trkpt>
      <trkpt lat="47.66535" lon="6.03921">
        <ele>234.95</ele>
        <time>2018-04-25T08:06:31Z</time>
      </trkpt>
      <trkpt lat="47.66533" lon="6.03928">
        <ele>234.99</ele>
        <time>2018-04-25T08:06:34Z</time>
      </trkpt>
      <trkpt lat="47.6653" lon="6.03934">
        <ele>235.02</ele>
        <time>2018-04-25T08:06:37Z</time>
      </trkpt>
      <trkpt lat="47.66526" lon="6.03937">
        <ele>235.05</ele>
        <time>2018-04-25T08:06:41Z</time>
      </trkpt>
      <trkpt lat="47.66522" lon="6.03942">
        <ele>235.07</ele>
        <time>2018-04-25T08:06:43Z</time>
      </trkpt>
      <trkpt lat="47.66523" lon="6.0395">
        <ele>235.08</ele>
        <time>2018-04-25T08:06:47Z</time>
      </trkpt>
      <trkpt lat="47.66529" lon="6.03963">
        <ele>235.09</ele>
        <time>2018-04-25T08:06:49Z</time>
      </trkpt>
      <trkpt lat="47.6653" lon="6.03972">
        <ele>235.1</ele>
        <time>2018-04-25T08:06:50Z</time>
      </trkpt>
      <trkpt lat="47.66535" lon="6.0398">
        <ele>235.11</ele>
        <time>2018-04-25T08:06:51Z</time>
      </trkpt>
      <trkpt lat="47.66537" lon="6.03987">
        <ele>235.13</ele>
        <time>2018-04-25T08:06:53Z</time>
      </trkpt>
      <trkpt lat="47.66539" lon="6.03994">
        <ele>235.15</ele>
        <time>2018-04-25T08:06:54Z</time>
      </trkpt>
      <trkpt lat="47.6654" lon="6.04002">
        <ele>235.16</ele>
        <time>2018-04-25T08:06:55Z</time>
      </trkpt>
      <trkpt lat="47.66543" lon="6.0401">
        <ele>235.19</ele>
        <time>2018-04-25T08:06:57Z</time>
      </trkpt>
      <trkpt lat="47.66547" lon="6.04018">
        <ele>235.25</ele>
        <time>2018-04-25T08:07:00Z</time>
      </trkpt>
      <trkpt lat="47.6655" lon="6.04027">
        <ele>235.31</ele>
        <time>2018-04-25T08:07:03Z</time>
      </trkpt>
      <trkpt lat="47.66552" lon="6.04035">
        <ele>235.35</ele>
        <time>2018-04-25T08:07:05Z</time>
      </trkpt>
      <trkpt lat="47.66556" lon="6.04044">
        <ele>235.39</ele>
        <time>2018-04-25T08:07:07Z</time>
      </trkpt>
      <trkpt lat="47.66558" lon="6.0405">
        <ele>235.44</ele>
        <time>2018-04-25T08:07:09Z</time>
      </trkpt>
      <trkpt lat="47.66562" lon="6.04058">
        <ele>235.5</ele>
        <time>2018-04-25T08:07:12Z</time>
      </trkpt>
      <trkpt lat="47.66564" lon="6.04064">
        <ele>235.56</ele>
        <time>2018-04-25T08:07:15Z</time>
      </trkpt>
      <trkpt lat="47.66567" lon="6.0407">
        <ele>235.62</ele>
        <time>2018-04-25T08:07:18Z</time>
      </trkpt>
      <trkpt lat="47.6657" lon="6.04077">
        <ele>235.67</ele>
        <time>2018-04-25T08:07:21Z</time>
      </trkpt>
      <trkpt lat="47.66573" lon="6.04083">
        <ele>235.7</ele>
        <time>2018-04-25T08:07:23Z</time>
      </trkpt>
      <trkpt lat="47.66576" lon="6.0409">
        <ele>235.75</ele>
        <time>2018-04-25T08:07:26Z</time>
      </trkpt>
      <trkpt lat="47.66579" lon="6.04097">
        <ele>235.79</ele>
        <time>2018-04-25T08:07:29Z</time>
      </trkpt>
      <trkpt lat="47.66582" lon="6.04103">
        <ele>235.81</ele>
        <time>2018-04-25T08:07:31Z</time>
      </trkpt>
      <trkpt lat="47.66587" lon="6.04109">
        <ele>235.84</ele>
        <time>2018-04-25T08:07:33Z</time>
      </trkpt>
      <trkpt lat="47.66592" lon="6.04114">
        <ele>235.85</ele>
        <time>2018-04-25T08:07:35Z</time>
      </trkpt>
      <trkpt lat="47.66598" lon="6.04121">
        <ele>235.88</ele>
        <time>2018-04-25T08:07:40Z</time>
      </trkpt>
      <trkpt lat="47.66597" lon="6.04128">
        <ele>236.21</ele>
        <time>2018-04-25T08:08:17Z</time>
      </trkpt>
      <trkpt lat="47.66602" lon="6.04133">
        <ele>237.6</ele>
        <time>2018-04-25T08:09:11Z</time>
      </trkpt>
      <trkpt lat="47.66603" lon="6.0414">
        <ele>238.14</ele>
        <time>2018-04-25T08:09:13Z</time>
      </trkpt>
      <trkpt lat="47.66606" lon="6.04146">
        <ele>240.96</ele>
        <time>2018-04-25T08:09:53Z</time>
      </trkpt>
      <trkpt lat="47.66604" lon="6.04153">
        <ele>241.71</ele>
        <time>2018-04-25T08:09:56Z</time>
      </trkpt>
      <trkpt lat="47.66603" lon="6.04161">
        <ele>242.41</ele>
        <time>2018-04-25T08:09:59Z</time>
      </trkpt>
      <trkpt lat="47.66601" lon="6.04169">
        <ele>243.28</ele>
        <time>2018-04-25T08:10:03Z</time>
      </trkpt>
      <trkpt lat="47.666" lon="6.04176">
        <ele>243.88</ele>
        <time>2018-04-25T08:10:06Z</time>
      </trkpt>
      <trkpt lat="47.66598" lon="6.04182">
        <ele>244.44</ele>
        <time>2018-04-25T08:10:09Z</time>
      </trkpt>
      <trkpt lat="47.66596" lon="6.04189">
        <ele>245.48</ele>
        <time>2018-04-25T08:10:15Z</time>
      </trkpt>
      <trkpt lat="47.66594" lon="6.04196">
        <ele>245.96</ele>
        <time>2018-04-25T08:10:18Z</time>
      </trkpt>
      <trkpt lat="47.66593" lon="6.04204">
        <ele>246.61</ele>
        <time>2018-04-25T08:10:26Z</time>
      </trkpt>
      <trkpt lat="47.66591" lon="6.04216">
        <ele>247.04</ele>
        <time>2018-04-25T08:10:29Z</time>
      </trkpt>
      <trkpt lat="47.66588" lon="6.04223">
        <ele>247.34</ele>
        <time>2018-04-25T08:10:33Z</time>
      </trkpt>
      <trkpt lat="47.66587" lon="6.04236">
        <ele>247.97</ele>
        <time>2018-04-25T08:10:38Z</time>
      </trkpt>
      <trkpt lat="47.66586" lon="6.04245">
        <ele>248.21</ele>
        <time>2018-04-25T08:10:40Z</time>
      </trkpt>
      <trkpt lat="47.66585" lon="6.04254">
        <ele>248.66</ele>
        <time>2018-04-25T08:10:44Z</time>
      </trkpt>
      <trkpt lat="47.66584" lon="6.04262">
        <ele>248.88</ele>
        <time>2018-04-25T08:10:46Z</time>
      </trkpt>
      <trkpt lat="47.66583" lon="6.04271">
        <ele>249.3</ele>
        <time>2018-04-25T08:10:50Z</time>
      </trkpt>
      <trkpt lat="47.66581" lon="6.04278">
        <ele>249.5</ele>
        <time>2018-04-25T08:10:52Z</time>
      </trkpt>
      <trkpt lat="47.66577" lon="6.04283">
        <ele>249.79</ele>
        <time>2018-04-25T08:10:55Z</time>
      </trkpt>
      <trkpt lat="47.66573" lon="6.04289">
        <ele>249.97</ele>
        <time>2018-04-25T08:10:57Z</time>
      </trkpt>
      <trkpt lat="47.66571" lon="6.04295">
        <ele>250.15</ele>
        <time>2018-04-25T08:10:59Z</time>
      </trkpt>
      <trkpt lat="47.66568" lon="6.04301">
        <ele>250.4</ele>
        <time>2018-04-25T08:11:02Z</time>
      </trkpt>
      <trkpt lat="47.66566" lon="6.04309">
        <ele>250.65</ele>
        <time>2018-04-25T08:11:05Z</time>
      </trkpt>
      <trkpt lat="47.66563" lon="6.04316">
        <ele>250.99</ele>
        <time>2018-04-25T08:11:11Z</time>
      </trkpt>
      <trkpt lat="47.6656" lon="6.04325">
        <ele>251.31</ele>
        <time>2018-04-25T08:11:16Z</time>
      </trkpt>
      <trkpt lat="47.66559" lon="6.04331">
        <ele>251.45</ele>
        <time>2018-04-25T08:11:18Z</time>
      </trkpt>
      <trkpt lat="47.66556" lon="6.04338">
        <ele>251.6</ele>
        <time>2018-04-25T08:11:20Z</time>
      </trkpt>
      <trkpt lat="47.66554" lon="6.04343">
        <ele>251.74</ele>
        <time>2018-04-25T08:11:22Z</time>
      </trkpt>
      <trkpt lat="47.66549" lon="6.04353">
        <ele>252</ele>
        <time>2018-04-25T08:11:26Z</time>
      </trkpt>
      <trkpt lat="47.66546" lon="6.0436">
        <ele>252.26</ele>
        <time>2018-04-25T08:11:32Z</time>
      </trkpt>
      <trkpt lat="47.66543" lon="6.04366">
        <ele>252.55</ele>
        <time>2018-04-25T08:11:37Z</time>
      </trkpt>
      <trkpt lat="47.6654" lon="6.04374">
        <ele>252.72</ele>
        <time>2018-04-25T08:11:40Z</time>
      </trkpt>
      <trkpt lat="47.66536" lon="6.04379">
        <ele>252.87</ele>
        <time>2018-04-25T08:11:43Z</time>
      </trkpt>
      <trkpt lat="47.66528" lon="6.04387">
        <ele>253.01</ele>
        <time>2018-04-25T08:11:46Z</time>
      </trkpt>
      <trkpt lat="47.66522" lon="6.04396">
        <ele>253.17</ele>
        <time>2018-04-25T08:11:51Z</time>
      </trkpt>
      <trkpt lat="47.66519" lon="6.04404">
        <ele>253.21</ele>
        <time>2018-04-25T08:11:52Z</time>
      </trkpt>
      <trkpt lat="47.66516" lon="6.04412">
        <ele>253.25</ele>
        <time>2018-04-25T08:11:53Z</time>
      </trkpt>
      <trkpt lat="47.66513" lon="6.04418">
        <ele>253.36</ele>
        <time>2018-04-25T08:11:56Z</time>
      </trkpt>
      <trkpt lat="47.6651" lon="6.04428">
        <ele>253.46</ele>
        <time>2018-04-25T08:11:59Z</time>
      </trkpt>
      <trkpt lat="47.66508" lon="6.04434">
        <ele>253.53</ele>
        <time>2018-04-25T08:12:01Z</time>
      </trkpt>
      <trkpt lat="47.66505" lon="6.0444">
        <ele>253.66</ele>
        <time>2018-04-25T08:12:06Z</time>
      </trkpt>
      <trkpt lat="47.66502" lon="6.04448">
        <ele>253.71</ele>
        <time>2018-04-25T08:12:09Z</time>
      </trkpt>
      <trkpt lat="47.66498" lon="6.04454">
        <ele>253.77</ele>
        <time>2018-04-25T08:12:11Z</time>
      </trkpt>
      <trkpt lat="47.66495" lon="6.04461">
        <ele>253.83</ele>
        <time>2018-04-25T08:12:13Z</time>
      </trkpt>
      <trkpt lat="47.66493" lon="6.04466">
        <ele>253.87</ele>
        <time>2018-04-25T08:12:14Z</time>
      </trkpt>
      <trkpt lat="47.66489" lon="6.04478">
        <ele>254</ele>
        <time>2018-04-25T08:12:18Z</time>
      </trkpt>
      <trkpt lat="47.66485" lon="6.04487">
        <ele>254.08</ele>
        <time>2018-04-25T08:12:21Z</time>
      </trkpt>
      <trkpt lat="47.66482" lon="6.04492">
        <ele>254.14</ele>
        <time>2018-04-25T08:12:23Z</time>
      </trkpt>
      <trkpt lat="47.66478" lon="6.045">
        <ele>254.24</ele>
        <time>2018-04-25T08:12:26Z</time>
      </trkpt>
      <trkpt lat="47.66474" lon="6.04507">
        <ele>254.38</ele>
        <time>2018-04-25T08:12:30Z</time>
      </trkpt>
      <trkpt lat="47.66473" lon="6.04514">
        <ele>254.45</ele>
        <time>2018-04-25T08:12:32Z</time>
      </trkpt>
      <trkpt lat="47.66472" lon="6.04521">
        <ele>254.55</ele>
        <time>2018-04-25T08:12:35Z</time>
      </trkpt>
      <trkpt lat="47.6647" lon="6.04528">
        <ele>254.62</ele>
        <time>2018-04-25T08:12:38Z</time>
      </trkpt>
      <trkpt lat="47.66467" lon="6.04534">
        <ele>254.77</ele>
        <time>2018-04-25T08:12:42Z</time>
      </trkpt>
      <trkpt lat="47.66465" lon="6.0454">
        <ele>254.97</ele>
        <time>2018-04-25T08:12:53Z</time>
      </trkpt>
      <trkpt lat="47.66462" lon="6.04548">
        <ele>255.11</ele>
        <time>2018-04-25T08:13:05Z</time>
      </trkpt>
      <trkpt lat="47.66461" lon="6.04555">
        <ele>255.19</ele>
        <time>2018-04-25T08:13:08Z</time>
      </trkpt>
      <trkpt lat="47.6646" lon="6.04564">
        <ele>255.3</ele>
        <time>2018-04-25T08:13:12Z</time>
      </trkpt>
      <trkpt lat="47.66459" lon="6.04571">
        <ele>255.42</ele>
        <time>2018-04-25T08:13:19Z</time>
      </trkpt>
      <trkpt lat="47.6646" lon="6.04578">
        <ele>255.57</ele>
        <time>2018-04-25T08:13:26Z</time>
      </trkpt>
      <trkpt lat="47.66465" lon="6.04577">
        <ele>256.18</ele>
        <time>2018-04-25T08:14:07Z</time>
      </trkpt>
      <trkpt lat="47.66469" lon="6.04582">
        <ele>256.26</ele>
        <time>2018-04-25T08:14:23Z</time>
      </trkpt>
      <trkpt lat="47.66473" lon="6.04588">
        <ele>256.28</ele>
        <time>2018-04-25T08:14:26Z</time>
      </trkpt>
      <trkpt lat="47.66475" lon="6.04595">
        <ele>256.31</ele>
        <time>2018-04-25T08:14:30Z</time>
      </trkpt>
      <trkpt lat="47.6648" lon="6.04599">
        <ele>256.35</ele>
        <time>2018-04-25T08:14:34Z</time>
      </trkpt>
      <trkpt lat="47.66484" lon="6.04603">
        <ele>256.37</ele>
        <time>2018-04-25T08:14:38Z</time>
      </trkpt>
      <trkpt lat="47.66488" lon="6.04607">
        <ele>256.4</ele>
        <time>2018-04-25T08:14:42Z</time>
      </trkpt>
      <trkpt lat="47.66493" lon="6.0461">
        <ele>256.42</ele>
        <time>2018-04-25T08:14:45Z</time>
      </trkpt>
      <trkpt lat="47.66497" lon="6.04609">
        <ele>256.45</ele>
        <time>2018-04-25T08:14:51Z</time>
      </trkpt>
      <trkpt lat="47.66502" lon="6.04612">
        <ele>256.45</ele>
        <time>2018-04-25T08:14:55Z</time>
      </trkpt>
      <trkpt lat="47.66507" lon="6.04614">
        <ele>256.46</ele>
        <time>2018-04-25T08:14:58Z</time>
      </trkpt>
      <trkpt lat="47.66512" lon="6.04615">
        <ele>256.45</ele>
        <time>2018-04-25T08:15:01Z</time>
      </trkpt>
      <trkpt lat="47.66516" lon="6.04617">
        <ele>256.43</ele>
        <time>2018-04-25T08:15:05Z</time>
      </trkpt>
      <trkpt lat="47.66522" lon="6.04618">
        <ele>256.41</ele>
        <time>2018-04-25T08:15:10Z</time>
      </trkpt>
      <trkpt lat="47.66526" lon="6.04623">
        <ele>256.39</ele>
        <time>2018-04-25T08:15:13Z</time>
      </trkpt>
      <trkpt lat="47.66531" lon="6.04623">
        <ele>256.37</ele>
        <time>2018-04-25T08:15:17Z</time>
      </trkpt>
      <trkpt lat="47.66536" lon="6.04626">
        <ele>256.35</ele>
        <time>2018-04-25T08:15:23Z</time>
      </trkpt>
      <trkpt lat="47.6654" lon="6.0463">
        <ele>256.34</ele>
        <time>2018-04-25T08:15:27Z</time>
      </trkpt>
      <trkpt lat="47.66543" lon="6.04636">
        <ele>256.32</ele>
        <time>2018-04-25T08:15:35Z</time>
      </trkpt>
      <trkpt lat="47.66548" lon="6.04638">
        <ele>256.3</ele>
        <time>2018-04-25T08:15:40Z</time>
      </trkpt>
      <trkpt lat="47.66554" lon="6.0464">
        <ele>256.29</ele>
        <time>2018-04-25T08:15:42Z</time>
      </trkpt>
      <trkpt lat="47.6656" lon="6.04641">
        <ele>256.28</ele>
        <time>2018-04-25T08:15:44Z</time>
      </trkpt>
      <trkpt lat="47.66564" lon="6.04644">
        <ele>256.26</ele>
        <time>2018-04-25T08:15:46Z</time>
      </trkpt>
      <trkpt lat="47.66569" lon="6.04644">
        <ele>256.24</ele>
        <time>2018-04-25T08:15:49Z</time>
      </trkpt>
      <trkpt lat="47.66575" lon="6.04645">
        <ele>256.23</ele>
        <time>2018-04-25T08:15:52Z</time>
      </trkpt>
      <trkpt lat="47.6658" lon="6.04647">
        <ele>256.2</ele>
        <time>2018-04-25T08:15:56Z</time>
      </trkpt>
      <trkpt lat="47.66584" lon="6.04652">
        <ele>256.18</ele>
        <time>2018-04-25T08:16:00Z</time>
      </trkpt>
      <trkpt lat="47.66589" lon="6.04655">
        <ele>256.15</ele>
        <time>2018-04-25T08:16:03Z</time>
      </trkpt>
      <trkpt lat="47.66595" lon="6.04655">
        <ele>256.13</ele>
        <time>2018-04-25T08:16:06Z</time>
      </trkpt>
      <trkpt lat="47.666" lon="6.04657">
        <ele>256.11</ele>
        <time>2018-04-25T08:16:09Z</time>
      </trkpt>
      <trkpt lat="47.66605" lon="6.04657">
        <ele>256.09</ele>
        <time>2018-04-25T08:16:12Z</time>
      </trkpt>
      <trkpt lat="47.66611" lon="6.04657">
        <ele>256.08</ele>
        <time>2018-04-25T08:16:15Z</time>
      </trkpt>
      <trkpt lat="47.66617" lon="6.0466">
        <ele>256.07</ele>
        <time>2018-04-25T08:16:18Z</time>
      </trkpt>
      <trkpt lat="47.66622" lon="6.04661">
        <ele>256.06</ele>
        <time>2018-04-25T08:16:21Z</time>
      </trkpt>
      <trkpt lat="47.66627" lon="6.04661">
        <ele>256.05</ele>
        <time>2018-04-25T08:16:24Z</time>
      </trkpt>
      <trkpt lat="47.66632" lon="6.04665">
        <ele>256.05</ele>
        <time>2018-04-25T08:16:27Z</time>
      </trkpt>
      <trkpt lat="47.66635" lon="6.0467">
        <ele>256.05</ele>
        <time>2018-04-25T08:16:29Z</time>
      </trkpt>
      <trkpt lat="47.66638" lon="6.04676">
        <ele>256.05</ele>
        <time>2018-04-25T08:16:31Z</time>
      </trkpt>
      <trkpt lat="47.66642" lon="6.04682">
        <ele>256.06</ele>
        <time>2018-04-25T08:16:33Z</time>
      </trkpt>
      <trkpt lat="47.66644" lon="6.04688">
        <ele>256.06</ele>
        <time>2018-04-25T08:16:35Z</time>
      </trkpt>
      <trkpt lat="47.66645" lon="6.04695">
        <ele>256.06</ele>
        <time>2018-04-25T08:16:37Z</time>
      </trkpt>
      <trkpt lat="47.66646" lon="6.04703">
        <ele>256.07</ele>
        <time>2018-04-25T08:16:39Z</time>
      </trkpt>
      <trkpt lat="47.66643" lon="6.04712">
        <ele>256.07</ele>
        <time>2018-04-25T08:16:42Z</time>
      </trkpt>
      <trkpt lat="47.66637" lon="6.04719">
        <ele>256.09</ele>
        <time>2018-04-25T08:16:44Z</time>
      </trkpt>
      <trkpt lat="47.66632" lon="6.04729">
        <ele>256.08</ele>
        <time>2018-04-25T08:16:46Z</time>
      </trkpt>
      <trkpt lat="47.66627" lon="6.04739">
        <ele>256.02</ele>
        <time>2018-04-25T08:16:48Z</time>
      </trkpt>
      <trkpt lat="47.66622" lon="6.04749">
        <ele>255.91</ele>
        <time>2018-04-25T08:16:50Z</time>
      </trkpt>
      <trkpt lat="47.66617" lon="6.04759">
        <ele>255.77</ele>
        <time>2018-04-25T08:16:52Z</time>
      </trkpt>
      <trkpt lat="47.66612" lon="6.0477">
        <ele>255.58</ele>
        <time>2018-04-25T08:16:54Z</time>
      </trkpt>
      <trkpt lat="47.66609" lon="6.04776">
        <ele>255.45</ele>
        <time>2018-04-25T08:16:55Z</time>
      </trkpt>
      <trkpt lat="47.66604" lon="6.04784">
        <ele>255.38</ele>
        <time>2018-04-25T08:16:57Z</time>
      </trkpt>
      <trkpt lat="47.666" lon="6.04789">
        <ele>255.32</ele>
        <time>2018-04-25T08:16:59Z</time>
      </trkpt>
      <trkpt lat="47.66598" lon="6.04796">
        <ele>255.21</ele>
        <time>2018-04-25T08:17:02Z</time>
      </trkpt>
      <trkpt lat="47.66594" lon="6.04803">
        <ele>255.12</ele>
        <time>2018-04-25T08:17:04Z</time>
      </trkpt>
      <trkpt lat="47.66588" lon="6.04812">
        <ele>254.68</ele>
        <time>2018-04-25T08:17:06Z</time>
      </trkpt>
      <trkpt lat="47.66585" lon="6.04818">
        <ele>254.23</ele>
        <time>2018-04-25T08:17:07Z</time>
      </trkpt>
      <trkpt lat="47.66582" lon="6.04824">
        <ele>253.8</ele>
        <time>2018-04-25T08:17:08Z</time>
      </trkpt>
      <trkpt lat="47.66579" lon="6.0483">
        <ele>253.4</ele>
        <time>2018-04-25T08:17:09Z</time>
      </trkpt>
      <trkpt lat="47.66576" lon="6.04836">
        <ele>253.05</ele>
        <time>2018-04-25T08:17:10Z</time>
      </trkpt>
      <trkpt lat="47.66573" lon="6.04842">
        <ele>252.73</ele>
        <time>2018-04-25T08:17:11Z</time>
      </trkpt>
      <trkpt lat="47.6657" lon="6.04847">
        <ele>252.45</ele>
        <time>2018-04-25T08:17:12Z</time>
      </trkpt>
      <trkpt lat="47.66565" lon="6.04857">
        <ele>252.02</ele>
        <time>2018-04-25T08:17:14Z</time>
      </trkpt>
      <trkpt lat="47.6656" lon="6.04866">
        <ele>251.78</ele>
        <time>2018-04-25T08:17:16Z</time>
      </trkpt>
      <trkpt lat="47.66555" lon="6.04875">
        <ele>251.53</ele>
        <time>2018-04-25T08:17:18Z</time>
      </trkpt>
      <trkpt lat="47.6655" lon="6.04883">
        <ele>251.36</ele>
        <time>2018-04-25T08:17:20Z</time>
      </trkpt>
      <trkpt lat="47.66546" lon="6.04892">
        <ele>251.33</ele>
        <time>2018-04-25T08:17:22Z</time>
      </trkpt>
      <trkpt lat="47.66541" lon="6.04899">
        <ele>251.28</ele>
        <time>2018-04-25T08:17:25Z</time>
      </trkpt>
      <trkpt lat="47.66539" lon="6.04904">
        <ele>251.24</ele>
        <time>2018-04-25T08:17:27Z</time>
      </trkpt>
      <trkpt lat="47.66537" lon="6.04911">
        <ele>251.19</ele>
        <time>2018-04-25T08:17:29Z</time>
      </trkpt>
      <trkpt lat="47.66535" lon="6.04918">
        <ele>251.13</ele>
        <time>2018-04-25T08:17:31Z</time>
      </trkpt>
      <trkpt lat="47.66531" lon="6.04922">
        <ele>251.07</ele>
        <time>2018-04-25T08:17:33Z</time>
      </trkpt>
      <trkpt lat="47.66526" lon="6.04925">
        <ele>251.01</ele>
        <time>2018-04-25T08:17:35Z</time>
      </trkpt>
      <trkpt lat="47.66522" lon="6.04932">
        <ele>250.95</ele>
        <time>2018-04-25T08:17:37Z</time>
      </trkpt>
      <trkpt lat="47.66518" lon="6.04939">
        <ele>250.89</ele>
        <time>2018-04-25T08:17:39Z</time>
      </trkpt>
      <trkpt lat="47.66514" lon="6.04947">
        <ele>250.83</ele>
        <time>2018-04-25T08:17:41Z</time>
      </trkpt>
      <trkpt lat="47.66509" lon="6.04955">
        <ele>250.78</ele>
        <time>2018-04-25T08:17:43Z</time>
      </trkpt>
      <trkpt lat="47.66505" lon="6.04962">
        <ele>250.72</ele>
        <time>2018-04-25T08:17:45Z</time>
      </trkpt>
      <trkpt lat="47.665" lon="6.0497">
        <ele>250.66</ele>
        <time>2018-04-25T08:17:47Z</time>
      </trkpt>
      <trkpt lat="47.66496" lon="6.04977">
        <ele>250.6</ele>
        <time>2018-04-25T08:17:49Z</time>
      </trkpt>
      <trkpt lat="47.66493" lon="6.04984">
        <ele>250.55</ele>
        <time>2018-04-25T08:17:51Z</time>
      </trkpt>
      <trkpt lat="47.6649" lon="6.04991">
        <ele>250.49</ele>
        <time>2018-04-25T08:17:53Z</time>
      </trkpt>
      <trkpt lat="47.66487" lon="6.04998">
        <ele>250.37</ele>
        <time>2018-04-25T08:17:57Z</time>
      </trkpt>
      <trkpt lat="47.66484" lon="6.05004">
        <ele>250.24</ele>
        <time>2018-04-25T08:18:01Z</time>
      </trkpt>
      <trkpt lat="47.66482" lon="6.05011">
        <ele>249.88</ele>
        <time>2018-04-25T08:18:29Z</time>
      </trkpt>
      <trkpt lat="47.66479" lon="6.05016">
        <ele>249.74</ele>
        <time>2018-04-25T08:18:32Z</time>
      </trkpt>
      <trkpt lat="47.66475" lon="6.05023">
        <ele>249.62</ele>
        <time>2018-04-25T08:18:35Z</time>
      </trkpt>
      <trkpt lat="47.66472" lon="6.0503">
        <ele>249.53</ele>
        <time>2018-04-25T08:18:37Z</time>
      </trkpt>
      <trkpt lat="47.66469" lon="6.05037">
        <ele>249.45</ele>
        <time>2018-04-25T08:18:39Z</time>
      </trkpt>
      <trkpt lat="47.66469" lon="6.05044">
        <ele>249.37</ele>
        <time>2018-04-25T08:18:41Z</time>
      </trkpt>
      <trkpt lat="47.66469" lon="6.05052">
        <ele>249.25</ele>
        <time>2018-04-25T08:18:44Z</time>
      </trkpt>
      <trkpt lat="47.66469" lon="6.05061">
        <ele>249.13</ele>
        <time>2018-04-25T08:18:47Z</time>
      </trkpt>
      <trkpt lat="47.66469" lon="6.05069">
        <ele>248.98</ele>
        <time>2018-04-25T08:18:51Z</time>
      </trkpt>
      <trkpt lat="47.66467" lon="6.05075">
        <ele>248.84</ele>
        <time>2018-04-25T08:18:55Z</time>
      </trkpt>
      <trkpt lat="47.66464" lon="6.05083">
        <ele>248.71</ele>
        <time>2018-04-25T08:18:59Z</time>
      </trkpt>
      <trkpt lat="47.6646" lon="6.05089">
        <ele>248.54</ele>
        <time>2018-04-25T08:19:05Z</time>
      </trkpt>
      <trkpt lat="47.66455" lon="6.05092">
        <ele>248.46</ele>
        <time>2018-04-25T08:19:08Z</time>
      </trkpt>
      <trkpt lat="47.66451" lon="6.05094">
        <ele>248.35</ele>
        <time>2018-04-25T08:19:13Z</time>
      </trkpt>
      <trkpt lat="47.66446" lon="6.05094">
        <ele>248.27</ele>
        <time>2018-04-25T08:19:17Z</time>
      </trkpt>
      <trkpt lat="47.6644" lon="6.05097">
        <ele>248.2</ele>
        <time>2018-04-25T08:19:21Z</time>
      </trkpt>
      <trkpt lat="47.66434" lon="6.05103">
        <ele>248.15</ele>
        <time>2018-04-25T08:19:24Z</time>
      </trkpt>
      <trkpt lat="47.66429" lon="6.05108">
        <ele>248.09</ele>
        <time>2018-04-25T08:19:29Z</time>
      </trkpt>
      <trkpt lat="47.66426" lon="6.05112">
        <ele>248.06</ele>
        <time>2018-04-25T08:19:32Z</time>
      </trkpt>
      <trkpt lat="47.66423" lon="6.05118">
        <ele>248.03</ele>
        <time>2018-04-25T08:19:35Z</time>
      </trkpt>
      <trkpt lat="47.66421" lon="6.05126">
        <ele>248</ele>
        <time>2018-04-25T08:19:38Z</time>
      </trkpt>
      <trkpt lat="47.66422" lon="6.05133">
        <ele>247.98</ele>
        <time>2018-04-25T08:19:43Z</time>
      </trkpt>
      <trkpt lat="47.66422" lon="6.0514">
        <ele>247.95</ele>
        <time>2018-04-25T08:19:51Z</time>
      </trkpt>
      <trkpt lat="47.66419" lon="6.05144">
        <ele>247.87</ele>
        <time>2018-04-25T08:20:43Z</time>
      </trkpt>
      <trkpt lat="47.66416" lon="6.05149">
        <ele>247.86</ele>
        <time>2018-04-25T08:20:46Z</time>
      </trkpt>
      <trkpt lat="47.66413" lon="6.05156">
        <ele>247.85</ele>
        <time>2018-04-25T08:20:49Z</time>
      </trkpt>
      <trkpt lat="47.66409" lon="6.05163">
        <ele>247.85</ele>
        <time>2018-04-25T08:20:55Z</time>
      </trkpt>
      <trkpt lat="47.66408" lon="6.05171">
        <ele>247.86</ele>
        <time>2018-04-25T08:21:01Z</time>
      </trkpt>
      <trkpt lat="47.66407" lon="6.05178">
        <ele>247.88</ele>
        <time>2018-04-25T08:21:06Z</time>
      </trkpt>
      <trkpt lat="47.66404" lon="6.05187">
        <ele>247.9</ele>
        <time>2018-04-25T08:21:10Z</time>
      </trkpt>
      <trkpt lat="47.664" lon="6.05193">
        <ele>247.92</ele>
        <time>2018-04-25T08:21:12Z</time>
      </trkpt>
      <trkpt lat="47.66396" lon="6.05198">
        <ele>247.94</ele>
        <time>2018-04-25T08:21:15Z</time>
      </trkpt>
      <trkpt lat="47.66392" lon="6.05205">
        <ele>247.96</ele>
        <time>2018-04-25T08:21:18Z</time>
      </trkpt>
      <trkpt lat="47.66388" lon="6.05211">
        <ele>248</ele>
        <time>2018-04-25T08:21:22Z</time>
      </trkpt>
      <trkpt lat="47.66383" lon="6.05216">
        <ele>248.04</ele>
        <time>2018-04-25T08:21:28Z</time>
      </trkpt>
      <trkpt lat="47.6638" lon="6.05222">
        <ele>248.06</ele>
        <time>2018-04-25T08:21:31Z</time>
      </trkpt>
      <trkpt lat="47.66375" lon="6.0523">
        <ele>248.1</ele>
        <time>2018-04-25T08:21:35Z</time>
      </trkpt>
      <trkpt lat="47.66369" lon="6.0524">
        <ele>248.13</ele>
        <time>2018-04-25T08:21:38Z</time>
      </trkpt>
      <trkpt lat="47.66365" lon="6.05247">
        <ele>248.17</ele>
        <time>2018-04-25T08:21:41Z</time>
      </trkpt>
      <trkpt lat="47.66362" lon="6.05253">
        <ele>248.23</ele>
        <time>2018-04-25T08:21:45Z</time>
      </trkpt>
      <trkpt lat="47.66358" lon="6.05257">
        <ele>248.31</ele>
        <time>2018-04-25T08:21:50Z</time>
      </trkpt>
      <trkpt lat="47.66354" lon="6.05261">
        <ele>248.43</ele>
        <time>2018-04-25T08:21:58Z</time>
      </trkpt>
      <trkpt lat="47.6635" lon="6.05266">
        <ele>248.51</ele>
        <time>2018-04-25T08:22:03Z</time>
      </trkpt>
      <trkpt lat="47.66347" lon="6.05272">
        <ele>248.55</ele>
        <time>2018-04-25T08:22:06Z</time>
      </trkpt>
      <trkpt lat="47.66345" lon="6.05278">
        <ele>248.61</ele>
        <time>2018-04-25T08:22:10Z</time>
      </trkpt>
      <trkpt lat="47.66344" lon="6.05287">
        <ele>248.76</ele>
        <time>2018-04-25T08:22:46Z</time>
      </trkpt>
      <trkpt lat="47.66343" lon="6.05295">
        <ele>248.82</ele>
        <time>2018-04-25T08:22:49Z</time>
      </trkpt>
      <trkpt lat="47.66339" lon="6.053">
        <ele>248.87</ele>
        <time>2018-04-25T08:22:52Z</time>
      </trkpt>
      <trkpt lat="47.66337" lon="6.05306">
        <ele>248.91</ele>
        <time>2018-04-25T08:22:54Z</time>
      </trkpt>
      <trkpt lat="47.66332" lon="6.05309">
        <ele>248.95</ele>
        <time>2018-04-25T08:22:57Z</time>
      </trkpt>
      <trkpt lat="47.66325" lon="6.05314">
        <ele>249</ele>
        <time>2018-04-25T08:23:00Z</time>
      </trkpt>
      <trkpt lat="47.66321" lon="6.05319">
        <ele>249.02</ele>
        <time>2018-04-25T08:23:01Z</time>
      </trkpt>
      <trkpt lat="47.66316" lon="6.05327">
        <ele>249.03</ele>
        <time>2018-04-25T08:23:02Z</time>
      </trkpt>
      <trkpt lat="47.66311" lon="6.05333">
        <ele>249.06</ele>
        <time>2018-04-25T08:23:04Z</time>
      </trkpt>
      <trkpt lat="47.66307" lon="6.05341">
        <ele>249.09</ele>
        <time>2018-04-25T08:23:06Z</time>
      </trkpt>
      <trkpt lat="47.66303" lon="6.05345">
        <ele>249.12</ele>
        <time>2018-04-25T08:23:08Z</time>
      </trkpt>
      <trkpt lat="47.66299" lon="6.0535">
        <ele>249.15</ele>
        <time>2018-04-25T08:23:10Z</time>
      </trkpt>
      <trkpt lat="47.66295" lon="6.05357">
        <ele>249.2</ele>
        <time>2018-04-25T08:23:13Z</time>
      </trkpt>
      <trkpt lat="47.66294" lon="6.05363">
        <ele>249.24</ele>
        <time>2018-04-25T08:23:21Z</time>
      </trkpt>
      <trkpt lat="47.66292" lon="6.0537">
        <ele>249.39</ele>
        <time>2018-04-25T08:24:12Z</time>
      </trkpt>
      <trkpt lat="47.6629" lon="6.05377">
        <ele>249.46</ele>
        <time>2018-04-25T08:24:16Z</time>
      </trkpt>
      <trkpt lat="47.66287" lon="6.05382">
        <ele>249.54</ele>
        <time>2018-04-25T08:24:21Z</time>
      </trkpt>
      <trkpt lat="47.66282" lon="6.05389">
        <ele>249.58</ele>
        <time>2018-04-25T08:24:23Z</time>
      </trkpt>
      <trkpt lat="47.66279" lon="6.05395">
        <ele>249.59</ele>
        <time>2018-04-25T08:24:24Z</time>
      </trkpt>
      <trkpt lat="47.66276" lon="6.05401">
        <ele>249.62</ele>
        <time>2018-04-25T08:24:26Z</time>
      </trkpt>
      <trkpt lat="47.66269" lon="6.0541">
        <ele>249.65</ele>
        <time>2018-04-25T08:24:28Z</time>
      </trkpt>
      <trkpt lat="47.66263" lon="6.0542">
        <ele>249.68</ele>
        <time>2018-04-25T08:24:30Z</time>
      </trkpt>
      <trkpt lat="47.66259" lon="6.05428">
        <ele>249.69</ele>
        <time>2018-04-25T08:24:31Z</time>
      </trkpt>
      <trkpt lat="47.66254" lon="6.05438">
        <ele>249.75</ele>
        <time>2018-04-25T08:24:36Z</time>
      </trkpt>
      <trkpt lat="47.6625" lon="6.05441">
        <ele>249.86</ele>
        <time>2018-04-25T08:24:45Z</time>
      </trkpt>
      <trkpt lat="47.66244" lon="6.0545">
        <ele>249.87</ele>
        <time>2018-04-25T08:24:46Z</time>
      </trkpt>
      <trkpt lat="47.66238" lon="6.05461">
        <ele>249.88</ele>
        <time>2018-04-25T08:24:47Z</time>
      </trkpt>
      <trkpt lat="47.66234" lon="6.05467">
        <ele>249.89</ele>
        <time>2018-04-25T08:24:48Z</time>
      </trkpt>
      <trkpt lat="47.6623" lon="6.05474">
        <ele>249.9</ele>
        <time>2018-04-25T08:24:48Z</time>
      </trkpt>
      <trkpt lat="47.66227" lon="6.0548">
        <ele>249.91</ele>
        <time>2018-04-25T08:24:49Z</time>
      </trkpt>
      <trkpt lat="47.66223" lon="6.05484">
        <ele>249.92</ele>
        <time>2018-04-25T08:24:50Z</time>
      </trkpt>
      <trkpt lat="47.6622" lon="6.05492">
        <ele>249.94</ele>
        <time>2018-04-25T08:24:53Z</time>
      </trkpt>
      <trkpt lat="47.66212" lon="6.05505">
        <ele>249.98</ele>
        <time>2018-04-25T08:24:58Z</time>
      </trkpt>
      <trkpt lat="47.66207" lon="6.05509">
        <ele>249.99</ele>
        <time>2018-04-25T08:24:59Z</time>
      </trkpt>
      <trkpt lat="47.66201" lon="6.05513">
        <ele>250</ele>
        <time>2018-04-25T08:25:00Z</time>
      </trkpt>
      <trkpt lat="47.66197" lon="6.05519">
        <ele>250.01</ele>
        <time>2018-04-25T08:25:01Z</time>
      </trkpt>
      <trkpt lat="47.66192" lon="6.05541">
        <ele>250.02</ele>
        <time>2018-04-25T08:25:03Z</time>
      </trkpt>
      <trkpt lat="47.66191" lon="6.05549">
        <ele>250.03</ele>
        <time>2018-04-25T08:25:04Z</time>
      </trkpt>
      <trkpt lat="47.66191" lon="6.05556">
        <ele>250.04</ele>
        <time>2018-04-25T08:25:05Z</time>
      </trkpt>
      <trkpt lat="47.66191" lon="6.05564">
        <ele>250.06</ele>
        <time>2018-04-25T08:25:07Z</time>
      </trkpt>
      <trkpt lat="47.66194" lon="6.05571">
        <ele>250.09</ele>
        <time>2018-04-25T08:25:10Z</time>
      </trkpt>
      <trkpt lat="47.66195" lon="6.05578">
        <ele>250.12</ele>
        <time>2018-04-25T08:25:14Z</time>
      </trkpt>
      <trkpt lat="47.66195" lon="6.05585">
        <ele>250.17</ele>
        <time>2018-04-25T08:25:19Z</time>
      </trkpt>
      <trkpt lat="47.66194" lon="6.05593">
        <ele>250.21</ele>
        <time>2018-04-25T08:25:23Z</time>
      </trkpt>
      <trkpt lat="47.66194" lon="6.056">
        <ele>250.23</ele>
        <time>2018-04-25T08:25:26Z</time>
      </trkpt>
      <trkpt lat="47.66196" lon="6.05607">
        <ele>250.26</ele>
        <time>2018-04-25T08:25:30Z</time>
      </trkpt>
      <trkpt lat="47.66199" lon="6.05613">
        <ele>250.29</ele>
        <time>2018-04-25T08:25:34Z</time>
      </trkpt>
      <trkpt lat="47.66202" lon="6.05619">
        <ele>250.32</ele>
        <time>2018-04-25T08:25:39Z</time>
      </trkpt>
      <trkpt lat="47.66197" lon="6.05623">
        <ele>250.36</ele>
        <time>2018-04-25T08:25:45Z</time>
      </trkpt>
      <trkpt lat="47.66192" lon="6.05622">
        <ele>250.38</ele>
        <time>2018-04-25T08:25:50Z</time>
      </trkpt>
      <trkpt lat="47.66186" lon="6.05621">
        <ele>250.4</ele>
        <time>2018-04-25T08:25:55Z</time>
      </trkpt>
      <trkpt lat="47.66182" lon="6.05622">
        <ele>250.42</ele>
        <time>2018-04-25T08:25:59Z</time>
      </trkpt>
      <trkpt lat="47.66175" lon="6.0562">
        <ele>250.43</ele>
        <time>2018-04-25T08:26:02Z</time>
      </trkpt>
      <trkpt lat="47.66168" lon="6.05621">
        <ele>250.44</ele>
        <time>2018-04-25T08:26:05Z</time>
      </trkpt>
      <trkpt lat="47.66163" lon="6.05617">
        <ele>250.45</ele>
        <time>2018-04-25T08:26:07Z</time>
      </trkpt>
      <trkpt lat="47.66158" lon="6.05616">
        <ele>250.45</ele>
        <time>2018-04-25T08:26:09Z</time>
      </trkpt>
      <trkpt lat="47.66153" lon="6.05617">
        <ele>250.47</ele>
        <time>2018-04-25T08:26:13Z</time>
      </trkpt>
      <trkpt lat="47.66146" lon="6.05619">
        <ele>250.47</ele>
        <time>2018-04-25T08:26:16Z</time>
      </trkpt>
      <trkpt lat="47.6614" lon="6.05618">
        <ele>250.48</ele>
        <time>2018-04-25T08:26:18Z</time>
      </trkpt>
      <trkpt lat="47.66134" lon="6.05619">
        <ele>250.48</ele>
        <time>2018-04-25T08:26:20Z</time>
      </trkpt>
      <trkpt lat="47.66127" lon="6.05619">
        <ele>250.48</ele>
        <time>2018-04-25T08:26:22Z</time>
      </trkpt>
      <trkpt lat="47.66122" lon="6.0562">
        <ele>250.49</ele>
        <time>2018-04-25T08:26:24Z</time>
      </trkpt>
      <trkpt lat="47.66118" lon="6.05625">
        <ele>250.48</ele>
        <time>2018-04-25T08:26:29Z</time>
      </trkpt>
      <trkpt lat="47.66112" lon="6.05627">
        <ele>250.48</ele>
        <time>2018-04-25T08:26:31Z</time>
      </trkpt>
      <trkpt lat="47.66107" lon="6.05628">
        <ele>250.48</ele>
        <time>2018-04-25T08:26:32Z</time>
      </trkpt>
      <trkpt lat="47.66095" lon="6.05628">
        <ele>250.48</ele>
        <time>2018-04-25T08:26:33Z</time>
      </trkpt>
      <trkpt lat="47.66088" lon="6.05632">
        <ele>250.46</ele>
        <time>2018-04-25T08:26:34Z</time>
      </trkpt>
      <trkpt lat="47.66081" lon="6.05637">
        <ele>250.46</ele>
        <time>2018-04-25T08:26:35Z</time>
      </trkpt>
      <trkpt lat="47.66071" lon="6.05641">
        <ele>250.46</ele>
        <time>2018-04-25T08:26:36Z</time>
      </trkpt>
      <trkpt lat="47.66048" lon="6.05647">
        <ele>250.45</ele>
        <time>2018-04-25T08:26:37Z</time>
      </trkpt>
      <trkpt lat="47.66035" lon="6.0565">
        <ele>250.46</ele>
        <time>2018-04-25T08:26:38Z</time>
      </trkpt>
      <trkpt lat="47.66026" lon="6.05655">
        <ele>250.46</ele>
        <time>2018-04-25T08:26:39Z</time>
      </trkpt>
      <trkpt lat="47.66017" lon="6.05659">
        <ele>250.45</ele>
        <time>2018-04-25T08:26:40Z</time>
      </trkpt>
      <trkpt lat="47.66009" lon="6.05664">
        <ele>250.45</ele>
        <time>2018-04-25T08:26:41Z</time>
      </trkpt>
      <trkpt lat="47.66002" lon="6.05668">
        <ele>250.43</ele>
        <time>2018-04-25T08:26:42Z</time>
      </trkpt>
      <trkpt lat="47.65994" lon="6.05672">
        <ele>250.39</ele>
        <time>2018-04-25T08:26:43Z</time>
      </trkpt>
      <trkpt lat="47.65987" lon="6.05676">
        <ele>250.33</ele>
        <time>2018-04-25T08:26:44Z</time>
      </trkpt>
      <trkpt lat="47.6598" lon="6.05681">
        <ele>250.23</ele>
        <time>2018-04-25T08:26:45Z</time>
      </trkpt>
      <trkpt lat="47.65972" lon="6.05684">
        <ele>250.11</ele>
        <time>2018-04-25T08:26:46Z</time>
      </trkpt>
      <trkpt lat="47.65964" lon="6.05685">
        <ele>249.97</ele>
        <time>2018-04-25T08:26:47Z</time>
      </trkpt>
      <trkpt lat="47.65956" lon="6.05685">
        <ele>249.81</ele>
        <time>2018-04-25T08:26:48Z</time>
      </trkpt>
      <trkpt lat="47.65949" lon="6.05684">
        <ele>249.62</ele>
        <time>2018-04-25T08:26:49Z</time>
      </trkpt>
      <trkpt lat="47.65941" lon="6.05684">
        <ele>249.41</ele>
        <time>2018-04-25T08:26:50Z</time>
      </trkpt>
      <trkpt lat="47.65935" lon="6.05683">
        <ele>249.2</ele>
        <time>2018-04-25T08:26:51Z</time>
      </trkpt>
      <trkpt lat="47.65929" lon="6.05682">
        <ele>248.97</ele>
        <time>2018-04-25T08:26:52Z</time>
      </trkpt>
      <trkpt lat="47.65924" lon="6.05682">
        <ele>248.72</ele>
        <time>2018-04-25T08:26:53Z</time>
      </trkpt>
      <trkpt lat="47.65918" lon="6.05681">
        <ele>248.46</ele>
        <time>2018-04-25T08:26:54Z</time>
      </trkpt>
      <trkpt lat="47.65913" lon="6.05681">
        <ele>248.18</ele>
        <time>2018-04-25T08:26:55Z</time>
      </trkpt>
      <trkpt lat="47.65907" lon="6.05681">
        <ele>247.88</ele>
        <time>2018-04-25T08:26:56Z</time>
      </trkpt>
      <trkpt lat="47.65901" lon="6.05681">
        <ele>247.57</ele>
        <time>2018-04-25T08:26:57Z</time>
      </trkpt>
      <trkpt lat="47.65894" lon="6.05682">
        <ele>247.29</ele>
        <time>2018-04-25T08:26:58Z</time>
      </trkpt>
      <trkpt lat="47.65888" lon="6.05682">
        <ele>247</ele>
        <time>2018-04-25T08:26:59Z</time>
      </trkpt>
      <trkpt lat="47.65881" lon="6.05682">
        <ele>246.67</ele>
        <time>2018-04-25T08:27:00Z</time>
      </trkpt>
      <trkpt lat="47.65874" lon="6.05682">
        <ele>246.32</ele>
        <time>2018-04-25T08:27:01Z</time>
      </trkpt>
      <trkpt lat="47.65868" lon="6.05682">
        <ele>245.98</ele>
        <time>2018-04-25T08:27:02Z</time>
      </trkpt>
      <trkpt lat="47.65862" lon="6.05683">
        <ele>245.64</ele>
        <time>2018-04-25T08:27:03Z</time>
      </trkpt>
      <trkpt lat="47.65855" lon="6.05686">
        <ele>245.3</ele>
        <time>2018-04-25T08:27:04Z</time>
      </trkpt>
      <trkpt lat="47.65849" lon="6.05689">
        <ele>244.97</ele>
        <time>2018-04-25T08:27:05Z</time>
      </trkpt>
      <trkpt lat="47.65842" lon="6.05693">
        <ele>244.65</ele>
        <time>2018-04-25T08:27:06Z</time>
      </trkpt>
      <trkpt lat="47.65836" lon="6.05696">
        <ele>244.36</ele>
        <time>2018-04-25T08:27:07Z</time>
      </trkpt>
      <trkpt lat="47.6583" lon="6.05699">
        <ele>244.09</ele>
        <time>2018-04-25T08:27:08Z</time>
      </trkpt>
      <trkpt lat="47.65824" lon="6.05702">
        <ele>243.84</ele>
        <time>2018-04-25T08:27:09Z</time>
      </trkpt>
      <trkpt lat="47.65819" lon="6.05706">
        <ele>243.62</ele>
        <time>2018-04-25T08:27:10Z</time>
      </trkpt>
      <trkpt lat="47.65813" lon="6.0571">
        <ele>243.39</ele>
        <time>2018-04-25T08:27:11Z</time>
      </trkpt>
      <trkpt lat="47.65809" lon="6.05713">
        <ele>243.15</ele>
        <time>2018-04-25T08:27:12Z</time>
      </trkpt>
      <trkpt lat="47.65804" lon="6.05717">
        <ele>242.91</ele>
        <time>2018-04-25T08:27:13Z</time>
      </trkpt>
      <trkpt lat="47.65799" lon="6.0572">
        <ele>242.66</ele>
        <time>2018-04-25T08:27:14Z</time>
      </trkpt>
      <trkpt lat="47.65795" lon="6.05723">
        <ele>242.4</ele>
        <time>2018-04-25T08:27:15Z</time>
      </trkpt>
      <trkpt lat="47.6579" lon="6.05725">
        <ele>242.13</ele>
        <time>2018-04-25T08:27:16Z</time>
      </trkpt>
      <trkpt lat="47.65785" lon="6.05728">
        <ele>241.86</ele>
        <time>2018-04-25T08:27:17Z</time>
      </trkpt>
      <trkpt lat="47.65779" lon="6.05731">
        <ele>241.57</ele>
        <time>2018-04-25T08:27:18Z</time>
      </trkpt>
      <trkpt lat="47.65773" lon="6.05736">
        <ele>241.26</ele>
        <time>2018-04-25T08:27:19Z</time>
      </trkpt>
      <trkpt lat="47.65768" lon="6.05742">
        <ele>240.95</ele>
        <time>2018-04-25T08:27:20Z</time>
      </trkpt>
      <trkpt lat="47.65763" lon="6.05749">
        <ele>240.63</ele>
        <time>2018-04-25T08:27:21Z</time>
      </trkpt>
      <trkpt lat="47.65758" lon="6.05755">
        <ele>240.3</ele>
        <time>2018-04-25T08:27:22Z</time>
      </trkpt>
      <trkpt lat="47.65754" lon="6.0576">
        <ele>239.97</ele>
        <time>2018-04-25T08:27:23Z</time>
      </trkpt>
      <trkpt lat="47.6575" lon="6.05765">
        <ele>239.64</ele>
        <time>2018-04-25T08:27:24Z</time>
      </trkpt>
      <trkpt lat="47.65746" lon="6.0577">
        <ele>239.32</ele>
        <time>2018-04-25T08:27:25Z</time>
      </trkpt>
      <trkpt lat="47.65742" lon="6.05775">
        <ele>238.98</ele>
        <time>2018-04-25T08:27:26Z</time>
      </trkpt>
      <trkpt lat="47.65738" lon="6.05779">
        <ele>238.64</ele>
        <time>2018-04-25T08:27:27Z</time>
      </trkpt>
      <trkpt lat="47.65733" lon="6.05782">
        <ele>238.29</ele>
        <time>2018-04-25T08:27:28Z</time>
      </trkpt>
      <trkpt lat="47.65728" lon="6.05784">
        <ele>237.92</ele>
        <time>2018-04-25T08:27:29Z</time>
      </trkpt>
      <trkpt lat="47.65723" lon="6.05785">
        <ele>237.56</ele>
        <time>2018-04-25T08:27:30Z</time>
      </trkpt>
      <trkpt lat="47.65717" lon="6.05785">
        <ele>237.2</ele>
        <time>2018-04-25T08:27:31Z</time>
      </trkpt>
      <trkpt lat="47.65712" lon="6.05783">
        <ele>236.84</ele>
        <time>2018-04-25T08:27:32Z</time>
      </trkpt>
      <trkpt lat="47.65707" lon="6.05782">
        <ele>236.47</ele>
        <time>2018-04-25T08:27:33Z</time>
      </trkpt>
      <trkpt lat="47.65702" lon="6.05781">
        <ele>236.09</ele>
        <time>2018-04-25T08:27:34Z</time>
      </trkpt>
      <trkpt lat="47.65697" lon="6.05781">
        <ele>235.71</ele>
        <time>2018-04-25T08:27:35Z</time>
      </trkpt>
      <trkpt lat="47.65692" lon="6.05781">
        <ele>235.34</ele>
        <time>2018-04-25T08:27:36Z</time>
      </trkpt>
      <trkpt lat="47.65687" lon="6.05781">
        <ele>234.97</ele>
        <time>2018-04-25T08:27:37Z</time>
      </trkpt>
      <trkpt lat="47.65682" lon="6.05781">
        <ele>234.62</ele>
        <time>2018-04-25T08:27:38Z</time>
      </trkpt>
      <trkpt lat="47.65677" lon="6.05779">
        <ele>234.27</ele>
        <time>2018-04-25T08:27:39Z</time>
      </trkpt>
      <trkpt lat="47.65673" lon="6.05779">
        <ele>233.93</ele>
        <time>2018-04-25T08:27:40Z</time>
      </trkpt>
      <trkpt lat="47.65668" lon="6.05779">
        <ele>233.59</ele>
        <time>2018-04-25T08:27:41Z</time>
      </trkpt>
      <trkpt lat="47.65663" lon="6.05779">
        <ele>233.26</ele>
        <time>2018-04-25T08:27:42Z</time>
      </trkpt>
      <trkpt lat="47.65659" lon="6.05779">
        <ele>232.95</ele>
        <time>2018-04-25T08:27:43Z</time>
      </trkpt>
      <trkpt lat="47.6565" lon="6.05782">
        <ele>232.54</ele>
        <time>2018-04-25T08:27:45Z</time>
      </trkpt>
      <trkpt lat="47.65645" lon="6.05787">
        <ele>232.44</ele>
        <time>2018-04-25T08:27:47Z</time>
      </trkpt>
      <trkpt lat="47.6564" lon="6.05792">
        <ele>232.34</ele>
        <time>2018-04-25T08:27:49Z</time>
      </trkpt>
      <trkpt lat="47.65638" lon="6.05798">
        <ele>232.23</ele>
        <time>2018-04-25T08:27:51Z</time>
      </trkpt>
      <trkpt lat="47.65637" lon="6.05806">
        <ele>232.05</ele>
        <time>2018-04-25T08:27:54Z</time>
      </trkpt>
      <trkpt lat="47.65636" lon="6.05814">
        <ele>230.19</ele>
        <time>2018-04-25T08:31:23Z</time>
      </trkpt>
      <trkpt lat="47.65631" lon="6.05816">
        <ele>229.96</ele>
        <time>2018-04-25T08:31:26Z</time>
      </trkpt>
      <trkpt lat="47.65627" lon="6.0582">
        <ele>229.82</ele>
        <time>2018-04-25T08:31:28Z</time>
      </trkpt>
      <trkpt lat="47.65623" lon="6.05826">
        <ele>229.68</ele>
        <time>2018-04-25T08:31:30Z</time>
      </trkpt>
      <trkpt lat="47.6562" lon="6.05833">
        <ele>229.48</ele>
        <time>2018-04-25T08:31:33Z</time>
      </trkpt>
      <trkpt lat="47.65616" lon="6.05838">
        <ele>229.3</ele>
        <time>2018-04-25T08:31:36Z</time>
      </trkpt>
      <trkpt lat="47.65611" lon="6.05841">
        <ele>229.06</ele>
        <time>2018-04-25T08:31:40Z</time>
      </trkpt>
      <trkpt lat="47.65606" lon="6.05838">
        <ele>228.84</ele>
        <time>2018-04-25T08:31:44Z</time>
      </trkpt>
      <trkpt lat="47.65602" lon="6.05832">
        <ele>228.68</ele>
        <time>2018-04-25T08:31:47Z</time>
      </trkpt>
      <trkpt lat="47.65597" lon="6.05827">
        <ele>228.52</ele>
        <time>2018-04-25T08:31:50Z</time>
      </trkpt>
      <trkpt lat="47.65592" lon="6.0582">
        <ele>228.37</ele>
        <time>2018-04-25T08:31:53Z</time>
      </trkpt>
      <trkpt lat="47.65587" lon="6.05814">
        <ele>228.26</ele>
        <time>2018-04-25T08:31:55Z</time>
      </trkpt>
      <trkpt lat="47.65582" lon="6.05808">
        <ele>228.16</ele>
        <time>2018-04-25T08:31:57Z</time>
      </trkpt>
      <trkpt lat="47.65577" lon="6.058">
        <ele>228.05</ele>
        <time>2018-04-25T08:31:59Z</time>
      </trkpt>
      <trkpt lat="47.65571" lon="6.05793">
        <ele>227.95</ele>
        <time>2018-04-25T08:32:01Z</time>
      </trkpt>
      <trkpt lat="47.65565" lon="6.05786">
        <ele>227.85</ele>
        <time>2018-04-25T08:32:03Z</time>
      </trkpt>
      <trkpt lat="47.65559" lon="6.05779">
        <ele>227.75</ele>
        <time>2018-04-25T08:32:05Z</time>
      </trkpt>
      <trkpt lat="47.65553" lon="6.05773">
        <ele>227.65</ele>
        <time>2018-04-25T08:32:07Z</time>
      </trkpt>
      <trkpt lat="47.65549" lon="6.05767">
        <ele>227.55</ele>
        <time>2018-04-25T08:32:09Z</time>
      </trkpt>
      <trkpt lat="47.65545" lon="6.05762">
        <ele>227.46</ele>
        <time>2018-04-25T08:32:11Z</time>
      </trkpt>
      <trkpt lat="47.65541" lon="6.05757">
        <ele>227.36</ele>
        <time>2018-04-25T08:32:13Z</time>
      </trkpt>
      <trkpt lat="47.65536" lon="6.05752">
        <ele>227.23</ele>
        <time>2018-04-25T08:32:16Z</time>
      </trkpt>
      <trkpt lat="47.65532" lon="6.05745">
        <ele>227.1</ele>
        <time>2018-04-25T08:32:19Z</time>
      </trkpt>
      <trkpt lat="47.65529" lon="6.0574">
        <ele>227.02</ele>
        <time>2018-04-25T08:32:21Z</time>
      </trkpt>
      <trkpt lat="47.65523" lon="6.05731">
        <ele>226.67</ele>
        <time>2018-04-25T08:32:24Z</time>
      </trkpt>
      <trkpt lat="47.6552" lon="6.05721">
        <ele>226.51</ele>
        <time>2018-04-25T08:32:26Z</time>
      </trkpt>
      <trkpt lat="47.65519" lon="6.05711">
        <ele>226.45</ele>
        <time>2018-04-25T08:32:28Z</time>
      </trkpt>
      <trkpt lat="47.65518" lon="6.057">
        <ele>226.39</ele>
        <time>2018-04-25T08:32:30Z</time>
      </trkpt>
      <trkpt lat="47.65521" lon="6.05693">
        <ele>226.33</ele>
        <time>2018-04-25T08:32:32Z</time>
      </trkpt>
      <trkpt lat="47.65518" lon="6.05685">
        <ele>226.25</ele>
        <time>2018-04-25T08:32:35Z</time>
      </trkpt>
      <trkpt lat="47.65516" lon="6.05677">
        <ele>226.19</ele>
        <time>2018-04-25T08:32:37Z</time>
      </trkpt>
      <trkpt lat="47.65512" lon="6.0567">
        <ele>226.14</ele>
        <time>2018-04-25T08:32:39Z</time>
      </trkpt>
      <trkpt lat="47.65509" lon="6.05663">
        <ele>226.12</ele>
        <time>2018-04-25T08:32:40Z</time>
      </trkpt>
      <trkpt lat="47.65506" lon="6.05657">
        <ele>226.1</ele>
        <time>2018-04-25T08:32:41Z</time>
      </trkpt>
      <trkpt lat="47.65505" lon="6.0565">
        <ele>226.05</ele>
        <time>2018-04-25T08:32:43Z</time>
      </trkpt>
      <trkpt lat="47.65503" lon="6.0564">
        <ele>226</ele>
        <time>2018-04-25T08:32:45Z</time>
      </trkpt>
      <trkpt lat="47.65503" lon="6.0563">
        <ele>225.96</ele>
        <time>2018-04-25T08:32:47Z</time>
      </trkpt>
      <trkpt lat="47.65505" lon="6.0562">
        <ele>225.91</ele>
        <time>2018-04-25T08:32:49Z</time>
      </trkpt>
      <trkpt lat="47.65509" lon="6.05611">
        <ele>225.71</ele>
        <time>2018-04-25T08:32:51Z</time>
      </trkpt>
      <trkpt lat="47.6551" lon="6.05602">
        <ele>225.66</ele>
        <time>2018-04-25T08:32:53Z</time>
      </trkpt>
      <trkpt lat="47.6551" lon="6.05593">
        <ele>225.63</ele>
        <time>2018-04-25T08:32:55Z</time>
      </trkpt>
      <trkpt lat="47.65511" lon="6.05584">
        <ele>225.6</ele>
        <time>2018-04-25T08:32:57Z</time>
      </trkpt>
      <trkpt lat="47.65512" lon="6.05575">
        <ele>225.57</ele>
        <time>2018-04-25T08:32:59Z</time>
      </trkpt>
      <trkpt lat="47.65515" lon="6.05567">
        <ele>225.54</ele>
        <time>2018-04-25T08:33:01Z</time>
      </trkpt>
      <trkpt lat="47.65513" lon="6.05557">
        <ele>225.51</ele>
        <time>2018-04-25T08:33:03Z</time>
      </trkpt>
      <trkpt lat="47.65514" lon="6.05548">
        <ele>225.47</ele>
        <time>2018-04-25T08:33:05Z</time>
      </trkpt>
      <trkpt lat="47.65513" lon="6.05538">
        <ele>225.44</ele>
        <time>2018-04-25T08:33:07Z</time>
      </trkpt>
      <trkpt lat="47.6551" lon="6.0553">
        <ele>225.43</ele>
        <time>2018-04-25T08:33:08Z</time>
      </trkpt>
      <trkpt lat="47.65508" lon="6.05524">
        <ele>225.42</ele>
        <time>2018-04-25T08:33:09Z</time>
      </trkpt>
      <trkpt lat="47.65506" lon="6.05514">
        <ele>225.39</ele>
        <time>2018-04-25T08:33:11Z</time>
      </trkpt>
      <trkpt lat="47.65503" lon="6.05505">
        <ele>225.37</ele>
        <time>2018-04-25T08:33:13Z</time>
      </trkpt>
      <trkpt lat="47.655" lon="6.05497">
        <ele>225.35</ele>
        <time>2018-04-25T08:33:15Z</time>
      </trkpt>
      <trkpt lat="47.65499" lon="6.05491">
        <ele>225.31</ele>
        <time>2018-04-25T08:33:18Z</time>
      </trkpt>
      <trkpt lat="47.65492" lon="6.05485">
        <ele>225.29</ele>
        <time>2018-04-25T08:33:20Z</time>
      </trkpt>
      <trkpt lat="47.65486" lon="6.05481">
        <ele>225.27</ele>
        <time>2018-04-25T08:33:22Z</time>
      </trkpt>
      <trkpt lat="47.65479" lon="6.05477">
        <ele>225.26</ele>
        <time>2018-04-25T08:33:24Z</time>
      </trkpt>
      <trkpt lat="47.65473" lon="6.05475">
        <ele>225.24</ele>
        <time>2018-04-25T08:33:26Z</time>
      </trkpt>
      <trkpt lat="47.65468" lon="6.05474">
        <ele>225.23</ele>
        <time>2018-04-25T08:33:28Z</time>
      </trkpt>
      <trkpt lat="47.65463" lon="6.0547">
        <ele>225.21</ele>
        <time>2018-04-25T08:33:30Z</time>
      </trkpt>
      <trkpt lat="47.65457" lon="6.05465">
        <ele>225.2</ele>
        <time>2018-04-25T08:33:33Z</time>
      </trkpt>
      <trkpt lat="47.65453" lon="6.05462">
        <ele>225.18</ele>
        <time>2018-04-25T08:33:36Z</time>
      </trkpt>
      <trkpt lat="47.65449" lon="6.05455">
        <ele>225.17</ele>
        <time>2018-04-25T08:33:39Z</time>
      </trkpt>
      <trkpt lat="47.65444" lon="6.0545">
        <ele>225.16</ele>
        <time>2018-04-25T08:33:41Z</time>
      </trkpt>
      <trkpt lat="47.65441" lon="6.05445">
        <ele>225.14</ele>
        <time>2018-04-25T08:33:45Z</time>
      </trkpt>
      <trkpt lat="47.65437" lon="6.05438">
        <ele>225.13</ele>
        <time>2018-04-25T08:33:48Z</time>
      </trkpt>
      <trkpt lat="47.65432" lon="6.05433">
        <ele>225.12</ele>
        <time>2018-04-25T08:33:52Z</time>
      </trkpt>
      <trkpt lat="47.65428" lon="6.05429">
        <ele>225.11</ele>
        <time>2018-04-25T08:33:55Z</time>
      </trkpt>
      <trkpt lat="47.65423" lon="6.05424">
        <ele>225.11</ele>
        <time>2018-04-25T08:33:58Z</time>
      </trkpt>
      <trkpt lat="47.65419" lon="6.05419">
        <ele>225.1</ele>
        <time>2018-04-25T08:34:01Z</time>
      </trkpt>
      <trkpt lat="47.65415" lon="6.05415">
        <ele>225.1</ele>
        <time>2018-04-25T08:34:04Z</time>
      </trkpt>
      <trkpt lat="47.6541" lon="6.0541">
        <ele>225.1</ele>
        <time>2018-04-25T08:34:08Z</time>
      </trkpt>
      <trkpt lat="47.65405" lon="6.05406">
        <ele>225.1</ele>
        <time>2018-04-25T08:34:14Z</time>
      </trkpt>
      <trkpt lat="47.65401" lon="6.05404">
        <ele>225.11</ele>
        <time>2018-04-25T08:34:19Z</time>
      </trkpt>
      <trkpt lat="47.65396" lon="6.054">
        <ele>225.11</ele>
        <time>2018-04-25T08:34:22Z</time>
      </trkpt>
      <trkpt lat="47.65391" lon="6.05396">
        <ele>225.12</ele>
        <time>2018-04-25T08:34:25Z</time>
      </trkpt>
      <trkpt lat="47.65386" lon="6.05391">
        <ele>225.13</ele>
        <time>2018-04-25T08:34:28Z</time>
      </trkpt>
      <trkpt lat="47.65383" lon="6.05388">
        <ele>225.15</ele>
        <time>2018-04-25T08:34:31Z</time>
      </trkpt>
      <trkpt lat="47.65379" lon="6.05383">
        <ele>225.17</ele>
        <time>2018-04-25T08:34:34Z</time>
      </trkpt>
      <trkpt lat="47.65375" lon="6.05377">
        <ele>225.19</ele>
        <time>2018-04-25T08:34:38Z</time>
      </trkpt>
      <trkpt lat="47.65372" lon="6.05372">
        <ele>225.23</ele>
        <time>2018-04-25T08:34:42Z</time>
      </trkpt>
      <trkpt lat="47.65366" lon="6.05367">
        <ele>225.25</ele>
        <time>2018-04-25T08:34:45Z</time>
      </trkpt>
      <trkpt lat="47.65364" lon="6.05362">
        <ele>225.27</ele>
        <time>2018-04-25T08:34:47Z</time>
      </trkpt>
      <trkpt lat="47.65361" lon="6.05355">
        <ele>225.31</ele>
        <time>2018-04-25T08:34:50Z</time>
      </trkpt>
      <trkpt lat="47.65358" lon="6.0535">
        <ele>225.34</ele>
        <time>2018-04-25T08:34:53Z</time>
      </trkpt>
      <trkpt lat="47.65356" lon="6.05344">
        <ele>225.38</ele>
        <time>2018-04-25T08:34:56Z</time>
      </trkpt>
      <trkpt lat="47.65353" lon="6.05337">
        <ele>225.42</ele>
        <time>2018-04-25T08:34:59Z</time>
      </trkpt>
      <trkpt lat="47.65349" lon="6.0533">
        <ele>225.46</ele>
        <time>2018-04-25T08:35:02Z</time>
      </trkpt>
      <trkpt lat="47.65347" lon="6.05323">
        <ele>225.5</ele>
        <time>2018-04-25T08:35:05Z</time>
      </trkpt>
      <trkpt lat="47.65343" lon="6.05316">
        <ele>225.55</ele>
        <time>2018-04-25T08:35:08Z</time>
      </trkpt>
      <trkpt lat="47.6534" lon="6.05308">
        <ele>225.6</ele>
        <time>2018-04-25T08:35:11Z</time>
      </trkpt>
      <trkpt lat="47.65336" lon="6.053">
        <ele>225.65</ele>
        <time>2018-04-25T08:35:14Z</time>
      </trkpt>
      <trkpt lat="47.65332" lon="6.05292">
        <ele>225.71</ele>
        <time>2018-04-25T08:35:17Z</time>
      </trkpt>
      <trkpt lat="47.6533" lon="6.05285">
        <ele>225.77</ele>
        <time>2018-04-25T08:35:20Z</time>
      </trkpt>
      <trkpt lat="47.65327" lon="6.05278">
        <ele>225.86</ele>
        <time>2018-04-25T08:35:24Z</time>
      </trkpt>
      <trkpt lat="47.65324" lon="6.05272">
        <ele>225.92</ele>
        <time>2018-04-25T08:35:27Z</time>
      </trkpt>
      <trkpt lat="47.65323" lon="6.05265">
        <ele>226</ele>
        <time>2018-04-25T08:35:30Z</time>
      </trkpt>
      <trkpt lat="47.65321" lon="6.05258">
        <ele>226.07</ele>
        <time>2018-04-25T08:35:33Z</time>
      </trkpt>
      <trkpt lat="47.65319" lon="6.0525">
        <ele>226.15</ele>
        <time>2018-04-25T08:35:36Z</time>
      </trkpt>
      <trkpt lat="47.65316" lon="6.05243">
        <ele>226.24</ele>
        <time>2018-04-25T08:35:39Z</time>
      </trkpt>
      <trkpt lat="47.65313" lon="6.05236">
        <ele>226.32</ele>
        <time>2018-04-25T08:35:42Z</time>
      </trkpt>
      <trkpt lat="47.6531" lon="6.05229">
        <ele>226.42</ele>
        <time>2018-04-25T08:35:45Z</time>
      </trkpt>
      <trkpt lat="47.65308" lon="6.05222">
        <ele>226.51</ele>
        <time>2018-04-25T08:35:48Z</time>
      </trkpt>
      <trkpt lat="47.65305" lon="6.05217">
        <ele>226.61</ele>
        <time>2018-04-25T08:35:51Z</time>
      </trkpt>
      <trkpt lat="47.65301" lon="6.05211">
        <ele>226.71</ele>
        <time>2018-04-25T08:35:54Z</time>
      </trkpt>
      <trkpt lat="47.65296" lon="6.05205">
        <ele>226.83</ele>
        <time>2018-04-25T08:35:58Z</time>
      </trkpt>
      <trkpt lat="47.65291" lon="6.052">
        <ele>226.94</ele>
        <time>2018-04-25T08:36:01Z</time>
      </trkpt>
      <trkpt lat="47.65286" lon="6.05195">
        <ele>227.04</ele>
        <time>2018-04-25T08:36:04Z</time>
      </trkpt>
      <trkpt lat="47.65282" lon="6.05192">
        <ele>227.11</ele>
        <time>2018-04-25T08:36:06Z</time>
      </trkpt>
      <trkpt lat="47.65277" lon="6.05188">
        <ele>227.23</ele>
        <time>2018-04-25T08:36:09Z</time>
      </trkpt>
      <trkpt lat="47.65272" lon="6.05183">
        <ele>227.34</ele>
        <time>2018-04-25T08:36:12Z</time>
      </trkpt>
      <trkpt lat="47.65268" lon="6.05179">
        <ele>227.46</ele>
        <time>2018-04-25T08:36:15Z</time>
      </trkpt>
      <trkpt lat="47.65264" lon="6.05175">
        <ele>227.58</ele>
        <time>2018-04-25T08:36:18Z</time>
      </trkpt>
      <trkpt lat="47.65259" lon="6.05172">
        <ele>227.74</ele>
        <time>2018-04-25T08:36:22Z</time>
      </trkpt>
      <trkpt lat="47.65254" lon="6.05168">
        <ele>227.86</ele>
        <time>2018-04-25T08:36:25Z</time>
      </trkpt>
      <trkpt lat="47.6525" lon="6.05165">
        <ele>227.98</ele>
        <time>2018-04-25T08:36:28Z</time>
      </trkpt>
      <trkpt lat="47.65245" lon="6.05162">
        <ele>228.1</ele>
        <time>2018-04-25T08:36:31Z</time>
      </trkpt>
      <trkpt lat="47.6524" lon="6.05158">
        <ele>228.22</ele>
        <time>2018-04-25T08:36:34Z</time>
      </trkpt>
      <trkpt lat="47.65235" lon="6.05155">
        <ele>228.34</ele>
        <time>2018-04-25T08:36:37Z</time>
      </trkpt>
      <trkpt lat="47.65229" lon="6.05151">
        <ele>228.46</ele>
        <time>2018-04-25T08:36:40Z</time>
      </trkpt>
      <trkpt lat="47.65224" lon="6.05148">
        <ele>228.58</ele>
        <time>2018-04-25T08:36:43Z</time>
      </trkpt>
      <trkpt lat="47.65219" lon="6.05145">
        <ele>228.66</ele>
        <time>2018-04-25T08:36:45Z</time>
      </trkpt>
      <trkpt lat="47.65213" lon="6.05142">
        <ele>228.74</ele>
        <time>2018-04-25T08:36:47Z</time>
      </trkpt>
      <trkpt lat="47.65207" lon="6.05138">
        <ele>228.82</ele>
        <time>2018-04-25T08:36:49Z</time>
      </trkpt>
      <trkpt lat="47.65201" lon="6.05136">
        <ele>228.9</ele>
        <time>2018-04-25T08:36:51Z</time>
      </trkpt>
      <trkpt lat="47.65196" lon="6.05134">
        <ele>228.98</ele>
        <time>2018-04-25T08:36:53Z</time>
      </trkpt>
      <trkpt lat="47.65192" lon="6.05132">
        <ele>229.06</ele>
        <time>2018-04-25T08:36:55Z</time>
      </trkpt>
      <trkpt lat="47.65187" lon="6.0513">
        <ele>229.14</ele>
        <time>2018-04-25T08:36:57Z</time>
      </trkpt>
      <trkpt lat="47.65181" lon="6.05128">
        <ele>229.26</ele>
        <time>2018-04-25T08:37:00Z</time>
      </trkpt>
      <trkpt lat="47.65176" lon="6.05125">
        <ele>229.38</ele>
        <time>2018-04-25T08:37:03Z</time>
      </trkpt>
      <trkpt lat="47.65171" lon="6.05124">
        <ele>229.5</ele>
        <time>2018-04-25T08:37:06Z</time>
      </trkpt>
      <trkpt lat="47.65166" lon="6.05123">
        <ele>229.58</ele>
        <time>2018-04-25T08:37:08Z</time>
      </trkpt>
      <trkpt lat="47.6516" lon="6.05121">
        <ele>229.7</ele>
        <time>2018-04-25T08:37:11Z</time>
      </trkpt>
      <trkpt lat="47.65154" lon="6.05119">
        <ele>229.82</ele>
        <time>2018-04-25T08:37:14Z</time>
      </trkpt>
      <trkpt lat="47.65149" lon="6.05117">
        <ele>229.89</ele>
        <time>2018-04-25T08:37:16Z</time>
      </trkpt>
      <trkpt lat="47.65143" lon="6.05116">
        <ele>229.97</ele>
        <time>2018-04-25T08:37:18Z</time>
      </trkpt>
      <trkpt lat="47.65138" lon="6.05114">
        <ele>230.05</ele>
        <time>2018-04-25T08:37:20Z</time>
      </trkpt>
      <trkpt lat="47.65131" lon="6.0511">
        <ele>230.42</ele>
        <time>2018-04-25T08:37:22Z</time>
      </trkpt>
      <trkpt lat="47.65124" lon="6.05106">
        <ele>230.52</ele>
        <time>2018-04-25T08:37:24Z</time>
      </trkpt>
      <trkpt lat="47.65117" lon="6.05102">
        <ele>230.78</ele>
        <time>2018-04-25T08:37:26Z</time>
      </trkpt>
      <trkpt lat="47.65109" lon="6.05097">
        <ele>231.24</ele>
        <time>2018-04-25T08:37:28Z</time>
      </trkpt>
      <trkpt lat="47.65105" lon="6.05094">
        <ele>231.43</ele>
        <time>2018-04-25T08:37:29Z</time>
      </trkpt>
      <trkpt lat="47.65097" lon="6.05088">
        <ele>231.72</ele>
        <time>2018-04-25T08:37:31Z</time>
      </trkpt>
      <trkpt lat="47.65093" lon="6.05084">
        <ele>231.83</ele>
        <time>2018-04-25T08:37:32Z</time>
      </trkpt>
      <trkpt lat="47.65086" lon="6.05079">
        <ele>232</ele>
        <time>2018-04-25T08:37:34Z</time>
      </trkpt>
      <trkpt lat="47.65078" lon="6.05074">
        <ele>232.13</ele>
        <time>2018-04-25T08:37:36Z</time>
      </trkpt>
      <trkpt lat="47.6507" lon="6.05069">
        <ele>232.23</ele>
        <time>2018-04-25T08:37:38Z</time>
      </trkpt>
      <trkpt lat="47.65062" lon="6.05064">
        <ele>232.3</ele>
        <time>2018-04-25T08:37:40Z</time>
      </trkpt>
      <trkpt lat="47.65055" lon="6.05058">
        <ele>232.35</ele>
        <time>2018-04-25T08:37:42Z</time>
      </trkpt>
      <trkpt lat="47.65047" lon="6.05052">
        <ele>232.45</ele>
        <time>2018-04-25T08:37:44Z</time>
      </trkpt>
      <trkpt lat="47.6504" lon="6.05044">
        <ele>232.54</ele>
        <time>2018-04-25T08:37:46Z</time>
      </trkpt>
      <trkpt lat="47.65033" lon="6.05037">
        <ele>232.61</ele>
        <time>2018-04-25T08:37:48Z</time>
      </trkpt>
      <trkpt lat="47.65027" lon="6.05031">
        <ele>232.67</ele>
        <time>2018-04-25T08:37:50Z</time>
      </trkpt>
      <trkpt lat="47.6502" lon="6.05025">
        <ele>232.71</ele>
        <time>2018-04-25T08:37:52Z</time>
      </trkpt>
      <trkpt lat="47.65013" lon="6.05018">
        <ele>232.75</ele>
        <time>2018-04-25T08:37:54Z</time>
      </trkpt>
      <trkpt lat="47.65005" lon="6.05011">
        <ele>232.78</ele>
        <time>2018-04-25T08:37:56Z</time>
      </trkpt>
      <trkpt lat="47.65001" lon="6.05007">
        <ele>232.79</ele>
        <time>2018-04-25T08:37:57Z</time>
      </trkpt>
      <trkpt lat="47.64997" lon="6.05002">
        <ele>232.8</ele>
        <time>2018-04-25T08:37:58Z</time>
      </trkpt>
      <trkpt lat="47.64993" lon="6.04997">
        <ele>232.8</ele>
        <time>2018-04-25T08:37:59Z</time>
      </trkpt>
      <trkpt lat="47.64988" lon="6.04992">
        <ele>232.81</ele>
        <time>2018-04-25T08:38:00Z</time>
      </trkpt>
      <trkpt lat="47.64984" lon="6.04988">
        <ele>232.82</ele>
        <time>2018-04-25T08:38:01Z</time>
      </trkpt>
      <trkpt lat="47.6498" lon="6.04983">
        <ele>232.83</ele>
        <time>2018-04-25T08:38:02Z</time>
      </trkpt>
      <trkpt lat="47.64977" lon="6.04979">
        <ele>232.84</ele>
        <time>2018-04-25T08:38:03Z</time>
      </trkpt>
      <trkpt lat="47.64971" lon="6.04971">
        <ele>232.86</ele>
        <time>2018-04-25T08:38:05Z</time>
      </trkpt>
      <trkpt lat="47.64965" lon="6.04963">
        <ele>232.87</ele>
        <time>2018-04-25T08:38:07Z</time>
      </trkpt>
      <trkpt lat="47.64959" lon="6.04956">
        <ele>232.88</ele>
        <time>2018-04-25T08:38:09Z</time>
      </trkpt>
      <trkpt lat="47.64954" lon="6.04949">
        <ele>232.88</ele>
        <time>2018-04-25T08:38:11Z</time>
      </trkpt>
      <trkpt lat="47.64949" lon="6.04943">
        <ele>232.89</ele>
        <time>2018-04-25T08:38:13Z</time>
      </trkpt>
      <trkpt lat="47.64944" lon="6.04937">
        <ele>232.89</ele>
        <time>2018-04-25T08:38:15Z</time>
      </trkpt>
      <trkpt lat="47.64939" lon="6.04932">
        <ele>232.9</ele>
        <time>2018-04-25T08:38:17Z</time>
      </trkpt>
      <trkpt lat="47.64935" lon="6.04927">
        <ele>232.91</ele>
        <time>2018-04-25T08:38:19Z</time>
      </trkpt>
      <trkpt lat="47.64931" lon="6.04923">
        <ele>232.91</ele>
        <time>2018-04-25T08:38:21Z</time>
      </trkpt>
      <trkpt lat="47.64927" lon="6.04918">
        <ele>232.92</ele>
        <time>2018-04-25T08:38:23Z</time>
      </trkpt>
      <trkpt lat="47.64923" lon="6.04914">
        <ele>232.93</ele>
        <time>2018-04-25T08:38:25Z</time>
      </trkpt>
      <trkpt lat="47.6492" lon="6.0491">
        <ele>232.94</ele>
        <time>2018-04-25T08:38:27Z</time>
      </trkpt>
      <trkpt lat="47.64915" lon="6.04904">
        <ele>232.96</ele>
        <time>2018-04-25T08:38:30Z</time>
      </trkpt>
      <trkpt lat="47.6491" lon="6.04899">
        <ele>232.99</ele>
        <time>2018-04-25T08:38:34Z</time>
      </trkpt>
      <trkpt lat="47.64906" lon="6.04895">
        <ele>233.01</ele>
        <time>2018-04-25T08:38:37Z</time>
      </trkpt>
      <trkpt lat="47.64902" lon="6.0489">
        <ele>233.04</ele>
        <time>2018-04-25T08:38:41Z</time>
      </trkpt>
      <trkpt lat="47.64897" lon="6.04885">
        <ele>233.07</ele>
        <time>2018-04-25T08:38:44Z</time>
      </trkpt>
      <trkpt lat="47.64892" lon="6.0488">
        <ele>233.09</ele>
        <time>2018-04-25T08:38:47Z</time>
      </trkpt>
      <trkpt lat="47.64888" lon="6.04876">
        <ele>233.11</ele>
        <time>2018-04-25T08:38:49Z</time>
      </trkpt>
      <trkpt lat="47.64884" lon="6.0487">
        <ele>233.14</ele>
        <time>2018-04-25T08:38:52Z</time>
      </trkpt>
      <trkpt lat="47.6488" lon="6.04865">
        <ele>233.16</ele>
        <time>2018-04-25T08:38:54Z</time>
      </trkpt>
      <trkpt lat="47.64876" lon="6.04858">
        <ele>233.19</ele>
        <time>2018-04-25T08:38:57Z</time>
      </trkpt>
      <trkpt lat="47.64873" lon="6.04854">
        <ele>233.21</ele>
        <time>2018-04-25T08:38:59Z</time>
      </trkpt>
      <trkpt lat="47.64867" lon="6.04848">
        <ele>233.24</ele>
        <time>2018-04-25T08:39:02Z</time>
      </trkpt>
      <trkpt lat="47.64862" lon="6.04843">
        <ele>233.27</ele>
        <time>2018-04-25T08:39:05Z</time>
      </trkpt>
      <trkpt lat="47.64859" lon="6.04837">
        <ele>233.31</ele>
        <time>2018-04-25T08:39:08Z</time>
      </trkpt>
      <trkpt lat="47.64854" lon="6.04832">
        <ele>233.34</ele>
        <time>2018-04-25T08:39:11Z</time>
      </trkpt>
      <trkpt lat="47.64851" lon="6.04827">
        <ele>233.38</ele>
        <time>2018-04-25T08:39:14Z</time>
      </trkpt>
      <trkpt lat="47.64847" lon="6.04821">
        <ele>233.41</ele>
        <time>2018-04-25T08:39:17Z</time>
      </trkpt>
      <trkpt lat="47.64843" lon="6.04817">
        <ele>233.45</ele>
        <time>2018-04-25T08:39:20Z</time>
      </trkpt>
      <trkpt lat="47.6484" lon="6.04812">
        <ele>233.5</ele>
        <time>2018-04-25T08:39:24Z</time>
      </trkpt>
      <trkpt lat="47.64836" lon="6.04806">
        <ele>233.53</ele>
        <time>2018-04-25T08:39:27Z</time>
      </trkpt>
      <trkpt lat="47.64833" lon="6.04801">
        <ele>233.57</ele>
        <time>2018-04-25T08:39:30Z</time>
      </trkpt>
      <trkpt lat="47.64831" lon="6.04795">
        <ele>233.61</ele>
        <time>2018-04-25T08:39:33Z</time>
      </trkpt>
      <trkpt lat="47.64828" lon="6.04788">
        <ele>233.67</ele>
        <time>2018-04-25T08:39:37Z</time>
      </trkpt>
      <trkpt lat="47.64825" lon="6.04782">
        <ele>233.72</ele>
        <time>2018-04-25T08:39:40Z</time>
      </trkpt>
      <trkpt lat="47.64823" lon="6.04774">
        <ele>233.78</ele>
        <time>2018-04-25T08:39:44Z</time>
      </trkpt>
      <trkpt lat="47.64822" lon="6.04767">
        <ele>233.83</ele>
        <time>2018-04-25T08:39:47Z</time>
      </trkpt>
      <trkpt lat="47.6482" lon="6.04761">
        <ele>233.88</ele>
        <time>2018-04-25T08:39:50Z</time>
      </trkpt>
      <trkpt lat="47.64818" lon="6.04754">
        <ele>233.93</ele>
        <time>2018-04-25T08:39:53Z</time>
      </trkpt>
      <trkpt lat="47.64816" lon="6.04747">
        <ele>233.98</ele>
        <time>2018-04-25T08:39:56Z</time>
      </trkpt>
      <trkpt lat="47.64814" lon="6.0474">
        <ele>234.03</ele>
        <time>2018-04-25T08:39:59Z</time>
      </trkpt>
      <trkpt lat="47.64812" lon="6.04732">
        <ele>234.11</ele>
        <time>2018-04-25T08:40:03Z</time>
      </trkpt>
      <trkpt lat="47.64809" lon="6.04725">
        <ele>234.17</ele>
        <time>2018-04-25T08:40:06Z</time>
      </trkpt>
      <trkpt lat="47.64808" lon="6.04718">
        <ele>234.23</ele>
        <time>2018-04-25T08:40:09Z</time>
      </trkpt>
      <trkpt lat="47.64805" lon="6.04712">
        <ele>234.29</ele>
        <time>2018-04-25T08:40:12Z</time>
      </trkpt>
      <trkpt lat="47.64803" lon="6.04705">
        <ele>234.35</ele>
        <time>2018-04-25T08:40:15Z</time>
      </trkpt>
      <trkpt lat="47.64801" lon="6.04698">
        <ele>234.41</ele>
        <time>2018-04-25T08:40:18Z</time>
      </trkpt>
      <trkpt lat="47.64797" lon="6.04693">
        <ele>234.48</ele>
        <time>2018-04-25T08:40:21Z</time>
      </trkpt>
      <trkpt lat="47.64793" lon="6.04686">
        <ele>234.54</ele>
        <time>2018-04-25T08:40:24Z</time>
      </trkpt>
      <trkpt lat="47.6479" lon="6.04679">
        <ele>234.61</ele>
        <time>2018-04-25T08:40:27Z</time>
      </trkpt>
      <trkpt lat="47.64786" lon="6.04671">
        <ele>234.67</ele>
        <time>2018-04-25T08:40:30Z</time>
      </trkpt>
      <trkpt lat="47.64783" lon="6.04667">
        <ele>234.73</ele>
        <time>2018-04-25T08:40:33Z</time>
      </trkpt>
      <trkpt lat="47.64779" lon="6.04659">
        <ele>234.88</ele>
        <time>2018-04-25T08:40:43Z</time>
      </trkpt>
      <trkpt lat="47.64776" lon="6.04651">
        <ele>234.96</ele>
        <time>2018-04-25T08:40:46Z</time>
      </trkpt>
      <trkpt lat="47.64773" lon="6.04645">
        <ele>235.01</ele>
        <time>2018-04-25T08:40:48Z</time>
      </trkpt>
      <trkpt lat="47.6477" lon="6.04637">
        <ele>235.05</ele>
        <time>2018-04-25T08:40:50Z</time>
      </trkpt>
      <trkpt lat="47.64766" lon="6.04629">
        <ele>235.1</ele>
        <time>2018-04-25T08:40:52Z</time>
      </trkpt>
      <trkpt lat="47.64765" lon="6.04621">
        <ele>235.15</ele>
        <time>2018-04-25T08:40:54Z</time>
      </trkpt>
      <trkpt lat="47.64767" lon="6.04614">
        <ele>235.19</ele>
        <time>2018-04-25T08:40:56Z</time>
      </trkpt>
      <trkpt lat="47.6477" lon="6.04608">
        <ele>235.24</ele>
        <time>2018-04-25T08:40:58Z</time>
      </trkpt>
      <trkpt lat="47.64775" lon="6.04604">
        <ele>235.29</ele>
        <time>2018-04-25T08:41:00Z</time>
      </trkpt>
      <trkpt lat="47.64779" lon="6.04598">
        <ele>235.33</ele>
        <time>2018-04-25T08:41:02Z</time>
      </trkpt>
      <trkpt lat="47.64783" lon="6.04593">
        <ele>235.38</ele>
        <time>2018-04-25T08:41:04Z</time>
      </trkpt>
      <trkpt lat="47.64787" lon="6.04589">
        <ele>235.43</ele>
        <time>2018-04-25T08:41:06Z</time>
      </trkpt>
      <trkpt lat="47.64791" lon="6.04585">
        <ele>235.48</ele>
        <time>2018-04-25T08:41:08Z</time>
      </trkpt>
      <trkpt lat="47.64795" lon="6.0458">
        <ele>235.52</ele>
        <time>2018-04-25T08:41:10Z</time>
      </trkpt>
      <trkpt lat="47.64799" lon="6.04575">
        <ele>235.57</ele>
        <time>2018-04-25T08:41:12Z</time>
      </trkpt>
      <trkpt lat="47.64802" lon="6.04571">
        <ele>235.62</ele>
        <time>2018-04-25T08:41:14Z</time>
      </trkpt>
      <trkpt lat="47.64806" lon="6.04567">
        <ele>235.67</ele>
        <time>2018-04-25T08:41:16Z</time>
      </trkpt>
      <trkpt lat="47.6481" lon="6.04562">
        <ele>235.71</ele>
        <time>2018-04-25T08:41:18Z</time>
      </trkpt>
      <trkpt lat="47.64815" lon="6.04557">
        <ele>235.76</ele>
        <time>2018-04-25T08:41:20Z</time>
      </trkpt>
      <trkpt lat="47.64819" lon="6.04552">
        <ele>235.81</ele>
        <time>2018-04-25T08:41:22Z</time>
      </trkpt>
      <trkpt lat="47.64824" lon="6.04547">
        <ele>235.85</ele>
        <time>2018-04-25T08:41:24Z</time>
      </trkpt>
      <trkpt lat="47.64828" lon="6.04542">
        <ele>235.9</ele>
        <time>2018-04-25T08:41:26Z</time>
      </trkpt>
      <trkpt lat="47.64833" lon="6.04537">
        <ele>235.95</ele>
        <time>2018-04-25T08:41:28Z</time>
      </trkpt>
      <trkpt lat="47.64838" lon="6.04533">
        <ele>235.99</ele>
        <time>2018-04-25T08:41:30Z</time>
      </trkpt>
      <trkpt lat="47.64842" lon="6.04527">
        <ele>236.06</ele>
        <time>2018-04-25T08:41:33Z</time>
      </trkpt>
      <trkpt lat="47.64846" lon="6.04523">
        <ele>236.11</ele>
        <time>2018-04-25T08:41:35Z</time>
      </trkpt>
      <trkpt lat="47.64851" lon="6.04517">
        <ele>236.15</ele>
        <time>2018-04-25T08:41:37Z</time>
      </trkpt>
      <trkpt lat="47.64856" lon="6.04511">
        <ele>236.19</ele>
        <time>2018-04-25T08:41:39Z</time>
      </trkpt>
      <trkpt lat="47.64862" lon="6.04505">
        <ele>236.24</ele>
        <time>2018-04-25T08:41:41Z</time>
      </trkpt>
      <trkpt lat="47.64867" lon="6.04499">
        <ele>236.28</ele>
        <time>2018-04-25T08:41:43Z</time>
      </trkpt>
      <trkpt lat="47.64872" lon="6.04494">
        <ele>236.32</ele>
        <time>2018-04-25T08:41:45Z</time>
      </trkpt>
      <trkpt lat="47.64877" lon="6.04487">
        <ele>236.37</ele>
        <time>2018-04-25T08:41:47Z</time>
      </trkpt>
      <trkpt lat="47.64883" lon="6.04482">
        <ele>236.41</ele>
        <time>2018-04-25T08:41:49Z</time>
      </trkpt>
      <trkpt lat="47.64889" lon="6.04475">
        <ele>236.72</ele>
        <time>2018-04-25T08:41:51Z</time>
      </trkpt>
      <trkpt lat="47.64895" lon="6.04468">
        <ele>236.99</ele>
        <time>2018-04-25T08:41:53Z</time>
      </trkpt>
      <trkpt lat="47.64902" lon="6.0446">
        <ele>237.16</ele>
        <time>2018-04-25T08:41:55Z</time>
      </trkpt>
      <trkpt lat="47.64909" lon="6.04453">
        <ele>237.28</ele>
        <time>2018-04-25T08:41:57Z</time>
      </trkpt>
      <trkpt lat="47.64916" lon="6.04445">
        <ele>237.35</ele>
        <time>2018-04-25T08:41:59Z</time>
      </trkpt>
      <trkpt lat="47.64923" lon="6.04437">
        <ele>237.39</ele>
        <time>2018-04-25T08:42:01Z</time>
      </trkpt>
      <trkpt lat="47.64927" lon="6.04432">
        <ele>237.4</ele>
        <time>2018-04-25T08:42:02Z</time>
      </trkpt>
      <trkpt lat="47.64931" lon="6.04428">
        <ele>237.41</ele>
        <time>2018-04-25T08:42:03Z</time>
      </trkpt>
      <trkpt lat="47.64935" lon="6.04423">
        <ele>237.42</ele>
        <time>2018-04-25T08:42:04Z</time>
      </trkpt>
      <trkpt lat="47.64939" lon="6.04418">
        <ele>237.42</ele>
        <time>2018-04-25T08:42:05Z</time>
      </trkpt>
      <trkpt lat="47.64943" lon="6.04413">
        <ele>237.42</ele>
        <time>2018-04-25T08:42:06Z</time>
      </trkpt>
      <trkpt lat="47.64947" lon="6.04408">
        <ele>237.42</ele>
        <time>2018-04-25T08:42:07Z</time>
      </trkpt>
      <trkpt lat="47.64952" lon="6.04402">
        <ele>237.43</ele>
        <time>2018-04-25T08:42:08Z</time>
      </trkpt>
      <trkpt lat="47.64956" lon="6.04397">
        <ele>237.43</ele>
        <time>2018-04-25T08:42:09Z</time>
      </trkpt>
      <trkpt lat="47.64961" lon="6.04391">
        <ele>237.44</ele>
        <time>2018-04-25T08:42:10Z</time>
      </trkpt>
      <trkpt lat="47.64966" lon="6.04385">
        <ele>237.45</ele>
        <time>2018-04-25T08:42:11Z</time>
      </trkpt>
      <trkpt lat="47.64971" lon="6.0438">
        <ele>237.45</ele>
        <time>2018-04-25T08:42:12Z</time>
      </trkpt>
      <trkpt lat="47.64976" lon="6.04373">
        <ele>237.45</ele>
        <time>2018-04-25T08:42:13Z</time>
      </trkpt>
      <trkpt lat="47.64981" lon="6.04368">
        <ele>237.44</ele>
        <time>2018-04-25T08:42:14Z</time>
      </trkpt>
      <trkpt lat="47.64988" lon="6.04362">
        <ele>237.43</ele>
        <time>2018-04-25T08:42:15Z</time>
      </trkpt>
      <trkpt lat="47.64993" lon="6.04356">
        <ele>237.41</ele>
        <time>2018-04-25T08:42:16Z</time>
      </trkpt>
      <trkpt lat="47.64999" lon="6.0435">
        <ele>237.38</ele>
        <time>2018-04-25T08:42:17Z</time>
      </trkpt>
      <trkpt lat="47.65005" lon="6.04344">
        <ele>237.36</ele>
        <time>2018-04-25T08:42:18Z</time>
      </trkpt>
      <trkpt lat="47.65011" lon="6.04338">
        <ele>237.34</ele>
        <time>2018-04-25T08:42:19Z</time>
      </trkpt>
      <trkpt lat="47.65017" lon="6.04332">
        <ele>237.34</ele>
        <time>2018-04-25T08:42:20Z</time>
      </trkpt>
      <trkpt lat="47.65023" lon="6.04326">
        <ele>237.32</ele>
        <time>2018-04-25T08:42:21Z</time>
      </trkpt>
      <trkpt lat="47.65029" lon="6.0432">
        <ele>237.29</ele>
        <time>2018-04-25T08:42:22Z</time>
      </trkpt>
      <trkpt lat="47.65035" lon="6.04313">
        <ele>237.27</ele>
        <time>2018-04-25T08:42:23Z</time>
      </trkpt>
      <trkpt lat="47.6504" lon="6.04307">
        <ele>237.28</ele>
        <time>2018-04-25T08:42:24Z</time>
      </trkpt>
      <trkpt lat="47.65046" lon="6.04302">
        <ele>237.3</ele>
        <time>2018-04-25T08:42:25Z</time>
      </trkpt>
      <trkpt lat="47.65051" lon="6.04296">
        <ele>237.31</ele>
        <time>2018-04-25T08:42:26Z</time>
      </trkpt>
      <trkpt lat="47.65056" lon="6.0429">
        <ele>237.34</ele>
        <time>2018-04-25T08:42:27Z</time>
      </trkpt>
      <trkpt lat="47.65061" lon="6.04285">
        <ele>237.34</ele>
        <time>2018-04-25T08:42:28Z</time>
      </trkpt>
      <trkpt lat="47.65066" lon="6.0428">
        <ele>237.36</ele>
        <time>2018-04-25T08:42:29Z</time>
      </trkpt>
      <trkpt lat="47.6507" lon="6.04275">
        <ele>237.38</ele>
        <time>2018-04-25T08:42:30Z</time>
      </trkpt>
      <trkpt lat="47.65074" lon="6.0427">
        <ele>237.4</ele>
        <time>2018-04-25T08:42:31Z</time>
      </trkpt>
      <trkpt lat="47.65079" lon="6.04266">
        <ele>237.45</ele>
        <time>2018-04-25T08:42:32Z</time>
      </trkpt>
      <trkpt lat="47.65083" lon="6.04261">
        <ele>237.51</ele>
        <time>2018-04-25T08:42:33Z</time>
      </trkpt>
      <trkpt lat="47.65087" lon="6.04257">
        <ele>237.57</ele>
        <time>2018-04-25T08:42:34Z</time>
      </trkpt>
      <trkpt lat="47.65091" lon="6.04253">
        <ele>237.6</ele>
        <time>2018-04-25T08:42:35Z</time>
      </trkpt>
      <trkpt lat="47.65095" lon="6.04248">
        <ele>237.68</ele>
        <time>2018-04-25T08:42:36Z</time>
      </trkpt>
      <trkpt lat="47.65098" lon="6.04244">
        <ele>237.75</ele>
        <time>2018-04-25T08:42:37Z</time>
      </trkpt>
      <trkpt lat="47.65105" lon="6.04237">
        <ele>237.95</ele>
        <time>2018-04-25T08:42:39Z</time>
      </trkpt>
      <trkpt lat="47.65109" lon="6.04233">
        <ele>238.02</ele>
        <time>2018-04-25T08:42:40Z</time>
      </trkpt>
      <trkpt lat="47.65113" lon="6.04229">
        <ele>238.12</ele>
        <time>2018-04-25T08:42:41Z</time>
      </trkpt>
      <trkpt lat="47.65117" lon="6.04225">
        <ele>238.25</ele>
        <time>2018-04-25T08:42:42Z</time>
      </trkpt>
      <trkpt lat="47.65121" lon="6.04221">
        <ele>238.37</ele>
        <time>2018-04-25T08:42:43Z</time>
      </trkpt>
      <trkpt lat="47.65125" lon="6.04217">
        <ele>238.46</ele>
        <time>2018-04-25T08:42:44Z</time>
      </trkpt>
      <trkpt lat="47.65129" lon="6.04213">
        <ele>238.57</ele>
        <time>2018-04-25T08:42:45Z</time>
      </trkpt>
      <trkpt lat="47.65132" lon="6.04209">
        <ele>238.68</ele>
        <time>2018-04-25T08:42:46Z</time>
      </trkpt>
      <trkpt lat="47.65136" lon="6.04204">
        <ele>238.75</ele>
        <time>2018-04-25T08:42:47Z</time>
      </trkpt>
      <trkpt lat="47.65142" lon="6.04196">
        <ele>238.87</ele>
        <time>2018-04-25T08:42:49Z</time>
      </trkpt>
      <trkpt lat="47.65146" lon="6.04192">
        <ele>238.92</ele>
        <time>2018-04-25T08:42:50Z</time>
      </trkpt>
      <trkpt lat="47.65153" lon="6.04184">
        <ele>239.04</ele>
        <time>2018-04-25T08:42:52Z</time>
      </trkpt>
      <trkpt lat="47.6516" lon="6.04177">
        <ele>239.13</ele>
        <time>2018-04-25T08:42:54Z</time>
      </trkpt>
      <trkpt lat="47.65167" lon="6.04171">
        <ele>239.21</ele>
        <time>2018-04-25T08:42:56Z</time>
      </trkpt>
      <trkpt lat="47.65174" lon="6.04164">
        <ele>239.23</ele>
        <time>2018-04-25T08:42:58Z</time>
      </trkpt>
      <trkpt lat="47.65179" lon="6.04158">
        <ele>239.24</ele>
        <time>2018-04-25T08:43:00Z</time>
      </trkpt>
      <trkpt lat="47.65185" lon="6.04153">
        <ele>239.25</ele>
        <time>2018-04-25T08:43:02Z</time>
      </trkpt>
      <trkpt lat="47.65189" lon="6.04147">
        <ele>239.26</ele>
        <time>2018-04-25T08:43:04Z</time>
      </trkpt>
      <trkpt lat="47.65194" lon="6.04142">
        <ele>239.28</ele>
        <time>2018-04-25T08:43:06Z</time>
      </trkpt>
      <trkpt lat="47.65199" lon="6.04136">
        <ele>239.3</ele>
        <time>2018-04-25T08:43:08Z</time>
      </trkpt>
      <trkpt lat="47.65204" lon="6.04131">
        <ele>239.32</ele>
        <time>2018-04-25T08:43:10Z</time>
      </trkpt>
      <trkpt lat="47.65209" lon="6.04126">
        <ele>239.34</ele>
        <time>2018-04-25T08:43:12Z</time>
      </trkpt>
      <trkpt lat="47.65214" lon="6.0412">
        <ele>239.36</ele>
        <time>2018-04-25T08:43:14Z</time>
      </trkpt>
      <trkpt lat="47.65219" lon="6.04115">
        <ele>239.39</ele>
        <time>2018-04-25T08:43:16Z</time>
      </trkpt>
      <trkpt lat="47.65223" lon="6.04113">
        <ele>239.42</ele>
        <time>2018-04-25T08:43:18Z</time>
      </trkpt>
      <trkpt lat="47.65227" lon="6.04109">
        <ele>239.46</ele>
        <time>2018-04-25T08:43:21Z</time>
      </trkpt>
      <trkpt lat="47.65232" lon="6.04106">
        <ele>239.51</ele>
        <time>2018-04-25T08:43:24Z</time>
      </trkpt>
      <trkpt lat="47.65237" lon="6.04101">
        <ele>239.56</ele>
        <time>2018-04-25T08:43:27Z</time>
      </trkpt>
      <trkpt lat="47.65241" lon="6.04095">
        <ele>239.61</ele>
        <time>2018-04-25T08:43:30Z</time>
      </trkpt>
      <trkpt lat="47.65246" lon="6.04089">
        <ele>239.66</ele>
        <time>2018-04-25T08:43:33Z</time>
      </trkpt>
      <trkpt lat="47.65251" lon="6.04084">
        <ele>239.71</ele>
        <time>2018-04-25T08:43:36Z</time>
      </trkpt>
      <trkpt lat="47.65255" lon="6.0408">
        <ele>239.77</ele>
        <time>2018-04-25T08:43:39Z</time>
      </trkpt>
      <trkpt lat="47.65259" lon="6.04075">
        <ele>239.82</ele>
        <time>2018-04-25T08:43:42Z</time>
      </trkpt>
      <trkpt lat="47.65265" lon="6.0407">
        <ele>239.9</ele>
        <time>2018-04-25T08:43:46Z</time>
      </trkpt>
      <trkpt lat="47.65269" lon="6.04067">
        <ele>239.96</ele>
        <time>2018-04-25T08:43:49Z</time>
      </trkpt>
      <trkpt lat="47.65273" lon="6.04063">
        <ele>240.02</ele>
        <time>2018-04-25T08:43:52Z</time>
      </trkpt>
      <trkpt lat="47.65279" lon="6.0406">
        <ele>240.11</ele>
        <time>2018-04-25T08:43:56Z</time>
      </trkpt>
      <trkpt lat="47.65283" lon="6.04061">
        <ele>240.18</ele>
        <time>2018-04-25T08:43:59Z</time>
      </trkpt>
      <trkpt lat="47.65288" lon="6.04059">
        <ele>240.38</ele>
        <time>2018-04-25T08:44:21Z</time>
      </trkpt>
      <trkpt lat="47.65292" lon="6.04052">
        <ele>240.48</ele>
        <time>2018-04-25T08:44:25Z</time>
      </trkpt>
      <trkpt lat="47.65295" lon="6.04047">
        <ele>240.53</ele>
        <time>2018-04-25T08:44:27Z</time>
      </trkpt>
      <trkpt lat="47.65299" lon="6.04044">
        <ele>240.58</ele>
        <time>2018-04-25T08:44:29Z</time>
      </trkpt>
      <trkpt lat="47.65305" lon="6.04039">
        <ele>240.67</ele>
        <time>2018-04-25T08:44:32Z</time>
      </trkpt>
      <trkpt lat="47.65308" lon="6.04034">
        <ele>240.72</ele>
        <time>2018-04-25T08:44:34Z</time>
      </trkpt>
      <trkpt lat="47.65313" lon="6.04028">
        <ele>240.8</ele>
        <time>2018-04-25T08:44:37Z</time>
      </trkpt>
      <trkpt lat="47.65316" lon="6.04023">
        <ele>240.85</ele>
        <time>2018-04-25T08:44:39Z</time>
      </trkpt>
      <trkpt lat="47.6532" lon="6.04018">
        <ele>240.9</ele>
        <time>2018-04-25T08:44:41Z</time>
      </trkpt>
      <trkpt lat="47.65324" lon="6.04013">
        <ele>240.95</ele>
        <time>2018-04-25T08:44:43Z</time>
      </trkpt>
      <trkpt lat="47.65329" lon="6.04005">
        <ele>241.03</ele>
        <time>2018-04-25T08:44:46Z</time>
      </trkpt>
      <trkpt lat="47.65332" lon="6.03999">
        <ele>241.09</ele>
        <time>2018-04-25T08:44:48Z</time>
      </trkpt>
      <trkpt lat="47.65336" lon="6.03992">
        <ele>241.14</ele>
        <time>2018-04-25T08:44:50Z</time>
      </trkpt>
      <trkpt lat="47.65341" lon="6.03985">
        <ele>241.19</ele>
        <time>2018-04-25T08:44:52Z</time>
      </trkpt>
      <trkpt lat="47.65345" lon="6.03978">
        <ele>241.25</ele>
        <time>2018-04-25T08:44:54Z</time>
      </trkpt>
      <trkpt lat="47.65351" lon="6.03971">
        <ele>241.3</ele>
        <time>2018-04-25T08:44:56Z</time>
      </trkpt>
      <trkpt lat="47.65356" lon="6.03964">
        <ele>241.35</ele>
        <time>2018-04-25T08:44:58Z</time>
      </trkpt>
      <trkpt lat="47.6536" lon="6.03958">
        <ele>241.4</ele>
        <time>2018-04-25T08:45:00Z</time>
      </trkpt>
      <trkpt lat="47.65363" lon="6.03953">
        <ele>241.45</ele>
        <time>2018-04-25T08:45:02Z</time>
      </trkpt>
      <trkpt lat="47.65367" lon="6.03948">
        <ele>241.5</ele>
        <time>2018-04-25T08:45:04Z</time>
      </trkpt>
      <trkpt lat="47.65371" lon="6.03942">
        <ele>241.55</ele>
        <time>2018-04-25T08:45:06Z</time>
      </trkpt>
      <trkpt lat="47.65375" lon="6.03936">
        <ele>241.6</ele>
        <time>2018-04-25T08:45:08Z</time>
      </trkpt>
      <trkpt lat="47.65379" lon="6.03931">
        <ele>241.65</ele>
        <time>2018-04-25T08:45:10Z</time>
      </trkpt>
      <trkpt lat="47.65384" lon="6.03925">
        <ele>241.7</ele>
        <time>2018-04-25T08:45:12Z</time>
      </trkpt>
      <trkpt lat="47.65388" lon="6.03918">
        <ele>241.74</ele>
        <time>2018-04-25T08:45:14Z</time>
      </trkpt>
      <trkpt lat="47.65392" lon="6.03913">
        <ele>241.79</ele>
        <time>2018-04-25T08:45:16Z</time>
      </trkpt>
      <trkpt lat="47.65397" lon="6.03907">
        <ele>241.83</ele>
        <time>2018-04-25T08:45:18Z</time>
      </trkpt>
      <trkpt lat="47.65402" lon="6.039">
        <ele>241.87</ele>
        <time>2018-04-25T08:45:20Z</time>
      </trkpt>
      <trkpt lat="47.65407" lon="6.03894">
        <ele>241.91</ele>
        <time>2018-04-25T08:45:22Z</time>
      </trkpt>
      <trkpt lat="47.6541" lon="6.03889">
        <ele>241.96</ele>
        <time>2018-04-25T08:45:24Z</time>
      </trkpt>
      <trkpt lat="47.65414" lon="6.03884">
        <ele>242</ele>
        <time>2018-04-25T08:45:26Z</time>
      </trkpt>
      <trkpt lat="47.65419" lon="6.03878">
        <ele>242.04</ele>
        <time>2018-04-25T08:45:28Z</time>
      </trkpt>
      <trkpt lat="47.65425" lon="6.03871">
        <ele>242.07</ele>
        <time>2018-04-25T08:45:30Z</time>
      </trkpt>
      <trkpt lat="47.6543" lon="6.03863">
        <ele>242.11</ele>
        <time>2018-04-25T08:45:32Z</time>
      </trkpt>
      <trkpt lat="47.65435" lon="6.03856">
        <ele>242.15</ele>
        <time>2018-04-25T08:45:34Z</time>
      </trkpt>
      <trkpt lat="47.65441" lon="6.03848">
        <ele>242.19</ele>
        <time>2018-04-25T08:45:36Z</time>
      </trkpt>
      <trkpt lat="47.65446" lon="6.03841">
        <ele>242.23</ele>
        <time>2018-04-25T08:45:38Z</time>
      </trkpt>
      <trkpt lat="47.6545" lon="6.03834">
        <ele>242.26</ele>
        <time>2018-04-25T08:45:40Z</time>
      </trkpt>
      <trkpt lat="47.65456" lon="6.03827">
        <ele>242.3</ele>
        <time>2018-04-25T08:45:42Z</time>
      </trkpt>
      <trkpt lat="47.6546" lon="6.03822">
        <ele>242.33</ele>
        <time>2018-04-25T08:45:44Z</time>
      </trkpt>
      <trkpt lat="47.65466" lon="6.03816">
        <ele>242.37</ele>
        <time>2018-04-25T08:45:46Z</time>
      </trkpt>
      <trkpt lat="47.65472" lon="6.0381">
        <ele>242.53</ele>
        <time>2018-04-25T08:45:48Z</time>
      </trkpt>
      <trkpt lat="47.65478" lon="6.03802">
        <ele>242.71</ele>
        <time>2018-04-25T08:45:50Z</time>
      </trkpt>
      <trkpt lat="47.65485" lon="6.03795">
        <ele>242.85</ele>
        <time>2018-04-25T08:45:52Z</time>
      </trkpt>
      <trkpt lat="47.65491" lon="6.03787">
        <ele>242.95</ele>
        <time>2018-04-25T08:45:54Z</time>
      </trkpt>
      <trkpt lat="47.65497" lon="6.0378">
        <ele>243.01</ele>
        <time>2018-04-25T08:45:56Z</time>
      </trkpt>
      <trkpt lat="47.65504" lon="6.03773">
        <ele>243.04</ele>
        <time>2018-04-25T08:45:58Z</time>
      </trkpt>
      <trkpt lat="47.6551" lon="6.03767">
        <ele>243.06</ele>
        <time>2018-04-25T08:46:00Z</time>
      </trkpt>
      <trkpt lat="47.65516" lon="6.03762">
        <ele>243.06</ele>
        <time>2018-04-25T08:46:02Z</time>
      </trkpt>
      <trkpt lat="47.65522" lon="6.03758">
        <ele>243.06</ele>
        <time>2018-04-25T08:46:04Z</time>
      </trkpt>
      <trkpt lat="47.65529" lon="6.03754">
        <ele>243.07</ele>
        <time>2018-04-25T08:46:06Z</time>
      </trkpt>
      <trkpt lat="47.65535" lon="6.03749">
        <ele>243.07</ele>
        <time>2018-04-25T08:46:08Z</time>
      </trkpt>
      <trkpt lat="47.65543" lon="6.03747">
        <ele>243.07</ele>
        <time>2018-04-25T08:46:10Z</time>
      </trkpt>
      <trkpt lat="47.65551" lon="6.03744">
        <ele>243.08</ele>
        <time>2018-04-25T08:46:12Z</time>
      </trkpt>
      <trkpt lat="47.6556" lon="6.03742">
        <ele>243.09</ele>
        <time>2018-04-25T08:46:14Z</time>
      </trkpt>
      <trkpt lat="47.65567" lon="6.03739">
        <ele>243.09</ele>
        <time>2018-04-25T08:46:16Z</time>
      </trkpt>
      <trkpt lat="47.65573" lon="6.03736">
        <ele>243.09</ele>
        <time>2018-04-25T08:46:18Z</time>
      </trkpt>
      <trkpt lat="47.65579" lon="6.03732">
        <ele>243.09</ele>
        <time>2018-04-25T08:46:20Z</time>
      </trkpt>
      <trkpt lat="47.65586" lon="6.03728">
        <ele>243.09</ele>
        <time>2018-04-25T08:46:22Z</time>
      </trkpt>
      <trkpt lat="47.65591" lon="6.03724">
        <ele>243.1</ele>
        <time>2018-04-25T08:46:24Z</time>
      </trkpt>
      <trkpt lat="47.65596" lon="6.0372">
        <ele>243.1</ele>
        <time>2018-04-25T08:46:26Z</time>
      </trkpt>
      <trkpt lat="47.656" lon="6.03717">
        <ele>243.1</ele>
        <time>2018-04-25T08:46:28Z</time>
      </trkpt>
      <trkpt lat="47.65605" lon="6.0371">
        <ele>243.1</ele>
        <time>2018-04-25T08:46:30Z</time>
      </trkpt>
      <trkpt lat="47.6561" lon="6.03704">
        <ele>243.1</ele>
        <time>2018-04-25T08:46:32Z</time>
      </trkpt>
      <trkpt lat="47.65614" lon="6.037">
        <ele>243.1</ele>
        <time>2018-04-25T08:46:34Z</time>
      </trkpt>
      <trkpt lat="47.6562" lon="6.03693">
        <ele>243.1</ele>
        <time>2018-04-25T08:46:36Z</time>
      </trkpt>
      <trkpt lat="47.65626" lon="6.03686">
        <ele>243.1</ele>
        <time>2018-04-25T08:46:38Z</time>
      </trkpt>
      <trkpt lat="47.65632" lon="6.0368">
        <ele>243.08</ele>
        <time>2018-04-25T08:46:40Z</time>
      </trkpt>
      <trkpt lat="47.65638" lon="6.03673">
        <ele>243.06</ele>
        <time>2018-04-25T08:46:42Z</time>
      </trkpt>
      <trkpt lat="47.65644" lon="6.03666">
        <ele>243.05</ele>
        <time>2018-04-25T08:46:44Z</time>
      </trkpt>
      <trkpt lat="47.6565" lon="6.0366">
        <ele>243.03</ele>
        <time>2018-04-25T08:46:46Z</time>
      </trkpt>
      <trkpt lat="47.65657" lon="6.03653">
        <ele>243.02</ele>
        <time>2018-04-25T08:46:48Z</time>
      </trkpt>
      <trkpt lat="47.65662" lon="6.03647">
        <ele>243.02</ele>
        <time>2018-04-25T08:46:50Z</time>
      </trkpt>
      <trkpt lat="47.65668" lon="6.03641">
        <ele>243.02</ele>
        <time>2018-04-25T08:46:52Z</time>
      </trkpt>
      <trkpt lat="47.65674" lon="6.03634">
        <ele>243</ele>
        <time>2018-04-25T08:46:54Z</time>
      </trkpt>
      <trkpt lat="47.6568" lon="6.03628">
        <ele>242.98</ele>
        <time>2018-04-25T08:46:56Z</time>
      </trkpt>
      <trkpt lat="47.65687" lon="6.03621">
        <ele>242.96</ele>
        <time>2018-04-25T08:46:58Z</time>
      </trkpt>
      <trkpt lat="47.65694" lon="6.03613">
        <ele>242.94</ele>
        <time>2018-04-25T08:47:00Z</time>
      </trkpt>
      <trkpt lat="47.65701" lon="6.03606">
        <ele>242.94</ele>
        <time>2018-04-25T08:47:02Z</time>
      </trkpt>
      <trkpt lat="47.65707" lon="6.03599">
        <ele>242.92</ele>
        <time>2018-04-25T08:47:04Z</time>
      </trkpt>
      <trkpt lat="47.65711" lon="6.03594">
        <ele>242.91</ele>
        <time>2018-04-25T08:47:05Z</time>
      </trkpt>
      <trkpt lat="47.65715" lon="6.0359">
        <ele>242.9</ele>
        <time>2018-04-25T08:47:06Z</time>
      </trkpt>
      <trkpt lat="47.65722" lon="6.03583">
        <ele>242.88</ele>
        <time>2018-04-25T08:47:08Z</time>
      </trkpt>
      <trkpt lat="47.65728" lon="6.03578">
        <ele>242.88</ele>
        <time>2018-04-25T08:47:10Z</time>
      </trkpt>
      <trkpt lat="47.65733" lon="6.03573">
        <ele>242.88</ele>
        <time>2018-04-25T08:47:12Z</time>
      </trkpt>
      <trkpt lat="47.65739" lon="6.03566">
        <ele>242.87</ele>
        <time>2018-04-25T08:47:14Z</time>
      </trkpt>
      <trkpt lat="47.65744" lon="6.03561">
        <ele>242.87</ele>
        <time>2018-04-25T08:47:16Z</time>
      </trkpt>
      <trkpt lat="47.65748" lon="6.03557">
        <ele>242.87</ele>
        <time>2018-04-25T08:47:18Z</time>
      </trkpt>
      <trkpt lat="47.65753" lon="6.03555">
        <ele>242.86</ele>
        <time>2018-04-25T08:47:20Z</time>
      </trkpt>
      <trkpt lat="47.65757" lon="6.03553">
        <ele>242.85</ele>
        <time>2018-04-25T08:47:22Z</time>
      </trkpt>
      <trkpt lat="47.65764" lon="6.0355">
        <ele>242.84</ele>
        <time>2018-04-25T08:47:25Z</time>
      </trkpt>
      <trkpt lat="47.65769" lon="6.03547">
        <ele>242.84</ele>
        <time>2018-04-25T08:47:27Z</time>
      </trkpt>
      <trkpt lat="47.65775" lon="6.03545">
        <ele>242.83</ele>
        <time>2018-04-25T08:47:29Z</time>
      </trkpt>
      <trkpt lat="47.6578" lon="6.03541">
        <ele>242.82</ele>
        <time>2018-04-25T08:47:31Z</time>
      </trkpt>
      <trkpt lat="47.65787" lon="6.03535">
        <ele>242.81</ele>
        <time>2018-04-25T08:47:33Z</time>
      </trkpt>
      <trkpt lat="47.6579" lon="6.03532">
        <ele>242.81</ele>
        <time>2018-04-25T08:47:34Z</time>
      </trkpt>
      <trkpt lat="47.65796" lon="6.03526">
        <ele>242.79</ele>
        <time>2018-04-25T08:47:36Z</time>
      </trkpt>
      <trkpt lat="47.65801" lon="6.0352">
        <ele>242.78</ele>
        <time>2018-04-25T08:47:38Z</time>
      </trkpt>
      <trkpt lat="47.65805" lon="6.03515">
        <ele>242.76</ele>
        <time>2018-04-25T08:47:41Z</time>
      </trkpt>
      <trkpt lat="47.65809" lon="6.03512">
        <ele>242.66</ele>
        <time>2018-04-25T08:47:59Z</time>
      </trkpt>
      <trkpt lat="47.65813" lon="6.03506">
        <ele>242.61</ele>
        <time>2018-04-25T08:48:02Z</time>
      </trkpt>
      <trkpt lat="47.65817" lon="6.035">
        <ele>242.55</ele>
        <time>2018-04-25T08:48:05Z</time>
      </trkpt>
      <trkpt lat="47.65821" lon="6.03496">
        <ele>242.48</ele>
        <time>2018-04-25T08:48:09Z</time>
      </trkpt>
      <trkpt lat="47.65825" lon="6.03491">
        <ele>242.43</ele>
        <time>2018-04-25T08:48:12Z</time>
      </trkpt>
      <trkpt lat="47.65829" lon="6.03487">
        <ele>242.39</ele>
        <time>2018-04-25T08:48:15Z</time>
      </trkpt>
      <trkpt lat="47.65832" lon="6.03483">
        <ele>242.36</ele>
        <time>2018-04-25T08:48:17Z</time>
      </trkpt>
      <trkpt lat="47.65837" lon="6.03477">
        <ele>242.3</ele>
        <time>2018-04-25T08:48:20Z</time>
      </trkpt>
      <trkpt lat="47.65841" lon="6.03471">
        <ele>242.27</ele>
        <time>2018-04-25T08:48:22Z</time>
      </trkpt>
      <trkpt lat="47.65845" lon="6.03464">
        <ele>242.21</ele>
        <time>2018-04-25T08:48:25Z</time>
      </trkpt>
      <trkpt lat="47.65849" lon="6.03459">
        <ele>242.17</ele>
        <time>2018-04-25T08:48:27Z</time>
      </trkpt>
      <trkpt lat="47.65852" lon="6.03452">
        <ele>242.14</ele>
        <time>2018-04-25T08:48:29Z</time>
      </trkpt>
      <trkpt lat="47.65856" lon="6.03446">
        <ele>242.1</ele>
        <time>2018-04-25T08:48:31Z</time>
      </trkpt>
      <trkpt lat="47.65859" lon="6.03441">
        <ele>242.06</ele>
        <time>2018-04-25T08:48:33Z</time>
      </trkpt>
      <trkpt lat="47.65863" lon="6.03436">
        <ele>242.03</ele>
        <time>2018-04-25T08:48:35Z</time>
      </trkpt>
      <trkpt lat="47.65867" lon="6.0343">
        <ele>241.98</ele>
        <time>2018-04-25T08:48:38Z</time>
      </trkpt>
      <trkpt lat="47.65871" lon="6.03424">
        <ele>241.94</ele>
        <time>2018-04-25T08:48:40Z</time>
      </trkpt>
      <trkpt lat="47.65874" lon="6.03418">
        <ele>241.91</ele>
        <time>2018-04-25T08:48:42Z</time>
      </trkpt>
      <trkpt lat="47.65879" lon="6.03409">
        <ele>241.86</ele>
        <time>2018-04-25T08:48:45Z</time>
      </trkpt>
      <trkpt lat="47.65883" lon="6.03403">
        <ele>241.82</ele>
        <time>2018-04-25T08:48:47Z</time>
      </trkpt>
      <trkpt lat="47.65888" lon="6.03397">
        <ele>241.76</ele>
        <time>2018-04-25T08:48:50Z</time>
      </trkpt>
      <trkpt lat="47.65892" lon="6.03392">
        <ele>241.7</ele>
        <time>2018-04-25T08:48:53Z</time>
      </trkpt>
      <trkpt lat="47.65896" lon="6.03385">
        <ele>241.64</ele>
        <time>2018-04-25T08:48:56Z</time>
      </trkpt>
      <trkpt lat="47.65898" lon="6.03377">
        <ele>241.59</ele>
        <time>2018-04-25T08:48:58Z</time>
      </trkpt>
      <trkpt lat="47.65901" lon="6.03368">
        <ele>241.55</ele>
        <time>2018-04-25T08:49:00Z</time>
      </trkpt>
      <trkpt lat="47.65903" lon="6.03359">
        <ele>241.51</ele>
        <time>2018-04-25T08:49:02Z</time>
      </trkpt>
      <trkpt lat="47.65906" lon="6.0335">
        <ele>241.46</ele>
        <time>2018-04-25T08:49:04Z</time>
      </trkpt>
      <trkpt lat="47.6591" lon="6.0334">
        <ele>241.42</ele>
        <time>2018-04-25T08:49:06Z</time>
      </trkpt>
      <trkpt lat="47.65913" lon="6.0333">
        <ele>241.37</ele>
        <time>2018-04-25T08:49:08Z</time>
      </trkpt>
      <trkpt lat="47.65916" lon="6.0332">
        <ele>241.14</ele>
        <time>2018-04-25T08:49:10Z</time>
      </trkpt>
      <trkpt lat="47.65919" lon="6.03311">
        <ele>241.08</ele>
        <time>2018-04-25T08:49:12Z</time>
      </trkpt>
      <trkpt lat="47.65922" lon="6.03301">
        <ele>241.04</ele>
        <time>2018-04-25T08:49:14Z</time>
      </trkpt>
      <trkpt lat="47.65924" lon="6.03293">
        <ele>240.99</ele>
        <time>2018-04-25T08:49:16Z</time>
      </trkpt>
      <trkpt lat="47.65928" lon="6.03284">
        <ele>240.95</ele>
        <time>2018-04-25T08:49:18Z</time>
      </trkpt>
      <trkpt lat="47.65931" lon="6.03274">
        <ele>240.73</ele>
        <time>2018-04-25T08:49:20Z</time>
      </trkpt>
      <trkpt lat="47.65935" lon="6.03265">
        <ele>240.57</ele>
        <time>2018-04-25T08:49:22Z</time>
      </trkpt>
      <trkpt lat="47.65939" lon="6.03253">
        <ele>240.29</ele>
        <time>2018-04-25T08:49:24Z</time>
      </trkpt>
      <trkpt lat="47.65942" lon="6.03242">
        <ele>240.07</ele>
        <time>2018-04-25T08:49:26Z</time>
      </trkpt>
      <trkpt lat="47.65945" lon="6.0323">
        <ele>239.88</ele>
        <time>2018-04-25T08:49:28Z</time>
      </trkpt>
      <trkpt lat="47.65948" lon="6.03221">
        <ele>239.77</ele>
        <time>2018-04-25T08:49:30Z</time>
      </trkpt>
      <trkpt lat="47.65951" lon="6.03209">
        <ele>239.61</ele>
        <time>2018-04-25T08:49:32Z</time>
      </trkpt>
      <trkpt lat="47.65954" lon="6.03198">
        <ele>239.47</ele>
        <time>2018-04-25T08:49:34Z</time>
      </trkpt>
      <trkpt lat="47.65956" lon="6.03192">
        <ele>239.44</ele>
        <time>2018-04-25T08:49:35Z</time>
      </trkpt>
      <trkpt lat="47.6596" lon="6.03182">
        <ele>239.36</ele>
        <time>2018-04-25T08:49:37Z</time>
      </trkpt>
      <trkpt lat="47.65964" lon="6.03172">
        <ele>239.21</ele>
        <time>2018-04-25T08:49:39Z</time>
      </trkpt>
      <trkpt lat="47.65968" lon="6.03159">
        <ele>239.05</ele>
        <time>2018-04-25T08:49:41Z</time>
      </trkpt>
      <trkpt lat="47.65969" lon="6.03151">
        <ele>238.96</ele>
        <time>2018-04-25T08:49:42Z</time>
      </trkpt>
      <trkpt lat="47.65972" lon="6.03141">
        <ele>238.88</ele>
        <time>2018-04-25T08:49:43Z</time>
      </trkpt>
      <trkpt lat="47.65974" lon="6.03131">
        <ele>238.8</ele>
        <time>2018-04-25T08:49:44Z</time>
      </trkpt>
      <trkpt lat="47.65976" lon="6.0312">
        <ele>238.71</ele>
        <time>2018-04-25T08:49:45Z</time>
      </trkpt>
      <trkpt lat="47.65979" lon="6.03109">
        <ele>238.63</ele>
        <time>2018-04-25T08:49:46Z</time>
      </trkpt>
      <trkpt lat="47.65981" lon="6.03098">
        <ele>238.56</ele>
        <time>2018-04-25T08:49:47Z</time>
      </trkpt>
      <trkpt lat="47.65983" lon="6.03089">
        <ele>238.49</ele>
        <time>2018-04-25T08:49:48Z</time>
      </trkpt>
      <trkpt lat="47.65985" lon="6.03079">
        <ele>238.43</ele>
        <time>2018-04-25T08:49:49Z</time>
      </trkpt>
      <trkpt lat="47.65987" lon="6.0307">
        <ele>238.37</ele>
        <time>2018-04-25T08:49:50Z</time>
      </trkpt>
      <trkpt lat="47.6599" lon="6.03062">
        <ele>238.32</ele>
        <time>2018-04-25T08:49:51Z</time>
      </trkpt>
      <trkpt lat="47.65992" lon="6.03053">
        <ele>238.27</ele>
        <time>2018-04-25T08:49:52Z</time>
      </trkpt>
      <trkpt lat="47.65995" lon="6.03043">
        <ele>238.21</ele>
        <time>2018-04-25T08:49:53Z</time>
      </trkpt>
      <trkpt lat="47.65997" lon="6.03034">
        <ele>238.16</ele>
        <time>2018-04-25T08:49:54Z</time>
      </trkpt>
      <trkpt lat="47.65999" lon="6.03026">
        <ele>238.11</ele>
        <time>2018-04-25T08:49:55Z</time>
      </trkpt>
      <trkpt lat="47.66001" lon="6.03017">
        <ele>238.07</ele>
        <time>2018-04-25T08:49:56Z</time>
      </trkpt>
      <trkpt lat="47.66003" lon="6.03008">
        <ele>238.02</ele>
        <time>2018-04-25T08:49:57Z</time>
      </trkpt>
      <trkpt lat="47.66006" lon="6.02999">
        <ele>237.97</ele>
        <time>2018-04-25T08:49:58Z</time>
      </trkpt>
      <trkpt lat="47.66009" lon="6.0299">
        <ele>237.93</ele>
        <time>2018-04-25T08:49:59Z</time>
      </trkpt>
      <trkpt lat="47.66012" lon="6.02981">
        <ele>237.88</ele>
        <time>2018-04-25T08:50:00Z</time>
      </trkpt>
      <trkpt lat="47.66013" lon="6.02972">
        <ele>237.83</ele>
        <time>2018-04-25T08:50:01Z</time>
      </trkpt>
      <trkpt lat="47.66014" lon="6.02964">
        <ele>237.74</ele>
        <time>2018-04-25T08:50:02Z</time>
      </trkpt>
      <trkpt lat="47.66014" lon="6.02955">
        <ele>237.63</ele>
        <time>2018-04-25T08:50:03Z</time>
      </trkpt>
      <trkpt lat="47.66015" lon="6.02945">
        <ele>237.51</ele>
        <time>2018-04-25T08:50:04Z</time>
      </trkpt>
      <trkpt lat="47.66015" lon="6.02935">
        <ele>237.38</ele>
        <time>2018-04-25T08:50:05Z</time>
      </trkpt>
      <trkpt lat="47.66015" lon="6.02925">
        <ele>237.25</ele>
        <time>2018-04-25T08:50:06Z</time>
      </trkpt>
      <trkpt lat="47.66014" lon="6.02916">
        <ele>237.13</ele>
        <time>2018-04-25T08:50:07Z</time>
      </trkpt>
      <trkpt lat="47.66013" lon="6.02905">
        <ele>236.98</ele>
        <time>2018-04-25T08:50:08Z</time>
      </trkpt>
      <trkpt lat="47.66011" lon="6.02895">
        <ele>236.83</ele>
        <time>2018-04-25T08:50:09Z</time>
      </trkpt>
      <trkpt lat="47.66008" lon="6.02885">
        <ele>236.64</ele>
        <time>2018-04-25T08:50:10Z</time>
      </trkpt>
      <trkpt lat="47.66006" lon="6.02874">
        <ele>236.43</ele>
        <time>2018-04-25T08:50:11Z</time>
      </trkpt>
      <trkpt lat="47.66004" lon="6.02864">
        <ele>236.28</ele>
        <time>2018-04-25T08:50:12Z</time>
      </trkpt>
      <trkpt lat="47.66003" lon="6.02853">
        <ele>236.17</ele>
        <time>2018-04-25T08:50:13Z</time>
      </trkpt>
      <trkpt lat="47.66003" lon="6.02843">
        <ele>236.09</ele>
        <time>2018-04-25T08:50:14Z</time>
      </trkpt>
      <trkpt lat="47.66002" lon="6.02833">
        <ele>236</ele>
        <time>2018-04-25T08:50:15Z</time>
      </trkpt>
      <trkpt lat="47.66002" lon="6.02822">
        <ele>235.93</ele>
        <time>2018-04-25T08:50:16Z</time>
      </trkpt>
      <trkpt lat="47.66003" lon="6.02813">
        <ele>235.86</ele>
        <time>2018-04-25T08:50:17Z</time>
      </trkpt>
      <trkpt lat="47.66004" lon="6.02803">
        <ele>235.79</ele>
        <time>2018-04-25T08:50:18Z</time>
      </trkpt>
      <trkpt lat="47.66004" lon="6.02795">
        <ele>235.73</ele>
        <time>2018-04-25T08:50:19Z</time>
      </trkpt>
      <trkpt lat="47.66006" lon="6.02785">
        <ele>235.59</ele>
        <time>2018-04-25T08:50:20Z</time>
      </trkpt>
      <trkpt lat="47.66007" lon="6.02777">
        <ele>235.46</ele>
        <time>2018-04-25T08:50:21Z</time>
      </trkpt>
      <trkpt lat="47.66007" lon="6.0277">
        <ele>235.36</ele>
        <time>2018-04-25T08:50:22Z</time>
      </trkpt>
      <trkpt lat="47.66007" lon="6.02763">
        <ele>235.28</ele>
        <time>2018-04-25T08:50:23Z</time>
      </trkpt>
      <trkpt lat="47.66007" lon="6.02756">
        <ele>235.23</ele>
        <time>2018-04-25T08:50:24Z</time>
      </trkpt>
      <trkpt lat="47.66008" lon="6.02742">
        <ele>235.19</ele>
        <time>2018-04-25T08:50:26Z</time>
      </trkpt>
      <trkpt lat="47.66007" lon="6.02735">
        <ele>235.2</ele>
        <time>2018-04-25T08:50:27Z</time>
      </trkpt>
      <trkpt lat="47.66005" lon="6.02723">
        <ele>235.4</ele>
        <time>2018-04-25T08:50:29Z</time>
      </trkpt>
      <trkpt lat="47.66002" lon="6.02713">
        <ele>235.51</ele>
        <time>2018-04-25T08:50:31Z</time>
      </trkpt>
      <trkpt lat="47.65998" lon="6.02702">
        <ele>235.49</ele>
        <time>2018-04-25T08:50:33Z</time>
      </trkpt>
      <trkpt lat="47.65994" lon="6.02693">
        <ele>235.36</ele>
        <time>2018-04-25T08:50:35Z</time>
      </trkpt>
      <trkpt lat="47.65989" lon="6.02685">
        <ele>235.2</ele>
        <time>2018-04-25T08:50:37Z</time>
      </trkpt>
      <trkpt lat="47.65982" lon="6.0268">
        <ele>235.19</ele>
        <time>2018-04-25T08:50:39Z</time>
      </trkpt>
      <trkpt lat="47.65975" lon="6.02682">
        <ele>235.21</ele>
        <time>2018-04-25T08:50:41Z</time>
      </trkpt>
      <trkpt lat="47.65967" lon="6.02686">
        <ele>235.27</ele>
        <time>2018-04-25T08:50:43Z</time>
      </trkpt>
      <trkpt lat="47.65963" lon="6.02689">
        <ele>235.38</ele>
        <time>2018-04-25T08:50:44Z</time>
      </trkpt>
      <trkpt lat="47.65958" lon="6.02692">
        <ele>235.5</ele>
        <time>2018-04-25T08:50:45Z</time>
      </trkpt>
      <trkpt lat="47.65954" lon="6.02695">
        <ele>235.56</ele>
        <time>2018-04-25T08:50:46Z</time>
      </trkpt>
      <trkpt lat="47.6595" lon="6.02699">
        <ele>235.74</ele>
        <time>2018-04-25T08:50:47Z</time>
      </trkpt>
      <trkpt lat="47.65946" lon="6.02702">
        <ele>235.92</ele>
        <time>2018-04-25T08:50:48Z</time>
      </trkpt>
      <trkpt lat="47.65939" lon="6.02707">
        <ele>236.09</ele>
        <time>2018-04-25T08:50:50Z</time>
      </trkpt>
      <trkpt lat="47.65932" lon="6.0271">
        <ele>236.07</ele>
        <time>2018-04-25T08:50:52Z</time>
      </trkpt>
      <trkpt lat="47.65925" lon="6.02714">
        <ele>236.03</ele>
        <time>2018-04-25T08:50:54Z</time>
      </trkpt>
      <trkpt lat="47.65919" lon="6.02718">
        <ele>235.95</ele>
        <time>2018-04-25T08:50:56Z</time>
      </trkpt>
      <trkpt lat="47.65913" lon="6.02723">
        <ele>235.88</ele>
        <time>2018-04-25T08:50:58Z</time>
      </trkpt>
      <trkpt lat="47.65906" lon="6.02729">
        <ele>235.55</ele>
        <time>2018-04-25T08:51:00Z</time>
      </trkpt>
      <trkpt lat="47.65898" lon="6.02733">
        <ele>235.27</ele>
        <time>2018-04-25T08:51:02Z</time>
      </trkpt>
      <trkpt lat="47.65891" lon="6.02739">
        <ele>234.98</ele>
        <time>2018-04-25T08:51:04Z</time>
      </trkpt>
      <trkpt lat="47.65884" lon="6.02744">
        <ele>234.85</ele>
        <time>2018-04-25T08:51:06Z</time>
      </trkpt>
      <trkpt lat="47.65877" lon="6.02749">
        <ele>234.77</ele>
        <time>2018-04-25T08:51:08Z</time>
      </trkpt>
      <trkpt lat="47.6587" lon="6.02754">
        <ele>234.76</ele>
        <time>2018-04-25T08:51:10Z</time>
      </trkpt>
      <trkpt lat="47.65863" lon="6.02759">
        <ele>234.78</ele>
        <time>2018-04-25T08:51:12Z</time>
      </trkpt>
      <trkpt lat="47.65856" lon="6.02765">
        <ele>234.85</ele>
        <time>2018-04-25T08:51:14Z</time>
      </trkpt>
      <trkpt lat="47.65848" lon="6.0277">
        <ele>234.91</ele>
        <time>2018-04-25T08:51:16Z</time>
      </trkpt>
      <trkpt lat="47.6584" lon="6.02775">
        <ele>234.96</ele>
        <time>2018-04-25T08:51:18Z</time>
      </trkpt>
      <trkpt lat="47.65833" lon="6.02779">
        <ele>234.73</ele>
        <time>2018-04-25T08:51:20Z</time>
      </trkpt>
      <trkpt lat="47.65826" lon="6.02783">
        <ele>234.52</ele>
        <time>2018-04-25T08:51:22Z</time>
      </trkpt>
      <trkpt lat="47.65819" lon="6.02787">
        <ele>234.36</ele>
        <time>2018-04-25T08:51:24Z</time>
      </trkpt>
      <trkpt lat="47.65812" lon="6.0279">
        <ele>234.34</ele>
        <time>2018-04-25T08:51:26Z</time>
      </trkpt>
      <trkpt lat="47.65805" lon="6.02793">
        <ele>234.35</ele>
        <time>2018-04-25T08:51:28Z</time>
      </trkpt>
      <trkpt lat="47.65799" lon="6.02797">
        <ele>234.36</ele>
        <time>2018-04-25T08:51:30Z</time>
      </trkpt>
      <trkpt lat="47.65793" lon="6.02799">
        <ele>234.37</ele>
        <time>2018-04-25T08:51:32Z</time>
      </trkpt>
      <trkpt lat="47.65787" lon="6.02801">
        <ele>234.38</ele>
        <time>2018-04-25T08:51:34Z</time>
      </trkpt>
      <trkpt lat="47.65781" lon="6.02804">
        <ele>234.37</ele>
        <time>2018-04-25T08:51:36Z</time>
      </trkpt>
      <trkpt lat="47.65774" lon="6.02807">
        <ele>234.37</ele>
        <time>2018-04-25T08:51:38Z</time>
      </trkpt>
      <trkpt lat="47.65767" lon="6.02811">
        <ele>234.36</ele>
        <time>2018-04-25T08:51:40Z</time>
      </trkpt>
      <trkpt lat="47.65761" lon="6.02814">
        <ele>234.34</ele>
        <time>2018-04-25T08:51:42Z</time>
      </trkpt>
      <trkpt lat="47.65754" lon="6.02817">
        <ele>234.33</ele>
        <time>2018-04-25T08:51:44Z</time>
      </trkpt>
      <trkpt lat="47.65748" lon="6.0282">
        <ele>234.31</ele>
        <time>2018-04-25T08:51:46Z</time>
      </trkpt>
      <trkpt lat="47.65741" lon="6.02823">
        <ele>234.29</ele>
        <time>2018-04-25T08:51:48Z</time>
      </trkpt>
      <trkpt lat="47.65735" lon="6.02825">
        <ele>234.27</ele>
        <time>2018-04-25T08:51:50Z</time>
      </trkpt>
      <trkpt lat="47.65728" lon="6.02829">
        <ele>234.24</ele>
        <time>2018-04-25T08:51:52Z</time>
      </trkpt>
      <trkpt lat="47.65722" lon="6.02831">
        <ele>234.23</ele>
        <time>2018-04-25T08:51:54Z</time>
      </trkpt>
      <trkpt lat="47.65715" lon="6.02834">
        <ele>234.22</ele>
        <time>2018-04-25T08:51:56Z</time>
      </trkpt>
      <trkpt lat="47.65709" lon="6.02837">
        <ele>234.2</ele>
        <time>2018-04-25T08:51:58Z</time>
      </trkpt>
      <trkpt lat="47.65704" lon="6.0284">
        <ele>234.16</ele>
        <time>2018-04-25T08:52:00Z</time>
      </trkpt>
      <trkpt lat="47.65697" lon="6.02843">
        <ele>234.07</ele>
        <time>2018-04-25T08:52:02Z</time>
      </trkpt>
      <trkpt lat="47.65691" lon="6.02845">
        <ele>233.96</ele>
        <time>2018-04-25T08:52:04Z</time>
      </trkpt>
      <trkpt lat="47.65684" lon="6.02848">
        <ele>233.83</ele>
        <time>2018-04-25T08:52:06Z</time>
      </trkpt>
      <trkpt lat="47.65677" lon="6.02851">
        <ele>233.2</ele>
        <time>2018-04-25T08:52:08Z</time>
      </trkpt>
      <trkpt lat="47.65669" lon="6.02854">
        <ele>232.41</ele>
        <time>2018-04-25T08:52:10Z</time>
      </trkpt>
      <trkpt lat="47.65662" lon="6.02857">
        <ele>231.91</ele>
        <time>2018-04-25T08:52:12Z</time>
      </trkpt>
      <trkpt lat="47.65655" lon="6.02859">
        <ele>230.94</ele>
        <time>2018-04-25T08:52:14Z</time>
      </trkpt>
      <trkpt lat="47.65647" lon="6.02861">
        <ele>230.37</ele>
        <time>2018-04-25T08:52:16Z</time>
      </trkpt>
      <trkpt lat="47.6564" lon="6.02863">
        <ele>229.69</ele>
        <time>2018-04-25T08:52:18Z</time>
      </trkpt>
      <trkpt lat="47.65632" lon="6.02866">
        <ele>229.19</ele>
        <time>2018-04-25T08:52:20Z</time>
      </trkpt>
      <trkpt lat="47.65624" lon="6.02868">
        <ele>228.93</ele>
        <time>2018-04-25T08:52:22Z</time>
      </trkpt>
      <trkpt lat="47.65616" lon="6.0287">
        <ele>228.79</ele>
        <time>2018-04-25T08:52:24Z</time>
      </trkpt>
      <trkpt lat="47.65609" lon="6.02872">
        <ele>228.32</ele>
        <time>2018-04-25T08:52:26Z</time>
      </trkpt>
      <trkpt lat="47.656" lon="6.02874">
        <ele>227.8</ele>
        <time>2018-04-25T08:52:28Z</time>
      </trkpt>
      <trkpt lat="47.65591" lon="6.02876">
        <ele>227.47</ele>
        <time>2018-04-25T08:52:30Z</time>
      </trkpt>
      <trkpt lat="47.65585" lon="6.02878">
        <ele>227.39</ele>
        <time>2018-04-25T08:52:32Z</time>
      </trkpt>
      <trkpt lat="47.65578" lon="6.0288">
        <ele>227.31</ele>
        <time>2018-04-25T08:52:34Z</time>
      </trkpt>
      <trkpt lat="47.65573" lon="6.02881">
        <ele>227.21</ele>
        <time>2018-04-25T08:52:36Z</time>
      </trkpt>
      <trkpt lat="47.65567" lon="6.02883">
        <ele>227.1</ele>
        <time>2018-04-25T08:52:38Z</time>
      </trkpt>
      <trkpt lat="47.65561" lon="6.02884">
        <ele>226.99</ele>
        <time>2018-04-25T08:52:40Z</time>
      </trkpt>
      <trkpt lat="47.65556" lon="6.02884">
        <ele>226.87</ele>
        <time>2018-04-25T08:52:42Z</time>
      </trkpt>
      <trkpt lat="47.6555" lon="6.02885">
        <ele>226.73</ele>
        <time>2018-04-25T08:52:44Z</time>
      </trkpt>
      <trkpt lat="47.65544" lon="6.02887">
        <ele>226.57</ele>
        <time>2018-04-25T08:52:46Z</time>
      </trkpt>
      <trkpt lat="47.65538" lon="6.02889">
        <ele>226.42</ele>
        <time>2018-04-25T08:52:48Z</time>
      </trkpt>
      <trkpt lat="47.65533" lon="6.02891">
        <ele>226.26</ele>
        <time>2018-04-25T08:52:50Z</time>
      </trkpt>
      <trkpt lat="47.65528" lon="6.02893">
        <ele>226.08</ele>
        <time>2018-04-25T08:52:52Z</time>
      </trkpt>
      <trkpt lat="47.65522" lon="6.02895">
        <ele>225.9</ele>
        <time>2018-04-25T08:52:54Z</time>
      </trkpt>
      <trkpt lat="47.65516" lon="6.02896">
        <ele>225.71</ele>
        <time>2018-04-25T08:52:56Z</time>
      </trkpt>
      <trkpt lat="47.6551" lon="6.02898">
        <ele>225.52</ele>
        <time>2018-04-25T08:52:58Z</time>
      </trkpt>
      <trkpt lat="47.65504" lon="6.029">
        <ele>225.34</ele>
        <time>2018-04-25T08:53:00Z</time>
      </trkpt>
      <trkpt lat="47.65498" lon="6.02902">
        <ele>225.16</ele>
        <time>2018-04-25T08:53:02Z</time>
      </trkpt>
      <trkpt lat="47.65494" lon="6.02904">
        <ele>224.96</ele>
        <time>2018-04-25T08:53:04Z</time>
      </trkpt>
      <trkpt lat="47.65487" lon="6.02908">
        <ele>224.68</ele>
        <time>2018-04-25T08:53:07Z</time>
      </trkpt>
      <trkpt lat="47.65483" lon="6.0291">
        <ele>224.48</ele>
        <time>2018-04-25T08:53:09Z</time>
      </trkpt>
      <trkpt lat="47.65476" lon="6.02912">
        <ele>224.27</ele>
        <time>2018-04-25T08:53:11Z</time>
      </trkpt>
      <trkpt lat="47.6547" lon="6.02914">
        <ele>224.07</ele>
        <time>2018-04-25T08:53:13Z</time>
      </trkpt>
      <trkpt lat="47.65464" lon="6.02917">
        <ele>223.87</ele>
        <time>2018-04-25T08:53:15Z</time>
      </trkpt>
      <trkpt lat="47.65457" lon="6.0292">
        <ele>223.66</ele>
        <time>2018-04-25T08:53:17Z</time>
      </trkpt>
      <trkpt lat="47.65452" lon="6.02924">
        <ele>223.46</ele>
        <time>2018-04-25T08:53:19Z</time>
      </trkpt>
      <trkpt lat="47.65444" lon="6.02927">
        <ele>221.86</ele>
        <time>2018-04-25T08:53:21Z</time>
      </trkpt>
      <trkpt lat="47.65436" lon="6.02931">
        <ele>220.5</ele>
        <time>2018-04-25T08:53:23Z</time>
      </trkpt>
      <trkpt lat="47.65428" lon="6.02934">
        <ele>219.58</ele>
        <time>2018-04-25T08:53:25Z</time>
      </trkpt>
      <trkpt lat="47.65421" lon="6.02938">
        <ele>219.17</ele>
        <time>2018-04-25T08:53:27Z</time>
      </trkpt>
      <trkpt lat="47.65413" lon="6.02942">
        <ele>218.68</ele>
        <time>2018-04-25T08:53:29Z</time>
      </trkpt>
      <trkpt lat="47.65409" lon="6.02945">
        <ele>218.49</ele>
        <time>2018-04-25T08:53:30Z</time>
      </trkpt>
      <trkpt lat="47.65405" lon="6.02947">
        <ele>218.32</ele>
        <time>2018-04-25T08:53:31Z</time>
      </trkpt>
      <trkpt lat="47.654" lon="6.02949">
        <ele>218.17</ele>
        <time>2018-04-25T08:53:32Z</time>
      </trkpt>
      <trkpt lat="47.65396" lon="6.02952">
        <ele>218.05</ele>
        <time>2018-04-25T08:53:33Z</time>
      </trkpt>
      <trkpt lat="47.65391" lon="6.02954">
        <ele>217.94</ele>
        <time>2018-04-25T08:53:34Z</time>
      </trkpt>
      <trkpt lat="47.65386" lon="6.02955">
        <ele>217.87</ele>
        <time>2018-04-25T08:53:35Z</time>
      </trkpt>
      <trkpt lat="47.65381" lon="6.02957">
        <ele>217.8</ele>
        <time>2018-04-25T08:53:36Z</time>
      </trkpt>
      <trkpt lat="47.65376" lon="6.02958">
        <ele>217.75</ele>
        <time>2018-04-25T08:53:37Z</time>
      </trkpt>
      <trkpt lat="47.65371" lon="6.02961">
        <ele>217.68</ele>
        <time>2018-04-25T08:53:38Z</time>
      </trkpt>
      <trkpt lat="47.65366" lon="6.02964">
        <ele>217.61</ele>
        <time>2018-04-25T08:53:39Z</time>
      </trkpt>
      <trkpt lat="47.65361" lon="6.02966">
        <ele>217.55</ele>
        <time>2018-04-25T08:53:40Z</time>
      </trkpt>
      <trkpt lat="47.65356" lon="6.02968">
        <ele>217.48</ele>
        <time>2018-04-25T08:53:41Z</time>
      </trkpt>
      <trkpt lat="47.65351" lon="6.0297">
        <ele>217.41</ele>
        <time>2018-04-25T08:53:42Z</time>
      </trkpt>
      <trkpt lat="47.65347" lon="6.02972">
        <ele>217.34</ele>
        <time>2018-04-25T08:53:43Z</time>
      </trkpt>
      <trkpt lat="47.65339" lon="6.02976">
        <ele>217.24</ele>
        <time>2018-04-25T08:53:45Z</time>
      </trkpt>
      <trkpt lat="47.6533" lon="6.0298">
        <ele>217.17</ele>
        <time>2018-04-25T08:53:47Z</time>
      </trkpt>
      <trkpt lat="47.65325" lon="6.02983">
        <ele>217.13</ele>
        <time>2018-04-25T08:53:48Z</time>
      </trkpt>
      <trkpt lat="47.65319" lon="6.02986">
        <ele>217.07</ele>
        <time>2018-04-25T08:53:49Z</time>
      </trkpt>
      <trkpt lat="47.65313" lon="6.02989">
        <ele>217.01</ele>
        <time>2018-04-25T08:53:50Z</time>
      </trkpt>
      <trkpt lat="47.65308" lon="6.02992">
        <ele>216.97</ele>
        <time>2018-04-25T08:53:51Z</time>
      </trkpt>
      <trkpt lat="47.65302" lon="6.02994">
        <ele>216.94</ele>
        <time>2018-04-25T08:53:52Z</time>
      </trkpt>
      <trkpt lat="47.65297" lon="6.02996">
        <ele>216.91</ele>
        <time>2018-04-25T08:53:53Z</time>
      </trkpt>
      <trkpt lat="47.65291" lon="6.02998">
        <ele>216.9</ele>
        <time>2018-04-25T08:53:54Z</time>
      </trkpt>
      <trkpt lat="47.65286" lon="6.03">
        <ele>216.89</ele>
        <time>2018-04-25T08:53:55Z</time>
      </trkpt>
      <trkpt lat="47.65281" lon="6.03002">
        <ele>216.87</ele>
        <time>2018-04-25T08:53:56Z</time>
      </trkpt>
      <trkpt lat="47.65277" lon="6.03003">
        <ele>216.84</ele>
        <time>2018-04-25T08:53:57Z</time>
      </trkpt>
      <trkpt lat="47.65272" lon="6.03004">
        <ele>216.8</ele>
        <time>2018-04-25T08:53:58Z</time>
      </trkpt>
      <trkpt lat="47.65267" lon="6.03005">
        <ele>216.76</ele>
        <time>2018-04-25T08:53:59Z</time>
      </trkpt>
      <trkpt lat="47.65261" lon="6.03005">
        <ele>216.7</ele>
        <time>2018-04-25T08:54:00Z</time>
      </trkpt>
      <trkpt lat="47.65256" lon="6.03006">
        <ele>216.64</ele>
        <time>2018-04-25T08:54:01Z</time>
      </trkpt>
      <trkpt lat="47.65251" lon="6.03006">
        <ele>216.59</ele>
        <time>2018-04-25T08:54:02Z</time>
      </trkpt>
      <trkpt lat="47.65246" lon="6.03007">
        <ele>216.54</ele>
        <time>2018-04-25T08:54:03Z</time>
      </trkpt>
      <trkpt lat="47.65241" lon="6.03007">
        <ele>216.51</ele>
        <time>2018-04-25T08:54:04Z</time>
      </trkpt>
      <trkpt lat="47.65237" lon="6.03008">
        <ele>216.47</ele>
        <time>2018-04-25T08:54:05Z</time>
      </trkpt>
      <trkpt lat="47.65228" lon="6.03009">
        <ele>216.39</ele>
        <time>2018-04-25T08:54:07Z</time>
      </trkpt>
      <trkpt lat="47.65219" lon="6.0301">
        <ele>216.32</ele>
        <time>2018-04-25T08:54:09Z</time>
      </trkpt>
      <trkpt lat="47.65212" lon="6.0301">
        <ele>216.3</ele>
        <time>2018-04-25T08:54:11Z</time>
      </trkpt>
      <trkpt lat="47.65205" lon="6.03011">
        <ele>216.29</ele>
        <time>2018-04-25T08:54:13Z</time>
      </trkpt>
      <trkpt lat="47.65198" lon="6.03013">
        <ele>216.23</ele>
        <time>2018-04-25T08:54:15Z</time>
      </trkpt>
      <trkpt lat="47.6519" lon="6.03015">
        <ele>216.13</ele>
        <time>2018-04-25T08:54:17Z</time>
      </trkpt>
      <trkpt lat="47.65182" lon="6.03019">
        <ele>216.04</ele>
        <time>2018-04-25T08:54:19Z</time>
      </trkpt>
      <trkpt lat="47.65174" lon="6.03023">
        <ele>215.93</ele>
        <time>2018-04-25T08:54:21Z</time>
      </trkpt>
      <trkpt lat="47.65167" lon="6.03028">
        <ele>215.81</ele>
        <time>2018-04-25T08:54:23Z</time>
      </trkpt>
      <trkpt lat="47.6516" lon="6.03034">
        <ele>215.71</ele>
        <time>2018-04-25T08:54:25Z</time>
      </trkpt>
      <trkpt lat="47.65154" lon="6.0304">
        <ele>215.69</ele>
        <time>2018-04-25T08:54:27Z</time>
      </trkpt>
      <trkpt lat="47.65148" lon="6.03045">
        <ele>215.67</ele>
        <time>2018-04-25T08:54:29Z</time>
      </trkpt>
      <trkpt lat="47.65142" lon="6.0305">
        <ele>215.65</ele>
        <time>2018-04-25T08:54:31Z</time>
      </trkpt>
      <trkpt lat="47.65135" lon="6.03054">
        <ele>215.63</ele>
        <time>2018-04-25T08:54:33Z</time>
      </trkpt>
      <trkpt lat="47.65128" lon="6.03057">
        <ele>215.48</ele>
        <time>2018-04-25T08:54:35Z</time>
      </trkpt>
      <trkpt lat="47.6512" lon="6.03059">
        <ele>215.17</ele>
        <time>2018-04-25T08:54:37Z</time>
      </trkpt>
      <trkpt lat="47.65112" lon="6.0306">
        <ele>214.87</ele>
        <time>2018-04-25T08:54:39Z</time>
      </trkpt>
      <trkpt lat="47.65105" lon="6.03061">
        <ele>214.8</ele>
        <time>2018-04-25T08:54:41Z</time>
      </trkpt>
      <trkpt lat="47.65097" lon="6.03062">
        <ele>214.77</ele>
        <time>2018-04-25T08:54:43Z</time>
      </trkpt>
      <trkpt lat="47.65089" lon="6.03061">
        <ele>214.5</ele>
        <time>2018-04-25T08:54:45Z</time>
      </trkpt>
      <trkpt lat="47.65081" lon="6.03058">
        <ele>214.18</ele>
        <time>2018-04-25T08:54:47Z</time>
      </trkpt>
      <trkpt lat="47.65074" lon="6.03053">
        <ele>214.1</ele>
        <time>2018-04-25T08:54:49Z</time>
      </trkpt>
      <trkpt lat="47.6507" lon="6.0305">
        <ele>214.05</ele>
        <time>2018-04-25T08:54:51Z</time>
      </trkpt>
      <trkpt lat="47.65065" lon="6.03052">
        <ele>214</ele>
        <time>2018-04-25T08:54:53Z</time>
      </trkpt>
      <trkpt lat="47.65066" lon="6.03061">
        <ele>213.91</ele>
        <time>2018-04-25T08:54:56Z</time>
      </trkpt>
      <trkpt lat="47.65071" lon="6.0307">
        <ele>213.84</ele>
        <time>2018-04-25T08:54:58Z</time>
      </trkpt>
      <trkpt lat="47.65073" lon="6.03079">
        <ele>213.76</ele>
        <time>2018-04-25T08:55:00Z</time>
      </trkpt>
      <trkpt lat="47.65076" lon="6.03086">
        <ele>213.69</ele>
        <time>2018-04-25T08:55:02Z</time>
      </trkpt>
      <trkpt lat="47.65079" lon="6.03094">
        <ele>213.62</ele>
        <time>2018-04-25T08:55:04Z</time>
      </trkpt>
      <trkpt lat="47.6508" lon="6.031">
        <ele>213.56</ele>
        <time>2018-04-25T08:55:06Z</time>
      </trkpt>
      <trkpt lat="47.65081" lon="6.03109">
        <ele>213.45</ele>
        <time>2018-04-25T08:55:09Z</time>
      </trkpt>
      <trkpt lat="47.6508" lon="6.03118">
        <ele>213.34</ele>
        <time>2018-04-25T08:55:12Z</time>
      </trkpt>
      <trkpt lat="47.65078" lon="6.03126">
        <ele>213.22</ele>
        <time>2018-04-25T08:55:15Z</time>
      </trkpt>
      <trkpt lat="47.65074" lon="6.03133">
        <ele>213.09</ele>
        <time>2018-04-25T08:55:19Z</time>
      </trkpt>
      <trkpt lat="47.65072" lon="6.03139">
        <ele>213.01</ele>
        <time>2018-04-25T08:55:21Z</time>
      </trkpt>
      <trkpt lat="47.65069" lon="6.03146">
        <ele>212.9</ele>
        <time>2018-04-25T08:55:24Z</time>
      </trkpt>
      <trkpt lat="47.65065" lon="6.03154">
        <ele>212.79</ele>
        <time>2018-04-25T08:55:27Z</time>
      </trkpt>
      <trkpt lat="47.65063" lon="6.0316">
        <ele>212.71</ele>
        <time>2018-04-25T08:55:29Z</time>
      </trkpt>
      <trkpt lat="47.6506" lon="6.03165">
        <ele>212.64</ele>
        <time>2018-04-25T08:55:31Z</time>
      </trkpt>
      <trkpt lat="47.65058" lon="6.03171">
        <ele>212.57</ele>
        <time>2018-04-25T08:55:33Z</time>
      </trkpt>
      <trkpt lat="47.65055" lon="6.03177">
        <ele>212.51</ele>
        <time>2018-04-25T08:55:35Z</time>
      </trkpt>
      <trkpt lat="47.65052" lon="6.03183">
        <ele>212.44</ele>
        <time>2018-04-25T08:55:38Z</time>
      </trkpt>
      <trkpt lat="47.65049" lon="6.03189">
        <ele>212.37</ele>
        <time>2018-04-25T08:55:41Z</time>
      </trkpt>
      <trkpt lat="47.65046" lon="6.03194">
        <ele>212.32</ele>
        <time>2018-04-25T08:55:44Z</time>
      </trkpt>
      <trkpt lat="47.65043" lon="6.03201">
        <ele>212.28</ele>
        <time>2018-04-25T08:55:47Z</time>
      </trkpt>
      <trkpt lat="47.65039" lon="6.03207">
        <ele>212.25</ele>
        <time>2018-04-25T08:55:50Z</time>
      </trkpt>
      <trkpt lat="47.65036" lon="6.03213">
        <ele>212.23</ele>
        <time>2018-04-25T08:55:53Z</time>
      </trkpt>
      <trkpt lat="47.65033" lon="6.03221">
        <ele>212.21</ele>
        <time>2018-04-25T08:55:56Z</time>
      </trkpt>
      <trkpt lat="47.65029" lon="6.03227">
        <ele>212.2</ele>
        <time>2018-04-25T08:55:58Z</time>
      </trkpt>
      <trkpt lat="47.65026" lon="6.03237">
        <ele>212.17</ele>
        <time>2018-04-25T08:56:04Z</time>
      </trkpt>
      <trkpt lat="47.65023" lon="6.03242">
        <ele>212.15</ele>
        <time>2018-04-25T08:56:07Z</time>
      </trkpt>
      <trkpt lat="47.6502" lon="6.03248">
        <ele>212.1</ele>
        <time>2018-04-25T08:56:11Z</time>
      </trkpt>
      <trkpt lat="47.65017" lon="6.03255">
        <ele>212.07</ele>
        <time>2018-04-25T08:56:15Z</time>
      </trkpt>
      <trkpt lat="47.65013" lon="6.03259">
        <ele>212.05</ele>
        <time>2018-04-25T08:56:19Z</time>
      </trkpt>
      <trkpt lat="47.65009" lon="6.03263">
        <ele>212.03</ele>
        <time>2018-04-25T08:56:22Z</time>
      </trkpt>
      <trkpt lat="47.65005" lon="6.03267">
        <ele>212.04</ele>
        <time>2018-04-25T08:56:25Z</time>
      </trkpt>
      <trkpt lat="47.65001" lon="6.03271">
        <ele>212.06</ele>
        <time>2018-04-25T08:56:29Z</time>
      </trkpt>
      <trkpt lat="47.64997" lon="6.03277">
        <ele>212.12</ele>
        <time>2018-04-25T08:56:33Z</time>
      </trkpt>
      <trkpt lat="47.64993" lon="6.03281">
        <ele>212.24</ele>
        <time>2018-04-25T08:56:38Z</time>
      </trkpt>
      <trkpt lat="47.64989" lon="6.03287">
        <ele>212.43</ele>
        <time>2018-04-25T08:56:43Z</time>
      </trkpt>
      <trkpt lat="47.64985" lon="6.03293">
        <ele>212.56</ele>
        <time>2018-04-25T08:56:46Z</time>
      </trkpt>
      <trkpt lat="47.64981" lon="6.03298">
        <ele>212.66</ele>
        <time>2018-04-25T08:56:48Z</time>
      </trkpt>
      <trkpt lat="47.64977" lon="6.03305">
        <ele>212.8</ele>
        <time>2018-04-25T08:56:51Z</time>
      </trkpt>
      <trkpt lat="47.64972" lon="6.03311">
        <ele>212.95</ele>
        <time>2018-04-25T08:56:54Z</time>
      </trkpt>
      <trkpt lat="47.64969" lon="6.03317">
        <ele>213.09</ele>
        <time>2018-04-25T08:56:57Z</time>
      </trkpt>
      <trkpt lat="47.64965" lon="6.03323">
        <ele>213.29</ele>
        <time>2018-04-25T08:57:01Z</time>
      </trkpt>
      <trkpt lat="47.64961" lon="6.03329">
        <ele>213.45</ele>
        <time>2018-04-25T08:57:04Z</time>
      </trkpt>
      <trkpt lat="47.64958" lon="6.03335">
        <ele>213.62</ele>
        <time>2018-04-25T08:57:07Z</time>
      </trkpt>
      <trkpt lat="47.64955" lon="6.03342">
        <ele>213.84</ele>
        <time>2018-04-25T08:57:11Z</time>
      </trkpt>
      <trkpt lat="47.64952" lon="6.03349">
        <ele>214.09</ele>
        <time>2018-04-25T08:57:15Z</time>
      </trkpt>
      <trkpt lat="47.64949" lon="6.03355">
        <ele>214.28</ele>
        <time>2018-04-25T08:57:18Z</time>
      </trkpt>
      <trkpt lat="47.64948" lon="6.03362">
        <ele>214.46</ele>
        <time>2018-04-25T08:57:21Z</time>
      </trkpt>
      <trkpt lat="47.64945" lon="6.0337">
        <ele>214.58</ele>
        <time>2018-04-25T08:57:23Z</time>
      </trkpt>
      <trkpt lat="47.64943" lon="6.03376">
        <ele>214.7</ele>
        <time>2018-04-25T08:57:25Z</time>
      </trkpt>
      <trkpt lat="47.6494" lon="6.03383">
        <ele>214.87</ele>
        <time>2018-04-25T08:57:28Z</time>
      </trkpt>
      <trkpt lat="47.64938" lon="6.03389">
        <ele>215.04</ele>
        <time>2018-04-25T08:57:31Z</time>
      </trkpt>
      <trkpt lat="47.64936" lon="6.03397">
        <ele>215.2</ele>
        <time>2018-04-25T08:57:34Z</time>
      </trkpt>
      <trkpt lat="47.64933" lon="6.03404">
        <ele>215.35</ele>
        <time>2018-04-25T08:57:37Z</time>
      </trkpt>
      <trkpt lat="47.64932" lon="6.03412">
        <ele>215.54</ele>
        <time>2018-04-25T08:57:41Z</time>
      </trkpt>
      <trkpt lat="47.64929" lon="6.03419">
        <ele>215.74</ele>
        <time>2018-04-25T08:57:45Z</time>
      </trkpt>
      <trkpt lat="47.64926" lon="6.03427">
        <ele>215.92</ele>
        <time>2018-04-25T08:57:49Z</time>
      </trkpt>
      <trkpt lat="47.64924" lon="6.03435">
        <ele>216.11</ele>
        <time>2018-04-25T08:57:53Z</time>
      </trkpt>
      <trkpt lat="47.64921" lon="6.03442">
        <ele>216.3</ele>
        <time>2018-04-25T08:57:57Z</time>
      </trkpt>
      <trkpt lat="47.64918" lon="6.03449">
        <ele>216.54</ele>
        <time>2018-04-25T08:58:02Z</time>
      </trkpt>
      <trkpt lat="47.64916" lon="6.03455">
        <ele>216.74</ele>
        <time>2018-04-25T08:58:06Z</time>
      </trkpt>
      <trkpt lat="47.64915" lon="6.03461">
        <ele>216.89</ele>
        <time>2018-04-25T08:58:09Z</time>
      </trkpt>
      <trkpt lat="47.64913" lon="6.03468">
        <ele>217.04</ele>
        <time>2018-04-25T08:58:12Z</time>
      </trkpt>
      <trkpt lat="47.64911" lon="6.03475">
        <ele>217.19</ele>
        <time>2018-04-25T08:58:15Z</time>
      </trkpt>
      <trkpt lat="47.64908" lon="6.03482">
        <ele>217.33</ele>
        <time>2018-04-25T08:58:18Z</time>
      </trkpt>
      <trkpt lat="47.64904" lon="6.03488">
        <ele>217.48</ele>
        <time>2018-04-25T08:58:21Z</time>
      </trkpt>
      <trkpt lat="47.649" lon="6.03494">
        <ele>217.63</ele>
        <time>2018-04-25T08:58:24Z</time>
      </trkpt>
      <trkpt lat="47.64896" lon="6.03499">
        <ele>217.78</ele>
        <time>2018-04-25T08:58:27Z</time>
      </trkpt>
      <trkpt lat="47.64893" lon="6.03505">
        <ele>217.93</ele>
        <time>2018-04-25T08:58:30Z</time>
      </trkpt>
      <trkpt lat="47.64887" lon="6.03507">
        <ele>218.26</ele>
        <time>2018-04-25T08:59:03Z</time>
      </trkpt>
      <trkpt lat="47.64876" lon="6.03507">
        <ele>218.36</ele>
        <time>2018-04-25T08:59:05Z</time>
      </trkpt>
      <trkpt lat="47.64829" lon="6.03481">
        <ele>218.47</ele>
        <time>2018-04-25T08:59:06Z</time>
      </trkpt>
      <trkpt lat="47.648" lon="6.03487">
        <ele>218.61</ele>
        <time>2018-04-25T08:59:07Z</time>
      </trkpt>
      <trkpt lat="47.64825" lon="6.03531">
        <ele>218.76</ele>
        <time>2018-04-25T08:59:08Z</time>
      </trkpt>
      <trkpt lat="47.64871" lon="6.0351">
        <ele>218.92</ele>
        <time>2018-04-25T08:59:09Z</time>
      </trkpt>
      <trkpt lat="47.64859" lon="6.03529">
        <ele>219.09</ele>
        <time>2018-04-25T08:59:10Z</time>
      </trkpt>
      <trkpt lat="47.64859" lon="6.03518">
        <ele>219.27</ele>
        <time>2018-04-25T08:59:11Z</time>
      </trkpt>
      <trkpt lat="47.64878" lon="6.03509">
        <ele>219.45</ele>
        <time>2018-04-25T08:59:12Z</time>
      </trkpt>
      <trkpt lat="47.64868" lon="6.03522">
        <ele>219.63</ele>
        <time>2018-04-25T08:59:13Z</time>
      </trkpt>
      <trkpt lat="47.64852" lon="6.03511">
        <ele>219.82</ele>
        <time>2018-04-25T08:59:14Z</time>
      </trkpt>
      <trkpt lat="47.64846" lon="6.0351">
        <ele>220</ele>
        <time>2018-04-25T08:59:15Z</time>
      </trkpt>
      <trkpt lat="47.64852" lon="6.03516">
        <ele>220.19</ele>
        <time>2018-04-25T08:59:16Z</time>
      </trkpt>
      <trkpt lat="47.64858" lon="6.03521">
        <ele>220.37</ele>
        <time>2018-04-25T08:59:17Z</time>
      </trkpt>
      <trkpt lat="47.64862" lon="6.03531">
        <ele>220.55</ele>
        <time>2018-04-25T08:59:18Z</time>
      </trkpt>
      <trkpt lat="47.64864" lon="6.03537">
        <ele>220.92</ele>
        <time>2018-04-25T08:59:20Z</time>
      </trkpt>
      <trkpt lat="47.64859" lon="6.03538">
        <ele>221.63</ele>
        <time>2018-04-25T08:59:24Z</time>
      </trkpt>
      <trkpt lat="47.64854" lon="6.03542">
        <ele>222.44</ele>
        <time>2018-04-25T08:59:29Z</time>
      </trkpt>
      <trkpt lat="47.6485" lon="6.03547">
        <ele>222.9</ele>
        <time>2018-04-25T08:59:32Z</time>
      </trkpt>
      <trkpt lat="47.64845" lon="6.03551">
        <ele>223.32</ele>
        <time>2018-04-25T08:59:35Z</time>
      </trkpt>
      <trkpt lat="47.64841" lon="6.03555">
        <ele>223.72</ele>
        <time>2018-04-25T08:59:38Z</time>
      </trkpt>
      <trkpt lat="47.64836" lon="6.03561">
        <ele>224.1</ele>
        <time>2018-04-25T08:59:41Z</time>
      </trkpt>
      <trkpt lat="47.64831" lon="6.03565">
        <ele>224.33</ele>
        <time>2018-04-25T08:59:43Z</time>
      </trkpt>
      <trkpt lat="47.64825" lon="6.0357">
        <ele>224.56</ele>
        <time>2018-04-25T08:59:45Z</time>
      </trkpt>
      <trkpt lat="47.64819" lon="6.03576">
        <ele>224.78</ele>
        <time>2018-04-25T08:59:47Z</time>
      </trkpt>
      <trkpt lat="47.64814" lon="6.03582">
        <ele>224.98</ele>
        <time>2018-04-25T08:59:49Z</time>
      </trkpt>
      <trkpt lat="47.64808" lon="6.03586">
        <ele>225.18</ele>
        <time>2018-04-25T08:59:51Z</time>
      </trkpt>
      <trkpt lat="47.64801" lon="6.03592">
        <ele>225.37</ele>
        <time>2018-04-25T08:59:53Z</time>
      </trkpt>
      <trkpt lat="47.64793" lon="6.03601">
        <ele>225.55</ele>
        <time>2018-04-25T08:59:55Z</time>
      </trkpt>
      <trkpt lat="47.64788" lon="6.03606">
        <ele>225.63</ele>
        <time>2018-04-25T08:59:56Z</time>
      </trkpt>
      <trkpt lat="47.64784" lon="6.03611">
        <ele>225.72</ele>
        <time>2018-04-25T08:59:57Z</time>
      </trkpt>
      <trkpt lat="47.6478" lon="6.03615">
        <ele>225.8</ele>
        <time>2018-04-25T08:59:58Z</time>
      </trkpt>
      <trkpt lat="47.64776" lon="6.03621">
        <ele>225.88</ele>
        <time>2018-04-25T08:59:59Z</time>
      </trkpt>
      <trkpt lat="47.64771" lon="6.03627">
        <ele>226.44</ele>
        <time>2018-04-25T09:00:00Z</time>
      </trkpt>
      <trkpt lat="47.64767" lon="6.03632">
        <ele>227.04</ele>
        <time>2018-04-25T09:00:01Z</time>
      </trkpt>
      <trkpt lat="47.64763" lon="6.03639">
        <ele>227.26</ele>
        <time>2018-04-25T09:00:02Z</time>
      </trkpt>
      <trkpt lat="47.64758" lon="6.03647">
        <ele>227.42</ele>
        <time>2018-04-25T09:00:04Z</time>
      </trkpt>
      <trkpt lat="47.64752" lon="6.03656">
        <ele>227.51</ele>
        <time>2018-04-25T09:00:06Z</time>
      </trkpt>
      <trkpt lat="47.64748" lon="6.03666">
        <ele>227.59</ele>
        <time>2018-04-25T09:00:08Z</time>
      </trkpt>
      <trkpt lat="47.64745" lon="6.03679">
        <ele>227.67</ele>
        <time>2018-04-25T09:00:10Z</time>
      </trkpt>
      <trkpt lat="47.64742" lon="6.03689">
        <ele>227.75</ele>
        <time>2018-04-25T09:00:12Z</time>
      </trkpt>
      <trkpt lat="47.64739" lon="6.03698">
        <ele>227.82</ele>
        <time>2018-04-25T09:00:14Z</time>
      </trkpt>
      <trkpt lat="47.64736" lon="6.03708">
        <ele>227.89</ele>
        <time>2018-04-25T09:00:16Z</time>
      </trkpt>
      <trkpt lat="47.64733" lon="6.03714">
        <ele>227.92</ele>
        <time>2018-04-25T09:00:17Z</time>
      </trkpt>
      <trkpt lat="47.6473" lon="6.03724">
        <ele>227.98</ele>
        <time>2018-04-25T09:00:19Z</time>
      </trkpt>
      <trkpt lat="47.64728" lon="6.03732">
        <ele>228.02</ele>
        <time>2018-04-25T09:00:21Z</time>
      </trkpt>
      <trkpt lat="47.64726" lon="6.0374">
        <ele>228.06</ele>
        <time>2018-04-25T09:00:23Z</time>
      </trkpt>
      <trkpt lat="47.64724" lon="6.03748">
        <ele>228.08</ele>
        <time>2018-04-25T09:00:25Z</time>
      </trkpt>
      <trkpt lat="47.64721" lon="6.03758">
        <ele>228.1</ele>
        <time>2018-04-25T09:00:27Z</time>
      </trkpt>
      <trkpt lat="47.64716" lon="6.03766">
        <ele>228.12</ele>
        <time>2018-04-25T09:00:29Z</time>
      </trkpt>
      <trkpt lat="47.64711" lon="6.03771">
        <ele>228.12</ele>
        <time>2018-04-25T09:00:31Z</time>
      </trkpt>
      <trkpt lat="47.64705" lon="6.03777">
        <ele>228.12</ele>
        <time>2018-04-25T09:00:33Z</time>
      </trkpt>
      <trkpt lat="47.647" lon="6.03782">
        <ele>228.11</ele>
        <time>2018-04-25T09:00:35Z</time>
      </trkpt>
      <trkpt lat="47.64694" lon="6.03789">
        <ele>228.1</ele>
        <time>2018-04-25T09:00:37Z</time>
      </trkpt>
      <trkpt lat="47.64689" lon="6.03795">
        <ele>228.03</ele>
        <time>2018-04-25T09:00:39Z</time>
      </trkpt>
      <trkpt lat="47.64684" lon="6.03802">
        <ele>228</ele>
        <time>2018-04-25T09:00:41Z</time>
      </trkpt>
      <trkpt lat="47.6468" lon="6.03808">
        <ele>227.98</ele>
        <time>2018-04-25T09:00:43Z</time>
      </trkpt>
      <trkpt lat="47.64675" lon="6.03813">
        <ele>227.96</ele>
        <time>2018-04-25T09:00:45Z</time>
      </trkpt>
      <trkpt lat="47.64668" lon="6.03821">
        <ele>227.81</ele>
        <time>2018-04-25T09:00:47Z</time>
      </trkpt>
      <trkpt lat="47.64662" lon="6.03827">
        <ele>227.76</ele>
        <time>2018-04-25T09:00:49Z</time>
      </trkpt>
      <trkpt lat="47.64658" lon="6.03832">
        <ele>227.75</ele>
        <time>2018-04-25T09:00:51Z</time>
      </trkpt>
      <trkpt lat="47.64654" lon="6.03837">
        <ele>227.74</ele>
        <time>2018-04-25T09:00:53Z</time>
      </trkpt>
      <trkpt lat="47.64649" lon="6.03842">
        <ele>227.73</ele>
        <time>2018-04-25T09:00:55Z</time>
      </trkpt>
      <trkpt lat="47.64645" lon="6.03847">
        <ele>227.71</ele>
        <time>2018-04-25T09:00:57Z</time>
      </trkpt>
      <trkpt lat="47.64642" lon="6.03852">
        <ele>227.7</ele>
        <time>2018-04-25T09:00:59Z</time>
      </trkpt>
      <trkpt lat="47.64637" lon="6.03858">
        <ele>227.67</ele>
        <time>2018-04-25T09:01:02Z</time>
      </trkpt>
      <trkpt lat="47.64632" lon="6.03863">
        <ele>227.63</ele>
        <time>2018-04-25T09:01:05Z</time>
      </trkpt>
      <trkpt lat="47.64628" lon="6.03869">
        <ele>227.59</ele>
        <time>2018-04-25T09:01:08Z</time>
      </trkpt>
      <trkpt lat="47.64623" lon="6.03875">
        <ele>227.53</ele>
        <time>2018-04-25T09:01:11Z</time>
      </trkpt>
      <trkpt lat="47.64619" lon="6.0388">
        <ele>227.45</ele>
        <time>2018-04-25T09:01:14Z</time>
      </trkpt>
      <trkpt lat="47.64615" lon="6.03887">
        <ele>227.36</ele>
        <time>2018-04-25T09:01:17Z</time>
      </trkpt>
      <trkpt lat="47.64612" lon="6.03896">
        <ele>227.23</ele>
        <time>2018-04-25T09:01:20Z</time>
      </trkpt>
      <trkpt lat="47.64607" lon="6.03903">
        <ele>227.14</ele>
        <time>2018-04-25T09:01:22Z</time>
      </trkpt>
      <trkpt lat="47.64603" lon="6.03908">
        <ele>227.05</ele>
        <time>2018-04-25T09:01:24Z</time>
      </trkpt>
      <trkpt lat="47.64599" lon="6.03912">
        <ele>226.96</ele>
        <time>2018-04-25T09:01:26Z</time>
      </trkpt>
      <trkpt lat="47.64594" lon="6.03919">
        <ele>226.83</ele>
        <time>2018-04-25T09:01:29Z</time>
      </trkpt>
      <trkpt lat="47.64591" lon="6.03926">
        <ele>226.75</ele>
        <time>2018-04-25T09:01:31Z</time>
      </trkpt>
      <trkpt lat="47.64589" lon="6.03934">
        <ele>226.67</ele>
        <time>2018-04-25T09:01:33Z</time>
      </trkpt>
      <trkpt lat="47.64586" lon="6.03941">
        <ele>226.59</ele>
        <time>2018-04-25T09:01:35Z</time>
      </trkpt>
      <trkpt lat="47.64581" lon="6.03945">
        <ele>226.53</ele>
        <time>2018-04-25T09:01:37Z</time>
      </trkpt>
      <trkpt lat="47.64575" lon="6.03952">
        <ele>226.44</ele>
        <time>2018-04-25T09:01:40Z</time>
      </trkpt>
      <trkpt lat="47.6457" lon="6.0396">
        <ele>226.39</ele>
        <time>2018-04-25T09:01:42Z</time>
      </trkpt>
      <trkpt lat="47.64566" lon="6.03968">
        <ele>226.34</ele>
        <time>2018-04-25T09:01:44Z</time>
      </trkpt>
      <trkpt lat="47.6456" lon="6.03978">
        <ele>226.09</ele>
        <time>2018-04-25T09:01:46Z</time>
      </trkpt>
      <trkpt lat="47.64555" lon="6.03987">
        <ele>225.77</ele>
        <time>2018-04-25T09:01:48Z</time>
      </trkpt>
      <trkpt lat="47.64549" lon="6.03996">
        <ele>225.61</ele>
        <time>2018-04-25T09:01:50Z</time>
      </trkpt>
      <trkpt lat="47.64545" lon="6.04005">
        <ele>225.55</ele>
        <time>2018-04-25T09:01:52Z</time>
      </trkpt>
      <trkpt lat="47.64541" lon="6.04013">
        <ele>225.53</ele>
        <time>2018-04-25T09:01:54Z</time>
      </trkpt>
      <trkpt lat="47.64538" lon="6.04019">
        <ele>225.51</ele>
        <time>2018-04-25T09:01:56Z</time>
      </trkpt>
      <trkpt lat="47.64534" lon="6.04025">
        <ele>225.49</ele>
        <time>2018-04-25T09:01:58Z</time>
      </trkpt>
      <trkpt lat="47.64531" lon="6.0403">
        <ele>225.47</ele>
        <time>2018-04-25T09:02:00Z</time>
      </trkpt>
      <trkpt lat="47.64527" lon="6.04036">
        <ele>225.45</ele>
        <time>2018-04-25T09:02:02Z</time>
      </trkpt>
      <trkpt lat="47.64523" lon="6.04041">
        <ele>225.44</ele>
        <time>2018-04-25T09:02:04Z</time>
      </trkpt>
      <trkpt lat="47.6452" lon="6.04047">
        <ele>225.42</ele>
        <time>2018-04-25T09:02:06Z</time>
      </trkpt>
      <trkpt lat="47.64516" lon="6.04053">
        <ele>225.41</ele>
        <time>2018-04-25T09:02:08Z</time>
      </trkpt>
      <trkpt lat="47.64513" lon="6.04059">
        <ele>225.4</ele>
        <time>2018-04-25T09:02:10Z</time>
      </trkpt>
      <trkpt lat="47.64509" lon="6.04065">
        <ele>225.39</ele>
        <time>2018-04-25T09:02:12Z</time>
      </trkpt>
      <trkpt lat="47.64506" lon="6.04071">
        <ele>225.38</ele>
        <time>2018-04-25T09:02:14Z</time>
      </trkpt>
      <trkpt lat="47.64502" lon="6.04078">
        <ele>225.36</ele>
        <time>2018-04-25T09:02:16Z</time>
      </trkpt>
      <trkpt lat="47.64498" lon="6.04085">
        <ele>225.35</ele>
        <time>2018-04-25T09:02:18Z</time>
      </trkpt>
      <trkpt lat="47.64494" lon="6.04093">
        <ele>225.34</ele>
        <time>2018-04-25T09:02:20Z</time>
      </trkpt>
      <trkpt lat="47.64492" lon="6.041">
        <ele>225.34</ele>
        <time>2018-04-25T09:02:21Z</time>
      </trkpt>
      <trkpt lat="47.64489" lon="6.04107">
        <ele>225.33</ele>
        <time>2018-04-25T09:02:23Z</time>
      </trkpt>
      <trkpt lat="47.64485" lon="6.04114">
        <ele>225.33</ele>
        <time>2018-04-25T09:02:25Z</time>
      </trkpt>
      <trkpt lat="47.64481" lon="6.04119">
        <ele>225.32</ele>
        <time>2018-04-25T09:02:27Z</time>
      </trkpt>
      <trkpt lat="47.64476" lon="6.04128">
        <ele>225.32</ele>
        <time>2018-04-25T09:02:30Z</time>
      </trkpt>
      <trkpt lat="47.64473" lon="6.04134">
        <ele>225.32</ele>
        <time>2018-04-25T09:02:32Z</time>
      </trkpt>
      <trkpt lat="47.6447" lon="6.0414">
        <ele>225.32</ele>
        <time>2018-04-25T09:02:34Z</time>
      </trkpt>
      <trkpt lat="47.64468" lon="6.04145">
        <ele>225.32</ele>
        <time>2018-04-25T09:02:36Z</time>
      </trkpt>
      <trkpt lat="47.64465" lon="6.04151">
        <ele>225.32</ele>
        <time>2018-04-25T09:02:38Z</time>
      </trkpt>
      <trkpt lat="47.64463" lon="6.04157">
        <ele>225.33</ele>
        <time>2018-04-25T09:02:40Z</time>
      </trkpt>
      <trkpt lat="47.64461" lon="6.04164">
        <ele>225.33</ele>
        <time>2018-04-25T09:02:42Z</time>
      </trkpt>
      <trkpt lat="47.64456" lon="6.04171">
        <ele>225.34</ele>
        <time>2018-04-25T09:02:45Z</time>
      </trkpt>
      <trkpt lat="47.64453" lon="6.04178">
        <ele>225.34</ele>
        <time>2018-04-25T09:02:48Z</time>
      </trkpt>
      <trkpt lat="47.64449" lon="6.04185">
        <ele>225.35</ele>
        <time>2018-04-25T09:02:50Z</time>
      </trkpt>
      <trkpt lat="47.64445" lon="6.04192">
        <ele>225.35</ele>
        <time>2018-04-25T09:02:52Z</time>
      </trkpt>
      <trkpt lat="47.64442" lon="6.04199">
        <ele>225.36</ele>
        <time>2018-04-25T09:02:55Z</time>
      </trkpt>
      <trkpt lat="47.64438" lon="6.04205">
        <ele>225.37</ele>
        <time>2018-04-25T09:02:57Z</time>
      </trkpt>
      <trkpt lat="47.64435" lon="6.0421">
        <ele>225.38</ele>
        <time>2018-04-25T09:02:59Z</time>
      </trkpt>
      <trkpt lat="47.6443" lon="6.04215">
        <ele>225.39</ele>
        <time>2018-04-25T09:03:02Z</time>
      </trkpt>
      <trkpt lat="47.64427" lon="6.04221">
        <ele>225.4</ele>
        <time>2018-04-25T09:03:04Z</time>
      </trkpt>
      <trkpt lat="47.64424" lon="6.04228">
        <ele>225.41</ele>
        <time>2018-04-25T09:03:06Z</time>
      </trkpt>
      <trkpt lat="47.6442" lon="6.04232">
        <ele>225.42</ele>
        <time>2018-04-25T09:03:08Z</time>
      </trkpt>
      <trkpt lat="47.64414" lon="6.04239">
        <ele>225.44</ele>
        <time>2018-04-25T09:03:11Z</time>
      </trkpt>
      <trkpt lat="47.64412" lon="6.04246">
        <ele>225.45</ele>
        <time>2018-04-25T09:03:13Z</time>
      </trkpt>
      <trkpt lat="47.64411" lon="6.04254">
        <ele>225.45</ele>
        <time>2018-04-25T09:03:15Z</time>
      </trkpt>
      <trkpt lat="47.6441" lon="6.04263">
        <ele>225.46</ele>
        <time>2018-04-25T09:03:17Z</time>
      </trkpt>
      <trkpt lat="47.64409" lon="6.04271">
        <ele>225.47</ele>
        <time>2018-04-25T09:03:20Z</time>
      </trkpt>
      <trkpt lat="47.64411" lon="6.0428">
        <ele>225.45</ele>
        <time>2018-04-25T09:03:23Z</time>
      </trkpt>
      <trkpt lat="47.64411" lon="6.04287">
        <ele>225.43</ele>
        <time>2018-04-25T09:03:25Z</time>
      </trkpt>
      <trkpt lat="47.6441" lon="6.04297">
        <ele>225.37</ele>
        <time>2018-04-25T09:03:28Z</time>
      </trkpt>
      <trkpt lat="47.64408" lon="6.04305">
        <ele>225.29</ele>
        <time>2018-04-25T09:03:31Z</time>
      </trkpt>
      <trkpt lat="47.64406" lon="6.04313">
        <ele>225.23</ele>
        <time>2018-04-25T09:03:33Z</time>
      </trkpt>
      <trkpt lat="47.64405" lon="6.04323">
        <ele>225.14</ele>
        <time>2018-04-25T09:03:36Z</time>
      </trkpt>
      <trkpt lat="47.64405" lon="6.0433">
        <ele>225.09</ele>
        <time>2018-04-25T09:03:38Z</time>
      </trkpt>
      <trkpt lat="47.64404" lon="6.0434">
        <ele>225.03</ele>
        <time>2018-04-25T09:03:41Z</time>
      </trkpt>
      <trkpt lat="47.64404" lon="6.04346">
        <ele>225.01</ele>
        <time>2018-04-25T09:03:43Z</time>
      </trkpt>
      <trkpt lat="47.64402" lon="6.04354">
        <ele>224.99</ele>
        <time>2018-04-25T09:03:46Z</time>
      </trkpt>
      <trkpt lat="47.64399" lon="6.04362">
        <ele>224.99</ele>
        <time>2018-04-25T09:03:49Z</time>
      </trkpt>
      <trkpt lat="47.64399" lon="6.0437">
        <ele>225</ele>
        <time>2018-04-25T09:03:51Z</time>
      </trkpt>
      <trkpt lat="47.64399" lon="6.04378">
        <ele>225.02</ele>
        <time>2018-04-25T09:03:53Z</time>
      </trkpt>
      <trkpt lat="47.64399" lon="6.04386">
        <ele>225.1</ele>
        <time>2018-04-25T09:03:56Z</time>
      </trkpt>
      <trkpt lat="47.64399" lon="6.04395">
        <ele>225.2</ele>
        <time>2018-04-25T09:03:59Z</time>
      </trkpt>
      <trkpt lat="47.64399" lon="6.04404">
        <ele>225.33</ele>
        <time>2018-04-25T09:04:02Z</time>
      </trkpt>
      <trkpt lat="47.64398" lon="6.04414">
        <ele>225.48</ele>
        <time>2018-04-25T09:04:05Z</time>
      </trkpt>
      <trkpt lat="47.64398" lon="6.04425">
        <ele>225.64</ele>
        <time>2018-04-25T09:04:08Z</time>
      </trkpt>
      <trkpt lat="47.64398" lon="6.04432">
        <ele>225.76</ele>
        <time>2018-04-25T09:04:10Z</time>
      </trkpt>
      <trkpt lat="47.64398" lon="6.04441">
        <ele>225.94</ele>
        <time>2018-04-25T09:04:13Z</time>
      </trkpt>
      <trkpt lat="47.64398" lon="6.0445">
        <ele>226.13</ele>
        <time>2018-04-25T09:04:16Z</time>
      </trkpt>
      <trkpt lat="47.64398" lon="6.04456">
        <ele>226.25</ele>
        <time>2018-04-25T09:04:18Z</time>
      </trkpt>
      <trkpt lat="47.64397" lon="6.04465">
        <ele>226.44</ele>
        <time>2018-04-25T09:04:21Z</time>
      </trkpt>
      <trkpt lat="47.64397" lon="6.04472">
        <ele>226.56</ele>
        <time>2018-04-25T09:04:23Z</time>
      </trkpt>
      <trkpt lat="47.64398" lon="6.04479">
        <ele>226.69</ele>
        <time>2018-04-25T09:04:25Z</time>
      </trkpt>
      <trkpt lat="47.64398" lon="6.04487">
        <ele>226.82</ele>
        <time>2018-04-25T09:04:27Z</time>
      </trkpt>
      <trkpt lat="47.64399" lon="6.04496">
        <ele>227.04</ele>
        <time>2018-04-25T09:04:30Z</time>
      </trkpt>
      <trkpt lat="47.64399" lon="6.04504">
        <ele>227.26</ele>
        <time>2018-04-25T09:04:33Z</time>
      </trkpt>
      <trkpt lat="47.64398" lon="6.04514">
        <ele>227.58</ele>
        <time>2018-04-25T09:04:37Z</time>
      </trkpt>
      <trkpt lat="47.64398" lon="6.04521">
        <ele>227.75</ele>
        <time>2018-04-25T09:04:39Z</time>
      </trkpt>
      <trkpt lat="47.64397" lon="6.04528">
        <ele>227.92</ele>
        <time>2018-04-25T09:04:41Z</time>
      </trkpt>
      <trkpt lat="47.64399" lon="6.04536">
        <ele>228.09</ele>
        <time>2018-04-25T09:04:43Z</time>
      </trkpt>
      <trkpt lat="47.64397" lon="6.04544">
        <ele>228.36</ele>
        <time>2018-04-25T09:04:46Z</time>
      </trkpt>
      <trkpt lat="47.64396" lon="6.04551">
        <ele>228.61</ele>
        <time>2018-04-25T09:04:49Z</time>
      </trkpt>
      <trkpt lat="47.64396" lon="6.04558">
        <ele>228.77</ele>
        <time>2018-04-25T09:04:51Z</time>
      </trkpt>
      <trkpt lat="47.64397" lon="6.04567">
        <ele>229.01</ele>
        <time>2018-04-25T09:04:54Z</time>
      </trkpt>
      <trkpt lat="47.64396" lon="6.04576">
        <ele>229.16</ele>
        <time>2018-04-25T09:04:56Z</time>
      </trkpt>
      <trkpt lat="47.64396" lon="6.04586">
        <ele>229.32</ele>
        <time>2018-04-25T09:04:58Z</time>
      </trkpt>
      <trkpt lat="47.64398" lon="6.04596">
        <ele>229.55</ele>
        <time>2018-04-25T09:05:01Z</time>
      </trkpt>
      <trkpt lat="47.64397" lon="6.04604">
        <ele>229.79</ele>
        <time>2018-04-25T09:05:04Z</time>
      </trkpt>
      <trkpt lat="47.64395" lon="6.04612">
        <ele>230.19</ele>
        <time>2018-04-25T09:05:09Z</time>
      </trkpt>
      <trkpt lat="47.64392" lon="6.04618">
        <ele>230.95</ele>
        <time>2018-04-25T09:05:56Z</time>
      </trkpt>
      <trkpt lat="47.6439" lon="6.04627">
        <ele>231.18</ele>
        <time>2018-04-25T09:06:00Z</time>
      </trkpt>
      <trkpt lat="47.64388" lon="6.04635">
        <ele>231.29</ele>
        <time>2018-04-25T09:06:02Z</time>
      </trkpt>
      <trkpt lat="47.64386" lon="6.04643">
        <ele>231.39</ele>
        <time>2018-04-25T09:06:04Z</time>
      </trkpt>
      <trkpt lat="47.64385" lon="6.04651">
        <ele>231.48</ele>
        <time>2018-04-25T09:06:06Z</time>
      </trkpt>
      <trkpt lat="47.64384" lon="6.04659">
        <ele>231.57</ele>
        <time>2018-04-25T09:06:08Z</time>
      </trkpt>
      <trkpt lat="47.64386" lon="6.04668">
        <ele>231.66</ele>
        <time>2018-04-25T09:06:10Z</time>
      </trkpt>
      <trkpt lat="47.64385" lon="6.04676">
        <ele>231.75</ele>
        <time>2018-04-25T09:06:12Z</time>
      </trkpt>
      <trkpt lat="47.64385" lon="6.04684">
        <ele>231.9</ele>
        <time>2018-04-25T09:06:15Z</time>
      </trkpt>
      <trkpt lat="47.64383" lon="6.04692">
        <ele>232.04</ele>
        <time>2018-04-25T09:06:18Z</time>
      </trkpt>
      <trkpt lat="47.64382" lon="6.047">
        <ele>232.19</ele>
        <time>2018-04-25T09:06:21Z</time>
      </trkpt>
      <trkpt lat="47.6438" lon="6.04708">
        <ele>232.38</ele>
        <time>2018-04-25T09:06:25Z</time>
      </trkpt>
      <trkpt lat="47.64382" lon="6.04717">
        <ele>232.47</ele>
        <time>2018-04-25T09:06:27Z</time>
      </trkpt>
      <trkpt lat="47.64382" lon="6.04726">
        <ele>232.56</ele>
        <time>2018-04-25T09:06:29Z</time>
      </trkpt>
      <trkpt lat="47.64381" lon="6.04732">
        <ele>232.64</ele>
        <time>2018-04-25T09:06:31Z</time>
      </trkpt>
      <trkpt lat="47.6438" lon="6.04739">
        <ele>232.72</ele>
        <time>2018-04-25T09:06:33Z</time>
      </trkpt>
      <trkpt lat="47.64378" lon="6.04749">
        <ele>232.79</ele>
        <time>2018-04-25T09:06:35Z</time>
      </trkpt>
      <trkpt lat="47.64377" lon="6.04757">
        <ele>232.87</ele>
        <time>2018-04-25T09:06:37Z</time>
      </trkpt>
      <trkpt lat="47.64375" lon="6.04764">
        <ele>232.95</ele>
        <time>2018-04-25T09:06:39Z</time>
      </trkpt>
      <trkpt lat="47.64374" lon="6.04771">
        <ele>233.03</ele>
        <time>2018-04-25T09:06:41Z</time>
      </trkpt>
      <trkpt lat="47.64374" lon="6.04779">
        <ele>233.13</ele>
        <time>2018-04-25T09:06:44Z</time>
      </trkpt>
      <trkpt lat="47.64373" lon="6.04787">
        <ele>233.2</ele>
        <time>2018-04-25T09:06:46Z</time>
      </trkpt>
      <trkpt lat="47.64372" lon="6.04796">
        <ele>233.26</ele>
        <time>2018-04-25T09:06:48Z</time>
      </trkpt>
      <trkpt lat="47.64371" lon="6.04806">
        <ele>233.33</ele>
        <time>2018-04-25T09:06:50Z</time>
      </trkpt>
      <trkpt lat="47.64371" lon="6.04813">
        <ele>233.4</ele>
        <time>2018-04-25T09:06:52Z</time>
      </trkpt>
      <trkpt lat="47.6437" lon="6.04821">
        <ele>233.47</ele>
        <time>2018-04-25T09:06:54Z</time>
      </trkpt>
      <trkpt lat="47.64369" lon="6.0483">
        <ele>233.54</ele>
        <time>2018-04-25T09:06:56Z</time>
      </trkpt>
      <trkpt lat="47.64368" lon="6.04838">
        <ele>233.61</ele>
        <time>2018-04-25T09:06:58Z</time>
      </trkpt>
      <trkpt lat="47.64367" lon="6.04847">
        <ele>233.68</ele>
        <time>2018-04-25T09:07:00Z</time>
      </trkpt>
      <trkpt lat="47.64367" lon="6.04854">
        <ele>233.75</ele>
        <time>2018-04-25T09:07:02Z</time>
      </trkpt>
      <trkpt lat="47.64366" lon="6.04862">
        <ele>233.82</ele>
        <time>2018-04-25T09:07:04Z</time>
      </trkpt>
      <trkpt lat="47.64364" lon="6.04873">
        <ele>233.89</ele>
        <time>2018-04-25T09:07:06Z</time>
      </trkpt>
      <trkpt lat="47.64363" lon="6.04885">
        <ele>234.21</ele>
        <time>2018-04-25T09:07:08Z</time>
      </trkpt>
      <trkpt lat="47.64362" lon="6.04892">
        <ele>234.54</ele>
        <time>2018-04-25T09:07:09Z</time>
      </trkpt>
      <trkpt lat="47.6436" lon="6.04905">
        <ele>235.14</ele>
        <time>2018-04-25T09:07:11Z</time>
      </trkpt>
      <trkpt lat="47.64359" lon="6.04917">
        <ele>235.69</ele>
        <time>2018-04-25T09:07:13Z</time>
      </trkpt>
      <trkpt lat="47.64358" lon="6.04924">
        <ele>235.94</ele>
        <time>2018-04-25T09:07:14Z</time>
      </trkpt>
      <trkpt lat="47.64357" lon="6.04931">
        <ele>236.18</ele>
        <time>2018-04-25T09:07:15Z</time>
      </trkpt>
      <trkpt lat="47.64356" lon="6.04938">
        <ele>236.4</ele>
        <time>2018-04-25T09:07:16Z</time>
      </trkpt>
      <trkpt lat="47.64354" lon="6.04944">
        <ele>236.59</ele>
        <time>2018-04-25T09:07:17Z</time>
      </trkpt>
      <trkpt lat="47.64352" lon="6.04956">
        <ele>236.91</ele>
        <time>2018-04-25T09:07:19Z</time>
      </trkpt>
      <trkpt lat="47.64349" lon="6.04968">
        <ele>237.13</ele>
        <time>2018-04-25T09:07:21Z</time>
      </trkpt>
      <trkpt lat="47.64348" lon="6.04979">
        <ele>237.22</ele>
        <time>2018-04-25T09:07:23Z</time>
      </trkpt>
      <trkpt lat="47.64347" lon="6.04989">
        <ele>237.25</ele>
        <time>2018-04-25T09:07:25Z</time>
      </trkpt>
      <trkpt lat="47.64346" lon="6.04999">
        <ele>237.28</ele>
        <time>2018-04-25T09:07:27Z</time>
      </trkpt>
      <trkpt lat="47.64344" lon="6.05009">
        <ele>237.32</ele>
        <time>2018-04-25T09:07:29Z</time>
      </trkpt>
      <trkpt lat="47.64342" lon="6.05019">
        <ele>237.36</ele>
        <time>2018-04-25T09:07:31Z</time>
      </trkpt>
      <trkpt lat="47.64341" lon="6.05031">
        <ele>237.69</ele>
        <time>2018-04-25T09:07:33Z</time>
      </trkpt>
      <trkpt lat="47.64339" lon="6.05044">
        <ele>238</ele>
        <time>2018-04-25T09:07:35Z</time>
      </trkpt>
      <trkpt lat="47.64337" lon="6.05056">
        <ele>238.22</ele>
        <time>2018-04-25T09:07:37Z</time>
      </trkpt>
      <trkpt lat="47.64335" lon="6.05068">
        <ele>238.39</ele>
        <time>2018-04-25T09:07:39Z</time>
      </trkpt>
      <trkpt lat="47.64334" lon="6.05075">
        <ele>238.46</ele>
        <time>2018-04-25T09:07:40Z</time>
      </trkpt>
      <trkpt lat="47.64333" lon="6.05082">
        <ele>238.53</ele>
        <time>2018-04-25T09:07:41Z</time>
      </trkpt>
      <trkpt lat="47.64332" lon="6.05088">
        <ele>238.58</ele>
        <time>2018-04-25T09:07:42Z</time>
      </trkpt>
      <trkpt lat="47.64331" lon="6.05095">
        <ele>238.64</ele>
        <time>2018-04-25T09:07:43Z</time>
      </trkpt>
      <trkpt lat="47.6433" lon="6.05102">
        <ele>238.69</ele>
        <time>2018-04-25T09:07:44Z</time>
      </trkpt>
      <trkpt lat="47.64329" lon="6.0511">
        <ele>238.72</ele>
        <time>2018-04-25T09:07:45Z</time>
      </trkpt>
      <trkpt lat="47.64328" lon="6.05123">
        <ele>238.81</ele>
        <time>2018-04-25T09:07:47Z</time>
      </trkpt>
      <trkpt lat="47.64327" lon="6.05129">
        <ele>238.86</ele>
        <time>2018-04-25T09:07:48Z</time>
      </trkpt>
      <trkpt lat="47.64326" lon="6.05141">
        <ele>238.98</ele>
        <time>2018-04-25T09:07:50Z</time>
      </trkpt>
      <trkpt lat="47.64324" lon="6.05152">
        <ele>239.02</ele>
        <time>2018-04-25T09:07:52Z</time>
      </trkpt>
      <trkpt lat="47.64323" lon="6.05163">
        <ele>239.1</ele>
        <time>2018-04-25T09:07:54Z</time>
      </trkpt>
      <trkpt lat="47.64322" lon="6.05173">
        <ele>239.12</ele>
        <time>2018-04-25T09:07:56Z</time>
      </trkpt>
      <trkpt lat="47.64322" lon="6.05183">
        <ele>239.15</ele>
        <time>2018-04-25T09:07:58Z</time>
      </trkpt>
      <trkpt lat="47.6432" lon="6.05193">
        <ele>239.17</ele>
        <time>2018-04-25T09:08:00Z</time>
      </trkpt>
      <trkpt lat="47.64319" lon="6.05204">
        <ele>239.2</ele>
        <time>2018-04-25T09:08:02Z</time>
      </trkpt>
      <trkpt lat="47.64318" lon="6.05215">
        <ele>239.23</ele>
        <time>2018-04-25T09:08:04Z</time>
      </trkpt>
      <trkpt lat="47.64317" lon="6.05223">
        <ele>239.27</ele>
        <time>2018-04-25T09:08:06Z</time>
      </trkpt>
      <trkpt lat="47.64316" lon="6.05232">
        <ele>239.31</ele>
        <time>2018-04-25T09:08:08Z</time>
      </trkpt>
      <trkpt lat="47.64315" lon="6.05242">
        <ele>239.36</ele>
        <time>2018-04-25T09:08:10Z</time>
      </trkpt>
      <trkpt lat="47.64314" lon="6.05252">
        <ele>239.42</ele>
        <time>2018-04-25T09:08:12Z</time>
      </trkpt>
      <trkpt lat="47.64314" lon="6.05262">
        <ele>239.48</ele>
        <time>2018-04-25T09:08:14Z</time>
      </trkpt>
      <trkpt lat="47.64313" lon="6.05272">
        <ele>239.55</ele>
        <time>2018-04-25T09:08:16Z</time>
      </trkpt>
      <trkpt lat="47.64313" lon="6.05282">
        <ele>239.63</ele>
        <time>2018-04-25T09:08:18Z</time>
      </trkpt>
      <trkpt lat="47.64311" lon="6.05291">
        <ele>239.7</ele>
        <time>2018-04-25T09:08:20Z</time>
      </trkpt>
      <trkpt lat="47.6431" lon="6.053">
        <ele>239.78</ele>
        <time>2018-04-25T09:08:22Z</time>
      </trkpt>
      <trkpt lat="47.64309" lon="6.05309">
        <ele>239.85</ele>
        <time>2018-04-25T09:08:24Z</time>
      </trkpt>
      <trkpt lat="47.64308" lon="6.05319">
        <ele>239.91</ele>
        <time>2018-04-25T09:08:26Z</time>
      </trkpt>
      <trkpt lat="47.64307" lon="6.05329">
        <ele>239.98</ele>
        <time>2018-04-25T09:08:28Z</time>
      </trkpt>
      <trkpt lat="47.64305" lon="6.05341">
        <ele>240.05</ele>
        <time>2018-04-25T09:08:30Z</time>
      </trkpt>
      <trkpt lat="47.64304" lon="6.05352">
        <ele>240.12</ele>
        <time>2018-04-25T09:08:32Z</time>
      </trkpt>
      <trkpt lat="47.64304" lon="6.05362">
        <ele>240.19</ele>
        <time>2018-04-25T09:08:34Z</time>
      </trkpt>
      <trkpt lat="47.64302" lon="6.05373">
        <ele>240.26</ele>
        <time>2018-04-25T09:08:36Z</time>
      </trkpt>
      <trkpt lat="47.643" lon="6.05382">
        <ele>240.33</ele>
        <time>2018-04-25T09:08:38Z</time>
      </trkpt>
      <trkpt lat="47.643" lon="6.0539">
        <ele>240.41</ele>
        <time>2018-04-25T09:08:40Z</time>
      </trkpt>
      <trkpt lat="47.64299" lon="6.05399">
        <ele>240.49</ele>
        <time>2018-04-25T09:08:42Z</time>
      </trkpt>
      <trkpt lat="47.64298" lon="6.05408">
        <ele>240.58</ele>
        <time>2018-04-25T09:08:44Z</time>
      </trkpt>
      <trkpt lat="47.64297" lon="6.05418">
        <ele>240.67</ele>
        <time>2018-04-25T09:08:46Z</time>
      </trkpt>
      <trkpt lat="47.64296" lon="6.05429">
        <ele>240.76</ele>
        <time>2018-04-25T09:08:48Z</time>
      </trkpt>
      <trkpt lat="47.64295" lon="6.0544">
        <ele>240.86</ele>
        <time>2018-04-25T09:08:50Z</time>
      </trkpt>
      <trkpt lat="47.64294" lon="6.05451">
        <ele>241.37</ele>
        <time>2018-04-25T09:08:52Z</time>
      </trkpt>
      <trkpt lat="47.64293" lon="6.05462">
        <ele>241.79</ele>
        <time>2018-04-25T09:08:54Z</time>
      </trkpt>
      <trkpt lat="47.64291" lon="6.05472">
        <ele>242.23</ele>
        <time>2018-04-25T09:08:56Z</time>
      </trkpt>
      <trkpt lat="47.64289" lon="6.05484">
        <ele>242.79</ele>
        <time>2018-04-25T09:08:58Z</time>
      </trkpt>
      <trkpt lat="47.64288" lon="6.05496">
        <ele>243.18</ele>
        <time>2018-04-25T09:09:00Z</time>
      </trkpt>
      <trkpt lat="47.64286" lon="6.05508">
        <ele>243.4</ele>
        <time>2018-04-25T09:09:02Z</time>
      </trkpt>
      <trkpt lat="47.64285" lon="6.05517">
        <ele>243.44</ele>
        <time>2018-04-25T09:09:04Z</time>
      </trkpt>
      <trkpt lat="47.64284" lon="6.05525">
        <ele>243.47</ele>
        <time>2018-04-25T09:09:06Z</time>
      </trkpt>
      <trkpt lat="47.64282" lon="6.05533">
        <ele>243.53</ele>
        <time>2018-04-25T09:09:09Z</time>
      </trkpt>
      <trkpt lat="47.64281" lon="6.0554">
        <ele>243.62</ele>
        <time>2018-04-25T09:09:13Z</time>
      </trkpt>
      <trkpt lat="47.64279" lon="6.05548">
        <ele>243.74</ele>
        <time>2018-04-25T09:09:17Z</time>
      </trkpt>
      <trkpt lat="47.64279" lon="6.05555">
        <ele>243.9</ele>
        <time>2018-04-25T09:09:21Z</time>
      </trkpt>
      <trkpt lat="47.64278" lon="6.05563">
        <ele>244.06</ele>
        <time>2018-04-25T09:09:25Z</time>
      </trkpt>
      <trkpt lat="47.64277" lon="6.0557">
        <ele>244.22</ele>
        <time>2018-04-25T09:09:29Z</time>
      </trkpt>
      <trkpt lat="47.64277" lon="6.05577">
        <ele>244.39</ele>
        <time>2018-04-25T09:09:33Z</time>
      </trkpt>
      <trkpt lat="47.64276" lon="6.05586">
        <ele>244.53</ele>
        <time>2018-04-25T09:09:36Z</time>
      </trkpt>
      <trkpt lat="47.64276" lon="6.05596">
        <ele>244.62</ele>
        <time>2018-04-25T09:09:38Z</time>
      </trkpt>
      <trkpt lat="47.64275" lon="6.05606">
        <ele>244.71</ele>
        <time>2018-04-25T09:09:40Z</time>
      </trkpt>
      <trkpt lat="47.64274" lon="6.05618">
        <ele>244.8</ele>
        <time>2018-04-25T09:09:42Z</time>
      </trkpt>
      <trkpt lat="47.64273" lon="6.05628">
        <ele>244.88</ele>
        <time>2018-04-25T09:09:44Z</time>
      </trkpt>
      <trkpt lat="47.64272" lon="6.05641">
        <ele>245.54</ele>
        <time>2018-04-25T09:09:46Z</time>
      </trkpt>
      <trkpt lat="47.64272" lon="6.05647">
        <ele>245.83</ele>
        <time>2018-04-25T09:09:47Z</time>
      </trkpt>
      <trkpt lat="47.64271" lon="6.05654">
        <ele>246.09</ele>
        <time>2018-04-25T09:09:48Z</time>
      </trkpt>
      <trkpt lat="47.64271" lon="6.05667">
        <ele>246.53</ele>
        <time>2018-04-25T09:09:50Z</time>
      </trkpt>
      <trkpt lat="47.64271" lon="6.05675">
        <ele>246.72</ele>
        <time>2018-04-25T09:09:51Z</time>
      </trkpt>
      <trkpt lat="47.6427" lon="6.05689">
        <ele>247.09</ele>
        <time>2018-04-25T09:09:53Z</time>
      </trkpt>
      <trkpt lat="47.6427" lon="6.05695">
        <ele>247.26</ele>
        <time>2018-04-25T09:09:54Z</time>
      </trkpt>
      <trkpt lat="47.6427" lon="6.05708">
        <ele>247.57</ele>
        <time>2018-04-25T09:09:56Z</time>
      </trkpt>
      <trkpt lat="47.6427" lon="6.05721">
        <ele>247.86</ele>
        <time>2018-04-25T09:09:58Z</time>
      </trkpt>
      <trkpt lat="47.6427" lon="6.05734">
        <ele>248.16</ele>
        <time>2018-04-25T09:10:00Z</time>
      </trkpt>
      <trkpt lat="47.6427" lon="6.05741">
        <ele>248.29</ele>
        <time>2018-04-25T09:10:01Z</time>
      </trkpt>
      <trkpt lat="47.6427" lon="6.05752">
        <ele>248.55</ele>
        <time>2018-04-25T09:10:03Z</time>
      </trkpt>
      <trkpt lat="47.64271" lon="6.05764">
        <ele>248.84</ele>
        <time>2018-04-25T09:10:05Z</time>
      </trkpt>
      <trkpt lat="47.64272" lon="6.05776">
        <ele>249.06</ele>
        <time>2018-04-25T09:10:07Z</time>
      </trkpt>
      <trkpt lat="47.64273" lon="6.05788">
        <ele>249.27</ele>
        <time>2018-04-25T09:10:09Z</time>
      </trkpt>
      <trkpt lat="47.64273" lon="6.058">
        <ele>249.46</ele>
        <time>2018-04-25T09:10:11Z</time>
      </trkpt>
      <trkpt lat="47.64274" lon="6.05812">
        <ele>249.64</ele>
        <time>2018-04-25T09:10:13Z</time>
      </trkpt>
      <trkpt lat="47.64273" lon="6.05825">
        <ele>249.79</ele>
        <time>2018-04-25T09:10:15Z</time>
      </trkpt>
      <trkpt lat="47.64273" lon="6.05838">
        <ele>249.94</ele>
        <time>2018-04-25T09:10:17Z</time>
      </trkpt>
      <trkpt lat="47.64273" lon="6.05845">
        <ele>250.01</ele>
        <time>2018-04-25T09:10:18Z</time>
      </trkpt>
      <trkpt lat="47.64273" lon="6.05858">
        <ele>250.17</ele>
        <time>2018-04-25T09:10:20Z</time>
      </trkpt>
      <trkpt lat="47.64272" lon="6.05872">
        <ele>250.33</ele>
        <time>2018-04-25T09:10:22Z</time>
      </trkpt>
      <trkpt lat="47.64271" lon="6.05879">
        <ele>250.41</ele>
        <time>2018-04-25T09:10:23Z</time>
      </trkpt>
      <trkpt lat="47.64271" lon="6.05886">
        <ele>250.5</ele>
        <time>2018-04-25T09:10:24Z</time>
      </trkpt>
      <trkpt lat="47.6427" lon="6.05893">
        <ele>250.59</ele>
        <time>2018-04-25T09:10:25Z</time>
      </trkpt>
      <trkpt lat="47.64269" lon="6.05899">
        <ele>250.68</ele>
        <time>2018-04-25T09:10:26Z</time>
      </trkpt>
      <trkpt lat="47.64267" lon="6.05913">
        <ele>250.89</ele>
        <time>2018-04-25T09:10:28Z</time>
      </trkpt>
      <trkpt lat="47.64265" lon="6.05926">
        <ele>251.07</ele>
        <time>2018-04-25T09:10:30Z</time>
      </trkpt>
      <trkpt lat="47.64264" lon="6.05933">
        <ele>251.15</ele>
        <time>2018-04-25T09:10:31Z</time>
      </trkpt>
      <trkpt lat="47.64261" lon="6.05946">
        <ele>251.34</ele>
        <time>2018-04-25T09:10:33Z</time>
      </trkpt>
      <trkpt lat="47.6426" lon="6.05954">
        <ele>251.43</ele>
        <time>2018-04-25T09:10:34Z</time>
      </trkpt>
      <trkpt lat="47.64259" lon="6.0596">
        <ele>251.52</ele>
        <time>2018-04-25T09:10:35Z</time>
      </trkpt>
      <trkpt lat="47.64257" lon="6.05967">
        <ele>251.62</ele>
        <time>2018-04-25T09:10:36Z</time>
      </trkpt>
      <trkpt lat="47.64256" lon="6.05973">
        <ele>251.72</ele>
        <time>2018-04-25T09:10:37Z</time>
      </trkpt>
      <trkpt lat="47.64254" lon="6.0598">
        <ele>251.81</ele>
        <time>2018-04-25T09:10:38Z</time>
      </trkpt>
      <trkpt lat="47.64253" lon="6.05986">
        <ele>251.9</ele>
        <time>2018-04-25T09:10:39Z</time>
      </trkpt>
      <trkpt lat="47.64251" lon="6.05993">
        <ele>251.99</ele>
        <time>2018-04-25T09:10:40Z</time>
      </trkpt>
      <trkpt lat="47.64248" lon="6.06004">
        <ele>252.21</ele>
        <time>2018-04-25T09:10:42Z</time>
      </trkpt>
      <trkpt lat="47.64247" lon="6.06011">
        <ele>252.31</ele>
        <time>2018-04-25T09:10:43Z</time>
      </trkpt>
      <trkpt lat="47.64245" lon="6.06017">
        <ele>252.42</ele>
        <time>2018-04-25T09:10:44Z</time>
      </trkpt>
      <trkpt lat="47.64241" lon="6.06028">
        <ele>252.63</ele>
        <time>2018-04-25T09:10:46Z</time>
      </trkpt>
      <trkpt lat="47.64237" lon="6.06039">
        <ele>252.85</ele>
        <time>2018-04-25T09:10:48Z</time>
      </trkpt>
      <trkpt lat="47.64234" lon="6.0605">
        <ele>253.09</ele>
        <time>2018-04-25T09:10:50Z</time>
      </trkpt>
      <trkpt lat="47.6423" lon="6.0606">
        <ele>253.34</ele>
        <time>2018-04-25T09:10:52Z</time>
      </trkpt>
      <trkpt lat="47.64226" lon="6.06069">
        <ele>253.63</ele>
        <time>2018-04-25T09:10:54Z</time>
      </trkpt>
      <trkpt lat="47.64222" lon="6.06078">
        <ele>253.84</ele>
        <time>2018-04-25T09:10:56Z</time>
      </trkpt>
      <trkpt lat="47.64218" lon="6.06087">
        <ele>253.89</ele>
        <time>2018-04-25T09:10:58Z</time>
      </trkpt>
      <trkpt lat="47.64214" lon="6.06096">
        <ele>253.94</ele>
        <time>2018-04-25T09:11:00Z</time>
      </trkpt>
      <trkpt lat="47.6421" lon="6.06104">
        <ele>254</ele>
        <time>2018-04-25T09:11:02Z</time>
      </trkpt>
      <trkpt lat="47.64207" lon="6.06113">
        <ele>254.07</ele>
        <time>2018-04-25T09:11:04Z</time>
      </trkpt>
      <trkpt lat="47.64204" lon="6.06121">
        <ele>254.16</ele>
        <time>2018-04-25T09:11:06Z</time>
      </trkpt>
      <trkpt lat="47.64201" lon="6.06131">
        <ele>254.25</ele>
        <time>2018-04-25T09:11:08Z</time>
      </trkpt>
      <trkpt lat="47.64198" lon="6.0614">
        <ele>254.36</ele>
        <time>2018-04-25T09:11:10Z</time>
      </trkpt>
      <trkpt lat="47.64196" lon="6.06149">
        <ele>254.49</ele>
        <time>2018-04-25T09:11:12Z</time>
      </trkpt>
      <trkpt lat="47.64193" lon="6.06159">
        <ele>254.63</ele>
        <time>2018-04-25T09:11:14Z</time>
      </trkpt>
      <trkpt lat="47.64191" lon="6.06169">
        <ele>254.78</ele>
        <time>2018-04-25T09:11:16Z</time>
      </trkpt>
      <trkpt lat="47.64189" lon="6.06177">
        <ele>254.93</ele>
        <time>2018-04-25T09:11:18Z</time>
      </trkpt>
      <trkpt lat="47.64187" lon="6.06185">
        <ele>255.08</ele>
        <time>2018-04-25T09:11:20Z</time>
      </trkpt>
      <trkpt lat="47.64185" lon="6.06192">
        <ele>255.25</ele>
        <time>2018-04-25T09:11:22Z</time>
      </trkpt>
      <trkpt lat="47.64184" lon="6.06199">
        <ele>255.42</ele>
        <time>2018-04-25T09:11:24Z</time>
      </trkpt>
      <trkpt lat="47.64181" lon="6.06207">
        <ele>255.61</ele>
        <time>2018-04-25T09:11:26Z</time>
      </trkpt>
      <trkpt lat="47.64179" lon="6.06215">
        <ele>255.8</ele>
        <time>2018-04-25T09:11:28Z</time>
      </trkpt>
      <trkpt lat="47.64176" lon="6.06222">
        <ele>256.01</ele>
        <time>2018-04-25T09:11:30Z</time>
      </trkpt>
      <trkpt lat="47.64174" lon="6.0623">
        <ele>256.22</ele>
        <time>2018-04-25T09:11:32Z</time>
      </trkpt>
      <trkpt lat="47.64171" lon="6.06236">
        <ele>256.45</ele>
        <time>2018-04-25T09:11:34Z</time>
      </trkpt>
      <trkpt lat="47.64168" lon="6.06243">
        <ele>256.68</ele>
        <time>2018-04-25T09:11:36Z</time>
      </trkpt>
      <trkpt lat="47.64167" lon="6.06249">
        <ele>256.92</ele>
        <time>2018-04-25T09:11:38Z</time>
      </trkpt>
      <trkpt lat="47.64165" lon="6.06256">
        <ele>257.17</ele>
        <time>2018-04-25T09:11:40Z</time>
      </trkpt>
      <trkpt lat="47.64162" lon="6.06262">
        <ele>257.43</ele>
        <time>2018-04-25T09:11:42Z</time>
      </trkpt>
      <trkpt lat="47.64159" lon="6.06268">
        <ele>257.68</ele>
        <time>2018-04-25T09:11:44Z</time>
      </trkpt>
      <trkpt lat="47.64157" lon="6.06275">
        <ele>257.95</ele>
        <time>2018-04-25T09:11:46Z</time>
      </trkpt>
      <trkpt lat="47.64154" lon="6.06282">
        <ele>258.22</ele>
        <time>2018-04-25T09:11:48Z</time>
      </trkpt>
      <trkpt lat="47.64152" lon="6.06289">
        <ele>258.49</ele>
        <time>2018-04-25T09:11:49Z</time>
      </trkpt>
      <trkpt lat="47.6415" lon="6.06296">
        <ele>258.76</ele>
        <time>2018-04-25T09:11:51Z</time>
      </trkpt>
      <trkpt lat="47.64148" lon="6.06304">
        <ele>259.03</ele>
        <time>2018-04-25T09:11:53Z</time>
      </trkpt>
      <trkpt lat="47.64144" lon="6.0631">
        <ele>259.29</ele>
        <time>2018-04-25T09:11:55Z</time>
      </trkpt>
      <trkpt lat="47.64142" lon="6.06316">
        <ele>259.56</ele>
        <time>2018-04-25T09:11:57Z</time>
      </trkpt>
      <trkpt lat="47.6414" lon="6.06324">
        <ele>260.07</ele>
        <time>2018-04-25T09:12:01Z</time>
      </trkpt>
      <trkpt lat="47.64137" lon="6.06328">
        <ele>260.33</ele>
        <time>2018-04-25T09:12:03Z</time>
      </trkpt>
      <trkpt lat="47.64134" lon="6.06334">
        <ele>260.59</ele>
        <time>2018-04-25T09:12:05Z</time>
      </trkpt>
      <trkpt lat="47.64132" lon="6.0634">
        <ele>260.85</ele>
        <time>2018-04-25T09:12:07Z</time>
      </trkpt>
      <trkpt lat="47.64129" lon="6.06347">
        <ele>261.11</ele>
        <time>2018-04-25T09:12:09Z</time>
      </trkpt>
      <trkpt lat="47.64126" lon="6.06354">
        <ele>261.36</ele>
        <time>2018-04-25T09:12:11Z</time>
      </trkpt>
      <trkpt lat="47.64123" lon="6.0636">
        <ele>261.74</ele>
        <time>2018-04-25T09:12:14Z</time>
      </trkpt>
      <trkpt lat="47.64119" lon="6.06366">
        <ele>262.93</ele>
        <time>2018-04-25T09:13:12Z</time>
      </trkpt>
      <trkpt lat="47.64116" lon="6.06374">
        <ele>263.2</ele>
        <time>2018-04-25T09:13:15Z</time>
      </trkpt>
      <trkpt lat="47.64112" lon="6.06383">
        <ele>263.38</ele>
        <time>2018-04-25T09:13:17Z</time>
      </trkpt>
      <trkpt lat="47.64109" lon="6.06394">
        <ele>263.55</ele>
        <time>2018-04-25T09:13:19Z</time>
      </trkpt>
      <trkpt lat="47.64105" lon="6.06404">
        <ele>263.73</ele>
        <time>2018-04-25T09:13:21Z</time>
      </trkpt>
      <trkpt lat="47.64101" lon="6.06412">
        <ele>263.9</ele>
        <time>2018-04-25T09:13:23Z</time>
      </trkpt>
      <trkpt lat="47.64097" lon="6.06422">
        <ele>264.08</ele>
        <time>2018-04-25T09:13:25Z</time>
      </trkpt>
      <trkpt lat="47.64093" lon="6.0643">
        <ele>264.26</ele>
        <time>2018-04-25T09:13:27Z</time>
      </trkpt>
      <trkpt lat="47.6409" lon="6.06438">
        <ele>264.44</ele>
        <time>2018-04-25T09:13:29Z</time>
      </trkpt>
      <trkpt lat="47.64085" lon="6.06446">
        <ele>264.62</ele>
        <time>2018-04-25T09:13:31Z</time>
      </trkpt>
      <trkpt lat="47.64081" lon="6.06453">
        <ele>264.8</ele>
        <time>2018-04-25T09:13:33Z</time>
      </trkpt>
      <trkpt lat="47.64077" lon="6.0646">
        <ele>264.97</ele>
        <time>2018-04-25T09:13:35Z</time>
      </trkpt>
      <trkpt lat="47.64073" lon="6.06467">
        <ele>265.14</ele>
        <time>2018-04-25T09:13:37Z</time>
      </trkpt>
      <trkpt lat="47.64069" lon="6.06474">
        <ele>265.31</ele>
        <time>2018-04-25T09:13:39Z</time>
      </trkpt>
      <trkpt lat="47.64066" lon="6.06481">
        <ele>265.47</ele>
        <time>2018-04-25T09:13:41Z</time>
      </trkpt>
      <trkpt lat="47.64062" lon="6.06488">
        <ele>265.63</ele>
        <time>2018-04-25T09:13:43Z</time>
      </trkpt>
      <trkpt lat="47.64058" lon="6.06494">
        <ele>265.78</ele>
        <time>2018-04-25T09:13:45Z</time>
      </trkpt>
      <trkpt lat="47.64053" lon="6.065">
        <ele>265.93</ele>
        <time>2018-04-25T09:13:47Z</time>
      </trkpt>
      <trkpt lat="47.6405" lon="6.06505">
        <ele>266.07</ele>
        <time>2018-04-25T09:13:49Z</time>
      </trkpt>
      <trkpt lat="47.64047" lon="6.0651">
        <ele>266.21</ele>
        <time>2018-04-25T09:13:51Z</time>
      </trkpt>
      <trkpt lat="47.64043" lon="6.06518">
        <ele>266.41</ele>
        <time>2018-04-25T09:13:54Z</time>
      </trkpt>
      <trkpt lat="47.64039" lon="6.06524">
        <ele>266.6</ele>
        <time>2018-04-25T09:13:57Z</time>
      </trkpt>
      <trkpt lat="47.64036" lon="6.06533">
        <ele>266.78</ele>
        <time>2018-04-25T09:14:00Z</time>
      </trkpt>
      <trkpt lat="47.64036" lon="6.0654">
        <ele>266.96</ele>
        <time>2018-04-25T09:14:03Z</time>
      </trkpt>
      <trkpt lat="47.64039" lon="6.06548">
        <ele>267.38</ele>
        <time>2018-04-25T09:14:14Z</time>
      </trkpt>
      <trkpt lat="47.64043" lon="6.06551">
        <ele>267.49</ele>
        <time>2018-04-25T09:14:16Z</time>
      </trkpt>
      <trkpt lat="47.6405" lon="6.06553">
        <ele>267.59</ele>
        <time>2018-04-25T09:14:18Z</time>
      </trkpt>
      <trkpt lat="47.64056" lon="6.06554">
        <ele>267.69</ele>
        <time>2018-04-25T09:14:20Z</time>
      </trkpt>
      <trkpt lat="47.64062" lon="6.06555">
        <ele>267.79</ele>
        <time>2018-04-25T09:14:22Z</time>
      </trkpt>
      <trkpt lat="47.64067" lon="6.06557">
        <ele>267.89</ele>
        <time>2018-04-25T09:14:24Z</time>
      </trkpt>
      <trkpt lat="47.64072" lon="6.06558">
        <ele>267.98</ele>
        <time>2018-04-25T09:14:26Z</time>
      </trkpt>
      <trkpt lat="47.64078" lon="6.06559">
        <ele>268.06</ele>
        <time>2018-04-25T09:14:28Z</time>
      </trkpt>
      <trkpt lat="47.64084" lon="6.06561">
        <ele>268.15</ele>
        <time>2018-04-25T09:14:30Z</time>
      </trkpt>
      <trkpt lat="47.6409" lon="6.06562">
        <ele>268.23</ele>
        <time>2018-04-25T09:14:32Z</time>
      </trkpt>
      <trkpt lat="47.64097" lon="6.06564">
        <ele>268.54</ele>
        <time>2018-04-25T09:14:34Z</time>
      </trkpt>
      <trkpt lat="47.64106" lon="6.06566">
        <ele>269.09</ele>
        <time>2018-04-25T09:14:36Z</time>
      </trkpt>
      <trkpt lat="47.6411" lon="6.06566">
        <ele>269.29</ele>
        <time>2018-04-25T09:14:37Z</time>
      </trkpt>
      <trkpt lat="47.64115" lon="6.06566">
        <ele>269.46</ele>
        <time>2018-04-25T09:14:38Z</time>
      </trkpt>
      <trkpt lat="47.6412" lon="6.06566">
        <ele>269.59</ele>
        <time>2018-04-25T09:14:39Z</time>
      </trkpt>
      <trkpt lat="47.64126" lon="6.06566">
        <ele>269.7</ele>
        <time>2018-04-25T09:14:40Z</time>
      </trkpt>
      <trkpt lat="47.64131" lon="6.06564">
        <ele>269.78</ele>
        <time>2018-04-25T09:14:41Z</time>
      </trkpt>
      <trkpt lat="47.64136" lon="6.06563">
        <ele>269.85</ele>
        <time>2018-04-25T09:14:42Z</time>
      </trkpt>
      <trkpt lat="47.64142" lon="6.06561">
        <ele>269.9</ele>
        <time>2018-04-25T09:14:43Z</time>
      </trkpt>
      <trkpt lat="47.64147" lon="6.06558">
        <ele>269.93</ele>
        <time>2018-04-25T09:14:44Z</time>
      </trkpt>
      <trkpt lat="47.64152" lon="6.06556">
        <ele>269.96</ele>
        <time>2018-04-25T09:14:45Z</time>
      </trkpt>
      <trkpt lat="47.64157" lon="6.06553">
        <ele>269.98</ele>
        <time>2018-04-25T09:14:46Z</time>
      </trkpt>
      <trkpt lat="47.64162" lon="6.0655">
        <ele>269.98</ele>
        <time>2018-04-25T09:14:47Z</time>
      </trkpt>
      <trkpt lat="47.64167" lon="6.06547">
        <ele>269.98</ele>
        <time>2018-04-25T09:14:48Z</time>
      </trkpt>
      <trkpt lat="47.64172" lon="6.06544">
        <ele>269.98</ele>
        <time>2018-04-25T09:14:49Z</time>
      </trkpt>
      <trkpt lat="47.64176" lon="6.0654">
        <ele>269.97</ele>
        <time>2018-04-25T09:14:50Z</time>
      </trkpt>
      <trkpt lat="47.64181" lon="6.06537">
        <ele>269.96</ele>
        <time>2018-04-25T09:14:51Z</time>
      </trkpt>
      <trkpt lat="47.64185" lon="6.06535">
        <ele>269.94</ele>
        <time>2018-04-25T09:14:52Z</time>
      </trkpt>
      <trkpt lat="47.64189" lon="6.06532">
        <ele>269.93</ele>
        <time>2018-04-25T09:14:53Z</time>
      </trkpt>
      <trkpt lat="47.64197" lon="6.06527">
        <ele>269.89</ele>
        <time>2018-04-25T09:14:55Z</time>
      </trkpt>
      <trkpt lat="47.64205" lon="6.06522">
        <ele>269.88</ele>
        <time>2018-04-25T09:14:57Z</time>
      </trkpt>
      <trkpt lat="47.64211" lon="6.06517">
        <ele>269.88</ele>
        <time>2018-04-25T09:14:59Z</time>
      </trkpt>
      <trkpt lat="47.64218" lon="6.06514">
        <ele>269.86</ele>
        <time>2018-04-25T09:15:01Z</time>
      </trkpt>
      <trkpt lat="47.64225" lon="6.06509">
        <ele>269.85</ele>
        <time>2018-04-25T09:15:03Z</time>
      </trkpt>
      <trkpt lat="47.6423" lon="6.06507">
        <ele>269.85</ele>
        <time>2018-04-25T09:15:04Z</time>
      </trkpt>
      <trkpt lat="47.64237" lon="6.06501">
        <ele>269.85</ele>
        <time>2018-04-25T09:15:06Z</time>
      </trkpt>
      <trkpt lat="47.64244" lon="6.06496">
        <ele>269.85</ele>
        <time>2018-04-25T09:15:08Z</time>
      </trkpt>
      <trkpt lat="47.64251" lon="6.06491">
        <ele>269.85</ele>
        <time>2018-04-25T09:15:10Z</time>
      </trkpt>
      <trkpt lat="47.64258" lon="6.06488">
        <ele>269.85</ele>
        <time>2018-04-25T09:15:12Z</time>
      </trkpt>
      <trkpt lat="47.64265" lon="6.06485">
        <ele>269.84</ele>
        <time>2018-04-25T09:15:14Z</time>
      </trkpt>
      <trkpt lat="47.64272" lon="6.06481">
        <ele>269.83</ele>
        <time>2018-04-25T09:15:16Z</time>
      </trkpt>
      <trkpt lat="47.64281" lon="6.06476">
        <ele>269.81</ele>
        <time>2018-04-25T09:15:18Z</time>
      </trkpt>
      <trkpt lat="47.64289" lon="6.06472">
        <ele>269.8</ele>
        <time>2018-04-25T09:15:20Z</time>
      </trkpt>
      <trkpt lat="47.64294" lon="6.0647">
        <ele>269.8</ele>
        <time>2018-04-25T09:15:21Z</time>
      </trkpt>
      <trkpt lat="47.64298" lon="6.06468">
        <ele>269.79</ele>
        <time>2018-04-25T09:15:22Z</time>
      </trkpt>
      <trkpt lat="47.64302" lon="6.06466">
        <ele>269.78</ele>
        <time>2018-04-25T09:15:23Z</time>
      </trkpt>
      <trkpt lat="47.64307" lon="6.06463">
        <ele>269.77</ele>
        <time>2018-04-25T09:15:24Z</time>
      </trkpt>
      <trkpt lat="47.64315" lon="6.06459">
        <ele>269.75</ele>
        <time>2018-04-25T09:15:26Z</time>
      </trkpt>
      <trkpt lat="47.64325" lon="6.06457">
        <ele>269.72</ele>
        <time>2018-04-25T09:15:28Z</time>
      </trkpt>
      <trkpt lat="47.64329" lon="6.06455">
        <ele>269.7</ele>
        <time>2018-04-25T09:15:29Z</time>
      </trkpt>
      <trkpt lat="47.64334" lon="6.06453">
        <ele>269.68</ele>
        <time>2018-04-25T09:15:30Z</time>
      </trkpt>
      <trkpt lat="47.64341" lon="6.0645">
        <ele>269.66</ele>
        <time>2018-04-25T09:15:32Z</time>
      </trkpt>
      <trkpt lat="47.64347" lon="6.06447">
        <ele>269.65</ele>
        <time>2018-04-25T09:15:34Z</time>
      </trkpt>
      <trkpt lat="47.64354" lon="6.06446">
        <ele>269.61</ele>
        <time>2018-04-25T09:15:36Z</time>
      </trkpt>
      <trkpt lat="47.64363" lon="6.06444">
        <ele>269.54</ele>
        <time>2018-04-25T09:15:38Z</time>
      </trkpt>
      <trkpt lat="47.64369" lon="6.06442">
        <ele>269.5</ele>
        <time>2018-04-25T09:15:39Z</time>
      </trkpt>
      <trkpt lat="47.64375" lon="6.06441">
        <ele>269.45</ele>
        <time>2018-04-25T09:15:40Z</time>
      </trkpt>
      <trkpt lat="47.64382" lon="6.06439">
        <ele>269.39</ele>
        <time>2018-04-25T09:15:41Z</time>
      </trkpt>
      <trkpt lat="47.64388" lon="6.06439">
        <ele>269.33</ele>
        <time>2018-04-25T09:15:42Z</time>
      </trkpt>
      <trkpt lat="47.64396" lon="6.06438">
        <ele>269.25</ele>
        <time>2018-04-25T09:15:43Z</time>
      </trkpt>
      <trkpt lat="47.64403" lon="6.06439">
        <ele>269.16</ele>
        <time>2018-04-25T09:15:44Z</time>
      </trkpt>
      <trkpt lat="47.6441" lon="6.0644">
        <ele>269.08</ele>
        <time>2018-04-25T09:15:45Z</time>
      </trkpt>
      <trkpt lat="47.64417" lon="6.06443">
        <ele>268.99</ele>
        <time>2018-04-25T09:15:46Z</time>
      </trkpt>
      <trkpt lat="47.64424" lon="6.06446">
        <ele>268.9</ele>
        <time>2018-04-25T09:15:47Z</time>
      </trkpt>
      <trkpt lat="47.64431" lon="6.0645">
        <ele>268.8</ele>
        <time>2018-04-25T09:15:48Z</time>
      </trkpt>
      <trkpt lat="47.64437" lon="6.06453">
        <ele>268.7</ele>
        <time>2018-04-25T09:15:49Z</time>
      </trkpt>
      <trkpt lat="47.64443" lon="6.06458">
        <ele>268.6</ele>
        <time>2018-04-25T09:15:50Z</time>
      </trkpt>
      <trkpt lat="47.64449" lon="6.06463">
        <ele>268.52</ele>
        <time>2018-04-25T09:15:51Z</time>
      </trkpt>
      <trkpt lat="47.64455" lon="6.06467">
        <ele>268.43</ele>
        <time>2018-04-25T09:15:52Z</time>
      </trkpt>
      <trkpt lat="47.64461" lon="6.06472">
        <ele>268.33</ele>
        <time>2018-04-25T09:15:53Z</time>
      </trkpt>
      <trkpt lat="47.64467" lon="6.06476">
        <ele>268.25</ele>
        <time>2018-04-25T09:15:54Z</time>
      </trkpt>
      <trkpt lat="47.64473" lon="6.0648">
        <ele>268.2</ele>
        <time>2018-04-25T09:15:55Z</time>
      </trkpt>
      <trkpt lat="47.64479" lon="6.06485">
        <ele>268.18</ele>
        <time>2018-04-25T09:15:56Z</time>
      </trkpt>
      <trkpt lat="47.64484" lon="6.0649">
        <ele>268.15</ele>
        <time>2018-04-25T09:15:57Z</time>
      </trkpt>
      <trkpt lat="47.64489" lon="6.06495">
        <ele>268.12</ele>
        <time>2018-04-25T09:15:58Z</time>
      </trkpt>
      <trkpt lat="47.64494" lon="6.06499">
        <ele>268.11</ele>
        <time>2018-04-25T09:15:59Z</time>
      </trkpt>
      <trkpt lat="47.645" lon="6.06503">
        <ele>268.1</ele>
        <time>2018-04-25T09:16:00Z</time>
      </trkpt>
      <trkpt lat="47.64505" lon="6.06506">
        <ele>268.08</ele>
        <time>2018-04-25T09:16:01Z</time>
      </trkpt>
      <trkpt lat="47.64511" lon="6.06509">
        <ele>268.04</ele>
        <time>2018-04-25T09:16:02Z</time>
      </trkpt>
      <trkpt lat="47.64517" lon="6.06511">
        <ele>267.99</ele>
        <time>2018-04-25T09:16:03Z</time>
      </trkpt>
      <trkpt lat="47.64523" lon="6.06514">
        <ele>267.91</ele>
        <time>2018-04-25T09:16:04Z</time>
      </trkpt>
      <trkpt lat="47.64529" lon="6.06516">
        <ele>267.82</ele>
        <time>2018-04-25T09:16:05Z</time>
      </trkpt>
      <trkpt lat="47.64535" lon="6.06518">
        <ele>267.72</ele>
        <time>2018-04-25T09:16:06Z</time>
      </trkpt>
      <trkpt lat="47.64541" lon="6.0652">
        <ele>267.63</ele>
        <time>2018-04-25T09:16:07Z</time>
      </trkpt>
      <trkpt lat="47.64547" lon="6.06521">
        <ele>267.53</ele>
        <time>2018-04-25T09:16:08Z</time>
      </trkpt>
      <trkpt lat="47.64553" lon="6.06521">
        <ele>267.44</ele>
        <time>2018-04-25T09:16:09Z</time>
      </trkpt>
      <trkpt lat="47.6456" lon="6.06522">
        <ele>267.34</ele>
        <time>2018-04-25T09:16:10Z</time>
      </trkpt>
      <trkpt lat="47.64566" lon="6.06522">
        <ele>267.23</ele>
        <time>2018-04-25T09:16:11Z</time>
      </trkpt>
      <trkpt lat="47.64572" lon="6.06523">
        <ele>267.13</ele>
        <time>2018-04-25T09:16:12Z</time>
      </trkpt>
      <trkpt lat="47.64579" lon="6.06522">
        <ele>267.03</ele>
        <time>2018-04-25T09:16:13Z</time>
      </trkpt>
      <trkpt lat="47.64585" lon="6.06521">
        <ele>266.94</ele>
        <time>2018-04-25T09:16:14Z</time>
      </trkpt>
      <trkpt lat="47.64592" lon="6.06521">
        <ele>266.83</ele>
        <time>2018-04-25T09:16:15Z</time>
      </trkpt>
      <trkpt lat="47.64598" lon="6.0652">
        <ele>266.73</ele>
        <time>2018-04-25T09:16:16Z</time>
      </trkpt>
      <trkpt lat="47.64605" lon="6.06518">
        <ele>266.62</ele>
        <time>2018-04-25T09:16:17Z</time>
      </trkpt>
      <trkpt lat="47.64611" lon="6.06516">
        <ele>266.51</ele>
        <time>2018-04-25T09:16:18Z</time>
      </trkpt>
      <trkpt lat="47.64617" lon="6.06514">
        <ele>266.39</ele>
        <time>2018-04-25T09:16:19Z</time>
      </trkpt>
      <trkpt lat="47.64624" lon="6.06512">
        <ele>266.23</ele>
        <time>2018-04-25T09:16:20Z</time>
      </trkpt>
      <trkpt lat="47.6463" lon="6.06509">
        <ele>266.04</ele>
        <time>2018-04-25T09:16:21Z</time>
      </trkpt>
      <trkpt lat="47.64637" lon="6.06505">
        <ele>265.87</ele>
        <time>2018-04-25T09:16:22Z</time>
      </trkpt>
      <trkpt lat="47.64643" lon="6.06502">
        <ele>265.69</ele>
        <time>2018-04-25T09:16:23Z</time>
      </trkpt>
      <trkpt lat="47.64649" lon="6.06498">
        <ele>265.52</ele>
        <time>2018-04-25T09:16:24Z</time>
      </trkpt>
      <trkpt lat="47.64654" lon="6.06494">
        <ele>265.37</ele>
        <time>2018-04-25T09:16:25Z</time>
      </trkpt>
      <trkpt lat="47.6466" lon="6.0649">
        <ele>265.24</ele>
        <time>2018-04-25T09:16:26Z</time>
      </trkpt>
      <trkpt lat="47.64665" lon="6.06486">
        <ele>265.12</ele>
        <time>2018-04-25T09:16:27Z</time>
      </trkpt>
      <trkpt lat="47.64671" lon="6.06484">
        <ele>264.97</ele>
        <time>2018-04-25T09:16:28Z</time>
      </trkpt>
      <trkpt lat="47.64676" lon="6.06481">
        <ele>264.78</ele>
        <time>2018-04-25T09:16:29Z</time>
      </trkpt>
      <trkpt lat="47.64681" lon="6.06478">
        <ele>264.61</ele>
        <time>2018-04-25T09:16:30Z</time>
      </trkpt>
      <trkpt lat="47.64686" lon="6.06473">
        <ele>264.46</ele>
        <time>2018-04-25T09:16:31Z</time>
      </trkpt>
      <trkpt lat="47.6469" lon="6.06469">
        <ele>264.27</ele>
        <time>2018-04-25T09:16:32Z</time>
      </trkpt>
      <trkpt lat="47.64694" lon="6.06467">
        <ele>264.06</ele>
        <time>2018-04-25T09:16:33Z</time>
      </trkpt>
      <trkpt lat="47.64699" lon="6.06466">
        <ele>263.82</ele>
        <time>2018-04-25T09:16:34Z</time>
      </trkpt>
      <trkpt lat="47.64704" lon="6.06467">
        <ele>263.61</ele>
        <time>2018-04-25T09:16:35Z</time>
      </trkpt>
      <trkpt lat="47.64712" lon="6.06474">
        <ele>263.27</ele>
        <time>2018-04-25T09:16:37Z</time>
      </trkpt>
      <trkpt lat="47.64717" lon="6.06484">
        <ele>263.09</ele>
        <time>2018-04-25T09:16:39Z</time>
      </trkpt>
      <trkpt lat="47.64721" lon="6.06495">
        <ele>263.04</ele>
        <time>2018-04-25T09:16:41Z</time>
      </trkpt>
      <trkpt lat="47.64725" lon="6.06506">
        <ele>263.05</ele>
        <time>2018-04-25T09:16:43Z</time>
      </trkpt>
      <trkpt lat="47.6473" lon="6.06514">
        <ele>263.11</ele>
        <time>2018-04-25T09:16:45Z</time>
      </trkpt>
      <trkpt lat="47.64734" lon="6.06524">
        <ele>263.1</ele>
        <time>2018-04-25T09:16:47Z</time>
      </trkpt>
      <trkpt lat="47.64739" lon="6.06534">
        <ele>263.02</ele>
        <time>2018-04-25T09:16:49Z</time>
      </trkpt>
      <trkpt lat="47.64744" lon="6.06543">
        <ele>262.92</ele>
        <time>2018-04-25T09:16:51Z</time>
      </trkpt>
      <trkpt lat="47.64749" lon="6.06552">
        <ele>262.83</ele>
        <time>2018-04-25T09:16:53Z</time>
      </trkpt>
      <trkpt lat="47.64753" lon="6.06562">
        <ele>262.68</ele>
        <time>2018-04-25T09:16:55Z</time>
      </trkpt>
      <trkpt lat="47.64758" lon="6.06571">
        <ele>262.57</ele>
        <time>2018-04-25T09:16:57Z</time>
      </trkpt>
      <trkpt lat="47.64762" lon="6.0658">
        <ele>262.54</ele>
        <time>2018-04-25T09:16:59Z</time>
      </trkpt>
      <trkpt lat="47.64766" lon="6.06589">
        <ele>262.52</ele>
        <time>2018-04-25T09:17:01Z</time>
      </trkpt>
      <trkpt lat="47.64771" lon="6.06597">
        <ele>262.5</ele>
        <time>2018-04-25T09:17:03Z</time>
      </trkpt>
      <trkpt lat="47.64774" lon="6.06604">
        <ele>262.49</ele>
        <time>2018-04-25T09:17:05Z</time>
      </trkpt>
      <trkpt lat="47.64776" lon="6.0661">
        <ele>262.47</ele>
        <time>2018-04-25T09:17:07Z</time>
      </trkpt>
      <trkpt lat="47.64779" lon="6.06616">
        <ele>262.46</ele>
        <time>2018-04-25T09:17:09Z</time>
      </trkpt>
      <trkpt lat="47.64783" lon="6.06621">
        <ele>262.44</ele>
        <time>2018-04-25T09:17:11Z</time>
      </trkpt>
      <trkpt lat="47.64786" lon="6.06627">
        <ele>262.42</ele>
        <time>2018-04-25T09:17:13Z</time>
      </trkpt>
      <trkpt lat="47.64787" lon="6.06634">
        <ele>262.39</ele>
        <time>2018-04-25T09:17:15Z</time>
      </trkpt>
      <trkpt lat="47.64789" lon="6.06643">
        <ele>262.34</ele>
        <time>2018-04-25T09:17:18Z</time>
      </trkpt>
      <trkpt lat="47.64789" lon="6.06652">
        <ele>262.3</ele>
        <time>2018-04-25T09:17:21Z</time>
      </trkpt>
      <trkpt lat="47.64791" lon="6.06658">
        <ele>262.27</ele>
        <time>2018-04-25T09:17:23Z</time>
      </trkpt>
      <trkpt lat="47.64797" lon="6.06664">
        <ele>262.22</ele>
        <time>2018-04-25T09:17:26Z</time>
      </trkpt>
      <trkpt lat="47.64801" lon="6.06667">
        <ele>262.18</ele>
        <time>2018-04-25T09:17:28Z</time>
      </trkpt>
      <trkpt lat="47.64805" lon="6.06672">
        <ele>262.15</ele>
        <time>2018-04-25T09:17:30Z</time>
      </trkpt>
      <trkpt lat="47.64808" lon="6.06678">
        <ele>262.11</ele>
        <time>2018-04-25T09:17:32Z</time>
      </trkpt>
      <trkpt lat="47.64813" lon="6.06684">
        <ele>262.05</ele>
        <time>2018-04-25T09:17:35Z</time>
      </trkpt>
      <trkpt lat="47.64817" lon="6.0669">
        <ele>262</ele>
        <time>2018-04-25T09:17:38Z</time>
      </trkpt>
      <trkpt lat="47.6482" lon="6.06695">
        <ele>261.96</ele>
        <time>2018-04-25T09:17:41Z</time>
      </trkpt>
      <trkpt lat="47.64823" lon="6.06701">
        <ele>261.9</ele>
        <time>2018-04-25T09:17:44Z</time>
      </trkpt>
      <trkpt lat="47.64828" lon="6.06706">
        <ele>261.85</ele>
        <time>2018-04-25T09:17:47Z</time>
      </trkpt>
      <trkpt lat="47.64832" lon="6.06712">
        <ele>261.8</ele>
        <time>2018-04-25T09:17:50Z</time>
      </trkpt>
      <trkpt lat="47.64837" lon="6.06718">
        <ele>261.76</ele>
        <time>2018-04-25T09:17:53Z</time>
      </trkpt>
      <trkpt lat="47.64841" lon="6.06724">
        <ele>261.71</ele>
        <time>2018-04-25T09:17:56Z</time>
      </trkpt>
      <trkpt lat="47.64845" lon="6.0673">
        <ele>261.63</ele>
        <time>2018-04-25T09:17:59Z</time>
      </trkpt>
      <trkpt lat="47.6485" lon="6.06736">
        <ele>261.55</ele>
        <time>2018-04-25T09:18:02Z</time>
      </trkpt>
      <trkpt lat="47.64853" lon="6.06742">
        <ele>261.47</ele>
        <time>2018-04-25T09:18:04Z</time>
      </trkpt>
      <trkpt lat="47.64857" lon="6.06747">
        <ele>261.4</ele>
        <time>2018-04-25T09:18:06Z</time>
      </trkpt>
      <trkpt lat="47.64861" lon="6.06752">
        <ele>261.33</ele>
        <time>2018-04-25T09:18:08Z</time>
      </trkpt>
      <trkpt lat="47.64865" lon="6.06758">
        <ele>261.27</ele>
        <time>2018-04-25T09:18:10Z</time>
      </trkpt>
      <trkpt lat="47.64869" lon="6.06764">
        <ele>261.2</ele>
        <time>2018-04-25T09:18:12Z</time>
      </trkpt>
      <trkpt lat="47.64874" lon="6.0677">
        <ele>261.15</ele>
        <time>2018-04-25T09:18:14Z</time>
      </trkpt>
      <trkpt lat="47.64879" lon="6.06775">
        <ele>261.1</ele>
        <time>2018-04-25T09:18:16Z</time>
      </trkpt>
      <trkpt lat="47.64884" lon="6.06782">
        <ele>261.06</ele>
        <time>2018-04-25T09:18:18Z</time>
      </trkpt>
      <trkpt lat="47.64888" lon="6.06788">
        <ele>261.03</ele>
        <time>2018-04-25T09:18:20Z</time>
      </trkpt>
      <trkpt lat="47.64893" lon="6.06793">
        <ele>261.01</ele>
        <time>2018-04-25T09:18:22Z</time>
      </trkpt>
      <trkpt lat="47.64897" lon="6.068">
        <ele>260.99</ele>
        <time>2018-04-25T09:18:24Z</time>
      </trkpt>
      <trkpt lat="47.64902" lon="6.06806">
        <ele>260.98</ele>
        <time>2018-04-25T09:18:26Z</time>
      </trkpt>
      <trkpt lat="47.64907" lon="6.06813">
        <ele>260.99</ele>
        <time>2018-04-25T09:18:28Z</time>
      </trkpt>
      <trkpt lat="47.64911" lon="6.06817">
        <ele>261.02</ele>
        <time>2018-04-25T09:18:29Z</time>
      </trkpt>
      <trkpt lat="47.64915" lon="6.06822">
        <ele>261.09</ele>
        <time>2018-04-25T09:18:30Z</time>
      </trkpt>
      <trkpt lat="47.64918" lon="6.06827">
        <ele>261.18</ele>
        <time>2018-04-25T09:18:31Z</time>
      </trkpt>
      <trkpt lat="47.64924" lon="6.06837">
        <ele>261.32</ele>
        <time>2018-04-25T09:18:33Z</time>
      </trkpt>
      <trkpt lat="47.64926" lon="6.06844">
        <ele>261.34</ele>
        <time>2018-04-25T09:18:34Z</time>
      </trkpt>
      <trkpt lat="47.64928" lon="6.06853">
        <ele>261.35</ele>
        <time>2018-04-25T09:18:36Z</time>
      </trkpt>
      <trkpt lat="47.64931" lon="6.06864">
        <ele>261.35</ele>
        <time>2018-04-25T09:18:38Z</time>
      </trkpt>
      <trkpt lat="47.64932" lon="6.06873">
        <ele>261.34</ele>
        <time>2018-04-25T09:18:40Z</time>
      </trkpt>
      <trkpt lat="47.64935" lon="6.0688">
        <ele>261.34</ele>
        <time>2018-04-25T09:18:42Z</time>
      </trkpt>
      <trkpt lat="47.64939" lon="6.06887">
        <ele>261.33</ele>
        <time>2018-04-25T09:18:43Z</time>
      </trkpt>
      <trkpt lat="47.64945" lon="6.06896">
        <ele>261.32</ele>
        <time>2018-04-25T09:18:44Z</time>
      </trkpt>
      <trkpt lat="47.6495" lon="6.06901">
        <ele>261.27</ele>
        <time>2018-04-25T09:18:45Z</time>
      </trkpt>
      <trkpt lat="47.64954" lon="6.06907">
        <ele>261.22</ele>
        <time>2018-04-25T09:18:46Z</time>
      </trkpt>
      <trkpt lat="47.6496" lon="6.06914">
        <ele>261.17</ele>
        <time>2018-04-25T09:18:47Z</time>
      </trkpt>
      <trkpt lat="47.64964" lon="6.0692">
        <ele>261.13</ele>
        <time>2018-04-25T09:18:48Z</time>
      </trkpt>
      <trkpt lat="47.64969" lon="6.06924">
        <ele>261.11</ele>
        <time>2018-04-25T09:18:49Z</time>
      </trkpt>
      <trkpt lat="47.64974" lon="6.06929">
        <ele>261.11</ele>
        <time>2018-04-25T09:18:50Z</time>
      </trkpt>
      <trkpt lat="47.6498" lon="6.06937">
        <ele>261.09</ele>
        <time>2018-04-25T09:18:51Z</time>
      </trkpt>
      <trkpt lat="47.64986" lon="6.06945">
        <ele>261.09</ele>
        <time>2018-04-25T09:18:52Z</time>
      </trkpt>
      <trkpt lat="47.64992" lon="6.06954">
        <ele>261.07</ele>
        <time>2018-04-25T09:18:53Z</time>
      </trkpt>
      <trkpt lat="47.64997" lon="6.06961">
        <ele>261.05</ele>
        <time>2018-04-25T09:18:54Z</time>
      </trkpt>
      <trkpt lat="47.65003" lon="6.06969">
        <ele>261.04</ele>
        <time>2018-04-25T09:18:55Z</time>
      </trkpt>
      <trkpt lat="47.65009" lon="6.06977">
        <ele>261.01</ele>
        <time>2018-04-25T09:18:56Z</time>
      </trkpt>
      <trkpt lat="47.65015" lon="6.06984">
        <ele>260.98</ele>
        <time>2018-04-25T09:18:57Z</time>
      </trkpt>
      <trkpt lat="47.65021" lon="6.06992">
        <ele>260.93</ele>
        <time>2018-04-25T09:18:58Z</time>
      </trkpt>
      <trkpt lat="47.65026" lon="6.07">
        <ele>260.86</ele>
        <time>2018-04-25T09:18:59Z</time>
      </trkpt>
      <trkpt lat="47.65031" lon="6.07008">
        <ele>260.78</ele>
        <time>2018-04-25T09:19:00Z</time>
      </trkpt>
      <trkpt lat="47.65035" lon="6.07016">
        <ele>260.68</ele>
        <time>2018-04-25T09:19:01Z</time>
      </trkpt>
      <trkpt lat="47.6504" lon="6.07022">
        <ele>260.57</ele>
        <time>2018-04-25T09:19:02Z</time>
      </trkpt>
      <trkpt lat="47.65044" lon="6.0703">
        <ele>260.42</ele>
        <time>2018-04-25T09:19:03Z</time>
      </trkpt>
      <trkpt lat="47.65049" lon="6.07036">
        <ele>260.27</ele>
        <time>2018-04-25T09:19:04Z</time>
      </trkpt>
      <trkpt lat="47.65054" lon="6.07043">
        <ele>260.07</ele>
        <time>2018-04-25T09:19:05Z</time>
      </trkpt>
      <trkpt lat="47.65059" lon="6.0705">
        <ele>259.92</ele>
        <time>2018-04-25T09:19:06Z</time>
      </trkpt>
      <trkpt lat="47.65063" lon="6.07057">
        <ele>259.8</ele>
        <time>2018-04-25T09:19:07Z</time>
      </trkpt>
      <trkpt lat="47.65068" lon="6.07064">
        <ele>259.68</ele>
        <time>2018-04-25T09:19:08Z</time>
      </trkpt>
      <trkpt lat="47.65073" lon="6.07071">
        <ele>259.53</ele>
        <time>2018-04-25T09:19:09Z</time>
      </trkpt>
      <trkpt lat="47.65077" lon="6.07077">
        <ele>259.36</ele>
        <time>2018-04-25T09:19:10Z</time>
      </trkpt>
      <trkpt lat="47.65082" lon="6.07083">
        <ele>259.22</ele>
        <time>2018-04-25T09:19:11Z</time>
      </trkpt>
      <trkpt lat="47.65085" lon="6.07089">
        <ele>259.11</ele>
        <time>2018-04-25T09:19:12Z</time>
      </trkpt>
      <trkpt lat="47.65089" lon="6.07094">
        <ele>258.98</ele>
        <time>2018-04-25T09:19:13Z</time>
      </trkpt>
      <trkpt lat="47.65094" lon="6.07106">
        <ele>259.02</ele>
        <time>2018-04-25T09:19:15Z</time>
      </trkpt>
      <trkpt lat="47.65101" lon="6.07113">
        <ele>259.41</ele>
        <time>2018-04-25T09:19:17Z</time>
      </trkpt>
      <trkpt lat="47.65109" lon="6.07121">
        <ele>259.54</ele>
        <time>2018-04-25T09:19:19Z</time>
      </trkpt>
      <trkpt lat="47.65114" lon="6.07124">
        <ele>259.58</ele>
        <time>2018-04-25T09:19:20Z</time>
      </trkpt>
      <trkpt lat="47.65119" lon="6.0713">
        <ele>259.59</ele>
        <time>2018-04-25T09:19:21Z</time>
      </trkpt>
      <trkpt lat="47.65123" lon="6.07137">
        <ele>259.55</ele>
        <time>2018-04-25T09:19:22Z</time>
      </trkpt>
      <trkpt lat="47.65126" lon="6.07148">
        <ele>259.41</ele>
        <time>2018-04-25T09:19:23Z</time>
      </trkpt>
      <trkpt lat="47.65128" lon="6.07158">
        <ele>259.24</ele>
        <time>2018-04-25T09:19:24Z</time>
      </trkpt>
      <trkpt lat="47.65129" lon="6.07169">
        <ele>259.09</ele>
        <time>2018-04-25T09:19:25Z</time>
      </trkpt>
      <trkpt lat="47.6513" lon="6.07177">
        <ele>258.92</ele>
        <time>2018-04-25T09:19:26Z</time>
      </trkpt>
      <trkpt lat="47.65131" lon="6.07185">
        <ele>258.69</ele>
        <time>2018-04-25T09:19:27Z</time>
      </trkpt>
      <trkpt lat="47.65133" lon="6.07195">
        <ele>258.6</ele>
        <time>2018-04-25T09:19:28Z</time>
      </trkpt>
      <trkpt lat="47.65134" lon="6.07205">
        <ele>258.57</ele>
        <time>2018-04-25T09:19:29Z</time>
      </trkpt>
      <trkpt lat="47.65135" lon="6.07212">
        <ele>258.54</ele>
        <time>2018-04-25T09:19:30Z</time>
      </trkpt>
      <trkpt lat="47.65135" lon="6.07222">
        <ele>258.47</ele>
        <time>2018-04-25T09:19:32Z</time>
      </trkpt>
      <trkpt lat="47.65135" lon="6.07228">
        <ele>258.39</ele>
        <time>2018-04-25T09:19:34Z</time>
      </trkpt>
      <trkpt lat="47.65134" lon="6.07238">
        <ele>258.29</ele>
        <time>2018-04-25T09:19:37Z</time>
      </trkpt>
      <trkpt lat="47.65134" lon="6.07245">
        <ele>258.19</ele>
        <time>2018-04-25T09:19:39Z</time>
      </trkpt>
      <trkpt lat="47.65139" lon="6.07249">
        <ele>258.04</ele>
        <time>2018-04-25T09:19:42Z</time>
      </trkpt>
      <trkpt lat="47.65145" lon="6.07248">
        <ele>257.87</ele>
        <time>2018-04-25T09:19:45Z</time>
      </trkpt>
      <trkpt lat="47.65151" lon="6.07248">
        <ele>257.7</ele>
        <time>2018-04-25T09:19:48Z</time>
      </trkpt>
      <trkpt lat="47.65156" lon="6.07248">
        <ele>257.52</ele>
        <time>2018-04-25T09:19:51Z</time>
      </trkpt>
      <trkpt lat="47.65161" lon="6.07247">
        <ele>257.3</ele>
        <time>2018-04-25T09:19:54Z</time>
      </trkpt>
      <trkpt lat="47.65167" lon="6.07246">
        <ele>257.03</ele>
        <time>2018-04-25T09:19:57Z</time>
      </trkpt>
      <trkpt lat="47.65172" lon="6.07245">
        <ele>256.83</ele>
        <time>2018-04-25T09:19:59Z</time>
      </trkpt>
      <trkpt lat="47.65177" lon="6.07244">
        <ele>256.61</ele>
        <time>2018-04-25T09:20:01Z</time>
      </trkpt>
      <trkpt lat="47.65182" lon="6.07243">
        <ele>256.39</ele>
        <time>2018-04-25T09:20:03Z</time>
      </trkpt>
      <trkpt lat="47.65187" lon="6.07242">
        <ele>256.16</ele>
        <time>2018-04-25T09:20:05Z</time>
      </trkpt>
      <trkpt lat="47.65193" lon="6.07242">
        <ele>255.94</ele>
        <time>2018-04-25T09:20:07Z</time>
      </trkpt>
      <trkpt lat="47.65199" lon="6.0724">
        <ele>255.72</ele>
        <time>2018-04-25T09:20:09Z</time>
      </trkpt>
      <trkpt lat="47.65205" lon="6.0724">
        <ele>255.51</ele>
        <time>2018-04-25T09:20:11Z</time>
      </trkpt>
      <trkpt lat="47.65211" lon="6.07239">
        <ele>255.31</ele>
        <time>2018-04-25T09:20:13Z</time>
      </trkpt>
      <trkpt lat="47.65216" lon="6.07237">
        <ele>255.12</ele>
        <time>2018-04-25T09:20:15Z</time>
      </trkpt>
      <trkpt lat="47.65222" lon="6.07235">
        <ele>254.93</ele>
        <time>2018-04-25T09:20:17Z</time>
      </trkpt>
      <trkpt lat="47.6523" lon="6.07233">
        <ele>253.53</ele>
        <time>2018-04-25T09:20:19Z</time>
      </trkpt>
      <trkpt lat="47.65239" lon="6.07231">
        <ele>252.36</ele>
        <time>2018-04-25T09:20:21Z</time>
      </trkpt>
      <trkpt lat="47.65244" lon="6.07231">
        <ele>251.89</ele>
        <time>2018-04-25T09:20:22Z</time>
      </trkpt>
      <trkpt lat="47.65252" lon="6.07229">
        <ele>251.36</ele>
        <time>2018-04-25T09:20:24Z</time>
      </trkpt>
      <trkpt lat="47.65259" lon="6.07228">
        <ele>251.26</ele>
        <time>2018-04-25T09:20:26Z</time>
      </trkpt>
      <trkpt lat="47.65265" lon="6.07227">
        <ele>251.19</ele>
        <time>2018-04-25T09:20:28Z</time>
      </trkpt>
      <trkpt lat="47.65271" lon="6.07226">
        <ele>251.14</ele>
        <time>2018-04-25T09:20:30Z</time>
      </trkpt>
      <trkpt lat="47.65276" lon="6.07225">
        <ele>251.08</ele>
        <time>2018-04-25T09:20:32Z</time>
      </trkpt>
      <trkpt lat="47.65282" lon="6.07225">
        <ele>251.02</ele>
        <time>2018-04-25T09:20:34Z</time>
      </trkpt>
      <trkpt lat="47.65288" lon="6.07224">
        <ele>250.96</ele>
        <time>2018-04-25T09:20:36Z</time>
      </trkpt>
      <trkpt lat="47.65294" lon="6.07223">
        <ele>250.9</ele>
        <time>2018-04-25T09:20:38Z</time>
      </trkpt>
      <trkpt lat="47.65302" lon="6.07222">
        <ele>250.83</ele>
        <time>2018-04-25T09:20:40Z</time>
      </trkpt>
      <trkpt lat="47.6531" lon="6.07222">
        <ele>250.76</ele>
        <time>2018-04-25T09:20:42Z</time>
      </trkpt>
      <trkpt lat="47.65317" lon="6.07221">
        <ele>250.7</ele>
        <time>2018-04-25T09:20:44Z</time>
      </trkpt>
      <trkpt lat="47.65323" lon="6.07219">
        <ele>250.63</ele>
        <time>2018-04-25T09:20:46Z</time>
      </trkpt>
      <trkpt lat="47.65328" lon="6.07219">
        <ele>250.56</ele>
        <time>2018-04-25T09:20:48Z</time>
      </trkpt>
      <trkpt lat="47.65334" lon="6.07219">
        <ele>250.49</ele>
        <time>2018-04-25T09:20:50Z</time>
      </trkpt>
      <trkpt lat="47.6534" lon="6.07216">
        <ele>250.42</ele>
        <time>2018-04-25T09:20:52Z</time>
      </trkpt>
      <trkpt lat="47.65346" lon="6.07213">
        <ele>250.35</ele>
        <time>2018-04-25T09:20:54Z</time>
      </trkpt>
      <trkpt lat="47.65351" lon="6.07212">
        <ele>250.27</ele>
        <time>2018-04-25T09:20:56Z</time>
      </trkpt>
      <trkpt lat="47.65357" lon="6.07214">
        <ele>250.2</ele>
        <time>2018-04-25T09:20:58Z</time>
      </trkpt>
      <trkpt lat="47.65362" lon="6.07216">
        <ele>250.12</ele>
        <time>2018-04-25T09:21:00Z</time>
      </trkpt>
      <trkpt lat="47.65366" lon="6.0722">
        <ele>250.05</ele>
        <time>2018-04-25T09:21:02Z</time>
      </trkpt>
      <trkpt lat="47.6537" lon="6.07226">
        <ele>249.98</ele>
        <time>2018-04-25T09:21:04Z</time>
      </trkpt>
      <trkpt lat="47.65373" lon="6.07233">
        <ele>249.91</ele>
        <time>2018-04-25T09:21:06Z</time>
      </trkpt>
      <trkpt lat="47.65374" lon="6.07242">
        <ele>249.78</ele>
        <time>2018-04-25T09:21:10Z</time>
      </trkpt>
      <trkpt lat="47.65376" lon="6.0725">
        <ele>249.69</ele>
        <time>2018-04-25T09:21:13Z</time>
      </trkpt>
      <trkpt lat="47.65379" lon="6.07257">
        <ele>249.6</ele>
        <time>2018-04-25T09:21:16Z</time>
      </trkpt>
      <trkpt lat="47.65382" lon="6.07265">
        <ele>249.52</ele>
        <time>2018-04-25T09:21:19Z</time>
      </trkpt>
      <trkpt lat="47.65384" lon="6.07272">
        <ele>249.44</ele>
        <time>2018-04-25T09:21:22Z</time>
      </trkpt>
      <trkpt lat="47.65386" lon="6.07278">
        <ele>249.38</ele>
        <time>2018-04-25T09:21:24Z</time>
      </trkpt>
      <trkpt lat="47.65388" lon="6.07285">
        <ele>249.33</ele>
        <time>2018-04-25T09:21:26Z</time>
      </trkpt>
      <trkpt lat="47.6539" lon="6.07292">
        <ele>249.26</ele>
        <time>2018-04-25T09:21:29Z</time>
      </trkpt>
      <trkpt lat="47.65392" lon="6.07301">
        <ele>249.18</ele>
        <time>2018-04-25T09:21:32Z</time>
      </trkpt>
      <trkpt lat="47.65394" lon="6.07309">
        <ele>249.11</ele>
        <time>2018-04-25T09:21:36Z</time>
      </trkpt>
      <trkpt lat="47.65397" lon="6.07315">
        <ele>249.06</ele>
        <time>2018-04-25T09:21:38Z</time>
      </trkpt>
      <trkpt lat="47.65399" lon="6.07322">
        <ele>248.98</ele>
        <time>2018-04-25T09:21:41Z</time>
      </trkpt>
      <trkpt lat="47.65402" lon="6.07329">
        <ele>248.93</ele>
        <time>2018-04-25T09:21:43Z</time>
      </trkpt>
      <trkpt lat="47.65405" lon="6.07337">
        <ele>248.89</ele>
        <time>2018-04-25T09:21:46Z</time>
      </trkpt>
      <trkpt lat="47.65406" lon="6.07344">
        <ele>248.84</ele>
        <time>2018-04-25T09:21:49Z</time>
      </trkpt>
      <trkpt lat="47.65408" lon="6.07351">
        <ele>248.8</ele>
        <time>2018-04-25T09:21:51Z</time>
      </trkpt>
      <trkpt lat="47.65411" lon="6.07359">
        <ele>248.75</ele>
        <time>2018-04-25T09:21:54Z</time>
      </trkpt>
      <trkpt lat="47.65417" lon="6.07364">
        <ele>248.69</ele>
        <time>2018-04-25T09:21:58Z</time>
      </trkpt>
      <trkpt lat="47.65423" lon="6.07364">
        <ele>248.67</ele>
        <time>2018-04-25T09:22:01Z</time>
      </trkpt>
      <trkpt lat="47.65428" lon="6.07368">
        <ele>248.66</ele>
        <time>2018-04-25T09:22:04Z</time>
      </trkpt>
      <trkpt lat="47.65432" lon="6.07369">
        <ele>248.66</ele>
        <time>2018-04-25T09:22:06Z</time>
      </trkpt>
      <trkpt lat="47.65438" lon="6.0737">
        <ele>248.66</ele>
        <time>2018-04-25T09:22:09Z</time>
      </trkpt>
      <trkpt lat="47.65445" lon="6.07372">
        <ele>248.66</ele>
        <time>2018-04-25T09:22:12Z</time>
      </trkpt>
      <trkpt lat="47.65452" lon="6.07371">
        <ele>248.66</ele>
        <time>2018-04-25T09:22:15Z</time>
      </trkpt>
      <trkpt lat="47.65458" lon="6.0737">
        <ele>248.65</ele>
        <time>2018-04-25T09:22:18Z</time>
      </trkpt>
      <trkpt lat="47.65463" lon="6.0737">
        <ele>248.64</ele>
        <time>2018-04-25T09:22:20Z</time>
      </trkpt>
      <trkpt lat="47.65469" lon="6.07369">
        <ele>248.63</ele>
        <time>2018-04-25T09:22:23Z</time>
      </trkpt>
      <trkpt lat="47.65473" lon="6.0737">
        <ele>248.63</ele>
        <time>2018-04-25T09:22:26Z</time>
      </trkpt>
      <trkpt lat="47.65479" lon="6.0737">
        <ele>248.62</ele>
        <time>2018-04-25T09:22:29Z</time>
      </trkpt>
      <trkpt lat="47.65484" lon="6.07369">
        <ele>248.61</ele>
        <time>2018-04-25T09:22:32Z</time>
      </trkpt>
      <trkpt lat="47.65489" lon="6.0737">
        <ele>248.61</ele>
        <time>2018-04-25T09:22:34Z</time>
      </trkpt>
      <trkpt lat="47.65493" lon="6.07372">
        <ele>248.6</ele>
        <time>2018-04-25T09:22:38Z</time>
      </trkpt>
      <trkpt lat="47.65499" lon="6.07372">
        <ele>248.64</ele>
        <time>2018-04-25T09:23:07Z</time>
      </trkpt>
      <trkpt lat="47.65504" lon="6.07374">
        <ele>248.68</ele>
        <time>2018-04-25T09:23:10Z</time>
      </trkpt>
      <trkpt lat="47.65508" lon="6.07376">
        <ele>248.71</ele>
        <time>2018-04-25T09:23:12Z</time>
      </trkpt>
      <trkpt lat="47.65514" lon="6.07377">
        <ele>248.74</ele>
        <time>2018-04-25T09:23:14Z</time>
      </trkpt>
      <trkpt lat="47.6552" lon="6.07379">
        <ele>248.77</ele>
        <time>2018-04-25T09:23:16Z</time>
      </trkpt>
      <trkpt lat="47.65526" lon="6.0738">
        <ele>248.81</ele>
        <time>2018-04-25T09:23:18Z</time>
      </trkpt>
      <trkpt lat="47.65532" lon="6.07382">
        <ele>248.84</ele>
        <time>2018-04-25T09:23:20Z</time>
      </trkpt>
      <trkpt lat="47.6554" lon="6.07388">
        <ele>249.11</ele>
        <time>2018-04-25T09:23:22Z</time>
      </trkpt>
      <trkpt lat="47.65547" lon="6.07393">
        <ele>249.28</ele>
        <time>2018-04-25T09:23:24Z</time>
      </trkpt>
      <trkpt lat="47.65553" lon="6.07399">
        <ele>249.3</ele>
        <time>2018-04-25T09:23:26Z</time>
      </trkpt>
      <trkpt lat="47.65561" lon="6.07402">
        <ele>249.41</ele>
        <time>2018-04-25T09:23:28Z</time>
      </trkpt>
      <trkpt lat="47.6557" lon="6.07404">
        <ele>249.47</ele>
        <time>2018-04-25T09:23:30Z</time>
      </trkpt>
      <trkpt lat="47.65575" lon="6.07403">
        <ele>249.52</ele>
        <time>2018-04-25T09:23:31Z</time>
      </trkpt>
      <trkpt lat="47.6558" lon="6.07402">
        <ele>249.58</ele>
        <time>2018-04-25T09:23:32Z</time>
      </trkpt>
      <trkpt lat="47.65585" lon="6.07402">
        <ele>249.66</ele>
        <time>2018-04-25T09:23:33Z</time>
      </trkpt>
      <trkpt lat="47.6559" lon="6.07402">
        <ele>249.75</ele>
        <time>2018-04-25T09:23:34Z</time>
      </trkpt>
      <trkpt lat="47.65596" lon="6.07401">
        <ele>249.83</ele>
        <time>2018-04-25T09:23:35Z</time>
      </trkpt>
      <trkpt lat="47.656" lon="6.07401">
        <ele>249.9</ele>
        <time>2018-04-25T09:23:36Z</time>
      </trkpt>
      <trkpt lat="47.65606" lon="6.07402">
        <ele>249.96</ele>
        <time>2018-04-25T09:23:37Z</time>
      </trkpt>
      <trkpt lat="47.65611" lon="6.07401">
        <ele>250.02</ele>
        <time>2018-04-25T09:23:38Z</time>
      </trkpt>
      <trkpt lat="47.65616" lon="6.07401">
        <ele>250.1</ele>
        <time>2018-04-25T09:23:39Z</time>
      </trkpt>
      <trkpt lat="47.65621" lon="6.07402">
        <ele>250.18</ele>
        <time>2018-04-25T09:23:40Z</time>
      </trkpt>
      <trkpt lat="47.65627" lon="6.07402">
        <ele>250.27</ele>
        <time>2018-04-25T09:23:41Z</time>
      </trkpt>
      <trkpt lat="47.65632" lon="6.07401">
        <ele>250.37</ele>
        <time>2018-04-25T09:23:42Z</time>
      </trkpt>
      <trkpt lat="47.65637" lon="6.07401">
        <ele>250.47</ele>
        <time>2018-04-25T09:23:43Z</time>
      </trkpt>
      <trkpt lat="47.65641" lon="6.07401">
        <ele>250.55</ele>
        <time>2018-04-25T09:23:44Z</time>
      </trkpt>
      <trkpt lat="47.65649" lon="6.07402">
        <ele>250.61</ele>
        <time>2018-04-25T09:23:46Z</time>
      </trkpt>
      <trkpt lat="47.65656" lon="6.07402">
        <ele>250.62</ele>
        <time>2018-04-25T09:23:48Z</time>
      </trkpt>
      <trkpt lat="47.65663" lon="6.07402">
        <ele>250.61</ele>
        <time>2018-04-25T09:23:50Z</time>
      </trkpt>
      <trkpt lat="47.6567" lon="6.07402">
        <ele>250.62</ele>
        <time>2018-04-25T09:23:52Z</time>
      </trkpt>
      <trkpt lat="47.65676" lon="6.07403">
        <ele>250.62</ele>
        <time>2018-04-25T09:23:54Z</time>
      </trkpt>
      <trkpt lat="47.65683" lon="6.07405">
        <ele>250.62</ele>
        <time>2018-04-25T09:23:56Z</time>
      </trkpt>
      <trkpt lat="47.65691" lon="6.07406">
        <ele>250.63</ele>
        <time>2018-04-25T09:23:58Z</time>
      </trkpt>
      <trkpt lat="47.65699" lon="6.07407">
        <ele>250.64</ele>
        <time>2018-04-25T09:24:00Z</time>
      </trkpt>
      <trkpt lat="47.65705" lon="6.07407">
        <ele>250.64</ele>
        <time>2018-04-25T09:24:02Z</time>
      </trkpt>
      <trkpt lat="47.65712" lon="6.07407">
        <ele>250.64</ele>
        <time>2018-04-25T09:24:04Z</time>
      </trkpt>
      <trkpt lat="47.65719" lon="6.07406">
        <ele>250.64</ele>
        <time>2018-04-25T09:24:06Z</time>
      </trkpt>
      <trkpt lat="47.65726" lon="6.07405">
        <ele>250.63</ele>
        <time>2018-04-25T09:24:08Z</time>
      </trkpt>
      <trkpt lat="47.65734" lon="6.07405">
        <ele>250.63</ele>
        <time>2018-04-25T09:24:10Z</time>
      </trkpt>
      <trkpt lat="47.65741" lon="6.07405">
        <ele>250.63</ele>
        <time>2018-04-25T09:24:12Z</time>
      </trkpt>
      <trkpt lat="47.65748" lon="6.07405">
        <ele>250.63</ele>
        <time>2018-04-25T09:24:14Z</time>
      </trkpt>
      <trkpt lat="47.65755" lon="6.07405">
        <ele>250.63</ele>
        <time>2018-04-25T09:24:16Z</time>
      </trkpt>
      <trkpt lat="47.65761" lon="6.07404">
        <ele>250.63</ele>
        <time>2018-04-25T09:24:18Z</time>
      </trkpt>
      <trkpt lat="47.65768" lon="6.07403">
        <ele>250.62</ele>
        <time>2018-04-25T09:24:20Z</time>
      </trkpt>
      <trkpt lat="47.65775" lon="6.07403">
        <ele>250.62</ele>
        <time>2018-04-25T09:24:22Z</time>
      </trkpt>
      <trkpt lat="47.65781" lon="6.07404">
        <ele>250.62</ele>
        <time>2018-04-25T09:24:24Z</time>
      </trkpt>
      <trkpt lat="47.65787" lon="6.07403">
        <ele>250.62</ele>
        <time>2018-04-25T09:24:26Z</time>
      </trkpt>
      <trkpt lat="47.65793" lon="6.07404">
        <ele>250.63</ele>
        <time>2018-04-25T09:24:28Z</time>
      </trkpt>
      <trkpt lat="47.65798" lon="6.07403">
        <ele>250.65</ele>
        <time>2018-04-25T09:24:30Z</time>
      </trkpt>
      <trkpt lat="47.65804" lon="6.07403">
        <ele>250.66</ele>
        <time>2018-04-25T09:24:32Z</time>
      </trkpt>
      <trkpt lat="47.65809" lon="6.07402">
        <ele>250.67</ele>
        <time>2018-04-25T09:24:34Z</time>
      </trkpt>
      <trkpt lat="47.65814" lon="6.07402">
        <ele>250.67</ele>
        <time>2018-04-25T09:24:36Z</time>
      </trkpt>
      <trkpt lat="47.6582" lon="6.07402">
        <ele>250.68</ele>
        <time>2018-04-25T09:24:38Z</time>
      </trkpt>
      <trkpt lat="47.65826" lon="6.07402">
        <ele>250.69</ele>
        <time>2018-04-25T09:24:40Z</time>
      </trkpt>
      <trkpt lat="47.65831" lon="6.07402">
        <ele>250.71</ele>
        <time>2018-04-25T09:24:42Z</time>
      </trkpt>
      <trkpt lat="47.65837" lon="6.07402">
        <ele>250.73</ele>
        <time>2018-04-25T09:24:44Z</time>
      </trkpt>
      <trkpt lat="47.65843" lon="6.07403">
        <ele>250.76</ele>
        <time>2018-04-25T09:24:46Z</time>
      </trkpt>
      <trkpt lat="47.65849" lon="6.07403">
        <ele>250.79</ele>
        <time>2018-04-25T09:24:48Z</time>
      </trkpt>
      <trkpt lat="47.65855" lon="6.07403">
        <ele>250.83</ele>
        <time>2018-04-25T09:24:50Z</time>
      </trkpt>
      <trkpt lat="47.6586" lon="6.07404">
        <ele>250.88</ele>
        <time>2018-04-25T09:24:52Z</time>
      </trkpt>
      <trkpt lat="47.65866" lon="6.07404">
        <ele>250.94</ele>
        <time>2018-04-25T09:24:54Z</time>
      </trkpt>
      <trkpt lat="47.65872" lon="6.07405">
        <ele>251.02</ele>
        <time>2018-04-25T09:24:56Z</time>
      </trkpt>
      <trkpt lat="47.65877" lon="6.07406">
        <ele>251.1</ele>
        <time>2018-04-25T09:24:58Z</time>
      </trkpt>
      <trkpt lat="47.65882" lon="6.07409">
        <ele>251.2</ele>
        <time>2018-04-25T09:25:00Z</time>
      </trkpt>
      <trkpt lat="47.65888" lon="6.07413">
        <ele>251.3</ele>
        <time>2018-04-25T09:25:02Z</time>
      </trkpt>
      <trkpt lat="47.65893" lon="6.07415">
        <ele>251.4</ele>
        <time>2018-04-25T09:25:04Z</time>
      </trkpt>
      <trkpt lat="47.65898" lon="6.07416">
        <ele>251.5</ele>
        <time>2018-04-25T09:25:06Z</time>
      </trkpt>
      <trkpt lat="47.65904" lon="6.07417">
        <ele>251.61</ele>
        <time>2018-04-25T09:25:08Z</time>
      </trkpt>
      <trkpt lat="47.65909" lon="6.07417">
        <ele>251.72</ele>
        <time>2018-04-25T09:25:10Z</time>
      </trkpt>
      <trkpt lat="47.65915" lon="6.07419">
        <ele>251.83</ele>
        <time>2018-04-25T09:25:12Z</time>
      </trkpt>
      <trkpt lat="47.65921" lon="6.07419">
        <ele>251.94</ele>
        <time>2018-04-25T09:25:14Z</time>
      </trkpt>
      <trkpt lat="47.65927" lon="6.07418">
        <ele>252.05</ele>
        <time>2018-04-25T09:25:16Z</time>
      </trkpt>
      <trkpt lat="47.65933" lon="6.07418">
        <ele>252.17</ele>
        <time>2018-04-25T09:25:18Z</time>
      </trkpt>
      <trkpt lat="47.6594" lon="6.07418">
        <ele>252.27</ele>
        <time>2018-04-25T09:25:20Z</time>
      </trkpt>
      <trkpt lat="47.65946" lon="6.07417">
        <ele>252.38</ele>
        <time>2018-04-25T09:25:22Z</time>
      </trkpt>
      <trkpt lat="47.65952" lon="6.07416">
        <ele>252.47</ele>
        <time>2018-04-25T09:25:24Z</time>
      </trkpt>
      <trkpt lat="47.65958" lon="6.07415">
        <ele>252.57</ele>
        <time>2018-04-25T09:25:26Z</time>
      </trkpt>
      <trkpt lat="47.65965" lon="6.07415">
        <ele>252.65</ele>
        <time>2018-04-25T09:25:28Z</time>
      </trkpt>
      <trkpt lat="47.65972" lon="6.07414">
        <ele>253.02</ele>
        <time>2018-04-25T09:25:30Z</time>
      </trkpt>
      <trkpt lat="47.65979" lon="6.07413">
        <ele>253.2</ele>
        <time>2018-04-25T09:25:32Z</time>
      </trkpt>
      <trkpt lat="47.65987" lon="6.07411">
        <ele>253.7</ele>
        <time>2018-04-25T09:25:34Z</time>
      </trkpt>
      <trkpt lat="47.65995" lon="6.0741">
        <ele>254.1</ele>
        <time>2018-04-25T09:25:36Z</time>
      </trkpt>
      <trkpt lat="47.66003" lon="6.07409">
        <ele>254.35</ele>
        <time>2018-04-25T09:25:38Z</time>
      </trkpt>
      <trkpt lat="47.66009" lon="6.07409">
        <ele>254.43</ele>
        <time>2018-04-25T09:25:39Z</time>
      </trkpt>
      <trkpt lat="47.66014" lon="6.07409">
        <ele>254.48</ele>
        <time>2018-04-25T09:25:40Z</time>
      </trkpt>
      <trkpt lat="47.66019" lon="6.0741">
        <ele>254.52</ele>
        <time>2018-04-25T09:25:41Z</time>
      </trkpt>
      <trkpt lat="47.66025" lon="6.07412">
        <ele>254.55</ele>
        <time>2018-04-25T09:25:42Z</time>
      </trkpt>
      <trkpt lat="47.6603" lon="6.07413">
        <ele>254.56</ele>
        <time>2018-04-25T09:25:43Z</time>
      </trkpt>
      <trkpt lat="47.66036" lon="6.07415">
        <ele>254.56</ele>
        <time>2018-04-25T09:25:44Z</time>
      </trkpt>
      <trkpt lat="47.66041" lon="6.07417">
        <ele>254.57</ele>
        <time>2018-04-25T09:25:45Z</time>
      </trkpt>
      <trkpt lat="47.66047" lon="6.07418">
        <ele>254.57</ele>
        <time>2018-04-25T09:25:46Z</time>
      </trkpt>
      <trkpt lat="47.66053" lon="6.07419">
        <ele>254.57</ele>
        <time>2018-04-25T09:25:47Z</time>
      </trkpt>
      <trkpt lat="47.66059" lon="6.0742">
        <ele>254.57</ele>
        <time>2018-04-25T09:25:48Z</time>
      </trkpt>
      <trkpt lat="47.66064" lon="6.07421">
        <ele>254.57</ele>
        <time>2018-04-25T09:25:49Z</time>
      </trkpt>
      <trkpt lat="47.66069" lon="6.07422">
        <ele>254.57</ele>
        <time>2018-04-25T09:25:50Z</time>
      </trkpt>
      <trkpt lat="47.66074" lon="6.07422">
        <ele>254.57</ele>
        <time>2018-04-25T09:25:51Z</time>
      </trkpt>
      <trkpt lat="47.66082" lon="6.07422">
        <ele>254.56</ele>
        <time>2018-04-25T09:25:53Z</time>
      </trkpt>
      <trkpt lat="47.66091" lon="6.07421">
        <ele>254.53</ele>
        <time>2018-04-25T09:25:55Z</time>
      </trkpt>
      <trkpt lat="47.66096" lon="6.07421">
        <ele>254.52</ele>
        <time>2018-04-25T09:25:56Z</time>
      </trkpt>
      <trkpt lat="47.66101" lon="6.07421">
        <ele>254.51</ele>
        <time>2018-04-25T09:25:57Z</time>
      </trkpt>
      <trkpt lat="47.66106" lon="6.07421">
        <ele>254.49</ele>
        <time>2018-04-25T09:25:58Z</time>
      </trkpt>
      <trkpt lat="47.66115" lon="6.07421">
        <ele>254.45</ele>
        <time>2018-04-25T09:26:00Z</time>
      </trkpt>
      <trkpt lat="47.66123" lon="6.07421">
        <ele>254.41</ele>
        <time>2018-04-25T09:26:02Z</time>
      </trkpt>
      <trkpt lat="47.66128" lon="6.07421">
        <ele>254.4</ele>
        <time>2018-04-25T09:26:03Z</time>
      </trkpt>
      <trkpt lat="47.66133" lon="6.07421">
        <ele>254.39</ele>
        <time>2018-04-25T09:26:04Z</time>
      </trkpt>
      <trkpt lat="47.66138" lon="6.07421">
        <ele>254.38</ele>
        <time>2018-04-25T09:26:05Z</time>
      </trkpt>
      <trkpt lat="47.66143" lon="6.07421">
        <ele>254.36</ele>
        <time>2018-04-25T09:26:06Z</time>
      </trkpt>
      <trkpt lat="47.66149" lon="6.07421">
        <ele>254.35</ele>
        <time>2018-04-25T09:26:07Z</time>
      </trkpt>
      <trkpt lat="47.66155" lon="6.07422">
        <ele>254.34</ele>
        <time>2018-04-25T09:26:08Z</time>
      </trkpt>
      <trkpt lat="47.66161" lon="6.07423">
        <ele>254.32</ele>
        <time>2018-04-25T09:26:09Z</time>
      </trkpt>
      <trkpt lat="47.66167" lon="6.07425">
        <ele>254.31</ele>
        <time>2018-04-25T09:26:10Z</time>
      </trkpt>
      <trkpt lat="47.66173" lon="6.07426">
        <ele>254.3</ele>
        <time>2018-04-25T09:26:11Z</time>
      </trkpt>
      <trkpt lat="47.66179" lon="6.07428">
        <ele>254.3</ele>
        <time>2018-04-25T09:26:12Z</time>
      </trkpt>
      <trkpt lat="47.66184" lon="6.07429">
        <ele>254.3</ele>
        <time>2018-04-25T09:26:13Z</time>
      </trkpt>
      <trkpt lat="47.6619" lon="6.07431">
        <ele>254.29</ele>
        <time>2018-04-25T09:26:14Z</time>
      </trkpt>
      <trkpt lat="47.66195" lon="6.07433">
        <ele>254.29</ele>
        <time>2018-04-25T09:26:15Z</time>
      </trkpt>
      <trkpt lat="47.66199" lon="6.07435">
        <ele>254.28</ele>
        <time>2018-04-25T09:26:16Z</time>
      </trkpt>
      <trkpt lat="47.66207" lon="6.0744">
        <ele>254.26</ele>
        <time>2018-04-25T09:26:18Z</time>
      </trkpt>
      <trkpt lat="47.66215" lon="6.07443">
        <ele>254.24</ele>
        <time>2018-04-25T09:26:20Z</time>
      </trkpt>
      <trkpt lat="47.66222" lon="6.07446">
        <ele>254.22</ele>
        <time>2018-04-25T09:26:22Z</time>
      </trkpt>
      <trkpt lat="47.6623" lon="6.07449">
        <ele>254.18</ele>
        <time>2018-04-25T09:26:24Z</time>
      </trkpt>
      <trkpt lat="47.66238" lon="6.07452">
        <ele>254.16</ele>
        <time>2018-04-25T09:26:26Z</time>
      </trkpt>
      <trkpt lat="47.66246" lon="6.07454">
        <ele>254.16</ele>
        <time>2018-04-25T09:26:28Z</time>
      </trkpt>
      <trkpt lat="47.66253" lon="6.07457">
        <ele>254.16</ele>
        <time>2018-04-25T09:26:30Z</time>
      </trkpt>
      <trkpt lat="47.6626" lon="6.07459">
        <ele>254.13</ele>
        <time>2018-04-25T09:26:32Z</time>
      </trkpt>
      <trkpt lat="47.66267" lon="6.07459">
        <ele>254.1</ele>
        <time>2018-04-25T09:26:34Z</time>
      </trkpt>
      <trkpt lat="47.66276" lon="6.07459">
        <ele>254.07</ele>
        <time>2018-04-25T09:26:36Z</time>
      </trkpt>
      <trkpt lat="47.66285" lon="6.07459">
        <ele>254.04</ele>
        <time>2018-04-25T09:26:38Z</time>
      </trkpt>
      <trkpt lat="47.66289" lon="6.0746">
        <ele>254.04</ele>
        <time>2018-04-25T09:26:39Z</time>
      </trkpt>
      <trkpt lat="47.66294" lon="6.07461">
        <ele>254.03</ele>
        <time>2018-04-25T09:26:40Z</time>
      </trkpt>
      <trkpt lat="47.66299" lon="6.07461">
        <ele>254.02</ele>
        <time>2018-04-25T09:26:41Z</time>
      </trkpt>
      <trkpt lat="47.66304" lon="6.0746">
        <ele>254</ele>
        <time>2018-04-25T09:26:42Z</time>
      </trkpt>
      <trkpt lat="47.66309" lon="6.0746">
        <ele>253.99</ele>
        <time>2018-04-25T09:26:43Z</time>
      </trkpt>
      <trkpt lat="47.66313" lon="6.07459">
        <ele>253.97</ele>
        <time>2018-04-25T09:26:44Z</time>
      </trkpt>
      <trkpt lat="47.66318" lon="6.07459">
        <ele>253.96</ele>
        <time>2018-04-25T09:26:45Z</time>
      </trkpt>
      <trkpt lat="47.66323" lon="6.07458">
        <ele>253.95</ele>
        <time>2018-04-25T09:26:46Z</time>
      </trkpt>
      <trkpt lat="47.66329" lon="6.07456">
        <ele>253.93</ele>
        <time>2018-04-25T09:26:47Z</time>
      </trkpt>
      <trkpt lat="47.66334" lon="6.07455">
        <ele>253.92</ele>
        <time>2018-04-25T09:26:48Z</time>
      </trkpt>
      <trkpt lat="47.6634" lon="6.07454">
        <ele>253.91</ele>
        <time>2018-04-25T09:26:49Z</time>
      </trkpt>
      <trkpt lat="47.66347" lon="6.07452">
        <ele>253.89</ele>
        <time>2018-04-25T09:26:50Z</time>
      </trkpt>
      <trkpt lat="47.66353" lon="6.07451">
        <ele>253.88</ele>
        <time>2018-04-25T09:26:51Z</time>
      </trkpt>
      <trkpt lat="47.6636" lon="6.0745">
        <ele>253.87</ele>
        <time>2018-04-25T09:26:52Z</time>
      </trkpt>
      <trkpt lat="47.66367" lon="6.07449">
        <ele>253.86</ele>
        <time>2018-04-25T09:26:53Z</time>
      </trkpt>
      <trkpt lat="47.66375" lon="6.07448">
        <ele>253.85</ele>
        <time>2018-04-25T09:26:54Z</time>
      </trkpt>
      <trkpt lat="47.66382" lon="6.07447">
        <ele>253.83</ele>
        <time>2018-04-25T09:26:55Z</time>
      </trkpt>
      <trkpt lat="47.66388" lon="6.07447">
        <ele>253.82</ele>
        <time>2018-04-25T09:26:56Z</time>
      </trkpt>
      <trkpt lat="47.66395" lon="6.07446">
        <ele>253.8</ele>
        <time>2018-04-25T09:26:57Z</time>
      </trkpt>
      <trkpt lat="47.66401" lon="6.07445">
        <ele>253.77</ele>
        <time>2018-04-25T09:26:58Z</time>
      </trkpt>
      <trkpt lat="47.66408" lon="6.07445">
        <ele>253.76</ele>
        <time>2018-04-25T09:26:59Z</time>
      </trkpt>
      <trkpt lat="47.66414" lon="6.07444">
        <ele>253.74</ele>
        <time>2018-04-25T09:27:00Z</time>
      </trkpt>
      <trkpt lat="47.66419" lon="6.07443">
        <ele>253.69</ele>
        <time>2018-04-25T09:27:01Z</time>
      </trkpt>
      <trkpt lat="47.66425" lon="6.07444">
        <ele>253.55</ele>
        <time>2018-04-25T09:27:02Z</time>
      </trkpt>
      <trkpt lat="47.6643" lon="6.07445">
        <ele>253.32</ele>
        <time>2018-04-25T09:27:03Z</time>
      </trkpt>
      <trkpt lat="47.66434" lon="6.07448">
        <ele>253.04</ele>
        <time>2018-04-25T09:27:04Z</time>
      </trkpt>
      <trkpt lat="47.66442" lon="6.07456">
        <ele>252.32</ele>
        <time>2018-04-25T09:27:06Z</time>
      </trkpt>
      <trkpt lat="47.66446" lon="6.07463">
        <ele>251.99</ele>
        <time>2018-04-25T09:27:07Z</time>
      </trkpt>
      <trkpt lat="47.6645" lon="6.07471">
        <ele>251.7</ele>
        <time>2018-04-25T09:27:08Z</time>
      </trkpt>
      <trkpt lat="47.66453" lon="6.07479">
        <ele>251.53</ele>
        <time>2018-04-25T09:27:09Z</time>
      </trkpt>
      <trkpt lat="47.66457" lon="6.07485">
        <ele>251.4</ele>
        <time>2018-04-25T09:27:10Z</time>
      </trkpt>
      <trkpt lat="47.66462" lon="6.07493">
        <ele>251.3</ele>
        <time>2018-04-25T09:27:11Z</time>
      </trkpt>
      <trkpt lat="47.66469" lon="6.07504">
        <ele>251.23</ele>
        <time>2018-04-25T09:27:12Z</time>
      </trkpt>
      <trkpt lat="47.66477" lon="6.07513">
        <ele>251.05</ele>
        <time>2018-04-25T09:27:13Z</time>
      </trkpt>
      <trkpt lat="47.66485" lon="6.07522">
        <ele>250.94</ele>
        <time>2018-04-25T09:27:14Z</time>
      </trkpt>
      <trkpt lat="47.66494" lon="6.0753">
        <ele>250.84</ele>
        <time>2018-04-25T09:27:15Z</time>
      </trkpt>
      <trkpt lat="47.66503" lon="6.07537">
        <ele>250.69</ele>
        <time>2018-04-25T09:27:16Z</time>
      </trkpt>
      <trkpt lat="47.66512" lon="6.07544">
        <ele>250.62</ele>
        <time>2018-04-25T09:27:17Z</time>
      </trkpt>
      <trkpt lat="47.66521" lon="6.07551">
        <ele>250.51</ele>
        <time>2018-04-25T09:27:18Z</time>
      </trkpt>
      <trkpt lat="47.66528" lon="6.0756">
        <ele>250.33</ele>
        <time>2018-04-25T09:27:19Z</time>
      </trkpt>
      <trkpt lat="47.66536" lon="6.07568">
        <ele>250.1</ele>
        <time>2018-04-25T09:27:20Z</time>
      </trkpt>
      <trkpt lat="47.66543" lon="6.07576">
        <ele>249.87</ele>
        <time>2018-04-25T09:27:21Z</time>
      </trkpt>
      <trkpt lat="47.6655" lon="6.07586">
        <ele>249.66</ele>
        <time>2018-04-25T09:27:22Z</time>
      </trkpt>
      <trkpt lat="47.66557" lon="6.07594">
        <ele>249.45</ele>
        <time>2018-04-25T09:27:23Z</time>
      </trkpt>
      <trkpt lat="47.66564" lon="6.07604">
        <ele>249.23</ele>
        <time>2018-04-25T09:27:24Z</time>
      </trkpt>
      <trkpt lat="47.6657" lon="6.07613">
        <ele>248.99</ele>
        <time>2018-04-25T09:27:25Z</time>
      </trkpt>
      <trkpt lat="47.66576" lon="6.07622">
        <ele>248.7</ele>
        <time>2018-04-25T09:27:26Z</time>
      </trkpt>
      <trkpt lat="47.66582" lon="6.07631">
        <ele>248.34</ele>
        <time>2018-04-25T09:27:27Z</time>
      </trkpt>
      <trkpt lat="47.66588" lon="6.07639">
        <ele>247.9</ele>
        <time>2018-04-25T09:27:28Z</time>
      </trkpt>
      <trkpt lat="47.66594" lon="6.07648">
        <ele>247.41</ele>
        <time>2018-04-25T09:27:29Z</time>
      </trkpt>
      <trkpt lat="47.666" lon="6.07656">
        <ele>246.92</ele>
        <time>2018-04-25T09:27:30Z</time>
      </trkpt>
      <trkpt lat="47.66606" lon="6.07663">
        <ele>246.46</ele>
        <time>2018-04-25T09:27:31Z</time>
      </trkpt>
      <trkpt lat="47.66612" lon="6.07671">
        <ele>246.02</ele>
        <time>2018-04-25T09:27:32Z</time>
      </trkpt>
      <trkpt lat="47.66617" lon="6.07679">
        <ele>245.6</ele>
        <time>2018-04-25T09:27:33Z</time>
      </trkpt>
      <trkpt lat="47.66623" lon="6.07686">
        <ele>245.21</ele>
        <time>2018-04-25T09:27:34Z</time>
      </trkpt>
      <trkpt lat="47.66629" lon="6.07692">
        <ele>244.84</ele>
        <time>2018-04-25T09:27:35Z</time>
      </trkpt>
      <trkpt lat="47.66635" lon="6.07699">
        <ele>244.49</ele>
        <time>2018-04-25T09:27:36Z</time>
      </trkpt>
      <trkpt lat="47.66641" lon="6.07705">
        <ele>244.15</ele>
        <time>2018-04-25T09:27:37Z</time>
      </trkpt>
      <trkpt lat="47.66646" lon="6.0771">
        <ele>243.82</ele>
        <time>2018-04-25T09:27:38Z</time>
      </trkpt>
      <trkpt lat="47.66652" lon="6.07715">
        <ele>243.51</ele>
        <time>2018-04-25T09:27:39Z</time>
      </trkpt>
      <trkpt lat="47.66658" lon="6.0772">
        <ele>243.23</ele>
        <time>2018-04-25T09:27:40Z</time>
      </trkpt>
      <trkpt lat="47.66664" lon="6.07724">
        <ele>242.95</ele>
        <time>2018-04-25T09:27:41Z</time>
      </trkpt>
      <trkpt lat="47.6667" lon="6.07728">
        <ele>242.69</ele>
        <time>2018-04-25T09:27:42Z</time>
      </trkpt>
      <trkpt lat="47.66675" lon="6.07732">
        <ele>242.43</ele>
        <time>2018-04-25T09:27:43Z</time>
      </trkpt>
      <trkpt lat="47.6668" lon="6.07737">
        <ele>242.17</ele>
        <time>2018-04-25T09:27:44Z</time>
      </trkpt>
      <trkpt lat="47.66685" lon="6.07742">
        <ele>241.92</ele>
        <time>2018-04-25T09:27:45Z</time>
      </trkpt>
      <trkpt lat="47.6669" lon="6.07747">
        <ele>241.69</ele>
        <time>2018-04-25T09:27:46Z</time>
      </trkpt>
      <trkpt lat="47.66695" lon="6.07752">
        <ele>241.49</ele>
        <time>2018-04-25T09:27:47Z</time>
      </trkpt>
      <trkpt lat="47.667" lon="6.07758">
        <ele>241.3</ele>
        <time>2018-04-25T09:27:48Z</time>
      </trkpt>
      <trkpt lat="47.66704" lon="6.07764">
        <ele>241.11</ele>
        <time>2018-04-25T09:27:49Z</time>
      </trkpt>
      <trkpt lat="47.66709" lon="6.07771">
        <ele>240.9</ele>
        <time>2018-04-25T09:27:50Z</time>
      </trkpt>
      <trkpt lat="47.66713" lon="6.07777">
        <ele>240.68</ele>
        <time>2018-04-25T09:27:51Z</time>
      </trkpt>
      <trkpt lat="47.66717" lon="6.07783">
        <ele>240.48</ele>
        <time>2018-04-25T09:27:52Z</time>
      </trkpt>
      <trkpt lat="47.66721" lon="6.0779">
        <ele>240.28</ele>
        <time>2018-04-25T09:27:53Z</time>
      </trkpt>
      <trkpt lat="47.66725" lon="6.07796">
        <ele>240.07</ele>
        <time>2018-04-25T09:27:54Z</time>
      </trkpt>
      <trkpt lat="47.66729" lon="6.07802">
        <ele>239.89</ele>
        <time>2018-04-25T09:27:55Z</time>
      </trkpt>
      <trkpt lat="47.66734" lon="6.07808">
        <ele>239.71</ele>
        <time>2018-04-25T09:27:56Z</time>
      </trkpt>
      <trkpt lat="47.66738" lon="6.07814">
        <ele>239.51</ele>
        <time>2018-04-25T09:27:57Z</time>
      </trkpt>
      <trkpt lat="47.66743" lon="6.0782">
        <ele>239.27</ele>
        <time>2018-04-25T09:27:58Z</time>
      </trkpt>
      <trkpt lat="47.66747" lon="6.07826">
        <ele>239.05</ele>
        <time>2018-04-25T09:27:59Z</time>
      </trkpt>
      <trkpt lat="47.66751" lon="6.07832">
        <ele>238.83</ele>
        <time>2018-04-25T09:28:00Z</time>
      </trkpt>
      <trkpt lat="47.66755" lon="6.07838">
        <ele>238.61</ele>
        <time>2018-04-25T09:28:01Z</time>
      </trkpt>
      <trkpt lat="47.66759" lon="6.07844">
        <ele>238.39</ele>
        <time>2018-04-25T09:28:02Z</time>
      </trkpt>
      <trkpt lat="47.66763" lon="6.0785">
        <ele>238.17</ele>
        <time>2018-04-25T09:28:03Z</time>
      </trkpt>
      <trkpt lat="47.66766" lon="6.07855">
        <ele>237.95</ele>
        <time>2018-04-25T09:28:04Z</time>
      </trkpt>
      <trkpt lat="47.66769" lon="6.0786">
        <ele>237.69</ele>
        <time>2018-04-25T09:28:05Z</time>
      </trkpt>
      <trkpt lat="47.66773" lon="6.07865">
        <ele>237.49</ele>
        <time>2018-04-25T09:28:06Z</time>
      </trkpt>
      <trkpt lat="47.66776" lon="6.0787">
        <ele>237.29</ele>
        <time>2018-04-25T09:28:07Z</time>
      </trkpt>
      <trkpt lat="47.66779" lon="6.07875">
        <ele>237.09</ele>
        <time>2018-04-25T09:28:08Z</time>
      </trkpt>
      <trkpt lat="47.66782" lon="6.0788">
        <ele>236.88</ele>
        <time>2018-04-25T09:28:09Z</time>
      </trkpt>
      <trkpt lat="47.66785" lon="6.07886">
        <ele>236.69</ele>
        <time>2018-04-25T09:28:10Z</time>
      </trkpt>
      <trkpt lat="47.66789" lon="6.07891">
        <ele>236.55</ele>
        <time>2018-04-25T09:28:11Z</time>
      </trkpt>
      <trkpt lat="47.66794" lon="6.079">
        <ele>236.29</ele>
        <time>2018-04-25T09:28:13Z</time>
      </trkpt>
      <trkpt lat="47.66798" lon="6.0791">
        <ele>236.21</ele>
        <time>2018-04-25T09:28:15Z</time>
      </trkpt>
      <trkpt lat="47.66801" lon="6.07917">
        <ele>236.16</ele>
        <time>2018-04-25T09:28:17Z</time>
      </trkpt>
      <trkpt lat="47.66804" lon="6.07924">
        <ele>236.08</ele>
        <time>2018-04-25T09:28:19Z</time>
      </trkpt>
      <trkpt lat="47.66807" lon="6.0793">
        <ele>235.98</ele>
        <time>2018-04-25T09:28:21Z</time>
      </trkpt>
      <trkpt lat="47.6681" lon="6.07936">
        <ele>235.89</ele>
        <time>2018-04-25T09:28:23Z</time>
      </trkpt>
      <trkpt lat="47.66813" lon="6.07942">
        <ele>235.78</ele>
        <time>2018-04-25T09:28:25Z</time>
      </trkpt>
      <trkpt lat="47.66816" lon="6.07949">
        <ele>235.69</ele>
        <time>2018-04-25T09:28:27Z</time>
      </trkpt>
      <trkpt lat="47.66819" lon="6.07957">
        <ele>235.59</ele>
        <time>2018-04-25T09:28:29Z</time>
      </trkpt>
      <trkpt lat="47.66823" lon="6.07964">
        <ele>235.48</ele>
        <time>2018-04-25T09:28:31Z</time>
      </trkpt>
      <trkpt lat="47.66826" lon="6.0797">
        <ele>235.37</ele>
        <time>2018-04-25T09:28:33Z</time>
      </trkpt>
      <trkpt lat="47.6683" lon="6.07975">
        <ele>235.24</ele>
        <time>2018-04-25T09:28:35Z</time>
      </trkpt>
      <trkpt lat="47.66838" lon="6.07975">
        <ele>235.03</ele>
        <time>2018-04-25T09:28:38Z</time>
      </trkpt>
      <trkpt lat="47.66845" lon="6.07968">
        <ele>233.9</ele>
        <time>2018-04-25T09:28:40Z</time>
      </trkpt>
      <trkpt lat="47.6685" lon="6.07963">
        <ele>233.31</ele>
        <time>2018-04-25T09:28:41Z</time>
      </trkpt>
      <trkpt lat="47.66854" lon="6.07959">
        <ele>232.77</ele>
        <time>2018-04-25T09:28:42Z</time>
      </trkpt>
      <trkpt lat="47.66859" lon="6.07957">
        <ele>232.26</ele>
        <time>2018-04-25T09:28:43Z</time>
      </trkpt>
      <trkpt lat="47.66864" lon="6.07955">
        <ele>231.78</ele>
        <time>2018-04-25T09:28:44Z</time>
      </trkpt>
      <trkpt lat="47.66869" lon="6.07956">
        <ele>231.31</ele>
        <time>2018-04-25T09:28:45Z</time>
      </trkpt>
      <trkpt lat="47.66873" lon="6.0796">
        <ele>230.88</ele>
        <time>2018-04-25T09:28:46Z</time>
      </trkpt>
      <trkpt lat="47.66877" lon="6.07965">
        <ele>230.49</ele>
        <time>2018-04-25T09:28:47Z</time>
      </trkpt>
      <trkpt lat="47.66882" lon="6.0797">
        <ele>230.12</ele>
        <time>2018-04-25T09:28:48Z</time>
      </trkpt>
      <trkpt lat="47.66885" lon="6.07974">
        <ele>229.8</ele>
        <time>2018-04-25T09:28:49Z</time>
      </trkpt>
      <trkpt lat="47.66891" lon="6.07982">
        <ele>229.35</ele>
        <time>2018-04-25T09:28:51Z</time>
      </trkpt>
      <trkpt lat="47.66895" lon="6.07987">
        <ele>229.19</ele>
        <time>2018-04-25T09:28:52Z</time>
      </trkpt>
      <trkpt lat="47.66899" lon="6.0799">
        <ele>229.07</ele>
        <time>2018-04-25T09:28:53Z</time>
      </trkpt>
      <trkpt lat="47.66902" lon="6.07994">
        <ele>228.93</ele>
        <time>2018-04-25T09:28:54Z</time>
      </trkpt>
      <trkpt lat="47.66906" lon="6.07999">
        <ele>228.77</ele>
        <time>2018-04-25T09:28:55Z</time>
      </trkpt>
      <trkpt lat="47.66909" lon="6.08005">
        <ele>228.61</ele>
        <time>2018-04-25T09:28:56Z</time>
      </trkpt>
      <trkpt lat="47.66912" lon="6.0801">
        <ele>228.55</ele>
        <time>2018-04-25T09:28:57Z</time>
      </trkpt>
      <trkpt lat="47.66919" lon="6.08012">
        <ele>228.44</ele>
        <time>2018-04-25T09:28:59Z</time>
      </trkpt>
      <trkpt lat="47.66925" lon="6.08005">
        <ele>228.39</ele>
        <time>2018-04-25T09:29:01Z</time>
      </trkpt>
      <trkpt lat="47.66929" lon="6.07998">
        <ele>228.36</ele>
        <time>2018-04-25T09:29:03Z</time>
      </trkpt>
      <trkpt lat="47.66935" lon="6.07991">
        <ele>228.33</ele>
        <time>2018-04-25T09:29:05Z</time>
      </trkpt>
      <trkpt lat="47.66941" lon="6.07984">
        <ele>228.28</ele>
        <time>2018-04-25T09:29:07Z</time>
      </trkpt>
      <trkpt lat="47.66946" lon="6.07976">
        <ele>228.05</ele>
        <time>2018-04-25T09:29:09Z</time>
      </trkpt>
      <trkpt lat="47.66952" lon="6.07968">
        <ele>227.72</ele>
        <time>2018-04-25T09:29:11Z</time>
      </trkpt>
      <trkpt lat="47.66956" lon="6.0796">
        <ele>227.65</ele>
        <time>2018-04-25T09:29:13Z</time>
      </trkpt>
      <trkpt lat="47.66961" lon="6.07952">
        <ele>227.61</ele>
        <time>2018-04-25T09:29:15Z</time>
      </trkpt>
      <trkpt lat="47.66965" lon="6.07944">
        <ele>227.56</ele>
        <time>2018-04-25T09:29:17Z</time>
      </trkpt>
      <trkpt lat="47.66968" lon="6.07937">
        <ele>227.5</ele>
        <time>2018-04-25T09:29:19Z</time>
      </trkpt>
      <trkpt lat="47.66972" lon="6.07931">
        <ele>227.45</ele>
        <time>2018-04-25T09:29:21Z</time>
      </trkpt>
      <trkpt lat="47.66975" lon="6.07924">
        <ele>227.4</ele>
        <time>2018-04-25T09:29:23Z</time>
      </trkpt>
      <trkpt lat="47.66979" lon="6.07919">
        <ele>227.35</ele>
        <time>2018-04-25T09:29:25Z</time>
      </trkpt>
      <trkpt lat="47.66983" lon="6.07915">
        <ele>227.29</ele>
        <time>2018-04-25T09:29:27Z</time>
      </trkpt>
      <trkpt lat="47.66988" lon="6.07912">
        <ele>227.24</ele>
        <time>2018-04-25T09:29:29Z</time>
      </trkpt>
      <trkpt lat="47.66994" lon="6.07914">
        <ele>227.15</ele>
        <time>2018-04-25T09:29:32Z</time>
      </trkpt>
      <trkpt lat="47.66999" lon="6.07918">
        <ele>227.08</ele>
        <time>2018-04-25T09:29:35Z</time>
      </trkpt>
      <trkpt lat="47.67005" lon="6.07922">
        <ele>227</ele>
        <time>2018-04-25T09:29:38Z</time>
      </trkpt>
      <trkpt lat="47.6701" lon="6.07923">
        <ele>226.95</ele>
        <time>2018-04-25T09:29:40Z</time>
      </trkpt>
      <trkpt lat="47.67016" lon="6.07924">
        <ele>226.87</ele>
        <time>2018-04-25T09:29:43Z</time>
      </trkpt>
      <trkpt lat="47.67021" lon="6.07923">
        <ele>226.82</ele>
        <time>2018-04-25T09:29:45Z</time>
      </trkpt>
      <trkpt lat="47.67027" lon="6.07921">
        <ele>226.75</ele>
        <time>2018-04-25T09:29:48Z</time>
      </trkpt>
      <trkpt lat="47.67033" lon="6.0792">
        <ele>226.69</ele>
        <time>2018-04-25T09:29:51Z</time>
      </trkpt>
      <trkpt lat="47.67038" lon="6.07917">
        <ele>226.63</ele>
        <time>2018-04-25T09:29:54Z</time>
      </trkpt>
      <trkpt lat="47.6704" lon="6.07912">
        <ele>226.57</ele>
        <time>2018-04-25T09:29:57Z</time>
      </trkpt>
      <trkpt lat="47.67044" lon="6.07907">
        <ele>226.52</ele>
        <time>2018-04-25T09:30:00Z</time>
      </trkpt>
      <trkpt lat="47.67048" lon="6.079">
        <ele>226.47</ele>
        <time>2018-04-25T09:30:03Z</time>
      </trkpt>
      <trkpt lat="47.67052" lon="6.07894">
        <ele>226.46</ele>
        <time>2018-04-25T09:30:05Z</time>
      </trkpt>
      <trkpt lat="47.67057" lon="6.0789">
        <ele>226.45</ele>
        <time>2018-04-25T09:30:07Z</time>
      </trkpt>
      <trkpt lat="47.67062" lon="6.07886">
        <ele>226.45</ele>
        <time>2018-04-25T09:30:10Z</time>
      </trkpt>
      <trkpt lat="47.67066" lon="6.07881">
        <ele>226.47</ele>
        <time>2018-04-25T09:30:13Z</time>
      </trkpt>
      <trkpt lat="47.67069" lon="6.07874">
        <ele>226.49</ele>
        <time>2018-04-25T09:30:16Z</time>
      </trkpt>
      <trkpt lat="47.67072" lon="6.07866">
        <ele>226.52</ele>
        <time>2018-04-25T09:30:18Z</time>
      </trkpt>
      <trkpt lat="47.67075" lon="6.07859">
        <ele>226.58</ele>
        <time>2018-04-25T09:30:21Z</time>
      </trkpt>
      <trkpt lat="47.67078" lon="6.07853">
        <ele>226.67</ele>
        <time>2018-04-25T09:30:25Z</time>
      </trkpt>
      <trkpt lat="47.67082" lon="6.07847">
        <ele>226.78</ele>
        <time>2018-04-25T09:30:30Z</time>
      </trkpt>
      <trkpt lat="47.67087" lon="6.07844">
        <ele>226.85</ele>
        <time>2018-04-25T09:30:33Z</time>
      </trkpt>
      <trkpt lat="47.67092" lon="6.07842">
        <ele>226.94</ele>
        <time>2018-04-25T09:30:37Z</time>
      </trkpt>
      <trkpt lat="47.67094" lon="6.07835">
        <ele>227.06</ele>
        <time>2018-04-25T09:30:42Z</time>
      </trkpt>
      <trkpt lat="47.67098" lon="6.07834">
        <ele>227.13</ele>
        <time>2018-04-25T09:30:45Z</time>
      </trkpt>
      <trkpt lat="47.67104" lon="6.07832">
        <ele>227.19</ele>
        <time>2018-04-25T09:30:48Z</time>
      </trkpt>
      <trkpt lat="47.6711" lon="6.07831">
        <ele>227.26</ele>
        <time>2018-04-25T09:30:51Z</time>
      </trkpt>
      <trkpt lat="47.67116" lon="6.07832">
        <ele>227.3</ele>
        <time>2018-04-25T09:30:53Z</time>
      </trkpt>
      <trkpt lat="47.67123" lon="6.07831">
        <ele>227.34</ele>
        <time>2018-04-25T09:30:55Z</time>
      </trkpt>
      <trkpt lat="47.67129" lon="6.07826">
        <ele>227.38</ele>
        <time>2018-04-25T09:30:57Z</time>
      </trkpt>
      <trkpt lat="47.67135" lon="6.07822">
        <ele>227.43</ele>
        <time>2018-04-25T09:30:59Z</time>
      </trkpt>
      <trkpt lat="47.67141" lon="6.07821">
        <ele>227.47</ele>
        <time>2018-04-25T09:31:01Z</time>
      </trkpt>
      <trkpt lat="47.67147" lon="6.07819">
        <ele>227.52</ele>
        <time>2018-04-25T09:31:03Z</time>
      </trkpt>
      <trkpt lat="47.67153" lon="6.07818">
        <ele>227.57</ele>
        <time>2018-04-25T09:31:05Z</time>
      </trkpt>
      <trkpt lat="47.67159" lon="6.07815">
        <ele>227.62</ele>
        <time>2018-04-25T09:31:07Z</time>
      </trkpt>
      <trkpt lat="47.67165" lon="6.07813">
        <ele>227.66</ele>
        <time>2018-04-25T09:31:09Z</time>
      </trkpt>
      <trkpt lat="47.6717" lon="6.07811">
        <ele>227.71</ele>
        <time>2018-04-25T09:31:11Z</time>
      </trkpt>
      <trkpt lat="47.67174" lon="6.07808">
        <ele>227.76</ele>
        <time>2018-04-25T09:31:13Z</time>
      </trkpt>
      <trkpt lat="47.6718" lon="6.07805">
        <ele>227.84</ele>
        <time>2018-04-25T09:31:16Z</time>
      </trkpt>
      <trkpt lat="47.67186" lon="6.07801">
        <ele>227.93</ele>
        <time>2018-04-25T09:31:19Z</time>
      </trkpt>
      <trkpt lat="47.67191" lon="6.07797">
        <ele>227.98</ele>
        <time>2018-04-25T09:31:21Z</time>
      </trkpt>
      <trkpt lat="47.67196" lon="6.07794">
        <ele>228.07</ele>
        <time>2018-04-25T09:31:24Z</time>
      </trkpt>
      <trkpt lat="47.672" lon="6.07792">
        <ele>228.13</ele>
        <time>2018-04-25T09:31:26Z</time>
      </trkpt>
      <trkpt lat="47.67205" lon="6.07789">
        <ele>228.22</ele>
        <time>2018-04-25T09:31:29Z</time>
      </trkpt>
      <trkpt lat="47.67211" lon="6.07785">
        <ele>228.31</ele>
        <time>2018-04-25T09:31:32Z</time>
      </trkpt>
      <trkpt lat="47.67216" lon="6.07782">
        <ele>228.4</ele>
        <time>2018-04-25T09:31:35Z</time>
      </trkpt>
      <trkpt lat="47.67221" lon="6.0778">
        <ele>228.46</ele>
        <time>2018-04-25T09:31:37Z</time>
      </trkpt>
      <trkpt lat="47.67227" lon="6.07778">
        <ele>228.55</ele>
        <time>2018-04-25T09:31:40Z</time>
      </trkpt>
      <trkpt lat="47.67231" lon="6.07774">
        <ele>228.64</ele>
        <time>2018-04-25T09:31:43Z</time>
      </trkpt>
      <trkpt lat="47.67236" lon="6.07772">
        <ele>228.74</ele>
        <time>2018-04-25T09:31:46Z</time>
      </trkpt>
      <trkpt lat="47.67239" lon="6.07765">
        <ele>228.84</ele>
        <time>2018-04-25T09:31:49Z</time>
      </trkpt>
      <trkpt lat="47.67244" lon="6.07757">
        <ele>228.95</ele>
        <time>2018-04-25T09:31:52Z</time>
      </trkpt>
      <trkpt lat="47.67247" lon="6.07752">
        <ele>229.02</ele>
        <time>2018-04-25T09:31:54Z</time>
      </trkpt>
      <trkpt lat="47.67251" lon="6.07746">
        <ele>229.1</ele>
        <time>2018-04-25T09:31:56Z</time>
      </trkpt>
      <trkpt lat="47.67254" lon="6.07739">
        <ele>229.22</ele>
        <time>2018-04-25T09:31:59Z</time>
      </trkpt>
      <trkpt lat="47.67256" lon="6.07733">
        <ele>229.38</ele>
        <time>2018-04-25T09:32:03Z</time>
      </trkpt>
      <trkpt lat="47.67259" lon="6.07724">
        <ele>229.46</ele>
        <time>2018-04-25T09:32:05Z</time>
      </trkpt>
      <trkpt lat="47.67261" lon="6.07715">
        <ele>229.54</ele>
        <time>2018-04-25T09:32:07Z</time>
      </trkpt>
      <trkpt lat="47.67264" lon="6.07706">
        <ele>229.65</ele>
        <time>2018-04-25T09:32:10Z</time>
      </trkpt>
      <trkpt lat="47.67267" lon="6.07699">
        <ele>229.73</ele>
        <time>2018-04-25T09:32:12Z</time>
      </trkpt>
      <trkpt lat="47.67269" lon="6.0769">
        <ele>229.79</ele>
        <time>2018-04-25T09:32:14Z</time>
      </trkpt>
      <trkpt lat="47.67272" lon="6.07682">
        <ele>229.87</ele>
        <time>2018-04-25T09:32:17Z</time>
      </trkpt>
      <trkpt lat="47.67275" lon="6.07678">
        <ele>229.92</ele>
        <time>2018-04-25T09:32:19Z</time>
      </trkpt>
      <trkpt lat="47.67279" lon="6.07671">
        <ele>229.99</ele>
        <time>2018-04-25T09:32:22Z</time>
      </trkpt>
      <trkpt lat="47.67285" lon="6.07665">
        <ele>230.07</ele>
        <time>2018-04-25T09:32:26Z</time>
      </trkpt>
      <trkpt lat="47.67287" lon="6.07657">
        <ele>230.08</ele>
        <time>2018-04-25T09:32:27Z</time>
      </trkpt>
      <trkpt lat="47.67293" lon="6.07653">
        <ele>230.11</ele>
        <time>2018-04-25T09:32:32Z</time>
      </trkpt>
      <trkpt lat="47.67297" lon="6.07648">
        <ele>230.12</ele>
        <time>2018-04-25T09:32:34Z</time>
      </trkpt>
      <trkpt lat="47.67302" lon="6.07641">
        <ele>230.11</ele>
        <time>2018-04-25T09:32:36Z</time>
      </trkpt>
      <trkpt lat="47.67307" lon="6.07637">
        <ele>230.1</ele>
        <time>2018-04-25T09:32:38Z</time>
      </trkpt>
      <trkpt lat="47.67312" lon="6.07636">
        <ele>230.07</ele>
        <time>2018-04-25T09:32:42Z</time>
      </trkpt>
      <trkpt lat="47.67316" lon="6.0763">
        <ele>230.04</ele>
        <time>2018-04-25T09:32:44Z</time>
      </trkpt>
      <trkpt lat="47.67321" lon="6.07625">
        <ele>229.97</ele>
        <time>2018-04-25T09:32:47Z</time>
      </trkpt>
      <trkpt lat="47.67326" lon="6.07618">
        <ele>229.93</ele>
        <time>2018-04-25T09:32:50Z</time>
      </trkpt>
      <trkpt lat="47.6733" lon="6.07609">
        <ele>229.89</ele>
        <time>2018-04-25T09:32:52Z</time>
      </trkpt>
      <trkpt lat="47.67334" lon="6.07604">
        <ele>229.86</ele>
        <time>2018-04-25T09:32:54Z</time>
      </trkpt>
      <trkpt lat="47.6734" lon="6.07598">
        <ele>229.83</ele>
        <time>2018-04-25T09:32:57Z</time>
      </trkpt>
      <trkpt lat="47.67343" lon="6.07594">
        <ele>229.85</ele>
        <time>2018-04-25T09:33:00Z</time>
      </trkpt>
      <trkpt lat="47.67348" lon="6.07592">
        <ele>229.91</ele>
        <time>2018-04-25T09:33:02Z</time>
      </trkpt>
      <trkpt lat="47.67353" lon="6.07587">
        <ele>229.95</ele>
        <time>2018-04-25T09:33:04Z</time>
      </trkpt>
      <trkpt lat="47.67358" lon="6.07581">
        <ele>230</ele>
        <time>2018-04-25T09:33:06Z</time>
      </trkpt>
      <trkpt lat="47.67363" lon="6.07577">
        <ele>230.05</ele>
        <time>2018-04-25T09:33:08Z</time>
      </trkpt>
      <trkpt lat="47.67367" lon="6.07571">
        <ele>230.13</ele>
        <time>2018-04-25T09:33:10Z</time>
      </trkpt>
      <trkpt lat="47.67372" lon="6.07566">
        <ele>230.27</ele>
        <time>2018-04-25T09:33:13Z</time>
      </trkpt>
      <trkpt lat="47.67376" lon="6.07561">
        <ele>230.41</ele>
        <time>2018-04-25T09:33:16Z</time>
      </trkpt>
      <trkpt lat="47.6738" lon="6.07556">
        <ele>230.58</ele>
        <time>2018-04-25T09:33:19Z</time>
      </trkpt>
      <trkpt lat="47.67386" lon="6.07549">
        <ele>230.67</ele>
        <time>2018-04-25T09:33:21Z</time>
      </trkpt>
      <trkpt lat="47.67391" lon="6.07542">
        <ele>230.75</ele>
        <time>2018-04-25T09:33:23Z</time>
      </trkpt>
      <trkpt lat="47.67396" lon="6.07535">
        <ele>230.87</ele>
        <time>2018-04-25T09:33:26Z</time>
      </trkpt>
      <trkpt lat="47.674" lon="6.0753">
        <ele>231.01</ele>
        <time>2018-04-25T09:33:29Z</time>
      </trkpt>
      <trkpt lat="47.67404" lon="6.07525">
        <ele>231.09</ele>
        <time>2018-04-25T09:33:31Z</time>
      </trkpt>
      <trkpt lat="47.67408" lon="6.0752">
        <ele>231.25</ele>
        <time>2018-04-25T09:33:34Z</time>
      </trkpt>
      <trkpt lat="47.67412" lon="6.07514">
        <ele>231.46</ele>
        <time>2018-04-25T09:33:37Z</time>
      </trkpt>
      <trkpt lat="47.6742" lon="6.07503">
        <ele>231.71</ele>
        <time>2018-04-25T09:33:40Z</time>
      </trkpt>
      <trkpt lat="47.67423" lon="6.07496">
        <ele>231.79</ele>
        <time>2018-04-25T09:33:41Z</time>
      </trkpt>
      <trkpt lat="47.67426" lon="6.0749">
        <ele>231.86</ele>
        <time>2018-04-25T09:33:42Z</time>
      </trkpt>
      <trkpt lat="47.67429" lon="6.07485">
        <ele>231.92</ele>
        <time>2018-04-25T09:33:43Z</time>
      </trkpt>
      <trkpt lat="47.67433" lon="6.0748">
        <ele>231.99</ele>
        <time>2018-04-25T09:33:44Z</time>
      </trkpt>
      <trkpt lat="47.67438" lon="6.0747">
        <ele>232.09</ele>
        <time>2018-04-25T09:33:46Z</time>
      </trkpt>
      <trkpt lat="47.67443" lon="6.07463">
        <ele>232.21</ele>
        <time>2018-04-25T09:33:48Z</time>
      </trkpt>
      <trkpt lat="47.67448" lon="6.07455">
        <ele>232.31</ele>
        <time>2018-04-25T09:33:50Z</time>
      </trkpt>
      <trkpt lat="47.67451" lon="6.07447">
        <ele>232.43</ele>
        <time>2018-04-25T09:33:52Z</time>
      </trkpt>
      <trkpt lat="47.67451" lon="6.07441">
        <ele>232.58</ele>
        <time>2018-04-25T09:33:54Z</time>
      </trkpt>
      <trkpt lat="47.6745" lon="6.07433">
        <ele>232.82</ele>
        <time>2018-04-25T09:33:56Z</time>
      </trkpt>
      <trkpt lat="47.67452" lon="6.07426">
        <ele>233.07</ele>
        <time>2018-04-25T09:33:58Z</time>
      </trkpt>
      <trkpt lat="47.67457" lon="6.07415">
        <ele>233.3</ele>
        <time>2018-04-25T09:34:00Z</time>
      </trkpt>
      <trkpt lat="47.6746" lon="6.07403">
        <ele>233.66</ele>
        <time>2018-04-25T09:34:03Z</time>
      </trkpt>
      <trkpt lat="47.67462" lon="6.07394">
        <ele>234.02</ele>
        <time>2018-04-25T09:34:06Z</time>
      </trkpt>
      <trkpt lat="47.67463" lon="6.07387">
        <ele>234.13</ele>
        <time>2018-04-25T09:34:07Z</time>
      </trkpt>
      <trkpt lat="47.67465" lon="6.0738">
        <ele>234.23</ele>
        <time>2018-04-25T09:34:08Z</time>
      </trkpt>
      <trkpt lat="47.67465" lon="6.07373">
        <ele>234.44</ele>
        <time>2018-04-25T09:34:10Z</time>
      </trkpt>
      <trkpt lat="47.67465" lon="6.07365">
        <ele>234.56</ele>
        <time>2018-04-25T09:34:11Z</time>
      </trkpt>
      <trkpt lat="47.67467" lon="6.07358">
        <ele>234.68</ele>
        <time>2018-04-25T09:34:12Z</time>
      </trkpt>
      <trkpt lat="47.67469" lon="6.07349">
        <ele>234.93</ele>
        <time>2018-04-25T09:34:14Z</time>
      </trkpt>
      <trkpt lat="47.67468" lon="6.0734">
        <ele>235.33</ele>
        <time>2018-04-25T09:34:17Z</time>
      </trkpt>
      <trkpt lat="47.67472" lon="6.0733">
        <ele>235.62</ele>
        <time>2018-04-25T09:34:19Z</time>
      </trkpt>
      <trkpt lat="47.67474" lon="6.07323">
        <ele>235.77</ele>
        <time>2018-04-25T09:34:20Z</time>
      </trkpt>
      <trkpt lat="47.67477" lon="6.07314">
        <ele>236.06</ele>
        <time>2018-04-25T09:34:22Z</time>
      </trkpt>
      <trkpt lat="47.67478" lon="6.07307">
        <ele>236.35</ele>
        <time>2018-04-25T09:34:24Z</time>
      </trkpt>
      <trkpt lat="47.67474" lon="6.07299">
        <ele>236.87</ele>
        <time>2018-04-25T09:34:27Z</time>
      </trkpt>
      <trkpt lat="47.67472" lon="6.07287">
        <ele>237.27</ele>
        <time>2018-04-25T09:34:29Z</time>
      </trkpt>
      <trkpt lat="47.67472" lon="6.07277">
        <ele>237.94</ele>
        <time>2018-04-25T09:34:32Z</time>
      </trkpt>
      <trkpt lat="47.67469" lon="6.07272">
        <ele>238.64</ele>
        <time>2018-04-25T09:34:35Z</time>
      </trkpt>
      <trkpt lat="47.6747" lon="6.07265">
        <ele>238.86</ele>
        <time>2018-04-25T09:34:36Z</time>
      </trkpt>
      <trkpt lat="47.67474" lon="6.07258">
        <ele>239.32</ele>
        <time>2018-04-25T09:34:38Z</time>
      </trkpt>
      <trkpt lat="47.67475" lon="6.0725">
        <ele>239.78</ele>
        <time>2018-04-25T09:34:40Z</time>
      </trkpt>
      <trkpt lat="47.67474" lon="6.07239">
        <ele>240.44</ele>
        <time>2018-04-25T09:34:44Z</time>
      </trkpt>
      <trkpt lat="47.67472" lon="6.07232">
        <ele>240.81</ele>
        <time>2018-04-25T09:34:46Z</time>
      </trkpt>
      <trkpt lat="47.67472" lon="6.07223">
        <ele>241.13</ele>
        <time>2018-04-25T09:34:48Z</time>
      </trkpt>
      <trkpt lat="47.67472" lon="6.07209">
        <ele>241.61</ele>
        <time>2018-04-25T09:34:51Z</time>
      </trkpt>
      <trkpt lat="47.67475" lon="6.07202">
        <ele>241.8</ele>
        <time>2018-04-25T09:34:52Z</time>
      </trkpt>
      <trkpt lat="47.67476" lon="6.07195">
        <ele>242.2</ele>
        <time>2018-04-25T09:34:54Z</time>
      </trkpt>
      <trkpt lat="47.67473" lon="6.07184">
        <ele>242.41</ele>
        <time>2018-04-25T09:34:55Z</time>
      </trkpt>
      <trkpt lat="47.67473" lon="6.07172">
        <ele>242.65</ele>
        <time>2018-04-25T09:34:56Z</time>
      </trkpt>
      <trkpt lat="47.67473" lon="6.07165">
        <ele>242.9</ele>
        <time>2018-04-25T09:34:57Z</time>
      </trkpt>
      <trkpt lat="47.67472" lon="6.07157">
        <ele>243.42</ele>
        <time>2018-04-25T09:34:59Z</time>
      </trkpt>
      <trkpt lat="47.67473" lon="6.0715">
        <ele>243.93</ele>
        <time>2018-04-25T09:35:01Z</time>
      </trkpt>
      <trkpt lat="47.67476" lon="6.07145">
        <ele>244.82</ele>
        <time>2018-04-25T09:35:15Z</time>
      </trkpt>
      <trkpt lat="47.6748" lon="6.07146">
        <ele>250.26</ele>
        <time>2018-04-25T09:36:10Z</time>
      </trkpt>
      <trkpt lat="47.67482" lon="6.07137">
        <ele>251.21</ele>
        <time>2018-04-25T09:36:16Z</time>
      </trkpt>
      <trkpt lat="47.67486" lon="6.07129">
        <ele>251.58</ele>
        <time>2018-04-25T09:36:18Z</time>
      </trkpt>
      <trkpt lat="47.67487" lon="6.0712">
        <ele>252.14</ele>
        <time>2018-04-25T09:36:21Z</time>
      </trkpt>
      <trkpt lat="47.67488" lon="6.07113">
        <ele>252.69</ele>
        <time>2018-04-25T09:36:24Z</time>
      </trkpt>
      <trkpt lat="47.67492" lon="6.07108">
        <ele>253.67</ele>
        <time>2018-04-25T09:36:37Z</time>
      </trkpt>
      <trkpt lat="47.67495" lon="6.07101">
        <ele>254.01</ele>
        <time>2018-04-25T09:36:40Z</time>
      </trkpt>
      <trkpt lat="47.67496" lon="6.07093">
        <ele>254.63</ele>
        <time>2018-04-25T09:36:44Z</time>
      </trkpt>
      <trkpt lat="47.67494" lon="6.07087">
        <ele>255.12</ele>
        <time>2018-04-25T09:36:48Z</time>
      </trkpt>
      <trkpt lat="47.67489" lon="6.07085">
        <ele>255.55</ele>
        <time>2018-04-25T09:36:57Z</time>
      </trkpt>
      <trkpt lat="47.6749" lon="6.07078">
        <ele>256.67</ele>
        <time>2018-04-25T09:37:12Z</time>
      </trkpt>
      <trkpt lat="47.67491" lon="6.07071">
        <ele>257.62</ele>
        <time>2018-04-25T09:37:25Z</time>
      </trkpt>
      <trkpt lat="47.67494" lon="6.07064">
        <ele>257.96</ele>
        <time>2018-04-25T09:37:28Z</time>
      </trkpt>
      <trkpt lat="47.67497" lon="6.07058">
        <ele>258.41</ele>
        <time>2018-04-25T09:37:33Z</time>
      </trkpt>
      <trkpt lat="47.67499" lon="6.0705">
        <ele>258.73</ele>
        <time>2018-04-25T09:37:36Z</time>
      </trkpt>
      <trkpt lat="47.67503" lon="6.07042">
        <ele>259.06</ele>
        <time>2018-04-25T09:37:39Z</time>
      </trkpt>
      <trkpt lat="47.67506" lon="6.07035">
        <ele>259.47</ele>
        <time>2018-04-25T09:37:43Z</time>
      </trkpt>
      <trkpt lat="47.67507" lon="6.07027">
        <ele>259.96</ele>
        <time>2018-04-25T09:37:48Z</time>
      </trkpt>
      <trkpt lat="47.67511" lon="6.07021">
        <ele>260.47</ele>
        <time>2018-04-25T09:37:54Z</time>
      </trkpt>
      <trkpt lat="47.67514" lon="6.07016">
        <ele>260.62</ele>
        <time>2018-04-25T09:37:56Z</time>
      </trkpt>
      <trkpt lat="47.67516" lon="6.07008">
        <ele>260.76</ele>
        <time>2018-04-25T09:37:58Z</time>
      </trkpt>
      <trkpt lat="47.67517" lon="6.06997">
        <ele>260.9</ele>
        <time>2018-04-25T09:38:00Z</time>
      </trkpt>
      <trkpt lat="47.67519" lon="6.06988">
        <ele>260.97</ele>
        <time>2018-04-25T09:38:01Z</time>
      </trkpt>
      <trkpt lat="47.67519" lon="6.0698">
        <ele>261.1</ele>
        <time>2018-04-25T09:38:03Z</time>
      </trkpt>
      <trkpt lat="47.67519" lon="6.06971">
        <ele>261.29</ele>
        <time>2018-04-25T09:38:06Z</time>
      </trkpt>
      <trkpt lat="47.67522" lon="6.0696">
        <ele>261.42</ele>
        <time>2018-04-25T09:38:08Z</time>
      </trkpt>
      <trkpt lat="47.67523" lon="6.06953">
        <ele>261.55</ele>
        <time>2018-04-25T09:38:10Z</time>
      </trkpt>
      <trkpt lat="47.67525" lon="6.06944">
        <ele>261.76</ele>
        <time>2018-04-25T09:38:13Z</time>
      </trkpt>
      <trkpt lat="47.67527" lon="6.06937">
        <ele>261.9</ele>
        <time>2018-04-25T09:38:15Z</time>
      </trkpt>
      <trkpt lat="47.67528" lon="6.06929">
        <ele>262.17</ele>
        <time>2018-04-25T09:38:19Z</time>
      </trkpt>
      <trkpt lat="47.67531" lon="6.06924">
        <ele>262.37</ele>
        <time>2018-04-25T09:38:22Z</time>
      </trkpt>
      <trkpt lat="47.67535" lon="6.06917">
        <ele>262.78</ele>
        <time>2018-04-25T09:38:28Z</time>
      </trkpt>
      <trkpt lat="47.67537" lon="6.0691">
        <ele>263.14</ele>
        <time>2018-04-25T09:38:33Z</time>
      </trkpt>
      <trkpt lat="47.6754" lon="6.06903">
        <ele>263.56</ele>
        <time>2018-04-25T09:38:40Z</time>
      </trkpt>
      <trkpt lat="47.67543" lon="6.06896">
        <ele>263.84</ele>
        <time>2018-04-25T09:38:44Z</time>
      </trkpt>
      <trkpt lat="47.67543" lon="6.06889">
        <ele>264.03</ele>
        <time>2018-04-25T09:38:47Z</time>
      </trkpt>
      <trkpt lat="47.67544" lon="6.06881">
        <ele>264.2</ele>
        <time>2018-04-25T09:38:50Z</time>
      </trkpt>
      <trkpt lat="47.67546" lon="6.06875">
        <ele>264.41</ele>
        <time>2018-04-25T09:38:54Z</time>
      </trkpt>
      <trkpt lat="47.6755" lon="6.06871">
        <ele>264.51</ele>
        <time>2018-04-25T09:38:56Z</time>
      </trkpt>
      <trkpt lat="47.67553" lon="6.06864">
        <ele>264.65</ele>
        <time>2018-04-25T09:38:59Z</time>
      </trkpt>
      <trkpt lat="47.67552" lon="6.06856">
        <ele>264.78</ele>
        <time>2018-04-25T09:39:02Z</time>
      </trkpt>
      <trkpt lat="47.67553" lon="6.06848">
        <ele>264.96</ele>
        <time>2018-04-25T09:39:07Z</time>
      </trkpt>
      <trkpt lat="47.67556" lon="6.06839">
        <ele>265.08</ele>
        <time>2018-04-25T09:39:11Z</time>
      </trkpt>
      <trkpt lat="47.67559" lon="6.0683">
        <ele>265.15</ele>
        <time>2018-04-25T09:39:14Z</time>
      </trkpt>
      <trkpt lat="47.6756" lon="6.06822">
        <ele>265.19</ele>
        <time>2018-04-25T09:39:16Z</time>
      </trkpt>
      <trkpt lat="47.6756" lon="6.06815">
        <ele>265.21</ele>
        <time>2018-04-25T09:39:18Z</time>
      </trkpt>
      <trkpt lat="47.67562" lon="6.06808">
        <ele>265.23</ele>
        <time>2018-04-25T09:39:21Z</time>
      </trkpt>
      <trkpt lat="47.67565" lon="6.06791">
        <ele>265.23</ele>
        <time>2018-04-25T09:39:23Z</time>
      </trkpt>
      <trkpt lat="47.67567" lon="6.0678">
        <ele>265.24</ele>
        <time>2018-04-25T09:39:24Z</time>
      </trkpt>
      <trkpt lat="47.67569" lon="6.06769">
        <ele>265.24</ele>
        <time>2018-04-25T09:39:25Z</time>
      </trkpt>
      <trkpt lat="47.67569" lon="6.06762">
        <ele>265.25</ele>
        <time>2018-04-25T09:39:26Z</time>
      </trkpt>
      <trkpt lat="47.6757" lon="6.06744">
        <ele>265.26</ele>
        <time>2018-04-25T09:39:28Z</time>
      </trkpt>
      <trkpt lat="47.67569" lon="6.06737">
        <ele>265.28</ele>
        <time>2018-04-25T09:39:30Z</time>
      </trkpt>
      <trkpt lat="47.67567" lon="6.06729">
        <ele>265.3</ele>
        <time>2018-04-25T09:39:33Z</time>
      </trkpt>
      <trkpt lat="47.67571" lon="6.06713">
        <ele>265.31</ele>
        <time>2018-04-25T09:39:35Z</time>
      </trkpt>
      <trkpt lat="47.67572" lon="6.06707">
        <ele>265.34</ele>
        <time>2018-04-25T09:39:39Z</time>
      </trkpt>
      <trkpt lat="47.67572" lon="6.067">
        <ele>265.36</ele>
        <time>2018-04-25T09:39:41Z</time>
      </trkpt>
      <trkpt lat="47.67569" lon="6.06694">
        <ele>265.38</ele>
        <time>2018-04-25T09:39:44Z</time>
      </trkpt>
      <trkpt lat="47.67567" lon="6.06686">
        <ele>265.4</ele>
        <time>2018-04-25T09:39:46Z</time>
      </trkpt>
      <trkpt lat="47.67569" lon="6.06676">
        <ele>265.4</ele>
        <time>2018-04-25T09:39:49Z</time>
      </trkpt>
      <trkpt lat="47.67572" lon="6.06664">
        <ele>265.4</ele>
        <time>2018-04-25T09:39:51Z</time>
      </trkpt>
      <trkpt lat="47.67576" lon="6.06657">
        <ele>265.41</ele>
        <time>2018-04-25T09:39:53Z</time>
      </trkpt>
      <trkpt lat="47.67581" lon="6.06651">
        <ele>265.42</ele>
        <time>2018-04-25T09:39:57Z</time>
      </trkpt>
      <trkpt lat="47.67582" lon="6.06643">
        <ele>265.43</ele>
        <time>2018-04-25T09:40:00Z</time>
      </trkpt>
      <trkpt lat="47.67585" lon="6.06635">
        <ele>265.43</ele>
        <time>2018-04-25T09:40:05Z</time>
      </trkpt>
      <trkpt lat="47.67587" lon="6.06628">
        <ele>265.42</ele>
        <time>2018-04-25T09:40:07Z</time>
      </trkpt>
      <trkpt lat="47.6759" lon="6.0662">
        <ele>265.4</ele>
        <time>2018-04-25T09:40:10Z</time>
      </trkpt>
      <trkpt lat="47.67593" lon="6.06612">
        <ele>265.4</ele>
        <time>2018-04-25T09:40:11Z</time>
      </trkpt>
      <trkpt lat="47.67595" lon="6.06604">
        <ele>265.39</ele>
        <time>2018-04-25T09:40:12Z</time>
      </trkpt>
      <trkpt lat="47.67599" lon="6.06597">
        <ele>265.38</ele>
        <time>2018-04-25T09:40:15Z</time>
      </trkpt>
      <trkpt lat="47.67606" lon="6.06588">
        <ele>265.35</ele>
        <time>2018-04-25T09:40:20Z</time>
      </trkpt>
      <trkpt lat="47.67609" lon="6.06582">
        <ele>265.34</ele>
        <time>2018-04-25T09:40:23Z</time>
      </trkpt>
      <trkpt lat="47.67613" lon="6.06574">
        <ele>265.31</ele>
        <time>2018-04-25T09:40:28Z</time>
      </trkpt>
      <trkpt lat="47.67617" lon="6.06566">
        <ele>265.29</ele>
        <time>2018-04-25T09:40:30Z</time>
      </trkpt>
      <trkpt lat="47.67621" lon="6.06555">
        <ele>265.27</ele>
        <time>2018-04-25T09:40:34Z</time>
      </trkpt>
      <trkpt lat="47.67619" lon="6.06549">
        <ele>265.25</ele>
        <time>2018-04-25T09:40:37Z</time>
      </trkpt>
      <trkpt lat="47.67618" lon="6.06543">
        <ele>265.22</ele>
        <time>2018-04-25T09:40:40Z</time>
      </trkpt>
      <trkpt lat="47.67618" lon="6.06535">
        <ele>265.2</ele>
        <time>2018-04-25T09:40:42Z</time>
      </trkpt>
      <trkpt lat="47.67623" lon="6.06525">
        <ele>265.15</ele>
        <time>2018-04-25T09:40:46Z</time>
      </trkpt>
      <trkpt lat="47.67627" lon="6.06515">
        <ele>265.12</ele>
        <time>2018-04-25T09:40:50Z</time>
      </trkpt>
      <trkpt lat="47.67629" lon="6.06508">
        <ele>265.08</ele>
        <time>2018-04-25T09:40:55Z</time>
      </trkpt>
      <trkpt lat="47.67633" lon="6.06503">
        <ele>265.08</ele>
        <time>2018-04-25T09:40:56Z</time>
      </trkpt>
      <trkpt lat="47.67634" lon="6.06495">
        <ele>265.05</ele>
        <time>2018-04-25T09:41:01Z</time>
      </trkpt>
      <trkpt lat="47.67637" lon="6.06488">
        <ele>265.04</ele>
        <time>2018-04-25T09:41:03Z</time>
      </trkpt>
      <trkpt lat="47.67646" lon="6.06477">
        <ele>265.02</ele>
        <time>2018-04-25T09:41:05Z</time>
      </trkpt>
      <trkpt lat="47.67648" lon="6.0647">
        <ele>265.02</ele>
        <time>2018-04-25T09:41:06Z</time>
      </trkpt>
      <trkpt lat="47.67651" lon="6.06464">
        <ele>265.02</ele>
        <time>2018-04-25T09:41:07Z</time>
      </trkpt>
      <trkpt lat="47.67654" lon="6.06458">
        <ele>265.03</ele>
        <time>2018-04-25T09:41:09Z</time>
      </trkpt>
      <trkpt lat="47.67658" lon="6.06452">
        <ele>265.06</ele>
        <time>2018-04-25T09:41:12Z</time>
      </trkpt>
      <trkpt lat="47.67662" lon="6.06444">
        <ele>265.13</ele>
        <time>2018-04-25T09:41:17Z</time>
      </trkpt>
      <trkpt lat="47.67662" lon="6.06436">
        <ele>265.19</ele>
        <time>2018-04-25T09:41:21Z</time>
      </trkpt>
      <trkpt lat="47.67666" lon="6.06424">
        <ele>265.24</ele>
        <time>2018-04-25T09:41:25Z</time>
      </trkpt>
      <trkpt lat="47.6767" lon="6.06416">
        <ele>265.29</ele>
        <time>2018-04-25T09:41:28Z</time>
      </trkpt>
      <trkpt lat="47.67672" lon="6.0641">
        <ele>265.33</ele>
        <time>2018-04-25T09:41:30Z</time>
      </trkpt>
      <trkpt lat="47.67673" lon="6.06403">
        <ele>265.39</ele>
        <time>2018-04-25T09:41:33Z</time>
      </trkpt>
      <trkpt lat="47.67675" lon="6.06396">
        <ele>265.48</ele>
        <time>2018-04-25T09:41:37Z</time>
      </trkpt>
      <trkpt lat="47.67678" lon="6.06391">
        <ele>265.52</ele>
        <time>2018-04-25T09:41:39Z</time>
      </trkpt>
      <trkpt lat="47.67681" lon="6.06384">
        <ele>265.6</ele>
        <time>2018-04-25T09:41:43Z</time>
      </trkpt>
      <trkpt lat="47.67685" lon="6.0638">
        <ele>265.66</ele>
        <time>2018-04-25T09:41:47Z</time>
      </trkpt>
      <trkpt lat="47.67689" lon="6.06376">
        <ele>265.7</ele>
        <time>2018-04-25T09:41:50Z</time>
      </trkpt>
      <trkpt lat="47.67693" lon="6.0637">
        <ele>265.73</ele>
        <time>2018-04-25T09:41:54Z</time>
      </trkpt>
      <trkpt lat="47.67698" lon="6.06369">
        <ele>265.75</ele>
        <time>2018-04-25T09:41:56Z</time>
      </trkpt>
      <trkpt lat="47.67703" lon="6.06365">
        <ele>265.78</ele>
        <time>2018-04-25T09:41:59Z</time>
      </trkpt>
      <trkpt lat="47.67707" lon="6.06363">
        <ele>265.82</ele>
        <time>2018-04-25T09:42:03Z</time>
      </trkpt>
      <trkpt lat="47.67711" lon="6.06355">
        <ele>265.85</ele>
        <time>2018-04-25T09:42:06Z</time>
      </trkpt>
      <trkpt lat="47.67715" lon="6.06354">
        <ele>265.87</ele>
        <time>2018-04-25T09:42:10Z</time>
      </trkpt>
      <trkpt lat="47.6772" lon="6.0635">
        <ele>265.89</ele>
        <time>2018-04-25T09:42:15Z</time>
      </trkpt>
      <trkpt lat="47.67722" lon="6.06339">
        <ele>265.9</ele>
        <time>2018-04-25T09:42:18Z</time>
      </trkpt>
      <trkpt lat="47.67725" lon="6.06333">
        <ele>265.9</ele>
        <time>2018-04-25T09:42:22Z</time>
      </trkpt>
      <trkpt lat="47.6773" lon="6.06326">
        <ele>265.89</ele>
        <time>2018-04-25T09:42:24Z</time>
      </trkpt>
      <trkpt lat="47.67735" lon="6.06322">
        <ele>265.88</ele>
        <time>2018-04-25T09:42:27Z</time>
      </trkpt>
      <trkpt lat="47.67738" lon="6.06317">
        <ele>265.85</ele>
        <time>2018-04-25T09:42:31Z</time>
      </trkpt>
      <trkpt lat="47.67741" lon="6.06312">
        <ele>265.81</ele>
        <time>2018-04-25T09:42:36Z</time>
      </trkpt>
      <trkpt lat="47.67745" lon="6.06307">
        <ele>265.79</ele>
        <time>2018-04-25T09:42:39Z</time>
      </trkpt>
      <trkpt lat="47.6775" lon="6.06303">
        <ele>265.77</ele>
        <time>2018-04-25T09:42:42Z</time>
      </trkpt>
      <trkpt lat="47.67755" lon="6.06298">
        <ele>265.75</ele>
        <time>2018-04-25T09:42:44Z</time>
      </trkpt>
      <trkpt lat="47.67758" lon="6.06292">
        <ele>265.74</ele>
        <time>2018-04-25T09:42:46Z</time>
      </trkpt>
      <trkpt lat="47.67761" lon="6.06287">
        <ele>265.72</ele>
        <time>2018-04-25T09:42:48Z</time>
      </trkpt>
      <trkpt lat="47.67763" lon="6.06279">
        <ele>265.68</ele>
        <time>2018-04-25T09:42:51Z</time>
      </trkpt>
      <trkpt lat="47.67766" lon="6.0627">
        <ele>265.64</ele>
        <time>2018-04-25T09:42:54Z</time>
      </trkpt>
      <trkpt lat="47.6777" lon="6.06265">
        <ele>265.62</ele>
        <time>2018-04-25T09:42:56Z</time>
      </trkpt>
      <trkpt lat="47.67774" lon="6.06259">
        <ele>265.59</ele>
        <time>2018-04-25T09:42:58Z</time>
      </trkpt>
      <trkpt lat="47.6778" lon="6.06248">
        <ele>265.55</ele>
        <time>2018-04-25T09:43:01Z</time>
      </trkpt>
      <trkpt lat="47.67784" lon="6.06241">
        <ele>265.53</ele>
        <time>2018-04-25T09:43:02Z</time>
      </trkpt>
      <trkpt lat="47.67787" lon="6.06235">
        <ele>265.51</ele>
        <time>2018-04-25T09:43:03Z</time>
      </trkpt>
      <trkpt lat="47.67789" lon="6.06229">
        <ele>265.49</ele>
        <time>2018-04-25T09:43:04Z</time>
      </trkpt>
      <trkpt lat="47.67789" lon="6.06219">
        <ele>265.45</ele>
        <time>2018-04-25T09:43:06Z</time>
      </trkpt>
      <trkpt lat="47.67788" lon="6.06206">
        <ele>265.41</ele>
        <time>2018-04-25T09:43:08Z</time>
      </trkpt>
      <trkpt lat="47.67784" lon="6.06199">
        <ele>265.37</ele>
        <time>2018-04-25T09:43:10Z</time>
      </trkpt>
      <trkpt lat="47.67784" lon="6.0619">
        <ele>265.32</ele>
        <time>2018-04-25T09:43:12Z</time>
      </trkpt>
      <trkpt lat="47.67786" lon="6.06181">
        <ele>265.26</ele>
        <time>2018-04-25T09:43:14Z</time>
      </trkpt>
      <trkpt lat="47.67789" lon="6.06173">
        <ele>265.18</ele>
        <time>2018-04-25T09:43:17Z</time>
      </trkpt>
      <trkpt lat="47.67792" lon="6.06166">
        <ele>265.15</ele>
        <time>2018-04-25T09:43:18Z</time>
      </trkpt>
      <trkpt lat="47.67795" lon="6.06159">
        <ele>265.12</ele>
        <time>2018-04-25T09:43:19Z</time>
      </trkpt>
      <trkpt lat="47.67801" lon="6.06156">
        <ele>265.01</ele>
        <time>2018-04-25T09:43:23Z</time>
      </trkpt>
      <trkpt lat="47.67806" lon="6.06151">
        <ele>264.96</ele>
        <time>2018-04-25T09:43:25Z</time>
      </trkpt>
      <trkpt lat="47.67812" lon="6.06145">
        <ele>264.84</ele>
        <time>2018-04-25T09:43:30Z</time>
      </trkpt>
      <trkpt lat="47.67817" lon="6.06143">
        <ele>264.8</ele>
        <time>2018-04-25T09:43:32Z</time>
      </trkpt>
      <trkpt lat="47.67819" lon="6.06134">
        <ele>264.77</ele>
        <time>2018-04-25T09:43:34Z</time>
      </trkpt>
      <trkpt lat="47.67818" lon="6.06126">
        <ele>264.71</ele>
        <time>2018-04-25T09:43:39Z</time>
      </trkpt>
      <trkpt lat="47.6782" lon="6.06133">
        <ele>264.67</ele>
        <time>2018-04-25T09:43:47Z</time>
      </trkpt>
      <trkpt lat="47.6782" lon="6.06144">
        <ele>264.67</ele>
        <time>2018-04-25T09:43:49Z</time>
      </trkpt>
      <trkpt lat="47.6782" lon="6.06155">
        <ele>264.66</ele>
        <time>2018-04-25T09:43:51Z</time>
      </trkpt>
      <trkpt lat="47.67822" lon="6.06164">
        <ele>264.65</ele>
        <time>2018-04-25T09:43:53Z</time>
      </trkpt>
      <trkpt lat="47.67823" lon="6.06173">
        <ele>264.65</ele>
        <time>2018-04-25T09:43:56Z</time>
      </trkpt>
      <trkpt lat="47.67824" lon="6.0618">
        <ele>264.65</ele>
        <time>2018-04-25T09:43:58Z</time>
      </trkpt>
      <trkpt lat="47.67826" lon="6.06189">
        <ele>264.64</ele>
        <time>2018-04-25T09:44:01Z</time>
      </trkpt>
      <trkpt lat="47.67828" lon="6.06198">
        <ele>264.64</ele>
        <time>2018-04-25T09:44:04Z</time>
      </trkpt>
      <trkpt lat="47.67831" lon="6.06204">
        <ele>264.63</ele>
        <time>2018-04-25T09:44:06Z</time>
      </trkpt>
      <trkpt lat="47.67835" lon="6.06211">
        <ele>264.63</ele>
        <time>2018-04-25T09:44:08Z</time>
      </trkpt>
      <trkpt lat="47.67838" lon="6.06219">
        <ele>264.62</ele>
        <time>2018-04-25T09:44:10Z</time>
      </trkpt>
      <trkpt lat="47.6784" lon="6.06226">
        <ele>264.61</ele>
        <time>2018-04-25T09:44:12Z</time>
      </trkpt>
      <trkpt lat="47.67842" lon="6.06234">
        <ele>264.59</ele>
        <time>2018-04-25T09:44:15Z</time>
      </trkpt>
      <trkpt lat="47.67846" lon="6.0624">
        <ele>264.56</ele>
        <time>2018-04-25T09:44:18Z</time>
      </trkpt>
      <trkpt lat="47.67851" lon="6.06248">
        <ele>264.54</ele>
        <time>2018-04-25T09:44:21Z</time>
      </trkpt>
      <trkpt lat="47.67858" lon="6.06254">
        <ele>264.52</ele>
        <time>2018-04-25T09:44:23Z</time>
      </trkpt>
      <trkpt lat="47.67863" lon="6.06259">
        <ele>264.51</ele>
        <time>2018-04-25T09:44:25Z</time>
      </trkpt>
      <trkpt lat="47.67868" lon="6.06265">
        <ele>264.48</ele>
        <time>2018-04-25T09:44:28Z</time>
      </trkpt>
      <trkpt lat="47.6787" lon="6.06271">
        <ele>264.46</ele>
        <time>2018-04-25T09:44:31Z</time>
      </trkpt>
      <trkpt lat="47.67877" lon="6.06278">
        <ele>264.44</ele>
        <time>2018-04-25T09:44:35Z</time>
      </trkpt>
      <trkpt lat="47.67881" lon="6.06284">
        <ele>264.43</ele>
        <time>2018-04-25T09:44:38Z</time>
      </trkpt>
      <trkpt lat="47.67884" lon="6.0629">
        <ele>264.4</ele>
        <time>2018-04-25T09:44:44Z</time>
      </trkpt>
      <trkpt lat="47.67888" lon="6.06294">
        <ele>264.39</ele>
        <time>2018-04-25T09:44:51Z</time>
      </trkpt>
      <trkpt lat="47.67893" lon="6.06296">
        <ele>264.38</ele>
        <time>2018-04-25T09:45:07Z</time>
      </trkpt>
      <trkpt lat="47.67899" lon="6.06301">
        <ele>264.37</ele>
        <time>2018-04-25T09:45:09Z</time>
      </trkpt>
      <trkpt lat="47.67905" lon="6.06304">
        <ele>264.36</ele>
        <time>2018-04-25T09:45:11Z</time>
      </trkpt>
      <trkpt lat="47.6791" lon="6.06306">
        <ele>264.34</ele>
        <time>2018-04-25T09:45:14Z</time>
      </trkpt>
      <trkpt lat="47.67914" lon="6.06311">
        <ele>264.32</ele>
        <time>2018-04-25T09:45:18Z</time>
      </trkpt>
      <trkpt lat="47.6792" lon="6.06311">
        <ele>264.31</ele>
        <time>2018-04-25T09:45:22Z</time>
      </trkpt>
      <trkpt lat="47.67925" lon="6.06312">
        <ele>264.3</ele>
        <time>2018-04-25T09:45:26Z</time>
      </trkpt>
      <trkpt lat="47.6793" lon="6.06315">
        <ele>264.29</ele>
        <time>2018-04-25T09:45:29Z</time>
      </trkpt>
      <trkpt lat="47.67935" lon="6.06315">
        <ele>264.29</ele>
        <time>2018-04-25T09:45:36Z</time>
      </trkpt>
      <trkpt lat="47.67939" lon="6.06321">
        <ele>264.32</ele>
        <time>2018-04-25T09:45:43Z</time>
      </trkpt>
      <trkpt lat="47.67942" lon="6.06326">
        <ele>264.35</ele>
        <time>2018-04-25T09:45:48Z</time>
      </trkpt>
      <trkpt lat="47.67946" lon="6.06329">
        <ele>264.38</ele>
        <time>2018-04-25T09:45:51Z</time>
      </trkpt>
      <trkpt lat="47.6795" lon="6.06335">
        <ele>264.4</ele>
        <time>2018-04-25T09:45:55Z</time>
      </trkpt>
      <trkpt lat="47.67953" lon="6.0634">
        <ele>264.42</ele>
        <time>2018-04-25T09:45:58Z</time>
      </trkpt>
      <trkpt lat="47.67957" lon="6.06346">
        <ele>264.45</ele>
        <time>2018-04-25T09:46:01Z</time>
      </trkpt>
      <trkpt lat="47.67962" lon="6.0635">
        <ele>264.51</ele>
        <time>2018-04-25T09:46:06Z</time>
      </trkpt>
      <trkpt lat="47.67966" lon="6.06353">
        <ele>264.57</ele>
        <time>2018-04-25T09:46:10Z</time>
      </trkpt>
      <trkpt lat="47.6797" lon="6.06357">
        <ele>264.66</ele>
        <time>2018-04-25T09:46:15Z</time>
      </trkpt>
      <trkpt lat="47.67974" lon="6.06361">
        <ele>264.72</ele>
        <time>2018-04-25T09:46:18Z</time>
      </trkpt>
      <trkpt lat="47.67978" lon="6.06366">
        <ele>264.78</ele>
        <time>2018-04-25T09:46:22Z</time>
      </trkpt>
      <trkpt lat="47.67982" lon="6.06374">
        <ele>264.88</ele>
        <time>2018-04-25T09:46:26Z</time>
      </trkpt>
      <trkpt lat="47.67986" lon="6.0638">
        <ele>264.93</ele>
        <time>2018-04-25T09:46:28Z</time>
      </trkpt>
      <trkpt lat="47.67989" lon="6.06387">
        <ele>265.04</ele>
        <time>2018-04-25T09:46:32Z</time>
      </trkpt>
      <trkpt lat="47.67995" lon="6.06392">
        <ele>265.13</ele>
        <time>2018-04-25T09:46:35Z</time>
      </trkpt>
      <trkpt lat="47.67998" lon="6.06398">
        <ele>265.22</ele>
        <time>2018-04-25T09:46:38Z</time>
      </trkpt>
      <trkpt lat="47.68001" lon="6.06403">
        <ele>265.29</ele>
        <time>2018-04-25T09:46:40Z</time>
      </trkpt>
      <trkpt lat="47.68004" lon="6.06409">
        <ele>265.35</ele>
        <time>2018-04-25T09:46:42Z</time>
      </trkpt>
      <trkpt lat="47.68005" lon="6.06419">
        <ele>265.44</ele>
        <time>2018-04-25T09:46:45Z</time>
      </trkpt>
      <trkpt lat="47.68009" lon="6.06424">
        <ele>265.49</ele>
        <time>2018-04-25T09:46:47Z</time>
      </trkpt>
      <trkpt lat="47.68014" lon="6.06434">
        <ele>265.55</ele>
        <time>2018-04-25T09:46:49Z</time>
      </trkpt>
      <trkpt lat="47.68017" lon="6.06439">
        <ele>265.61</ele>
        <time>2018-04-25T09:46:51Z</time>
      </trkpt>
      <trkpt lat="47.6802" lon="6.06444">
        <ele>265.66</ele>
        <time>2018-04-25T09:46:53Z</time>
      </trkpt>
      <trkpt lat="47.68023" lon="6.06449">
        <ele>265.69</ele>
        <time>2018-04-25T09:46:54Z</time>
      </trkpt>
      <trkpt lat="47.68026" lon="6.06458">
        <ele>265.74</ele>
        <time>2018-04-25T09:46:56Z</time>
      </trkpt>
      <trkpt lat="47.68028" lon="6.06465">
        <ele>265.82</ele>
        <time>2018-04-25T09:46:59Z</time>
      </trkpt>
      <trkpt lat="47.68032" lon="6.0647">
        <ele>265.9</ele>
        <time>2018-04-25T09:47:02Z</time>
      </trkpt>
      <trkpt lat="47.68032" lon="6.06477">
        <ele>265.96</ele>
        <time>2018-04-25T09:47:05Z</time>
      </trkpt>
      <trkpt lat="47.68034" lon="6.06485">
        <ele>266.01</ele>
        <time>2018-04-25T09:47:07Z</time>
      </trkpt>
      <trkpt lat="47.68037" lon="6.06492">
        <ele>266.05</ele>
        <time>2018-04-25T09:47:09Z</time>
      </trkpt>
      <trkpt lat="47.68039" lon="6.065">
        <ele>266.09</ele>
        <time>2018-04-25T09:47:11Z</time>
      </trkpt>
      <trkpt lat="47.68041" lon="6.06512">
        <ele>266.12</ele>
        <time>2018-04-25T09:47:13Z</time>
      </trkpt>
      <trkpt lat="47.68041" lon="6.0652">
        <ele>266.16</ele>
        <time>2018-04-25T09:47:15Z</time>
      </trkpt>
      <trkpt lat="47.68044" lon="6.0653">
        <ele>266.18</ele>
        <time>2018-04-25T09:47:17Z</time>
      </trkpt>
      <trkpt lat="47.68047" lon="6.06536">
        <ele>266.2</ele>
        <time>2018-04-25T09:47:19Z</time>
      </trkpt>
      <trkpt lat="47.68051" lon="6.06547">
        <ele>266.22</ele>
        <time>2018-04-25T09:47:21Z</time>
      </trkpt>
      <trkpt lat="47.68057" lon="6.06556">
        <ele>266.23</ele>
        <time>2018-04-25T09:47:23Z</time>
      </trkpt>
      <trkpt lat="47.68061" lon="6.06561">
        <ele>266.24</ele>
        <time>2018-04-25T09:47:25Z</time>
      </trkpt>
      <trkpt lat="47.68064" lon="6.06567">
        <ele>266.25</ele>
        <time>2018-04-25T09:47:27Z</time>
      </trkpt>
      <trkpt lat="47.68068" lon="6.06572">
        <ele>266.27</ele>
        <time>2018-04-25T09:47:30Z</time>
      </trkpt>
      <trkpt lat="47.68078" lon="6.06581">
        <ele>266.28</ele>
        <time>2018-04-25T09:47:32Z</time>
      </trkpt>
      <trkpt lat="47.68084" lon="6.06585">
        <ele>266.28</ele>
        <time>2018-04-25T09:47:33Z</time>
      </trkpt>
      <trkpt lat="47.68089" lon="6.06589">
        <ele>266.29</ele>
        <time>2018-04-25T09:47:35Z</time>
      </trkpt>
      <trkpt lat="47.68096" lon="6.06596">
        <ele>266.3</ele>
        <time>2018-04-25T09:47:38Z</time>
      </trkpt>
      <trkpt lat="47.681" lon="6.06599">
        <ele>266.3</ele>
        <time>2018-04-25T09:47:39Z</time>
      </trkpt>
      <trkpt lat="47.68106" lon="6.06603">
        <ele>266.31</ele>
        <time>2018-04-25T09:47:40Z</time>
      </trkpt>
      <trkpt lat="47.68112" lon="6.0661">
        <ele>266.31</ele>
        <time>2018-04-25T09:47:41Z</time>
      </trkpt>
      <trkpt lat="47.68117" lon="6.06612">
        <ele>266.33</ele>
        <time>2018-04-25T09:47:43Z</time>
      </trkpt>
      <trkpt lat="47.68121" lon="6.06617">
        <ele>266.34</ele>
        <time>2018-04-25T09:47:45Z</time>
      </trkpt>
      <trkpt lat="47.68122" lon="6.06623">
        <ele>266.36</ele>
        <time>2018-04-25T09:47:48Z</time>
      </trkpt>
      <trkpt lat="47.68123" lon="6.06631">
        <ele>266.39</ele>
        <time>2018-04-25T09:47:53Z</time>
      </trkpt>
      <trkpt lat="47.68124" lon="6.06638">
        <ele>266.4</ele>
        <time>2018-04-25T09:47:56Z</time>
      </trkpt>
      <trkpt lat="47.68126" lon="6.06645">
        <ele>266.43</ele>
        <time>2018-04-25T09:48:00Z</time>
      </trkpt>
      <trkpt lat="47.68127" lon="6.06653">
        <ele>266.45</ele>
        <time>2018-04-25T09:48:02Z</time>
      </trkpt>
      <trkpt lat="47.68128" lon="6.0666">
        <ele>266.47</ele>
        <time>2018-04-25T09:48:06Z</time>
      </trkpt>
      <trkpt lat="47.68131" lon="6.06664">
        <ele>266.5</ele>
        <time>2018-04-25T09:48:09Z</time>
      </trkpt>
      <trkpt lat="47.68134" lon="6.06671">
        <ele>266.51</ele>
        <time>2018-04-25T09:48:11Z</time>
      </trkpt>
      <trkpt lat="47.68136" lon="6.06678">
        <ele>266.54</ele>
        <time>2018-04-25T09:48:14Z</time>
      </trkpt>
      <trkpt lat="47.68139" lon="6.06685">
        <ele>266.6</ele>
        <time>2018-04-25T09:48:19Z</time>
      </trkpt>
      <trkpt lat="47.68141" lon="6.06692">
        <ele>266.63</ele>
        <time>2018-04-25T09:48:22Z</time>
      </trkpt>
      <trkpt lat="47.68143" lon="6.06699">
        <ele>266.66</ele>
        <time>2018-04-25T09:48:25Z</time>
      </trkpt>
      <trkpt lat="47.68144" lon="6.0671">
        <ele>266.68</ele>
        <time>2018-04-25T09:48:28Z</time>
      </trkpt>
      <trkpt lat="47.68147" lon="6.06717">
        <ele>266.7</ele>
        <time>2018-04-25T09:48:30Z</time>
      </trkpt>
      <trkpt lat="47.68149" lon="6.06724">
        <ele>266.71</ele>
        <time>2018-04-25T09:48:32Z</time>
      </trkpt>
      <trkpt lat="47.68151" lon="6.06734">
        <ele>266.72</ele>
        <time>2018-04-25T09:48:34Z</time>
      </trkpt>
      <trkpt lat="47.68155" lon="6.06738">
        <ele>266.73</ele>
        <time>2018-04-25T09:48:36Z</time>
      </trkpt>
      <trkpt lat="47.68159" lon="6.06746">
        <ele>266.74</ele>
        <time>2018-04-25T09:48:39Z</time>
      </trkpt>
      <trkpt lat="47.68163" lon="6.06754">
        <ele>266.76</ele>
        <time>2018-04-25T09:48:42Z</time>
      </trkpt>
      <trkpt lat="47.68167" lon="6.0676">
        <ele>266.77</ele>
        <time>2018-04-25T09:48:45Z</time>
      </trkpt>
      <trkpt lat="47.68171" lon="6.06765">
        <ele>266.79</ele>
        <time>2018-04-25T09:48:48Z</time>
      </trkpt>
      <trkpt lat="47.68173" lon="6.06772">
        <ele>266.8</ele>
        <time>2018-04-25T09:48:50Z</time>
      </trkpt>
      <trkpt lat="47.68176" lon="6.06779">
        <ele>266.81</ele>
        <time>2018-04-25T09:48:55Z</time>
      </trkpt>
      <trkpt lat="47.68181" lon="6.06784">
        <ele>266.82</ele>
        <time>2018-04-25T09:48:57Z</time>
      </trkpt>
      <trkpt lat="47.68185" lon="6.06788">
        <ele>266.82</ele>
        <time>2018-04-25T09:48:59Z</time>
      </trkpt>
      <trkpt lat="47.68191" lon="6.06791">
        <ele>266.84</ele>
        <time>2018-04-25T09:49:05Z</time>
      </trkpt>
      <trkpt lat="47.68196" lon="6.06794">
        <ele>266.85</ele>
        <time>2018-04-25T09:49:07Z</time>
      </trkpt>
      <trkpt lat="47.682" lon="6.06799">
        <ele>266.85</ele>
        <time>2018-04-25T09:49:11Z</time>
      </trkpt>
      <trkpt lat="47.68203" lon="6.06806">
        <ele>266.85</ele>
        <time>2018-04-25T09:49:14Z</time>
      </trkpt>
      <trkpt lat="47.68207" lon="6.06811">
        <ele>266.85</ele>
        <time>2018-04-25T09:49:16Z</time>
      </trkpt>
      <trkpt lat="47.68213" lon="6.06815">
        <ele>266.85</ele>
        <time>2018-04-25T09:49:19Z</time>
      </trkpt>
      <trkpt lat="47.68219" lon="6.06816">
        <ele>266.84</ele>
        <time>2018-04-25T09:49:21Z</time>
      </trkpt>
      <trkpt lat="47.68223" lon="6.06813">
        <ele>266.83</ele>
        <time>2018-04-25T09:49:23Z</time>
      </trkpt>
      <trkpt lat="47.68229" lon="6.06807">
        <ele>266.81</ele>
        <time>2018-04-25T09:49:25Z</time>
      </trkpt>
      <trkpt lat="47.68232" lon="6.06802">
        <ele>266.79</ele>
        <time>2018-04-25T09:49:27Z</time>
      </trkpt>
      <trkpt lat="47.68237" lon="6.06799">
        <ele>266.75</ele>
        <time>2018-04-25T09:49:30Z</time>
      </trkpt>
      <trkpt lat="47.68239" lon="6.06793">
        <ele>266.71</ele>
        <time>2018-04-25T09:49:33Z</time>
      </trkpt>
      <trkpt lat="47.68241" lon="6.06787">
        <ele>266.66</ele>
        <time>2018-04-25T09:49:36Z</time>
      </trkpt>
      <trkpt lat="47.68244" lon="6.0678">
        <ele>266.6</ele>
        <time>2018-04-25T09:49:39Z</time>
      </trkpt>
      <trkpt lat="47.68246" lon="6.06774">
        <ele>266.56</ele>
        <time>2018-04-25T09:49:41Z</time>
      </trkpt>
      <trkpt lat="47.68249" lon="6.06767">
        <ele>266.49</ele>
        <time>2018-04-25T09:49:44Z</time>
      </trkpt>
      <trkpt lat="47.68253" lon="6.06761">
        <ele>266.42</ele>
        <time>2018-04-25T09:49:47Z</time>
      </trkpt>
      <trkpt lat="47.68257" lon="6.06755">
        <ele>266.35</ele>
        <time>2018-04-25T09:49:50Z</time>
      </trkpt>
      <trkpt lat="47.6826" lon="6.0675">
        <ele>266.3</ele>
        <time>2018-04-25T09:49:52Z</time>
      </trkpt>
      <trkpt lat="47.68263" lon="6.06744">
        <ele>266.22</ele>
        <time>2018-04-25T09:49:55Z</time>
      </trkpt>
      <trkpt lat="47.68266" lon="6.06738">
        <ele>266.14</ele>
        <time>2018-04-25T09:49:58Z</time>
      </trkpt>
      <trkpt lat="47.68269" lon="6.0673">
        <ele>266.05</ele>
        <time>2018-04-25T09:50:01Z</time>
      </trkpt>
      <trkpt lat="47.68274" lon="6.06724">
        <ele>265.97</ele>
        <time>2018-04-25T09:50:04Z</time>
      </trkpt>
      <trkpt lat="47.68277" lon="6.06719">
        <ele>265.91</ele>
        <time>2018-04-25T09:50:06Z</time>
      </trkpt>
      <trkpt lat="47.6828" lon="6.06714">
        <ele>265.85</ele>
        <time>2018-04-25T09:50:08Z</time>
      </trkpt>
      <trkpt lat="47.68284" lon="6.06706">
        <ele>265.79</ele>
        <time>2018-04-25T09:50:10Z</time>
      </trkpt>
      <trkpt lat="47.68287" lon="6.06697">
        <ele>265.72</ele>
        <time>2018-04-25T09:50:12Z</time>
      </trkpt>
      <trkpt lat="47.68292" lon="6.06689">
        <ele>265.66</ele>
        <time>2018-04-25T09:50:14Z</time>
      </trkpt>
      <trkpt lat="47.68296" lon="6.06683">
        <ele>265.6</ele>
        <time>2018-04-25T09:50:16Z</time>
      </trkpt>
      <trkpt lat="47.68302" lon="6.06678">
        <ele>265.54</ele>
        <time>2018-04-25T09:50:18Z</time>
      </trkpt>
      <trkpt lat="47.68305" lon="6.06668">
        <ele>265.47</ele>
        <time>2018-04-25T09:50:20Z</time>
      </trkpt>
      <trkpt lat="47.68309" lon="6.0666">
        <ele>265.41</ele>
        <time>2018-04-25T09:50:22Z</time>
      </trkpt>
      <trkpt lat="47.68314" lon="6.0665">
        <ele>265.34</ele>
        <time>2018-04-25T09:50:24Z</time>
      </trkpt>
      <trkpt lat="47.68318" lon="6.06642">
        <ele>265.26</ele>
        <time>2018-04-25T09:50:26Z</time>
      </trkpt>
      <trkpt lat="47.68323" lon="6.06632">
        <ele>265.19</ele>
        <time>2018-04-25T09:50:28Z</time>
      </trkpt>
      <trkpt lat="47.68327" lon="6.06622">
        <ele>265.11</ele>
        <time>2018-04-25T09:50:30Z</time>
      </trkpt>
      <trkpt lat="47.68331" lon="6.06611">
        <ele>265.03</ele>
        <time>2018-04-25T09:50:32Z</time>
      </trkpt>
      <trkpt lat="47.68333" lon="6.06605">
        <ele>265</ele>
        <time>2018-04-25T09:50:33Z</time>
      </trkpt>
      <trkpt lat="47.68335" lon="6.06599">
        <ele>264.96</ele>
        <time>2018-04-25T09:50:34Z</time>
      </trkpt>
      <trkpt lat="47.68339" lon="6.06591">
        <ele>264.62</ele>
        <time>2018-04-25T09:50:36Z</time>
      </trkpt>
      <trkpt lat="47.68343" lon="6.06582">
        <ele>264.45</ele>
        <time>2018-04-25T09:50:38Z</time>
      </trkpt>
      <trkpt lat="47.68346" lon="6.06573">
        <ele>264.37</ele>
        <time>2018-04-25T09:50:40Z</time>
      </trkpt>
      <trkpt lat="47.68349" lon="6.06565">
        <ele>264.3</ele>
        <time>2018-04-25T09:50:42Z</time>
      </trkpt>
      <trkpt lat="47.68351" lon="6.06553">
        <ele>264.23</ele>
        <time>2018-04-25T09:50:44Z</time>
      </trkpt>
      <trkpt lat="47.68353" lon="6.06547">
        <ele>264.19</ele>
        <time>2018-04-25T09:50:45Z</time>
      </trkpt>
      <trkpt lat="47.68356" lon="6.06537">
        <ele>264.12</ele>
        <time>2018-04-25T09:50:47Z</time>
      </trkpt>
      <trkpt lat="47.68357" lon="6.06525">
        <ele>264.07</ele>
        <time>2018-04-25T09:50:48Z</time>
      </trkpt>
      <trkpt lat="47.68358" lon="6.06516">
        <ele>264.01</ele>
        <time>2018-04-25T09:50:49Z</time>
      </trkpt>
      <trkpt lat="47.68358" lon="6.06506">
        <ele>263.88</ele>
        <time>2018-04-25T09:50:51Z</time>
      </trkpt>
      <trkpt lat="47.6836" lon="6.06495">
        <ele>263.73</ele>
        <time>2018-04-25T09:50:53Z</time>
      </trkpt>
      <trkpt lat="47.68363" lon="6.06487">
        <ele>263.56</ele>
        <time>2018-04-25T09:50:55Z</time>
      </trkpt>
      <trkpt lat="47.68366" lon="6.06478">
        <ele>263.36</ele>
        <time>2018-04-25T09:50:57Z</time>
      </trkpt>
      <trkpt lat="47.68369" lon="6.06469">
        <ele>263.14</ele>
        <time>2018-04-25T09:50:59Z</time>
      </trkpt>
      <trkpt lat="47.68372" lon="6.0646">
        <ele>262.89</ele>
        <time>2018-04-25T09:51:01Z</time>
      </trkpt>
      <trkpt lat="47.68375" lon="6.06451">
        <ele>262.63</ele>
        <time>2018-04-25T09:51:03Z</time>
      </trkpt>
      <trkpt lat="47.68378" lon="6.06441">
        <ele>262.35</ele>
        <time>2018-04-25T09:51:05Z</time>
      </trkpt>
      <trkpt lat="47.68381" lon="6.06432">
        <ele>262.05</ele>
        <time>2018-04-25T09:51:07Z</time>
      </trkpt>
      <trkpt lat="47.68386" lon="6.06423">
        <ele>261.73</ele>
        <time>2018-04-25T09:51:09Z</time>
      </trkpt>
      <trkpt lat="47.6839" lon="6.06415">
        <ele>261.41</ele>
        <time>2018-04-25T09:51:11Z</time>
      </trkpt>
      <trkpt lat="47.68392" lon="6.06407">
        <ele>261.09</ele>
        <time>2018-04-25T09:51:13Z</time>
      </trkpt>
      <trkpt lat="47.68396" lon="6.06396">
        <ele>260.76</ele>
        <time>2018-04-25T09:51:15Z</time>
      </trkpt>
      <trkpt lat="47.684" lon="6.06384">
        <ele>259.05</ele>
        <time>2018-04-25T09:51:17Z</time>
      </trkpt>
      <trkpt lat="47.68402" lon="6.06374">
        <ele>257.46</ele>
        <time>2018-04-25T09:51:19Z</time>
      </trkpt>
      <trkpt lat="47.68406" lon="6.06364">
        <ele>255.39</ele>
        <time>2018-04-25T09:51:21Z</time>
      </trkpt>
      <trkpt lat="47.6841" lon="6.06354">
        <ele>253.58</ele>
        <time>2018-04-25T09:51:23Z</time>
      </trkpt>
      <trkpt lat="47.68413" lon="6.06344">
        <ele>252.17</ele>
        <time>2018-04-25T09:51:25Z</time>
      </trkpt>
      <trkpt lat="47.68417" lon="6.06336">
        <ele>251.81</ele>
        <time>2018-04-25T09:51:27Z</time>
      </trkpt>
      <trkpt lat="47.68421" lon="6.06326">
        <ele>251.65</ele>
        <time>2018-04-25T09:51:29Z</time>
      </trkpt>
      <trkpt lat="47.68424" lon="6.06318">
        <ele>251.49</ele>
        <time>2018-04-25T09:51:31Z</time>
      </trkpt>
      <trkpt lat="47.68427" lon="6.06308">
        <ele>251.32</ele>
        <time>2018-04-25T09:51:33Z</time>
      </trkpt>
      <trkpt lat="47.6843" lon="6.06298">
        <ele>251.12</ele>
        <time>2018-04-25T09:51:35Z</time>
      </trkpt>
      <trkpt lat="47.68431" lon="6.06288">
        <ele>250.92</ele>
        <time>2018-04-25T09:51:37Z</time>
      </trkpt>
      <trkpt lat="47.68432" lon="6.0628">
        <ele>250.7</ele>
        <time>2018-04-25T09:51:39Z</time>
      </trkpt>
      <trkpt lat="47.68435" lon="6.06275">
        <ele>250.35</ele>
        <time>2018-04-25T09:51:42Z</time>
      </trkpt>
      <trkpt lat="47.68439" lon="6.06266">
        <ele>249.53</ele>
        <time>2018-04-25T09:52:17Z</time>
      </trkpt>
      <trkpt lat="47.68436" lon="6.0626">
        <ele>248.27</ele>
        <time>2018-04-25T09:52:58Z</time>
      </trkpt>
      <trkpt lat="47.68438" lon="6.06252">
        <ele>247.99</ele>
        <time>2018-04-25T09:53:00Z</time>
      </trkpt>
      <trkpt lat="47.6844" lon="6.06243">
        <ele>247.72</ele>
        <time>2018-04-25T09:53:02Z</time>
      </trkpt>
      <trkpt lat="47.68442" lon="6.06234">
        <ele>247.44</ele>
        <time>2018-04-25T09:53:04Z</time>
      </trkpt>
      <trkpt lat="47.68445" lon="6.06223">
        <ele>247.17</ele>
        <time>2018-04-25T09:53:06Z</time>
      </trkpt>
      <trkpt lat="47.68448" lon="6.06212">
        <ele>246.9</ele>
        <time>2018-04-25T09:53:08Z</time>
      </trkpt>
      <trkpt lat="47.6845" lon="6.06203">
        <ele>246.64</ele>
        <time>2018-04-25T09:53:10Z</time>
      </trkpt>
      <trkpt lat="47.68453" lon="6.06193">
        <ele>246.38</ele>
        <time>2018-04-25T09:53:12Z</time>
      </trkpt>
      <trkpt lat="47.68457" lon="6.06183">
        <ele>246.13</ele>
        <time>2018-04-25T09:53:14Z</time>
      </trkpt>
      <trkpt lat="47.68459" lon="6.06174">
        <ele>245.88</ele>
        <time>2018-04-25T09:53:16Z</time>
      </trkpt>
      <trkpt lat="47.68462" lon="6.06164">
        <ele>245.65</ele>
        <time>2018-04-25T09:53:18Z</time>
      </trkpt>
      <trkpt lat="47.68465" lon="6.06154">
        <ele>245.42</ele>
        <time>2018-04-25T09:53:20Z</time>
      </trkpt>
      <trkpt lat="47.68468" lon="6.06145">
        <ele>245.19</ele>
        <time>2018-04-25T09:53:22Z</time>
      </trkpt>
      <trkpt lat="47.68471" lon="6.06137">
        <ele>244.98</ele>
        <time>2018-04-25T09:53:24Z</time>
      </trkpt>
      <trkpt lat="47.68474" lon="6.06129">
        <ele>244.77</ele>
        <time>2018-04-25T09:53:26Z</time>
      </trkpt>
      <trkpt lat="47.68476" lon="6.0612">
        <ele>244.57</ele>
        <time>2018-04-25T09:53:28Z</time>
      </trkpt>
      <trkpt lat="47.68479" lon="6.0611">
        <ele>244.38</ele>
        <time>2018-04-25T09:53:30Z</time>
      </trkpt>
      <trkpt lat="47.68482" lon="6.06102">
        <ele>244.2</ele>
        <time>2018-04-25T09:53:32Z</time>
      </trkpt>
      <trkpt lat="47.68485" lon="6.06094">
        <ele>244.03</ele>
        <time>2018-04-25T09:53:34Z</time>
      </trkpt>
      <trkpt lat="47.68488" lon="6.06085">
        <ele>243.86</ele>
        <time>2018-04-25T09:53:36Z</time>
      </trkpt>
      <trkpt lat="47.68491" lon="6.06077">
        <ele>243.7</ele>
        <time>2018-04-25T09:53:38Z</time>
      </trkpt>
      <trkpt lat="47.68495" lon="6.0607">
        <ele>243.55</ele>
        <time>2018-04-25T09:53:40Z</time>
      </trkpt>
      <trkpt lat="47.68498" lon="6.06062">
        <ele>243.4</ele>
        <time>2018-04-25T09:53:42Z</time>
      </trkpt>
      <trkpt lat="47.68501" lon="6.06053">
        <ele>243.26</ele>
        <time>2018-04-25T09:53:44Z</time>
      </trkpt>
      <trkpt lat="47.68503" lon="6.06045">
        <ele>243.13</ele>
        <time>2018-04-25T09:53:46Z</time>
      </trkpt>
      <trkpt lat="47.68507" lon="6.06036">
        <ele>243</ele>
        <time>2018-04-25T09:53:48Z</time>
      </trkpt>
      <trkpt lat="47.68511" lon="6.06026">
        <ele>242.87</ele>
        <time>2018-04-25T09:53:50Z</time>
      </trkpt>
      <trkpt lat="47.68515" lon="6.06016">
        <ele>241.96</ele>
        <time>2018-04-25T09:53:52Z</time>
      </trkpt>
      <trkpt lat="47.68519" lon="6.06006">
        <ele>241.22</ele>
        <time>2018-04-25T09:53:54Z</time>
      </trkpt>
      <trkpt lat="47.68523" lon="6.05995">
        <ele>240.73</ele>
        <time>2018-04-25T09:53:56Z</time>
      </trkpt>
      <trkpt lat="47.68528" lon="6.05984">
        <ele>240.43</ele>
        <time>2018-04-25T09:53:58Z</time>
      </trkpt>
      <trkpt lat="47.68533" lon="6.05972">
        <ele>240.23</ele>
        <time>2018-04-25T09:54:00Z</time>
      </trkpt>
      <trkpt lat="47.68537" lon="6.05962">
        <ele>240.1</ele>
        <time>2018-04-25T09:54:02Z</time>
      </trkpt>
      <trkpt lat="47.6854" lon="6.05952">
        <ele>240.07</ele>
        <time>2018-04-25T09:54:04Z</time>
      </trkpt>
      <trkpt lat="47.68544" lon="6.05943">
        <ele>240.06</ele>
        <time>2018-04-25T09:54:06Z</time>
      </trkpt>
      <trkpt lat="47.68547" lon="6.05934">
        <ele>240.06</ele>
        <time>2018-04-25T09:54:08Z</time>
      </trkpt>
      <trkpt lat="47.68551" lon="6.05925">
        <ele>240.05</ele>
        <time>2018-04-25T09:54:10Z</time>
      </trkpt>
      <trkpt lat="47.68555" lon="6.05916">
        <ele>240.05</ele>
        <time>2018-04-25T09:54:12Z</time>
      </trkpt>
      <trkpt lat="47.68558" lon="6.05908">
        <ele>240.04</ele>
        <time>2018-04-25T09:54:14Z</time>
      </trkpt>
      <trkpt lat="47.68561" lon="6.05901">
        <ele>240.04</ele>
        <time>2018-04-25T09:54:16Z</time>
      </trkpt>
      <trkpt lat="47.68565" lon="6.05891">
        <ele>240.04</ele>
        <time>2018-04-25T09:54:18Z</time>
      </trkpt>
      <trkpt lat="47.68569" lon="6.05882">
        <ele>240.03</ele>
        <time>2018-04-25T09:54:20Z</time>
      </trkpt>
      <trkpt lat="47.68573" lon="6.05872">
        <ele>240.01</ele>
        <time>2018-04-25T09:54:22Z</time>
      </trkpt>
      <trkpt lat="47.68576" lon="6.05866">
        <ele>240</ele>
        <time>2018-04-25T09:54:23Z</time>
      </trkpt>
      <trkpt lat="47.6858" lon="6.05855">
        <ele>239.98</ele>
        <time>2018-04-25T09:54:25Z</time>
      </trkpt>
      <trkpt lat="47.68584" lon="6.05845">
        <ele>239.98</ele>
        <time>2018-04-25T09:54:27Z</time>
      </trkpt>
      <trkpt lat="47.68589" lon="6.05833">
        <ele>239.97</ele>
        <time>2018-04-25T09:54:29Z</time>
      </trkpt>
      <trkpt lat="47.68593" lon="6.05822">
        <ele>239.97</ele>
        <time>2018-04-25T09:54:31Z</time>
      </trkpt>
      <trkpt lat="47.68597" lon="6.05812">
        <ele>239.97</ele>
        <time>2018-04-25T09:54:33Z</time>
      </trkpt>
      <trkpt lat="47.68599" lon="6.05806">
        <ele>239.98</ele>
        <time>2018-04-25T09:54:34Z</time>
      </trkpt>
      <trkpt lat="47.68602" lon="6.05799">
        <ele>239.98</ele>
        <time>2018-04-25T09:54:35Z</time>
      </trkpt>
      <trkpt lat="47.68607" lon="6.0579">
        <ele>239.99</ele>
        <time>2018-04-25T09:54:37Z</time>
      </trkpt>
      <trkpt lat="47.68612" lon="6.05781">
        <ele>240</ele>
        <time>2018-04-25T09:54:39Z</time>
      </trkpt>
      <trkpt lat="47.68617" lon="6.05772">
        <ele>240</ele>
        <time>2018-04-25T09:54:41Z</time>
      </trkpt>
      <trkpt lat="47.68621" lon="6.05764">
        <ele>240.01</ele>
        <time>2018-04-25T09:54:43Z</time>
      </trkpt>
      <trkpt lat="47.68623" lon="6.05758">
        <ele>240.02</ele>
        <time>2018-04-25T09:55:01Z</time>
      </trkpt>
      <trkpt lat="47.6862" lon="6.05764">
        <ele>239.97</ele>
        <time>2018-04-25T09:55:21Z</time>
      </trkpt>
      <trkpt lat="47.68624" lon="6.0576">
        <ele>239.79</ele>
        <time>2018-04-25T09:56:09Z</time>
      </trkpt>
      <trkpt lat="47.68627" lon="6.05755">
        <ele>239.8</ele>
        <time>2018-04-25T09:56:36Z</time>
      </trkpt>
      <trkpt lat="47.68631" lon="6.05749">
        <ele>239.86</ele>
        <time>2018-04-25T09:56:42Z</time>
      </trkpt>
      <trkpt lat="47.68636" lon="6.0575">
        <ele>240.21</ele>
        <time>2018-04-25T09:57:54Z</time>
      </trkpt>
      <trkpt lat="47.68638" lon="6.05756">
        <ele>240.06</ele>
        <time>2018-04-25T10:05:31Z</time>
      </trkpt>
    </trkseg>
  </trk>
</gpx>